<?xml version="1.0" encoding="UTF-8" standalone="no" ?>
<gpx xmlns="http://www.topografix.com/GPX/1/1" xmlns:xsi="http://www.w3.org/2001/XMLSchema-instance" xsi:schemaLocation="http://www.topografix.com/GPX/1/1 http://www.topografix.com/GPX/1/1/gpx.xsd" version="1.1" creator="VisuGPX - https://www.visugpx.com">
  <metadata>
    <name>Rando de Moyenmoutiers</name>
    <desc><![CDATA[Rando du 15 avril 2012]]></desc>
  </metadata>
  <trk>
    <name><![CDATA[Rando de Moyenmoutiers_1]]></name>
    <trkseg>
      <trkpt lat="48.37749" lon="6.90083">
        <ele>317.047241</ele>
        <time>2012-04-15T06:43:45Z</time>
      </trkpt>
      <trkpt lat="48.37753" lon="6.9007">
        <ele>317.003936</ele>
        <time>2012-04-15T06:44:56Z</time>
      </trkpt>
      <trkpt lat="48.37753" lon="6.90066">
        <ele>316.937805</ele>
        <time>2012-04-15T06:44:57Z</time>
      </trkpt>
      <trkpt lat="48.37757" lon="6.90051">
        <ele>317.1</ele>
        <time>2012-04-15T06:45:00Z</time>
      </trkpt>
      <trkpt lat="48.37763" lon="6.90043">
        <ele>317</ele>
        <time>2012-04-15T06:45:03Z</time>
      </trkpt>
      <trkpt lat="48.3777" lon="6.90049">
        <ele>317</ele>
        <time>2012-04-15T06:45:06Z</time>
      </trkpt>
      <trkpt lat="48.37776" lon="6.90049">
        <ele>317.2</ele>
        <time>2012-04-15T06:45:08Z</time>
      </trkpt>
      <trkpt lat="48.37782" lon="6.90045">
        <ele>317.1</ele>
        <time>2012-04-15T06:45:10Z</time>
      </trkpt>
      <trkpt lat="48.37789" lon="6.9004">
        <ele>317.2</ele>
        <time>2012-04-15T06:45:12Z</time>
      </trkpt>
      <trkpt lat="48.37795" lon="6.90031">
        <ele>317.2</ele>
        <time>2012-04-15T06:45:14Z</time>
      </trkpt>
      <trkpt lat="48.37797" lon="6.90025">
        <ele>317.6</ele>
        <time>2012-04-15T06:45:15Z</time>
      </trkpt>
      <trkpt lat="48.37798" lon="6.90019">
        <ele>317.8</ele>
        <time>2012-04-15T06:45:16Z</time>
      </trkpt>
      <trkpt lat="48.37799" lon="6.90012">
        <ele>318</ele>
        <time>2012-04-15T06:45:17Z</time>
      </trkpt>
      <trkpt lat="48.378" lon="6.90005">
        <ele>317.8</ele>
        <time>2012-04-15T06:45:18Z</time>
      </trkpt>
      <trkpt lat="48.37801" lon="6.89999">
        <ele>317.6</ele>
        <time>2012-04-15T06:45:19Z</time>
      </trkpt>
      <trkpt lat="48.37802" lon="6.89992">
        <ele>317.5</ele>
        <time>2012-04-15T06:45:20Z</time>
      </trkpt>
      <trkpt lat="48.37804" lon="6.89985">
        <ele>317.3</ele>
        <time>2012-04-15T06:45:21Z</time>
      </trkpt>
      <trkpt lat="48.37805" lon="6.89977">
        <ele>317.2</ele>
        <time>2012-04-15T06:45:22Z</time>
      </trkpt>
      <trkpt lat="48.37806" lon="6.89969">
        <ele>317.1</ele>
        <time>2012-04-15T06:45:23Z</time>
      </trkpt>
      <trkpt lat="48.37808" lon="6.89961">
        <ele>317</ele>
        <time>2012-04-15T06:45:24Z</time>
      </trkpt>
      <trkpt lat="48.37809" lon="6.89953">
        <ele>317</ele>
        <time>2012-04-15T06:45:25Z</time>
      </trkpt>
      <trkpt lat="48.37811" lon="6.89945">
        <ele>317.1</ele>
        <time>2012-04-15T06:45:26Z</time>
      </trkpt>
      <trkpt lat="48.37812" lon="6.89937">
        <ele>317.1</ele>
        <time>2012-04-15T06:45:27Z</time>
      </trkpt>
      <trkpt lat="48.37813" lon="6.89929">
        <ele>317.2</ele>
        <time>2012-04-15T06:45:28Z</time>
      </trkpt>
      <trkpt lat="48.37814" lon="6.89922">
        <ele>317.3</ele>
        <time>2012-04-15T06:45:29Z</time>
      </trkpt>
      <trkpt lat="48.37816" lon="6.89913">
        <ele>317.3</ele>
        <time>2012-04-15T06:45:30Z</time>
      </trkpt>
      <trkpt lat="48.37817" lon="6.89905">
        <ele>317.1</ele>
        <time>2012-04-15T06:45:31Z</time>
      </trkpt>
      <trkpt lat="48.37818" lon="6.89898">
        <ele>316.9</ele>
        <time>2012-04-15T06:45:32Z</time>
      </trkpt>
      <trkpt lat="48.37819" lon="6.8989">
        <ele>316.8</ele>
        <time>2012-04-15T06:45:33Z</time>
      </trkpt>
      <trkpt lat="48.3782" lon="6.89882">
        <ele>317.7</ele>
        <time>2012-04-15T06:45:34Z</time>
      </trkpt>
      <trkpt lat="48.37821" lon="6.89875">
        <ele>318.3</ele>
        <time>2012-04-15T06:45:35Z</time>
      </trkpt>
      <trkpt lat="48.37823" lon="6.89867">
        <ele>318.8</ele>
        <time>2012-04-15T06:45:36Z</time>
      </trkpt>
      <trkpt lat="48.37824" lon="6.8986">
        <ele>318.3</ele>
        <time>2012-04-15T06:45:37Z</time>
      </trkpt>
      <trkpt lat="48.37825" lon="6.89853">
        <ele>317.8</ele>
        <time>2012-04-15T06:45:38Z</time>
      </trkpt>
      <trkpt lat="48.37825" lon="6.89846">
        <ele>317.5</ele>
        <time>2012-04-15T06:45:39Z</time>
      </trkpt>
      <trkpt lat="48.37826" lon="6.89839">
        <ele>317.2</ele>
        <time>2012-04-15T06:45:40Z</time>
      </trkpt>
      <trkpt lat="48.37827" lon="6.89832">
        <ele>317.1</ele>
        <time>2012-04-15T06:45:41Z</time>
      </trkpt>
      <trkpt lat="48.37828" lon="6.89824">
        <ele>317</ele>
        <time>2012-04-15T06:45:42Z</time>
      </trkpt>
      <trkpt lat="48.37829" lon="6.89816">
        <ele>316.9</ele>
        <time>2012-04-15T06:45:43Z</time>
      </trkpt>
      <trkpt lat="48.37829" lon="6.89808">
        <ele>317</ele>
        <time>2012-04-15T06:45:44Z</time>
      </trkpt>
      <trkpt lat="48.37829" lon="6.89801">
        <ele>317</ele>
        <time>2012-04-15T06:45:45Z</time>
      </trkpt>
      <trkpt lat="48.3783" lon="6.89794">
        <ele>317.1</ele>
        <time>2012-04-15T06:45:46Z</time>
      </trkpt>
      <trkpt lat="48.3783" lon="6.89787">
        <ele>316.9</ele>
        <time>2012-04-15T06:45:47Z</time>
      </trkpt>
      <trkpt lat="48.3783" lon="6.8978">
        <ele>316.8</ele>
        <time>2012-04-15T06:45:48Z</time>
      </trkpt>
      <trkpt lat="48.3783" lon="6.89773">
        <ele>316.8</ele>
        <time>2012-04-15T06:45:49Z</time>
      </trkpt>
      <trkpt lat="48.3783" lon="6.89766">
        <ele>317.1</ele>
        <time>2012-04-15T06:45:50Z</time>
      </trkpt>
      <trkpt lat="48.37829" lon="6.89759">
        <ele>317.3</ele>
        <time>2012-04-15T06:45:51Z</time>
      </trkpt>
      <trkpt lat="48.37829" lon="6.89752">
        <ele>317.5</ele>
        <time>2012-04-15T06:45:52Z</time>
      </trkpt>
      <trkpt lat="48.37828" lon="6.89739">
        <ele>317.2</ele>
        <time>2012-04-15T06:45:54Z</time>
      </trkpt>
      <trkpt lat="48.37827" lon="6.89726">
        <ele>317</ele>
        <time>2012-04-15T06:45:56Z</time>
      </trkpt>
      <trkpt lat="48.37826" lon="6.89712">
        <ele>316.8</ele>
        <time>2012-04-15T06:45:58Z</time>
      </trkpt>
      <trkpt lat="48.37825" lon="6.89706">
        <ele>316.7</ele>
        <time>2012-04-15T06:45:59Z</time>
      </trkpt>
      <trkpt lat="48.37824" lon="6.89693">
        <ele>316.8</ele>
        <time>2012-04-15T06:46:01Z</time>
      </trkpt>
      <trkpt lat="48.37823" lon="6.89686">
        <ele>316.8</ele>
        <time>2012-04-15T06:46:02Z</time>
      </trkpt>
      <trkpt lat="48.37823" lon="6.89679">
        <ele>316.5</ele>
        <time>2012-04-15T06:46:03Z</time>
      </trkpt>
      <trkpt lat="48.37822" lon="6.89671">
        <ele>316.3</ele>
        <time>2012-04-15T06:46:04Z</time>
      </trkpt>
      <trkpt lat="48.37822" lon="6.89664">
        <ele>316.2</ele>
        <time>2012-04-15T06:46:05Z</time>
      </trkpt>
      <trkpt lat="48.37821" lon="6.89656">
        <ele>315.7</ele>
        <time>2012-04-15T06:46:06Z</time>
      </trkpt>
      <trkpt lat="48.37821" lon="6.89649">
        <ele>315.4</ele>
        <time>2012-04-15T06:46:07Z</time>
      </trkpt>
      <trkpt lat="48.3782" lon="6.89642">
        <ele>315.1</ele>
        <time>2012-04-15T06:46:08Z</time>
      </trkpt>
      <trkpt lat="48.3782" lon="6.89635">
        <ele>315</ele>
        <time>2012-04-15T06:46:09Z</time>
      </trkpt>
      <trkpt lat="48.37819" lon="6.89628">
        <ele>314.9</ele>
        <time>2012-04-15T06:46:10Z</time>
      </trkpt>
      <trkpt lat="48.37819" lon="6.8962">
        <ele>314.9</ele>
        <time>2012-04-15T06:46:11Z</time>
      </trkpt>
      <trkpt lat="48.37818" lon="6.89613">
        <ele>314.8</ele>
        <time>2012-04-15T06:46:12Z</time>
      </trkpt>
      <trkpt lat="48.37818" lon="6.89605">
        <ele>315.3</ele>
        <time>2012-04-15T06:46:13Z</time>
      </trkpt>
      <trkpt lat="48.37817" lon="6.89598">
        <ele>315.6</ele>
        <time>2012-04-15T06:46:14Z</time>
      </trkpt>
      <trkpt lat="48.37817" lon="6.8959">
        <ele>315.8</ele>
        <time>2012-04-15T06:46:15Z</time>
      </trkpt>
      <trkpt lat="48.37816" lon="6.89583">
        <ele>315.7</ele>
        <time>2012-04-15T06:46:16Z</time>
      </trkpt>
      <trkpt lat="48.37815" lon="6.89575">
        <ele>315.6</ele>
        <time>2012-04-15T06:46:17Z</time>
      </trkpt>
      <trkpt lat="48.37815" lon="6.89567">
        <ele>315.5</ele>
        <time>2012-04-15T06:46:18Z</time>
      </trkpt>
      <trkpt lat="48.37814" lon="6.8956">
        <ele>315.7</ele>
        <time>2012-04-15T06:46:19Z</time>
      </trkpt>
      <trkpt lat="48.37814" lon="6.89552">
        <ele>315.8</ele>
        <time>2012-04-15T06:46:20Z</time>
      </trkpt>
      <trkpt lat="48.37813" lon="6.89544">
        <ele>316</ele>
        <time>2012-04-15T06:46:21Z</time>
      </trkpt>
      <trkpt lat="48.37812" lon="6.89536">
        <ele>316.2</ele>
        <time>2012-04-15T06:46:22Z</time>
      </trkpt>
      <trkpt lat="48.37812" lon="6.89528">
        <ele>316.3</ele>
        <time>2012-04-15T06:46:23Z</time>
      </trkpt>
      <trkpt lat="48.37811" lon="6.8952">
        <ele>316.4</ele>
        <time>2012-04-15T06:46:24Z</time>
      </trkpt>
      <trkpt lat="48.37811" lon="6.89513">
        <ele>316.2</ele>
        <time>2012-04-15T06:46:25Z</time>
      </trkpt>
      <trkpt lat="48.37811" lon="6.89505">
        <ele>316.1</ele>
        <time>2012-04-15T06:46:26Z</time>
      </trkpt>
      <trkpt lat="48.3781" lon="6.89497">
        <ele>316</ele>
        <time>2012-04-15T06:46:27Z</time>
      </trkpt>
      <trkpt lat="48.3781" lon="6.89489">
        <ele>315.9</ele>
        <time>2012-04-15T06:46:28Z</time>
      </trkpt>
      <trkpt lat="48.3781" lon="6.89481">
        <ele>315.9</ele>
        <time>2012-04-15T06:46:29Z</time>
      </trkpt>
      <trkpt lat="48.37809" lon="6.89473">
        <ele>315.9</ele>
        <time>2012-04-15T06:46:30Z</time>
      </trkpt>
      <trkpt lat="48.37809" lon="6.89466">
        <ele>315.9</ele>
        <time>2012-04-15T06:46:31Z</time>
      </trkpt>
      <trkpt lat="48.37809" lon="6.89458">
        <ele>315.6</ele>
        <time>2012-04-15T06:46:32Z</time>
      </trkpt>
      <trkpt lat="48.37808" lon="6.8945">
        <ele>315.5</ele>
        <time>2012-04-15T06:46:33Z</time>
      </trkpt>
      <trkpt lat="48.37808" lon="6.89443">
        <ele>315.3</ele>
        <time>2012-04-15T06:46:34Z</time>
      </trkpt>
      <trkpt lat="48.37807" lon="6.89435">
        <ele>315.5</ele>
        <time>2012-04-15T06:46:35Z</time>
      </trkpt>
      <trkpt lat="48.37806" lon="6.89428">
        <ele>315.6</ele>
        <time>2012-04-15T06:46:36Z</time>
      </trkpt>
      <trkpt lat="48.37806" lon="6.8942">
        <ele>315.6</ele>
        <time>2012-04-15T06:46:37Z</time>
      </trkpt>
      <trkpt lat="48.37805" lon="6.89412">
        <ele>315.5</ele>
        <time>2012-04-15T06:46:38Z</time>
      </trkpt>
      <trkpt lat="48.37805" lon="6.89404">
        <ele>315.3</ele>
        <time>2012-04-15T06:46:39Z</time>
      </trkpt>
      <trkpt lat="48.37804" lon="6.89397">
        <ele>315.2</ele>
        <time>2012-04-15T06:46:40Z</time>
      </trkpt>
      <trkpt lat="48.37804" lon="6.89389">
        <ele>315</ele>
        <time>2012-04-15T06:46:41Z</time>
      </trkpt>
      <trkpt lat="48.37804" lon="6.89381">
        <ele>314.9</ele>
        <time>2012-04-15T06:46:42Z</time>
      </trkpt>
      <trkpt lat="48.37803" lon="6.89373">
        <ele>314.7</ele>
        <time>2012-04-15T06:46:43Z</time>
      </trkpt>
      <trkpt lat="48.37803" lon="6.89365">
        <ele>314.7</ele>
        <time>2012-04-15T06:46:44Z</time>
      </trkpt>
      <trkpt lat="48.37802" lon="6.89357">
        <ele>314.7</ele>
        <time>2012-04-15T06:46:45Z</time>
      </trkpt>
      <trkpt lat="48.37802" lon="6.89349">
        <ele>314.7</ele>
        <time>2012-04-15T06:46:46Z</time>
      </trkpt>
      <trkpt lat="48.37801" lon="6.89341">
        <ele>314.7</ele>
        <time>2012-04-15T06:46:47Z</time>
      </trkpt>
      <trkpt lat="48.37801" lon="6.89333">
        <ele>314.9</ele>
        <time>2012-04-15T06:46:48Z</time>
      </trkpt>
      <trkpt lat="48.378" lon="6.89325">
        <ele>315</ele>
        <time>2012-04-15T06:46:49Z</time>
      </trkpt>
      <trkpt lat="48.378" lon="6.89317">
        <ele>315.1</ele>
        <time>2012-04-15T06:46:50Z</time>
      </trkpt>
      <trkpt lat="48.37799" lon="6.89309">
        <ele>315.1</ele>
        <time>2012-04-15T06:46:51Z</time>
      </trkpt>
      <trkpt lat="48.37798" lon="6.89301">
        <ele>315</ele>
        <time>2012-04-15T06:46:52Z</time>
      </trkpt>
      <trkpt lat="48.37798" lon="6.89293">
        <ele>315</ele>
        <time>2012-04-15T06:46:53Z</time>
      </trkpt>
      <trkpt lat="48.37797" lon="6.89285">
        <ele>315.1</ele>
        <time>2012-04-15T06:46:54Z</time>
      </trkpt>
      <trkpt lat="48.37797" lon="6.89278">
        <ele>315.2</ele>
        <time>2012-04-15T06:46:55Z</time>
      </trkpt>
      <trkpt lat="48.37796" lon="6.8927">
        <ele>315.3</ele>
        <time>2012-04-15T06:46:56Z</time>
      </trkpt>
      <trkpt lat="48.37796" lon="6.89262">
        <ele>315.3</ele>
        <time>2012-04-15T06:46:57Z</time>
      </trkpt>
      <trkpt lat="48.37796" lon="6.89254">
        <ele>315.3</ele>
        <time>2012-04-15T06:46:58Z</time>
      </trkpt>
      <trkpt lat="48.37795" lon="6.89246">
        <ele>315.3</ele>
        <time>2012-04-15T06:46:59Z</time>
      </trkpt>
      <trkpt lat="48.37794" lon="6.89238">
        <ele>315.3</ele>
        <time>2012-04-15T06:47:00Z</time>
      </trkpt>
      <trkpt lat="48.37794" lon="6.8923">
        <ele>315.3</ele>
        <time>2012-04-15T06:47:01Z</time>
      </trkpt>
      <trkpt lat="48.37794" lon="6.89222">
        <ele>315.2</ele>
        <time>2012-04-15T06:47:02Z</time>
      </trkpt>
      <trkpt lat="48.37793" lon="6.89215">
        <ele>315.2</ele>
        <time>2012-04-15T06:47:03Z</time>
      </trkpt>
      <trkpt lat="48.37792" lon="6.89207">
        <ele>315</ele>
        <time>2012-04-15T06:47:04Z</time>
      </trkpt>
      <trkpt lat="48.37791" lon="6.89199">
        <ele>314.8</ele>
        <time>2012-04-15T06:47:05Z</time>
      </trkpt>
      <trkpt lat="48.37791" lon="6.89191">
        <ele>314.6</ele>
        <time>2012-04-15T06:47:06Z</time>
      </trkpt>
      <trkpt lat="48.3779" lon="6.89183">
        <ele>314.4</ele>
        <time>2012-04-15T06:47:07Z</time>
      </trkpt>
      <trkpt lat="48.3779" lon="6.89175">
        <ele>314.2</ele>
        <time>2012-04-15T06:47:08Z</time>
      </trkpt>
      <trkpt lat="48.3779" lon="6.89167">
        <ele>314.1</ele>
        <time>2012-04-15T06:47:09Z</time>
      </trkpt>
      <trkpt lat="48.37789" lon="6.89158">
        <ele>314.2</ele>
        <time>2012-04-15T06:47:10Z</time>
      </trkpt>
      <trkpt lat="48.37789" lon="6.8915">
        <ele>314.2</ele>
        <time>2012-04-15T06:47:11Z</time>
      </trkpt>
      <trkpt lat="48.37788" lon="6.89142">
        <ele>314.2</ele>
        <time>2012-04-15T06:47:12Z</time>
      </trkpt>
      <trkpt lat="48.37788" lon="6.89134">
        <ele>314.3</ele>
        <time>2012-04-15T06:47:13Z</time>
      </trkpt>
      <trkpt lat="48.37787" lon="6.89126">
        <ele>314.3</ele>
        <time>2012-04-15T06:47:14Z</time>
      </trkpt>
      <trkpt lat="48.37787" lon="6.89118">
        <ele>314.3</ele>
        <time>2012-04-15T06:47:15Z</time>
      </trkpt>
      <trkpt lat="48.37786" lon="6.8911">
        <ele>313.6</ele>
        <time>2012-04-15T06:47:16Z</time>
      </trkpt>
      <trkpt lat="48.37786" lon="6.89101">
        <ele>313.1</ele>
        <time>2012-04-15T06:47:17Z</time>
      </trkpt>
      <trkpt lat="48.37785" lon="6.89093">
        <ele>312.7</ele>
        <time>2012-04-15T06:47:18Z</time>
      </trkpt>
      <trkpt lat="48.37785" lon="6.89085">
        <ele>312.4</ele>
        <time>2012-04-15T06:47:19Z</time>
      </trkpt>
      <trkpt lat="48.37784" lon="6.89078">
        <ele>312.9</ele>
        <time>2012-04-15T06:47:20Z</time>
      </trkpt>
      <trkpt lat="48.37784" lon="6.89069">
        <ele>313.3</ele>
        <time>2012-04-15T06:47:21Z</time>
      </trkpt>
      <trkpt lat="48.37784" lon="6.89061">
        <ele>313.6</ele>
        <time>2012-04-15T06:47:22Z</time>
      </trkpt>
      <trkpt lat="48.37783" lon="6.89053">
        <ele>313.6</ele>
        <time>2012-04-15T06:47:23Z</time>
      </trkpt>
      <trkpt lat="48.37783" lon="6.89045">
        <ele>313.5</ele>
        <time>2012-04-15T06:47:24Z</time>
      </trkpt>
      <trkpt lat="48.37782" lon="6.89037">
        <ele>313.4</ele>
        <time>2012-04-15T06:47:25Z</time>
      </trkpt>
      <trkpt lat="48.37782" lon="6.89029">
        <ele>313.6</ele>
        <time>2012-04-15T06:47:26Z</time>
      </trkpt>
      <trkpt lat="48.37781" lon="6.89021">
        <ele>313.8</ele>
        <time>2012-04-15T06:47:27Z</time>
      </trkpt>
      <trkpt lat="48.37781" lon="6.89013">
        <ele>313.9</ele>
        <time>2012-04-15T06:47:28Z</time>
      </trkpt>
      <trkpt lat="48.3778" lon="6.89006">
        <ele>313.9</ele>
        <time>2012-04-15T06:47:29Z</time>
      </trkpt>
      <trkpt lat="48.3778" lon="6.88998">
        <ele>313.9</ele>
        <time>2012-04-15T06:47:30Z</time>
      </trkpt>
      <trkpt lat="48.37779" lon="6.8899">
        <ele>313.9</ele>
        <time>2012-04-15T06:47:31Z</time>
      </trkpt>
      <trkpt lat="48.37779" lon="6.88982">
        <ele>314.1</ele>
        <time>2012-04-15T06:47:32Z</time>
      </trkpt>
      <trkpt lat="48.37778" lon="6.88974">
        <ele>314.3</ele>
        <time>2012-04-15T06:47:33Z</time>
      </trkpt>
      <trkpt lat="48.37778" lon="6.88966">
        <ele>314.4</ele>
        <time>2012-04-15T06:47:34Z</time>
      </trkpt>
      <trkpt lat="48.37778" lon="6.88958">
        <ele>314.5</ele>
        <time>2012-04-15T06:47:35Z</time>
      </trkpt>
      <trkpt lat="48.37778" lon="6.8895">
        <ele>314.3</ele>
        <time>2012-04-15T06:47:36Z</time>
      </trkpt>
      <trkpt lat="48.37777" lon="6.88941">
        <ele>314.2</ele>
        <time>2012-04-15T06:47:37Z</time>
      </trkpt>
      <trkpt lat="48.37777" lon="6.88933">
        <ele>314.1</ele>
        <time>2012-04-15T06:47:38Z</time>
      </trkpt>
      <trkpt lat="48.37777" lon="6.88925">
        <ele>313.7</ele>
        <time>2012-04-15T06:47:39Z</time>
      </trkpt>
      <trkpt lat="48.37776" lon="6.88916">
        <ele>313.4</ele>
        <time>2012-04-15T06:47:40Z</time>
      </trkpt>
      <trkpt lat="48.37776" lon="6.88908">
        <ele>313.2</ele>
        <time>2012-04-15T06:47:41Z</time>
      </trkpt>
      <trkpt lat="48.37776" lon="6.88899">
        <ele>313.6</ele>
        <time>2012-04-15T06:47:42Z</time>
      </trkpt>
      <trkpt lat="48.37775" lon="6.8889">
        <ele>313.8</ele>
        <time>2012-04-15T06:47:43Z</time>
      </trkpt>
      <trkpt lat="48.37775" lon="6.88882">
        <ele>314</ele>
        <time>2012-04-15T06:47:44Z</time>
      </trkpt>
      <trkpt lat="48.37775" lon="6.88873">
        <ele>314</ele>
        <time>2012-04-15T06:47:45Z</time>
      </trkpt>
      <trkpt lat="48.37774" lon="6.88865">
        <ele>314</ele>
        <time>2012-04-15T06:47:46Z</time>
      </trkpt>
      <trkpt lat="48.37774" lon="6.88857">
        <ele>313.9</ele>
        <time>2012-04-15T06:47:47Z</time>
      </trkpt>
      <trkpt lat="48.37773" lon="6.88848">
        <ele>313.8</ele>
        <time>2012-04-15T06:47:48Z</time>
      </trkpt>
      <trkpt lat="48.37773" lon="6.8884">
        <ele>313.7</ele>
        <time>2012-04-15T06:47:49Z</time>
      </trkpt>
      <trkpt lat="48.37772" lon="6.88832">
        <ele>313.6</ele>
        <time>2012-04-15T06:47:50Z</time>
      </trkpt>
      <trkpt lat="48.37772" lon="6.88824">
        <ele>313.5</ele>
        <time>2012-04-15T06:47:51Z</time>
      </trkpt>
      <trkpt lat="48.37771" lon="6.88816">
        <ele>313.5</ele>
        <time>2012-04-15T06:47:52Z</time>
      </trkpt>
      <trkpt lat="48.37771" lon="6.88807">
        <ele>313.4</ele>
        <time>2012-04-15T06:47:53Z</time>
      </trkpt>
      <trkpt lat="48.37771" lon="6.88799">
        <ele>313.4</ele>
        <time>2012-04-15T06:47:54Z</time>
      </trkpt>
      <trkpt lat="48.37771" lon="6.88791">
        <ele>313.4</ele>
        <time>2012-04-15T06:47:55Z</time>
      </trkpt>
      <trkpt lat="48.3777" lon="6.88783">
        <ele>313.5</ele>
        <time>2012-04-15T06:47:56Z</time>
      </trkpt>
      <trkpt lat="48.3777" lon="6.88774">
        <ele>313.5</ele>
        <time>2012-04-15T06:47:57Z</time>
      </trkpt>
      <trkpt lat="48.3777" lon="6.88766">
        <ele>313.5</ele>
        <time>2012-04-15T06:47:58Z</time>
      </trkpt>
      <trkpt lat="48.37769" lon="6.88758">
        <ele>313.6</ele>
        <time>2012-04-15T06:47:59Z</time>
      </trkpt>
      <trkpt lat="48.37769" lon="6.88751">
        <ele>313.7</ele>
        <time>2012-04-15T06:48:00Z</time>
      </trkpt>
      <trkpt lat="48.37768" lon="6.88743">
        <ele>313.8</ele>
        <time>2012-04-15T06:48:01Z</time>
      </trkpt>
      <trkpt lat="48.37768" lon="6.88735">
        <ele>314</ele>
        <time>2012-04-15T06:48:02Z</time>
      </trkpt>
      <trkpt lat="48.37767" lon="6.88727">
        <ele>314.1</ele>
        <time>2012-04-15T06:48:03Z</time>
      </trkpt>
      <trkpt lat="48.37767" lon="6.8872">
        <ele>314.1</ele>
        <time>2012-04-15T06:48:04Z</time>
      </trkpt>
      <trkpt lat="48.37766" lon="6.88711">
        <ele>314.1</ele>
        <time>2012-04-15T06:48:05Z</time>
      </trkpt>
      <trkpt lat="48.37766" lon="6.88703">
        <ele>314.1</ele>
        <time>2012-04-15T06:48:06Z</time>
      </trkpt>
      <trkpt lat="48.37765" lon="6.88695">
        <ele>314.1</ele>
        <time>2012-04-15T06:48:07Z</time>
      </trkpt>
      <trkpt lat="48.37765" lon="6.88688">
        <ele>314.1</ele>
        <time>2012-04-15T06:48:08Z</time>
      </trkpt>
      <trkpt lat="48.37765" lon="6.88679">
        <ele>314.1</ele>
        <time>2012-04-15T06:48:09Z</time>
      </trkpt>
      <trkpt lat="48.37764" lon="6.88671">
        <ele>314.1</ele>
        <time>2012-04-15T06:48:10Z</time>
      </trkpt>
      <trkpt lat="48.37764" lon="6.88663">
        <ele>314.1</ele>
        <time>2012-04-15T06:48:11Z</time>
      </trkpt>
      <trkpt lat="48.37763" lon="6.88655">
        <ele>314.1</ele>
        <time>2012-04-15T06:48:12Z</time>
      </trkpt>
      <trkpt lat="48.37763" lon="6.88647">
        <ele>314.1</ele>
        <time>2012-04-15T06:48:13Z</time>
      </trkpt>
      <trkpt lat="48.37762" lon="6.88639">
        <ele>314.4</ele>
        <time>2012-04-15T06:48:14Z</time>
      </trkpt>
      <trkpt lat="48.37762" lon="6.88631">
        <ele>314.7</ele>
        <time>2012-04-15T06:48:15Z</time>
      </trkpt>
      <trkpt lat="48.37761" lon="6.88622">
        <ele>314.8</ele>
        <time>2012-04-15T06:48:16Z</time>
      </trkpt>
      <trkpt lat="48.37761" lon="6.88614">
        <ele>314.4</ele>
        <time>2012-04-15T06:48:17Z</time>
      </trkpt>
      <trkpt lat="48.37761" lon="6.88605">
        <ele>314.2</ele>
        <time>2012-04-15T06:48:18Z</time>
      </trkpt>
      <trkpt lat="48.37761" lon="6.88597">
        <ele>314</ele>
        <time>2012-04-15T06:48:19Z</time>
      </trkpt>
      <trkpt lat="48.3776" lon="6.88589">
        <ele>314</ele>
        <time>2012-04-15T06:48:20Z</time>
      </trkpt>
      <trkpt lat="48.3776" lon="6.88581">
        <ele>314.1</ele>
        <time>2012-04-15T06:48:21Z</time>
      </trkpt>
      <trkpt lat="48.37759" lon="6.88573">
        <ele>314.1</ele>
        <time>2012-04-15T06:48:22Z</time>
      </trkpt>
      <trkpt lat="48.37759" lon="6.88565">
        <ele>314.4</ele>
        <time>2012-04-15T06:48:23Z</time>
      </trkpt>
      <trkpt lat="48.37759" lon="6.88557">
        <ele>314.6</ele>
        <time>2012-04-15T06:48:24Z</time>
      </trkpt>
      <trkpt lat="48.37758" lon="6.88549">
        <ele>314.8</ele>
        <time>2012-04-15T06:48:25Z</time>
      </trkpt>
      <trkpt lat="48.37758" lon="6.88541">
        <ele>315</ele>
        <time>2012-04-15T06:48:26Z</time>
      </trkpt>
      <trkpt lat="48.37757" lon="6.88533">
        <ele>314.9</ele>
        <time>2012-04-15T06:48:27Z</time>
      </trkpt>
      <trkpt lat="48.37757" lon="6.88525">
        <ele>314.8</ele>
        <time>2012-04-15T06:48:28Z</time>
      </trkpt>
      <trkpt lat="48.37757" lon="6.88517">
        <ele>314.7</ele>
        <time>2012-04-15T06:48:29Z</time>
      </trkpt>
      <trkpt lat="48.37756" lon="6.88509">
        <ele>314.7</ele>
        <time>2012-04-15T06:48:30Z</time>
      </trkpt>
      <trkpt lat="48.37756" lon="6.88501">
        <ele>314.7</ele>
        <time>2012-04-15T06:48:31Z</time>
      </trkpt>
      <trkpt lat="48.37755" lon="6.88493">
        <ele>314.7</ele>
        <time>2012-04-15T06:48:32Z</time>
      </trkpt>
      <trkpt lat="48.37755" lon="6.88485">
        <ele>314.5</ele>
        <time>2012-04-15T06:48:33Z</time>
      </trkpt>
      <trkpt lat="48.37755" lon="6.88478">
        <ele>314.3</ele>
        <time>2012-04-15T06:48:34Z</time>
      </trkpt>
      <trkpt lat="48.37754" lon="6.8847">
        <ele>314.3</ele>
        <time>2012-04-15T06:48:35Z</time>
      </trkpt>
      <trkpt lat="48.37754" lon="6.88462">
        <ele>314.2</ele>
        <time>2012-04-15T06:48:36Z</time>
      </trkpt>
      <trkpt lat="48.37754" lon="6.88454">
        <ele>314.2</ele>
        <time>2012-04-15T06:48:37Z</time>
      </trkpt>
      <trkpt lat="48.37753" lon="6.88447">
        <ele>314.1</ele>
        <time>2012-04-15T06:48:38Z</time>
      </trkpt>
      <trkpt lat="48.37753" lon="6.88439">
        <ele>314.2</ele>
        <time>2012-04-15T06:48:39Z</time>
      </trkpt>
      <trkpt lat="48.37752" lon="6.88431">
        <ele>314.3</ele>
        <time>2012-04-15T06:48:40Z</time>
      </trkpt>
      <trkpt lat="48.37752" lon="6.88423">
        <ele>314.4</ele>
        <time>2012-04-15T06:48:41Z</time>
      </trkpt>
      <trkpt lat="48.37752" lon="6.88415">
        <ele>314.4</ele>
        <time>2012-04-15T06:48:42Z</time>
      </trkpt>
      <trkpt lat="48.37751" lon="6.88408">
        <ele>314.5</ele>
        <time>2012-04-15T06:48:43Z</time>
      </trkpt>
      <trkpt lat="48.37751" lon="6.884">
        <ele>314.6</ele>
        <time>2012-04-15T06:48:44Z</time>
      </trkpt>
      <trkpt lat="48.37751" lon="6.88392">
        <ele>314.7</ele>
        <time>2012-04-15T06:48:45Z</time>
      </trkpt>
      <trkpt lat="48.37751" lon="6.88384">
        <ele>314.4</ele>
        <time>2012-04-15T06:48:46Z</time>
      </trkpt>
      <trkpt lat="48.3775" lon="6.88376">
        <ele>314.2</ele>
        <time>2012-04-15T06:48:47Z</time>
      </trkpt>
      <trkpt lat="48.3775" lon="6.88368">
        <ele>314</ele>
        <time>2012-04-15T06:48:48Z</time>
      </trkpt>
      <trkpt lat="48.3775" lon="6.8836">
        <ele>313.7</ele>
        <time>2012-04-15T06:48:49Z</time>
      </trkpt>
      <trkpt lat="48.37749" lon="6.88352">
        <ele>313.5</ele>
        <time>2012-04-15T06:48:50Z</time>
      </trkpt>
      <trkpt lat="48.37749" lon="6.88344">
        <ele>313.3</ele>
        <time>2012-04-15T06:48:51Z</time>
      </trkpt>
      <trkpt lat="48.37749" lon="6.88336">
        <ele>313.5</ele>
        <time>2012-04-15T06:48:52Z</time>
      </trkpt>
      <trkpt lat="48.37748" lon="6.88328">
        <ele>313.6</ele>
        <time>2012-04-15T06:48:53Z</time>
      </trkpt>
      <trkpt lat="48.37748" lon="6.8832">
        <ele>313.7</ele>
        <time>2012-04-15T06:48:54Z</time>
      </trkpt>
      <trkpt lat="48.37747" lon="6.88312">
        <ele>313.7</ele>
        <time>2012-04-15T06:48:55Z</time>
      </trkpt>
      <trkpt lat="48.37747" lon="6.88304">
        <ele>313.6</ele>
        <time>2012-04-15T06:48:56Z</time>
      </trkpt>
      <trkpt lat="48.37746" lon="6.88296">
        <ele>313.6</ele>
        <time>2012-04-15T06:48:57Z</time>
      </trkpt>
      <trkpt lat="48.37746" lon="6.88288">
        <ele>313.6</ele>
        <time>2012-04-15T06:48:58Z</time>
      </trkpt>
      <trkpt lat="48.37746" lon="6.8828">
        <ele>313.9</ele>
        <time>2012-04-15T06:48:59Z</time>
      </trkpt>
      <trkpt lat="48.37745" lon="6.88272">
        <ele>314.2</ele>
        <time>2012-04-15T06:49:00Z</time>
      </trkpt>
      <trkpt lat="48.37745" lon="6.88264">
        <ele>314.4</ele>
        <time>2012-04-15T06:49:01Z</time>
      </trkpt>
      <trkpt lat="48.37744" lon="6.88256">
        <ele>313.8</ele>
        <time>2012-04-15T06:49:02Z</time>
      </trkpt>
      <trkpt lat="48.37744" lon="6.88248">
        <ele>313.4</ele>
        <time>2012-04-15T06:49:03Z</time>
      </trkpt>
      <trkpt lat="48.37743" lon="6.8824">
        <ele>313.1</ele>
        <time>2012-04-15T06:49:04Z</time>
      </trkpt>
      <trkpt lat="48.37742" lon="6.88231">
        <ele>313.2</ele>
        <time>2012-04-15T06:49:05Z</time>
      </trkpt>
      <trkpt lat="48.37741" lon="6.88223">
        <ele>313.3</ele>
        <time>2012-04-15T06:49:06Z</time>
      </trkpt>
      <trkpt lat="48.3774" lon="6.88215">
        <ele>313.3</ele>
        <time>2012-04-15T06:49:07Z</time>
      </trkpt>
      <trkpt lat="48.37739" lon="6.88207">
        <ele>313.5</ele>
        <time>2012-04-15T06:49:08Z</time>
      </trkpt>
      <trkpt lat="48.37738" lon="6.88198">
        <ele>313.6</ele>
        <time>2012-04-15T06:49:09Z</time>
      </trkpt>
      <trkpt lat="48.37737" lon="6.8819">
        <ele>313.7</ele>
        <time>2012-04-15T06:49:10Z</time>
      </trkpt>
      <trkpt lat="48.37736" lon="6.88182">
        <ele>313.5</ele>
        <time>2012-04-15T06:49:11Z</time>
      </trkpt>
      <trkpt lat="48.37734" lon="6.88173">
        <ele>313.4</ele>
        <time>2012-04-15T06:49:12Z</time>
      </trkpt>
      <trkpt lat="48.37733" lon="6.88164">
        <ele>313.4</ele>
        <time>2012-04-15T06:49:13Z</time>
      </trkpt>
      <trkpt lat="48.37732" lon="6.88155">
        <ele>313.3</ele>
        <time>2012-04-15T06:49:14Z</time>
      </trkpt>
      <trkpt lat="48.3773" lon="6.88147">
        <ele>313.3</ele>
        <time>2012-04-15T06:49:15Z</time>
      </trkpt>
      <trkpt lat="48.37729" lon="6.88138">
        <ele>313.2</ele>
        <time>2012-04-15T06:49:16Z</time>
      </trkpt>
      <trkpt lat="48.37727" lon="6.8813">
        <ele>313.2</ele>
        <time>2012-04-15T06:49:17Z</time>
      </trkpt>
      <trkpt lat="48.37725" lon="6.88121">
        <ele>313</ele>
        <time>2012-04-15T06:49:18Z</time>
      </trkpt>
      <trkpt lat="48.37724" lon="6.88113">
        <ele>312.8</ele>
        <time>2012-04-15T06:49:19Z</time>
      </trkpt>
      <trkpt lat="48.37722" lon="6.88105">
        <ele>312.6</ele>
        <time>2012-04-15T06:49:20Z</time>
      </trkpt>
      <trkpt lat="48.3772" lon="6.88097">
        <ele>312.9</ele>
        <time>2012-04-15T06:49:21Z</time>
      </trkpt>
      <trkpt lat="48.37718" lon="6.88089">
        <ele>313.1</ele>
        <time>2012-04-15T06:49:22Z</time>
      </trkpt>
      <trkpt lat="48.37715" lon="6.8808">
        <ele>313.3</ele>
        <time>2012-04-15T06:49:23Z</time>
      </trkpt>
      <trkpt lat="48.37713" lon="6.88072">
        <ele>313.1</ele>
        <time>2012-04-15T06:49:24Z</time>
      </trkpt>
      <trkpt lat="48.37711" lon="6.88064">
        <ele>313</ele>
        <time>2012-04-15T06:49:25Z</time>
      </trkpt>
      <trkpt lat="48.37709" lon="6.88056">
        <ele>313</ele>
        <time>2012-04-15T06:49:26Z</time>
      </trkpt>
      <trkpt lat="48.37706" lon="6.88047">
        <ele>312.7</ele>
        <time>2012-04-15T06:49:27Z</time>
      </trkpt>
      <trkpt lat="48.37703" lon="6.88039">
        <ele>312.6</ele>
        <time>2012-04-15T06:49:28Z</time>
      </trkpt>
      <trkpt lat="48.37701" lon="6.88031">
        <ele>312.5</ele>
        <time>2012-04-15T06:49:29Z</time>
      </trkpt>
      <trkpt lat="48.37698" lon="6.88024">
        <ele>312.8</ele>
        <time>2012-04-15T06:49:30Z</time>
      </trkpt>
      <trkpt lat="48.37695" lon="6.88016">
        <ele>313</ele>
        <time>2012-04-15T06:49:31Z</time>
      </trkpt>
      <trkpt lat="48.37691" lon="6.88009">
        <ele>313.2</ele>
        <time>2012-04-15T06:49:32Z</time>
      </trkpt>
      <trkpt lat="48.37688" lon="6.88002">
        <ele>313.4</ele>
        <time>2012-04-15T06:49:33Z</time>
      </trkpt>
      <trkpt lat="48.37685" lon="6.87994">
        <ele>313</ele>
        <time>2012-04-15T06:49:34Z</time>
      </trkpt>
      <trkpt lat="48.37682" lon="6.87986">
        <ele>312.7</ele>
        <time>2012-04-15T06:49:35Z</time>
      </trkpt>
      <trkpt lat="48.37679" lon="6.87979">
        <ele>312.5</ele>
        <time>2012-04-15T06:49:36Z</time>
      </trkpt>
      <trkpt lat="48.37676" lon="6.87971">
        <ele>312.6</ele>
        <time>2012-04-15T06:49:37Z</time>
      </trkpt>
      <trkpt lat="48.37673" lon="6.87964">
        <ele>312.6</ele>
        <time>2012-04-15T06:49:38Z</time>
      </trkpt>
      <trkpt lat="48.37669" lon="6.87957">
        <ele>312.6</ele>
        <time>2012-04-15T06:49:39Z</time>
      </trkpt>
      <trkpt lat="48.37666" lon="6.87949">
        <ele>312.4</ele>
        <time>2012-04-15T06:49:40Z</time>
      </trkpt>
      <trkpt lat="48.37662" lon="6.87942">
        <ele>312.2</ele>
        <time>2012-04-15T06:49:41Z</time>
      </trkpt>
      <trkpt lat="48.37659" lon="6.87936">
        <ele>312.1</ele>
        <time>2012-04-15T06:49:42Z</time>
      </trkpt>
      <trkpt lat="48.37655" lon="6.8793">
        <ele>312.3</ele>
        <time>2012-04-15T06:49:43Z</time>
      </trkpt>
      <trkpt lat="48.37652" lon="6.87923">
        <ele>312.5</ele>
        <time>2012-04-15T06:49:44Z</time>
      </trkpt>
      <trkpt lat="48.37648" lon="6.87917">
        <ele>312.6</ele>
        <time>2012-04-15T06:49:45Z</time>
      </trkpt>
      <trkpt lat="48.37645" lon="6.87911">
        <ele>312.6</ele>
        <time>2012-04-15T06:49:46Z</time>
      </trkpt>
      <trkpt lat="48.37641" lon="6.87905">
        <ele>312.7</ele>
        <time>2012-04-15T06:49:47Z</time>
      </trkpt>
      <trkpt lat="48.37638" lon="6.87899">
        <ele>312.7</ele>
        <time>2012-04-15T06:49:48Z</time>
      </trkpt>
      <trkpt lat="48.37635" lon="6.87893">
        <ele>312.8</ele>
        <time>2012-04-15T06:49:49Z</time>
      </trkpt>
      <trkpt lat="48.37632" lon="6.87886">
        <ele>313</ele>
        <time>2012-04-15T06:49:50Z</time>
      </trkpt>
      <trkpt lat="48.3763" lon="6.8788">
        <ele>313.1</ele>
        <time>2012-04-15T06:49:51Z</time>
      </trkpt>
      <trkpt lat="48.3763" lon="6.87866">
        <ele>313.1</ele>
        <time>2012-04-15T06:49:53Z</time>
      </trkpt>
      <trkpt lat="48.37631" lon="6.87853">
        <ele>312.9</ele>
        <time>2012-04-15T06:49:55Z</time>
      </trkpt>
      <trkpt lat="48.3763" lon="6.87846">
        <ele>313.2</ele>
        <time>2012-04-15T06:49:56Z</time>
      </trkpt>
      <trkpt lat="48.37628" lon="6.87839">
        <ele>313.4</ele>
        <time>2012-04-15T06:49:57Z</time>
      </trkpt>
      <trkpt lat="48.37626" lon="6.87833">
        <ele>313.6</ele>
        <time>2012-04-15T06:49:58Z</time>
      </trkpt>
      <trkpt lat="48.37624" lon="6.87826">
        <ele>313.5</ele>
        <time>2012-04-15T06:49:59Z</time>
      </trkpt>
      <trkpt lat="48.37622" lon="6.87819">
        <ele>313.4</ele>
        <time>2012-04-15T06:50:00Z</time>
      </trkpt>
      <trkpt lat="48.3762" lon="6.87813">
        <ele>313.3</ele>
        <time>2012-04-15T06:50:01Z</time>
      </trkpt>
      <trkpt lat="48.37619" lon="6.87806">
        <ele>313.1</ele>
        <time>2012-04-15T06:50:02Z</time>
      </trkpt>
      <trkpt lat="48.3762" lon="6.87798">
        <ele>313</ele>
        <time>2012-04-15T06:50:03Z</time>
      </trkpt>
      <trkpt lat="48.37621" lon="6.87791">
        <ele>312.9</ele>
        <time>2012-04-15T06:50:04Z</time>
      </trkpt>
      <trkpt lat="48.37623" lon="6.87785">
        <ele>312.9</ele>
        <time>2012-04-15T06:50:05Z</time>
      </trkpt>
      <trkpt lat="48.37625" lon="6.87778">
        <ele>312.8</ele>
        <time>2012-04-15T06:50:06Z</time>
      </trkpt>
      <trkpt lat="48.37628" lon="6.87772">
        <ele>312.8</ele>
        <time>2012-04-15T06:50:07Z</time>
      </trkpt>
      <trkpt lat="48.37631" lon="6.87765">
        <ele>312.7</ele>
        <time>2012-04-15T06:50:08Z</time>
      </trkpt>
      <trkpt lat="48.37634" lon="6.87759">
        <ele>312.6</ele>
        <time>2012-04-15T06:50:09Z</time>
      </trkpt>
      <trkpt lat="48.37637" lon="6.87752">
        <ele>312.5</ele>
        <time>2012-04-15T06:50:10Z</time>
      </trkpt>
      <trkpt lat="48.37639" lon="6.87745">
        <ele>312.4</ele>
        <time>2012-04-15T06:50:11Z</time>
      </trkpt>
      <trkpt lat="48.37643" lon="6.87739">
        <ele>312.3</ele>
        <time>2012-04-15T06:50:12Z</time>
      </trkpt>
      <trkpt lat="48.37646" lon="6.87732">
        <ele>312.3</ele>
        <time>2012-04-15T06:50:13Z</time>
      </trkpt>
      <trkpt lat="48.37649" lon="6.87725">
        <ele>312.2</ele>
        <time>2012-04-15T06:50:14Z</time>
      </trkpt>
      <trkpt lat="48.37652" lon="6.87718">
        <ele>311.7</ele>
        <time>2012-04-15T06:50:15Z</time>
      </trkpt>
      <trkpt lat="48.37655" lon="6.87711">
        <ele>311.3</ele>
        <time>2012-04-15T06:50:16Z</time>
      </trkpt>
      <trkpt lat="48.37659" lon="6.87704">
        <ele>311.1</ele>
        <time>2012-04-15T06:50:17Z</time>
      </trkpt>
      <trkpt lat="48.37662" lon="6.87697">
        <ele>311.4</ele>
        <time>2012-04-15T06:50:18Z</time>
      </trkpt>
      <trkpt lat="48.37666" lon="6.8769">
        <ele>311.6</ele>
        <time>2012-04-15T06:50:19Z</time>
      </trkpt>
      <trkpt lat="48.37669" lon="6.87683">
        <ele>311.8</ele>
        <time>2012-04-15T06:50:20Z</time>
      </trkpt>
      <trkpt lat="48.37672" lon="6.87676">
        <ele>311.9</ele>
        <time>2012-04-15T06:50:21Z</time>
      </trkpt>
      <trkpt lat="48.37675" lon="6.87669">
        <ele>312</ele>
        <time>2012-04-15T06:50:22Z</time>
      </trkpt>
      <trkpt lat="48.37679" lon="6.87662">
        <ele>312.1</ele>
        <time>2012-04-15T06:50:23Z</time>
      </trkpt>
      <trkpt lat="48.37682" lon="6.87654">
        <ele>312.2</ele>
        <time>2012-04-15T06:50:24Z</time>
      </trkpt>
      <trkpt lat="48.37685" lon="6.87647">
        <ele>312.1</ele>
        <time>2012-04-15T06:50:25Z</time>
      </trkpt>
      <trkpt lat="48.37689" lon="6.8764">
        <ele>312</ele>
        <time>2012-04-15T06:50:26Z</time>
      </trkpt>
      <trkpt lat="48.37692" lon="6.87633">
        <ele>312</ele>
        <time>2012-04-15T06:50:27Z</time>
      </trkpt>
      <trkpt lat="48.37696" lon="6.87625">
        <ele>311.9</ele>
        <time>2012-04-15T06:50:28Z</time>
      </trkpt>
      <trkpt lat="48.37699" lon="6.87618">
        <ele>311.8</ele>
        <time>2012-04-15T06:50:29Z</time>
      </trkpt>
      <trkpt lat="48.37703" lon="6.87611">
        <ele>311.8</ele>
        <time>2012-04-15T06:50:30Z</time>
      </trkpt>
      <trkpt lat="48.37706" lon="6.87604">
        <ele>311.6</ele>
        <time>2012-04-15T06:50:31Z</time>
      </trkpt>
      <trkpt lat="48.3771" lon="6.87596">
        <ele>311.4</ele>
        <time>2012-04-15T06:50:32Z</time>
      </trkpt>
      <trkpt lat="48.37713" lon="6.87589">
        <ele>311.2</ele>
        <time>2012-04-15T06:50:33Z</time>
      </trkpt>
      <trkpt lat="48.37717" lon="6.87581">
        <ele>311.2</ele>
        <time>2012-04-15T06:50:34Z</time>
      </trkpt>
      <trkpt lat="48.3772" lon="6.87574">
        <ele>311.2</ele>
        <time>2012-04-15T06:50:35Z</time>
      </trkpt>
      <trkpt lat="48.37724" lon="6.87567">
        <ele>311.2</ele>
        <time>2012-04-15T06:50:36Z</time>
      </trkpt>
      <trkpt lat="48.37727" lon="6.8756">
        <ele>310.7</ele>
        <time>2012-04-15T06:50:37Z</time>
      </trkpt>
      <trkpt lat="48.37731" lon="6.87553">
        <ele>310.4</ele>
        <time>2012-04-15T06:50:38Z</time>
      </trkpt>
      <trkpt lat="48.37734" lon="6.87545">
        <ele>310.1</ele>
        <time>2012-04-15T06:50:39Z</time>
      </trkpt>
      <trkpt lat="48.37737" lon="6.87538">
        <ele>310</ele>
        <time>2012-04-15T06:50:40Z</time>
      </trkpt>
      <trkpt lat="48.37741" lon="6.87531">
        <ele>310.2</ele>
        <time>2012-04-15T06:50:41Z</time>
      </trkpt>
      <trkpt lat="48.37744" lon="6.87524">
        <ele>310.4</ele>
        <time>2012-04-15T06:50:42Z</time>
      </trkpt>
      <trkpt lat="48.37748" lon="6.87517">
        <ele>310.6</ele>
        <time>2012-04-15T06:50:43Z</time>
      </trkpt>
      <trkpt lat="48.37751" lon="6.8751">
        <ele>310.4</ele>
        <time>2012-04-15T06:50:44Z</time>
      </trkpt>
      <trkpt lat="48.37754" lon="6.87502">
        <ele>310.2</ele>
        <time>2012-04-15T06:50:45Z</time>
      </trkpt>
      <trkpt lat="48.37758" lon="6.87495">
        <ele>310.1</ele>
        <time>2012-04-15T06:50:46Z</time>
      </trkpt>
      <trkpt lat="48.37761" lon="6.87488">
        <ele>310</ele>
        <time>2012-04-15T06:50:47Z</time>
      </trkpt>
      <trkpt lat="48.37764" lon="6.87481">
        <ele>309.9</ele>
        <time>2012-04-15T06:50:48Z</time>
      </trkpt>
      <trkpt lat="48.37768" lon="6.87474">
        <ele>309.8</ele>
        <time>2012-04-15T06:50:49Z</time>
      </trkpt>
      <trkpt lat="48.37771" lon="6.87467">
        <ele>309.8</ele>
        <time>2012-04-15T06:50:50Z</time>
      </trkpt>
      <trkpt lat="48.37774" lon="6.8746">
        <ele>309.7</ele>
        <time>2012-04-15T06:50:51Z</time>
      </trkpt>
      <trkpt lat="48.37778" lon="6.87453">
        <ele>309.7</ele>
        <time>2012-04-15T06:50:52Z</time>
      </trkpt>
      <trkpt lat="48.37781" lon="6.87446">
        <ele>309.8</ele>
        <time>2012-04-15T06:50:53Z</time>
      </trkpt>
      <trkpt lat="48.37785" lon="6.8744">
        <ele>309.9</ele>
        <time>2012-04-15T06:50:54Z</time>
      </trkpt>
      <trkpt lat="48.37789" lon="6.87435">
        <ele>310</ele>
        <time>2012-04-15T06:50:55Z</time>
      </trkpt>
      <trkpt lat="48.37793" lon="6.87429">
        <ele>310.1</ele>
        <time>2012-04-15T06:50:56Z</time>
      </trkpt>
      <trkpt lat="48.37798" lon="6.87425">
        <ele>310.1</ele>
        <time>2012-04-15T06:50:57Z</time>
      </trkpt>
      <trkpt lat="48.37803" lon="6.87422">
        <ele>310</ele>
        <time>2012-04-15T06:50:58Z</time>
      </trkpt>
      <trkpt lat="48.37809" lon="6.87418">
        <ele>310</ele>
        <time>2012-04-15T06:50:59Z</time>
      </trkpt>
      <trkpt lat="48.37814" lon="6.87414">
        <ele>309.4</ele>
        <time>2012-04-15T06:51:00Z</time>
      </trkpt>
      <trkpt lat="48.37819" lon="6.87411">
        <ele>308.9</ele>
        <time>2012-04-15T06:51:01Z</time>
      </trkpt>
      <trkpt lat="48.37824" lon="6.87407">
        <ele>308.6</ele>
        <time>2012-04-15T06:51:02Z</time>
      </trkpt>
      <trkpt lat="48.37829" lon="6.87404">
        <ele>309</ele>
        <time>2012-04-15T06:51:03Z</time>
      </trkpt>
      <trkpt lat="48.37834" lon="6.874">
        <ele>309.2</ele>
        <time>2012-04-15T06:51:04Z</time>
      </trkpt>
      <trkpt lat="48.37839" lon="6.87396">
        <ele>309.4</ele>
        <time>2012-04-15T06:51:05Z</time>
      </trkpt>
      <trkpt lat="48.37843" lon="6.87392">
        <ele>309.4</ele>
        <time>2012-04-15T06:51:06Z</time>
      </trkpt>
      <trkpt lat="48.37848" lon="6.87388">
        <ele>309.3</ele>
        <time>2012-04-15T06:51:07Z</time>
      </trkpt>
      <trkpt lat="48.37853" lon="6.87383">
        <ele>309.3</ele>
        <time>2012-04-15T06:51:08Z</time>
      </trkpt>
      <trkpt lat="48.37857" lon="6.87378">
        <ele>309.7</ele>
        <time>2012-04-15T06:51:09Z</time>
      </trkpt>
      <trkpt lat="48.37862" lon="6.87373">
        <ele>310</ele>
        <time>2012-04-15T06:51:10Z</time>
      </trkpt>
      <trkpt lat="48.37866" lon="6.87369">
        <ele>310.2</ele>
        <time>2012-04-15T06:51:11Z</time>
      </trkpt>
      <trkpt lat="48.3787" lon="6.87365">
        <ele>310.4</ele>
        <time>2012-04-15T06:51:12Z</time>
      </trkpt>
      <trkpt lat="48.37875" lon="6.8736">
        <ele>310.6</ele>
        <time>2012-04-15T06:51:13Z</time>
      </trkpt>
      <trkpt lat="48.3788" lon="6.87356">
        <ele>310.8</ele>
        <time>2012-04-15T06:51:14Z</time>
      </trkpt>
      <trkpt lat="48.37885" lon="6.87351">
        <ele>310.9</ele>
        <time>2012-04-15T06:51:15Z</time>
      </trkpt>
      <trkpt lat="48.37889" lon="6.87347">
        <ele>310.5</ele>
        <time>2012-04-15T06:51:16Z</time>
      </trkpt>
      <trkpt lat="48.37894" lon="6.87342">
        <ele>310.3</ele>
        <time>2012-04-15T06:51:17Z</time>
      </trkpt>
      <trkpt lat="48.37899" lon="6.87338">
        <ele>310.1</ele>
        <time>2012-04-15T06:51:18Z</time>
      </trkpt>
      <trkpt lat="48.37904" lon="6.87333">
        <ele>310.1</ele>
        <time>2012-04-15T06:51:19Z</time>
      </trkpt>
      <trkpt lat="48.3791" lon="6.87329">
        <ele>310.1</ele>
        <time>2012-04-15T06:51:20Z</time>
      </trkpt>
      <trkpt lat="48.37915" lon="6.87325">
        <ele>310.1</ele>
        <time>2012-04-15T06:51:21Z</time>
      </trkpt>
      <trkpt lat="48.3792" lon="6.8732">
        <ele>310.2</ele>
        <time>2012-04-15T06:51:22Z</time>
      </trkpt>
      <trkpt lat="48.37925" lon="6.87316">
        <ele>310.3</ele>
        <time>2012-04-15T06:51:23Z</time>
      </trkpt>
      <trkpt lat="48.3793" lon="6.87312">
        <ele>310.4</ele>
        <time>2012-04-15T06:51:24Z</time>
      </trkpt>
      <trkpt lat="48.37935" lon="6.87307">
        <ele>310.1</ele>
        <time>2012-04-15T06:51:25Z</time>
      </trkpt>
      <trkpt lat="48.3794" lon="6.87303">
        <ele>309.9</ele>
        <time>2012-04-15T06:51:26Z</time>
      </trkpt>
      <trkpt lat="48.37945" lon="6.87299">
        <ele>309.7</ele>
        <time>2012-04-15T06:51:27Z</time>
      </trkpt>
      <trkpt lat="48.3795" lon="6.87295">
        <ele>309.6</ele>
        <time>2012-04-15T06:51:28Z</time>
      </trkpt>
      <trkpt lat="48.37955" lon="6.8729">
        <ele>309.6</ele>
        <time>2012-04-15T06:51:29Z</time>
      </trkpt>
      <trkpt lat="48.3796" lon="6.87286">
        <ele>309.5</ele>
        <time>2012-04-15T06:51:30Z</time>
      </trkpt>
      <trkpt lat="48.37966" lon="6.87281">
        <ele>309.5</ele>
        <time>2012-04-15T06:51:31Z</time>
      </trkpt>
      <trkpt lat="48.37971" lon="6.87277">
        <ele>309.9</ele>
        <time>2012-04-15T06:51:32Z</time>
      </trkpt>
      <trkpt lat="48.37977" lon="6.87272">
        <ele>310.1</ele>
        <time>2012-04-15T06:51:33Z</time>
      </trkpt>
      <trkpt lat="48.37982" lon="6.87267">
        <ele>310.3</ele>
        <time>2012-04-15T06:51:34Z</time>
      </trkpt>
      <trkpt lat="48.37987" lon="6.87262">
        <ele>309.6</ele>
        <time>2012-04-15T06:51:35Z</time>
      </trkpt>
      <trkpt lat="48.37993" lon="6.87258">
        <ele>309.1</ele>
        <time>2012-04-15T06:51:36Z</time>
      </trkpt>
      <trkpt lat="48.37999" lon="6.87253">
        <ele>308.7</ele>
        <time>2012-04-15T06:51:37Z</time>
      </trkpt>
      <trkpt lat="48.38005" lon="6.87248">
        <ele>308.6</ele>
        <time>2012-04-15T06:51:38Z</time>
      </trkpt>
      <trkpt lat="48.38011" lon="6.87243">
        <ele>308.4</ele>
        <time>2012-04-15T06:51:39Z</time>
      </trkpt>
      <trkpt lat="48.38017" lon="6.87237">
        <ele>308.3</ele>
        <time>2012-04-15T06:51:40Z</time>
      </trkpt>
      <trkpt lat="48.38023" lon="6.87232">
        <ele>307.9</ele>
        <time>2012-04-15T06:51:41Z</time>
      </trkpt>
      <trkpt lat="48.38029" lon="6.87227">
        <ele>307.5</ele>
        <time>2012-04-15T06:51:42Z</time>
      </trkpt>
      <trkpt lat="48.38035" lon="6.87222">
        <ele>307.3</ele>
        <time>2012-04-15T06:51:43Z</time>
      </trkpt>
      <trkpt lat="48.3804" lon="6.87217">
        <ele>307.1</ele>
        <time>2012-04-15T06:51:44Z</time>
      </trkpt>
      <trkpt lat="48.38046" lon="6.87211">
        <ele>306.8</ele>
        <time>2012-04-15T06:51:45Z</time>
      </trkpt>
      <trkpt lat="48.38052" lon="6.87206">
        <ele>306.6</ele>
        <time>2012-04-15T06:51:46Z</time>
      </trkpt>
      <trkpt lat="48.38058" lon="6.87201">
        <ele>306.5</ele>
        <time>2012-04-15T06:51:47Z</time>
      </trkpt>
      <trkpt lat="48.38064" lon="6.87196">
        <ele>305.7</ele>
        <time>2012-04-15T06:51:48Z</time>
      </trkpt>
      <trkpt lat="48.3807" lon="6.87191">
        <ele>305.1</ele>
        <time>2012-04-15T06:51:49Z</time>
      </trkpt>
      <trkpt lat="48.38075" lon="6.87186">
        <ele>304.7</ele>
        <time>2012-04-15T06:51:50Z</time>
      </trkpt>
      <trkpt lat="48.38081" lon="6.87182">
        <ele>304.7</ele>
        <time>2012-04-15T06:51:51Z</time>
      </trkpt>
      <trkpt lat="48.38086" lon="6.87177">
        <ele>304.6</ele>
        <time>2012-04-15T06:51:52Z</time>
      </trkpt>
      <trkpt lat="48.38092" lon="6.87172">
        <ele>304.6</ele>
        <time>2012-04-15T06:51:53Z</time>
      </trkpt>
      <trkpt lat="48.38097" lon="6.87168">
        <ele>304.2</ele>
        <time>2012-04-15T06:51:54Z</time>
      </trkpt>
      <trkpt lat="48.38103" lon="6.87163">
        <ele>303.8</ele>
        <time>2012-04-15T06:51:55Z</time>
      </trkpt>
      <trkpt lat="48.38108" lon="6.87158">
        <ele>303.6</ele>
        <time>2012-04-15T06:51:56Z</time>
      </trkpt>
      <trkpt lat="48.38114" lon="6.87154">
        <ele>303.5</ele>
        <time>2012-04-15T06:51:57Z</time>
      </trkpt>
      <trkpt lat="48.38119" lon="6.87149">
        <ele>303.4</ele>
        <time>2012-04-15T06:51:58Z</time>
      </trkpt>
      <trkpt lat="48.38124" lon="6.87144">
        <ele>303.4</ele>
        <time>2012-04-15T06:51:59Z</time>
      </trkpt>
      <trkpt lat="48.3813" lon="6.8714">
        <ele>303.3</ele>
        <time>2012-04-15T06:52:00Z</time>
      </trkpt>
      <trkpt lat="48.38135" lon="6.87135">
        <ele>303.3</ele>
        <time>2012-04-15T06:52:01Z</time>
      </trkpt>
      <trkpt lat="48.3814" lon="6.87131">
        <ele>303.3</ele>
        <time>2012-04-15T06:52:02Z</time>
      </trkpt>
      <trkpt lat="48.38145" lon="6.87126">
        <ele>303.3</ele>
        <time>2012-04-15T06:52:03Z</time>
      </trkpt>
      <trkpt lat="48.3815" lon="6.87122">
        <ele>303.3</ele>
        <time>2012-04-15T06:52:04Z</time>
      </trkpt>
      <trkpt lat="48.38154" lon="6.87117">
        <ele>303.2</ele>
        <time>2012-04-15T06:52:05Z</time>
      </trkpt>
      <trkpt lat="48.38158" lon="6.8711">
        <ele>303.2</ele>
        <time>2012-04-15T06:52:06Z</time>
      </trkpt>
      <trkpt lat="48.38158" lon="6.87103">
        <ele>303.5</ele>
        <time>2012-04-15T06:52:07Z</time>
      </trkpt>
      <trkpt lat="48.38156" lon="6.87097">
        <ele>303.7</ele>
        <time>2012-04-15T06:52:08Z</time>
      </trkpt>
      <trkpt lat="48.38151" lon="6.87086">
        <ele>303.5</ele>
        <time>2012-04-15T06:52:10Z</time>
      </trkpt>
      <trkpt lat="48.38145" lon="6.87079">
        <ele>303</ele>
        <time>2012-04-15T06:52:12Z</time>
      </trkpt>
      <trkpt lat="48.38141" lon="6.87076">
        <ele>302.7</ele>
        <time>2012-04-15T06:52:13Z</time>
      </trkpt>
      <trkpt lat="48.38137" lon="6.8707">
        <ele>302.5</ele>
        <time>2012-04-15T06:52:14Z</time>
      </trkpt>
      <trkpt lat="48.38134" lon="6.87064">
        <ele>302.3</ele>
        <time>2012-04-15T06:52:15Z</time>
      </trkpt>
      <trkpt lat="48.38131" lon="6.87058">
        <ele>302.6</ele>
        <time>2012-04-15T06:52:16Z</time>
      </trkpt>
      <trkpt lat="48.38128" lon="6.87052">
        <ele>302.8</ele>
        <time>2012-04-15T06:52:17Z</time>
      </trkpt>
      <trkpt lat="48.38124" lon="6.87041">
        <ele>303</ele>
        <time>2012-04-15T06:52:19Z</time>
      </trkpt>
      <trkpt lat="48.38119" lon="6.87031">
        <ele>302.8</ele>
        <time>2012-04-15T06:52:21Z</time>
      </trkpt>
      <trkpt lat="48.38114" lon="6.87021">
        <ele>302.7</ele>
        <time>2012-04-15T06:52:23Z</time>
      </trkpt>
      <trkpt lat="48.38117" lon="6.87011">
        <ele>302.7</ele>
        <time>2012-04-15T06:52:25Z</time>
      </trkpt>
      <trkpt lat="48.38124" lon="6.87005">
        <ele>301.5</ele>
        <time>2012-04-15T06:52:27Z</time>
      </trkpt>
      <trkpt lat="48.38129" lon="6.87002">
        <ele>301.1</ele>
        <time>2012-04-15T06:52:28Z</time>
      </trkpt>
      <trkpt lat="48.38133" lon="6.86998">
        <ele>300.9</ele>
        <time>2012-04-15T06:52:29Z</time>
      </trkpt>
      <trkpt lat="48.38137" lon="6.86994">
        <ele>300.8</ele>
        <time>2012-04-15T06:52:30Z</time>
      </trkpt>
      <trkpt lat="48.3814" lon="6.86989">
        <ele>300.7</ele>
        <time>2012-04-15T06:52:31Z</time>
      </trkpt>
      <trkpt lat="48.38144" lon="6.86984">
        <ele>301.2</ele>
        <time>2012-04-15T06:52:32Z</time>
      </trkpt>
      <trkpt lat="48.38147" lon="6.86979">
        <ele>301.5</ele>
        <time>2012-04-15T06:52:33Z</time>
      </trkpt>
      <trkpt lat="48.38151" lon="6.86973">
        <ele>301.7</ele>
        <time>2012-04-15T06:52:34Z</time>
      </trkpt>
      <trkpt lat="48.38154" lon="6.86968">
        <ele>301.9</ele>
        <time>2012-04-15T06:52:35Z</time>
      </trkpt>
      <trkpt lat="48.38157" lon="6.86962">
        <ele>301.2</ele>
        <time>2012-04-15T06:52:36Z</time>
      </trkpt>
      <trkpt lat="48.38161" lon="6.86956">
        <ele>300.7</ele>
        <time>2012-04-15T06:52:37Z</time>
      </trkpt>
      <trkpt lat="48.38164" lon="6.8695">
        <ele>300.3</ele>
        <time>2012-04-15T06:52:38Z</time>
      </trkpt>
      <trkpt lat="48.38167" lon="6.86943">
        <ele>300.7</ele>
        <time>2012-04-15T06:52:39Z</time>
      </trkpt>
      <trkpt lat="48.38171" lon="6.86934">
        <ele>301.2</ele>
        <time>2012-04-15T06:52:41Z</time>
      </trkpt>
      <trkpt lat="48.38176" lon="6.86923">
        <ele>301.4</ele>
        <time>2012-04-15T06:52:43Z</time>
      </trkpt>
      <trkpt lat="48.38179" lon="6.86916">
        <ele>301.5</ele>
        <time>2012-04-15T06:52:44Z</time>
      </trkpt>
      <trkpt lat="48.38181" lon="6.8691">
        <ele>301</ele>
        <time>2012-04-15T06:52:45Z</time>
      </trkpt>
      <trkpt lat="48.38183" lon="6.86904">
        <ele>300.7</ele>
        <time>2012-04-15T06:52:46Z</time>
      </trkpt>
      <trkpt lat="48.38186" lon="6.86898">
        <ele>300.4</ele>
        <time>2012-04-15T06:52:47Z</time>
      </trkpt>
      <trkpt lat="48.38191" lon="6.86887">
        <ele>300.6</ele>
        <time>2012-04-15T06:52:49Z</time>
      </trkpt>
      <trkpt lat="48.38196" lon="6.86879">
        <ele>301.1</ele>
        <time>2012-04-15T06:52:51Z</time>
      </trkpt>
      <trkpt lat="48.38202" lon="6.86869">
        <ele>301.6</ele>
        <time>2012-04-15T06:52:53Z</time>
      </trkpt>
      <trkpt lat="48.38206" lon="6.86858">
        <ele>301.2</ele>
        <time>2012-04-15T06:52:56Z</time>
      </trkpt>
      <trkpt lat="48.38208" lon="6.86847">
        <ele>300.9</ele>
        <time>2012-04-15T06:52:59Z</time>
      </trkpt>
      <trkpt lat="48.38212" lon="6.86839">
        <ele>300.5</ele>
        <time>2012-04-15T06:53:01Z</time>
      </trkpt>
      <trkpt lat="48.38215" lon="6.8683">
        <ele>300.1</ele>
        <time>2012-04-15T06:53:03Z</time>
      </trkpt>
      <trkpt lat="48.38218" lon="6.8682">
        <ele>300.9</ele>
        <time>2012-04-15T06:53:05Z</time>
      </trkpt>
      <trkpt lat="48.38221" lon="6.86812">
        <ele>301</ele>
        <time>2012-04-15T06:53:07Z</time>
      </trkpt>
      <trkpt lat="48.38223" lon="6.86807">
        <ele>300.9</ele>
        <time>2012-04-15T06:53:08Z</time>
      </trkpt>
      <trkpt lat="48.38227" lon="6.86796">
        <ele>300.7</ele>
        <time>2012-04-15T06:53:10Z</time>
      </trkpt>
      <trkpt lat="48.3823" lon="6.8679">
        <ele>300.7</ele>
        <time>2012-04-15T06:53:11Z</time>
      </trkpt>
      <trkpt lat="48.38232" lon="6.86784">
        <ele>300.7</ele>
        <time>2012-04-15T06:53:12Z</time>
      </trkpt>
      <trkpt lat="48.38237" lon="6.86773">
        <ele>300.7</ele>
        <time>2012-04-15T06:53:14Z</time>
      </trkpt>
      <trkpt lat="48.38241" lon="6.86762">
        <ele>300.7</ele>
        <time>2012-04-15T06:53:16Z</time>
      </trkpt>
      <trkpt lat="48.38243" lon="6.86756">
        <ele>300.3</ele>
        <time>2012-04-15T06:53:17Z</time>
      </trkpt>
      <trkpt lat="48.38247" lon="6.86745">
        <ele>299.8</ele>
        <time>2012-04-15T06:53:19Z</time>
      </trkpt>
      <trkpt lat="48.3825" lon="6.86734">
        <ele>299.9</ele>
        <time>2012-04-15T06:53:21Z</time>
      </trkpt>
      <trkpt lat="48.38254" lon="6.86722">
        <ele>300.3</ele>
        <time>2012-04-15T06:53:23Z</time>
      </trkpt>
      <trkpt lat="48.38254" lon="6.8671">
        <ele>300.8</ele>
        <time>2012-04-15T06:53:25Z</time>
      </trkpt>
      <trkpt lat="48.38252" lon="6.86702">
        <ele>300.4</ele>
        <time>2012-04-15T06:53:27Z</time>
      </trkpt>
      <trkpt lat="48.38249" lon="6.86693">
        <ele>299.8</ele>
        <time>2012-04-15T06:53:29Z</time>
      </trkpt>
      <trkpt lat="48.38245" lon="6.86685">
        <ele>299.4</ele>
        <time>2012-04-15T06:53:31Z</time>
      </trkpt>
      <trkpt lat="48.38242" lon="6.86676">
        <ele>299.8</ele>
        <time>2012-04-15T06:53:33Z</time>
      </trkpt>
      <trkpt lat="48.38238" lon="6.86667">
        <ele>300.5</ele>
        <time>2012-04-15T06:53:35Z</time>
      </trkpt>
      <trkpt lat="48.38233" lon="6.86659">
        <ele>300</ele>
        <time>2012-04-15T06:53:37Z</time>
      </trkpt>
      <trkpt lat="48.38229" lon="6.8665">
        <ele>300.1</ele>
        <time>2012-04-15T06:53:39Z</time>
      </trkpt>
      <trkpt lat="48.38226" lon="6.86642">
        <ele>300.4</ele>
        <time>2012-04-15T06:53:41Z</time>
      </trkpt>
      <trkpt lat="48.38223" lon="6.86632">
        <ele>300.3</ele>
        <time>2012-04-15T06:53:43Z</time>
      </trkpt>
      <trkpt lat="48.38219" lon="6.86624">
        <ele>300.1</ele>
        <time>2012-04-15T06:53:45Z</time>
      </trkpt>
      <trkpt lat="48.38216" lon="6.86616">
        <ele>299.7</ele>
        <time>2012-04-15T06:53:47Z</time>
      </trkpt>
      <trkpt lat="48.38211" lon="6.86608">
        <ele>299.5</ele>
        <time>2012-04-15T06:53:49Z</time>
      </trkpt>
      <trkpt lat="48.38209" lon="6.86601">
        <ele>299.4</ele>
        <time>2012-04-15T06:53:51Z</time>
      </trkpt>
      <trkpt lat="48.38206" lon="6.86591">
        <ele>300</ele>
        <time>2012-04-15T06:53:53Z</time>
      </trkpt>
      <trkpt lat="48.38203" lon="6.86581">
        <ele>300.3</ele>
        <time>2012-04-15T06:53:55Z</time>
      </trkpt>
      <trkpt lat="48.382" lon="6.8657">
        <ele>300.4</ele>
        <time>2012-04-15T06:53:57Z</time>
      </trkpt>
      <trkpt lat="48.38197" lon="6.86558">
        <ele>300.2</ele>
        <time>2012-04-15T06:53:59Z</time>
      </trkpt>
      <trkpt lat="48.38194" lon="6.86546">
        <ele>300</ele>
        <time>2012-04-15T06:54:01Z</time>
      </trkpt>
      <trkpt lat="48.38191" lon="6.86535">
        <ele>300.4</ele>
        <time>2012-04-15T06:54:03Z</time>
      </trkpt>
      <trkpt lat="48.38189" lon="6.86529">
        <ele>300.6</ele>
        <time>2012-04-15T06:54:04Z</time>
      </trkpt>
      <trkpt lat="48.38187" lon="6.86516">
        <ele>300.2</ele>
        <time>2012-04-15T06:54:06Z</time>
      </trkpt>
      <trkpt lat="48.38184" lon="6.86504">
        <ele>299.7</ele>
        <time>2012-04-15T06:54:08Z</time>
      </trkpt>
      <trkpt lat="48.38182" lon="6.86491">
        <ele>299.2</ele>
        <time>2012-04-15T06:54:10Z</time>
      </trkpt>
      <trkpt lat="48.3818" lon="6.86485">
        <ele>299.2</ele>
        <time>2012-04-15T06:54:11Z</time>
      </trkpt>
      <trkpt lat="48.38175" lon="6.86467">
        <ele>299.1</ele>
        <time>2012-04-15T06:54:14Z</time>
      </trkpt>
      <trkpt lat="48.38173" lon="6.86457">
        <ele>299.1</ele>
        <time>2012-04-15T06:54:16Z</time>
      </trkpt>
      <trkpt lat="48.38169" lon="6.86445">
        <ele>298.9</ele>
        <time>2012-04-15T06:54:18Z</time>
      </trkpt>
      <trkpt lat="48.38166" lon="6.86434">
        <ele>298.7</ele>
        <time>2012-04-15T06:54:20Z</time>
      </trkpt>
      <trkpt lat="48.38165" lon="6.86428">
        <ele>299</ele>
        <time>2012-04-15T06:54:21Z</time>
      </trkpt>
      <trkpt lat="48.38164" lon="6.8642">
        <ele>299.1</ele>
        <time>2012-04-15T06:54:22Z</time>
      </trkpt>
      <trkpt lat="48.38162" lon="6.86412">
        <ele>299.3</ele>
        <time>2012-04-15T06:54:23Z</time>
      </trkpt>
      <trkpt lat="48.38161" lon="6.86405">
        <ele>299.2</ele>
        <time>2012-04-15T06:54:24Z</time>
      </trkpt>
      <trkpt lat="48.38159" lon="6.86398">
        <ele>299.2</ele>
        <time>2012-04-15T06:54:25Z</time>
      </trkpt>
      <trkpt lat="48.38157" lon="6.8639">
        <ele>299.2</ele>
        <time>2012-04-15T06:54:26Z</time>
      </trkpt>
      <trkpt lat="48.38155" lon="6.86383">
        <ele>299.2</ele>
        <time>2012-04-15T06:54:27Z</time>
      </trkpt>
      <trkpt lat="48.38153" lon="6.8637">
        <ele>299.3</ele>
        <time>2012-04-15T06:54:29Z</time>
      </trkpt>
      <trkpt lat="48.3815" lon="6.86358">
        <ele>299</ele>
        <time>2012-04-15T06:54:31Z</time>
      </trkpt>
      <trkpt lat="48.38147" lon="6.86346">
        <ele>298.8</ele>
        <time>2012-04-15T06:54:33Z</time>
      </trkpt>
      <trkpt lat="48.38144" lon="6.86333">
        <ele>299.3</ele>
        <time>2012-04-15T06:54:35Z</time>
      </trkpt>
      <trkpt lat="48.3814" lon="6.86321">
        <ele>299.5</ele>
        <time>2012-04-15T06:54:37Z</time>
      </trkpt>
      <trkpt lat="48.38138" lon="6.86315">
        <ele>299.5</ele>
        <time>2012-04-15T06:54:38Z</time>
      </trkpt>
      <trkpt lat="48.38136" lon="6.86308">
        <ele>299.6</ele>
        <time>2012-04-15T06:54:39Z</time>
      </trkpt>
      <trkpt lat="48.38133" lon="6.86296">
        <ele>299.6</ele>
        <time>2012-04-15T06:54:41Z</time>
      </trkpt>
      <trkpt lat="48.3813" lon="6.86284">
        <ele>299.7</ele>
        <time>2012-04-15T06:54:43Z</time>
      </trkpt>
      <trkpt lat="48.38127" lon="6.86273">
        <ele>299.9</ele>
        <time>2012-04-15T06:54:45Z</time>
      </trkpt>
      <trkpt lat="48.38125" lon="6.86262">
        <ele>300.5</ele>
        <time>2012-04-15T06:54:47Z</time>
      </trkpt>
      <trkpt lat="48.38126" lon="6.86252">
        <ele>300.8</ele>
        <time>2012-04-15T06:54:49Z</time>
      </trkpt>
      <trkpt lat="48.38127" lon="6.86246">
        <ele>301</ele>
        <time>2012-04-15T06:54:50Z</time>
      </trkpt>
      <trkpt lat="48.38129" lon="6.86239">
        <ele>301.2</ele>
        <time>2012-04-15T06:54:51Z</time>
      </trkpt>
      <trkpt lat="48.38132" lon="6.86234">
        <ele>301.3</ele>
        <time>2012-04-15T06:54:52Z</time>
      </trkpt>
      <trkpt lat="48.38135" lon="6.86229">
        <ele>302</ele>
        <time>2012-04-15T06:54:53Z</time>
      </trkpt>
      <trkpt lat="48.38138" lon="6.86224">
        <ele>302.4</ele>
        <time>2012-04-15T06:54:54Z</time>
      </trkpt>
      <trkpt lat="48.38141" lon="6.86218">
        <ele>302.8</ele>
        <time>2012-04-15T06:54:55Z</time>
      </trkpt>
      <trkpt lat="48.38145" lon="6.86213">
        <ele>303.1</ele>
        <time>2012-04-15T06:54:56Z</time>
      </trkpt>
      <trkpt lat="48.38148" lon="6.86207">
        <ele>303.4</ele>
        <time>2012-04-15T06:54:57Z</time>
      </trkpt>
      <trkpt lat="48.38152" lon="6.86201">
        <ele>303.6</ele>
        <time>2012-04-15T06:54:58Z</time>
      </trkpt>
      <trkpt lat="48.38155" lon="6.86195">
        <ele>303.4</ele>
        <time>2012-04-15T06:54:59Z</time>
      </trkpt>
      <trkpt lat="48.38159" lon="6.8619">
        <ele>303.2</ele>
        <time>2012-04-15T06:55:00Z</time>
      </trkpt>
      <trkpt lat="48.38162" lon="6.86184">
        <ele>303.1</ele>
        <time>2012-04-15T06:55:01Z</time>
      </trkpt>
      <trkpt lat="48.38166" lon="6.86178">
        <ele>303.2</ele>
        <time>2012-04-15T06:55:02Z</time>
      </trkpt>
      <trkpt lat="48.3817" lon="6.86172">
        <ele>303.2</ele>
        <time>2012-04-15T06:55:03Z</time>
      </trkpt>
      <trkpt lat="48.38173" lon="6.86166">
        <ele>303.3</ele>
        <time>2012-04-15T06:55:04Z</time>
      </trkpt>
      <trkpt lat="48.38178" lon="6.86161">
        <ele>303.3</ele>
        <time>2012-04-15T06:55:05Z</time>
      </trkpt>
      <trkpt lat="48.38182" lon="6.86155">
        <ele>303.3</ele>
        <time>2012-04-15T06:55:06Z</time>
      </trkpt>
      <trkpt lat="48.38187" lon="6.86148">
        <ele>303.3</ele>
        <time>2012-04-15T06:55:07Z</time>
      </trkpt>
      <trkpt lat="48.38191" lon="6.86142">
        <ele>303.3</ele>
        <time>2012-04-15T06:55:08Z</time>
      </trkpt>
      <trkpt lat="48.38196" lon="6.86136">
        <ele>303.1</ele>
        <time>2012-04-15T06:55:09Z</time>
      </trkpt>
      <trkpt lat="48.382" lon="6.86129">
        <ele>303</ele>
        <time>2012-04-15T06:55:10Z</time>
      </trkpt>
      <trkpt lat="48.38205" lon="6.86123">
        <ele>302.8</ele>
        <time>2012-04-15T06:55:11Z</time>
      </trkpt>
      <trkpt lat="48.3821" lon="6.86116">
        <ele>303.3</ele>
        <time>2012-04-15T06:55:12Z</time>
      </trkpt>
      <trkpt lat="48.38215" lon="6.86109">
        <ele>303.6</ele>
        <time>2012-04-15T06:55:13Z</time>
      </trkpt>
      <trkpt lat="48.3822" lon="6.86102">
        <ele>303.8</ele>
        <time>2012-04-15T06:55:14Z</time>
      </trkpt>
      <trkpt lat="48.38224" lon="6.86095">
        <ele>303.4</ele>
        <time>2012-04-15T06:55:15Z</time>
      </trkpt>
      <trkpt lat="48.38229" lon="6.86088">
        <ele>303.1</ele>
        <time>2012-04-15T06:55:16Z</time>
      </trkpt>
      <trkpt lat="48.38234" lon="6.86081">
        <ele>302.9</ele>
        <time>2012-04-15T06:55:17Z</time>
      </trkpt>
      <trkpt lat="48.38238" lon="6.86073">
        <ele>302.7</ele>
        <time>2012-04-15T06:55:18Z</time>
      </trkpt>
      <trkpt lat="48.38243" lon="6.86066">
        <ele>302.5</ele>
        <time>2012-04-15T06:55:19Z</time>
      </trkpt>
      <trkpt lat="48.38248" lon="6.86058">
        <ele>302.4</ele>
        <time>2012-04-15T06:55:20Z</time>
      </trkpt>
      <trkpt lat="48.38252" lon="6.8605">
        <ele>302.3</ele>
        <time>2012-04-15T06:55:21Z</time>
      </trkpt>
      <trkpt lat="48.38257" lon="6.86043">
        <ele>302.3</ele>
        <time>2012-04-15T06:55:22Z</time>
      </trkpt>
      <trkpt lat="48.38261" lon="6.86036">
        <ele>302.3</ele>
        <time>2012-04-15T06:55:23Z</time>
      </trkpt>
      <trkpt lat="48.38266" lon="6.8603">
        <ele>302.3</ele>
        <time>2012-04-15T06:55:24Z</time>
      </trkpt>
      <trkpt lat="48.38271" lon="6.86024">
        <ele>301.5</ele>
        <time>2012-04-15T06:55:25Z</time>
      </trkpt>
      <trkpt lat="48.38276" lon="6.86018">
        <ele>300.8</ele>
        <time>2012-04-15T06:55:26Z</time>
      </trkpt>
      <trkpt lat="48.38281" lon="6.86012">
        <ele>300.4</ele>
        <time>2012-04-15T06:55:27Z</time>
      </trkpt>
      <trkpt lat="48.38286" lon="6.86007">
        <ele>300.5</ele>
        <time>2012-04-15T06:55:28Z</time>
      </trkpt>
      <trkpt lat="48.38291" lon="6.86002">
        <ele>300.6</ele>
        <time>2012-04-15T06:55:29Z</time>
      </trkpt>
      <trkpt lat="48.38296" lon="6.85998">
        <ele>300.6</ele>
        <time>2012-04-15T06:55:30Z</time>
      </trkpt>
      <trkpt lat="48.38301" lon="6.85993">
        <ele>300.4</ele>
        <time>2012-04-15T06:55:31Z</time>
      </trkpt>
      <trkpt lat="48.38306" lon="6.85989">
        <ele>300.3</ele>
        <time>2012-04-15T06:55:32Z</time>
      </trkpt>
      <trkpt lat="48.38311" lon="6.85985">
        <ele>300.2</ele>
        <time>2012-04-15T06:55:33Z</time>
      </trkpt>
      <trkpt lat="48.38316" lon="6.85983">
        <ele>299.9</ele>
        <time>2012-04-15T06:55:34Z</time>
      </trkpt>
      <trkpt lat="48.38321" lon="6.85981">
        <ele>299.8</ele>
        <time>2012-04-15T06:55:35Z</time>
      </trkpt>
      <trkpt lat="48.38326" lon="6.85979">
        <ele>299.6</ele>
        <time>2012-04-15T06:55:36Z</time>
      </trkpt>
      <trkpt lat="48.38332" lon="6.85977">
        <ele>300.6</ele>
        <time>2012-04-15T06:55:37Z</time>
      </trkpt>
      <trkpt lat="48.38337" lon="6.85976">
        <ele>301.3</ele>
        <time>2012-04-15T06:55:38Z</time>
      </trkpt>
      <trkpt lat="48.38343" lon="6.85975">
        <ele>301.8</ele>
        <time>2012-04-15T06:55:39Z</time>
      </trkpt>
      <trkpt lat="48.38349" lon="6.85974">
        <ele>302.2</ele>
        <time>2012-04-15T06:55:40Z</time>
      </trkpt>
      <trkpt lat="48.38354" lon="6.85974">
        <ele>302</ele>
        <time>2012-04-15T06:55:41Z</time>
      </trkpt>
      <trkpt lat="48.3836" lon="6.85973">
        <ele>301.8</ele>
        <time>2012-04-15T06:55:42Z</time>
      </trkpt>
      <trkpt lat="48.38366" lon="6.85973">
        <ele>301.7</ele>
        <time>2012-04-15T06:55:43Z</time>
      </trkpt>
      <trkpt lat="48.38372" lon="6.85972">
        <ele>301.4</ele>
        <time>2012-04-15T06:55:44Z</time>
      </trkpt>
      <trkpt lat="48.38378" lon="6.85971">
        <ele>301.2</ele>
        <time>2012-04-15T06:55:45Z</time>
      </trkpt>
      <trkpt lat="48.38383" lon="6.85971">
        <ele>301</ele>
        <time>2012-04-15T06:55:46Z</time>
      </trkpt>
      <trkpt lat="48.38389" lon="6.8597">
        <ele>301</ele>
        <time>2012-04-15T06:55:47Z</time>
      </trkpt>
      <trkpt lat="48.38395" lon="6.85969">
        <ele>301</ele>
        <time>2012-04-15T06:55:48Z</time>
      </trkpt>
      <trkpt lat="48.38401" lon="6.85966">
        <ele>301</ele>
        <time>2012-04-15T06:55:49Z</time>
      </trkpt>
      <trkpt lat="48.38407" lon="6.85964">
        <ele>300.7</ele>
        <time>2012-04-15T06:55:50Z</time>
      </trkpt>
      <trkpt lat="48.38412" lon="6.85962">
        <ele>300.4</ele>
        <time>2012-04-15T06:55:51Z</time>
      </trkpt>
      <trkpt lat="48.38417" lon="6.85959">
        <ele>300.2</ele>
        <time>2012-04-15T06:55:52Z</time>
      </trkpt>
      <trkpt lat="48.38422" lon="6.85957">
        <ele>300.3</ele>
        <time>2012-04-15T06:55:53Z</time>
      </trkpt>
      <trkpt lat="48.38427" lon="6.85954">
        <ele>300.5</ele>
        <time>2012-04-15T06:55:54Z</time>
      </trkpt>
      <trkpt lat="48.38432" lon="6.85952">
        <ele>300.6</ele>
        <time>2012-04-15T06:55:55Z</time>
      </trkpt>
      <trkpt lat="48.38437" lon="6.85949">
        <ele>300.6</ele>
        <time>2012-04-15T06:55:56Z</time>
      </trkpt>
      <trkpt lat="48.38441" lon="6.85947">
        <ele>300.8</ele>
        <time>2012-04-15T06:55:57Z</time>
      </trkpt>
      <trkpt lat="48.38446" lon="6.85945">
        <ele>300.9</ele>
        <time>2012-04-15T06:55:58Z</time>
      </trkpt>
      <trkpt lat="48.3845" lon="6.85942">
        <ele>301</ele>
        <time>2012-04-15T06:55:59Z</time>
      </trkpt>
      <trkpt lat="48.38455" lon="6.8594">
        <ele>301</ele>
        <time>2012-04-15T06:56:00Z</time>
      </trkpt>
      <trkpt lat="48.38463" lon="6.85935">
        <ele>301.1</ele>
        <time>2012-04-15T06:56:02Z</time>
      </trkpt>
      <trkpt lat="48.38471" lon="6.8593">
        <ele>301.8</ele>
        <time>2012-04-15T06:56:04Z</time>
      </trkpt>
      <trkpt lat="48.38479" lon="6.85927">
        <ele>302.1</ele>
        <time>2012-04-15T06:56:06Z</time>
      </trkpt>
      <trkpt lat="48.38486" lon="6.85924">
        <ele>302.1</ele>
        <time>2012-04-15T06:56:08Z</time>
      </trkpt>
      <trkpt lat="48.38494" lon="6.85922">
        <ele>302.5</ele>
        <time>2012-04-15T06:56:10Z</time>
      </trkpt>
      <trkpt lat="48.38503" lon="6.8592">
        <ele>302.7</ele>
        <time>2012-04-15T06:56:12Z</time>
      </trkpt>
      <trkpt lat="48.38508" lon="6.8592">
        <ele>302.8</ele>
        <time>2012-04-15T06:56:13Z</time>
      </trkpt>
      <trkpt lat="48.38513" lon="6.85921">
        <ele>302.8</ele>
        <time>2012-04-15T06:56:14Z</time>
      </trkpt>
      <trkpt lat="48.38521" lon="6.85921">
        <ele>303.1</ele>
        <time>2012-04-15T06:56:16Z</time>
      </trkpt>
      <trkpt lat="48.3853" lon="6.85923">
        <ele>303.5</ele>
        <time>2012-04-15T06:56:18Z</time>
      </trkpt>
      <trkpt lat="48.38538" lon="6.85926">
        <ele>303.7</ele>
        <time>2012-04-15T06:56:20Z</time>
      </trkpt>
      <trkpt lat="48.38543" lon="6.85926">
        <ele>303.8</ele>
        <time>2012-04-15T06:56:21Z</time>
      </trkpt>
      <trkpt lat="48.38548" lon="6.85924">
        <ele>303.4</ele>
        <time>2012-04-15T06:56:22Z</time>
      </trkpt>
      <trkpt lat="48.38553" lon="6.85921">
        <ele>303</ele>
        <time>2012-04-15T06:56:23Z</time>
      </trkpt>
      <trkpt lat="48.38558" lon="6.85917">
        <ele>302.8</ele>
        <time>2012-04-15T06:56:24Z</time>
      </trkpt>
      <trkpt lat="48.38561" lon="6.85912">
        <ele>303.1</ele>
        <time>2012-04-15T06:56:25Z</time>
      </trkpt>
      <trkpt lat="48.38565" lon="6.85902">
        <ele>303.4</ele>
        <time>2012-04-15T06:56:27Z</time>
      </trkpt>
      <trkpt lat="48.38565" lon="6.85889">
        <ele>304.4</ele>
        <time>2012-04-15T06:56:31Z</time>
      </trkpt>
      <trkpt lat="48.38564" lon="6.85878">
        <ele>306.5</ele>
        <time>2012-04-15T06:56:36Z</time>
      </trkpt>
      <trkpt lat="48.38561" lon="6.85867">
        <ele>307.5</ele>
        <time>2012-04-15T06:56:40Z</time>
      </trkpt>
      <trkpt lat="48.3856" lon="6.85854">
        <ele>309.1</ele>
        <time>2012-04-15T06:56:44Z</time>
      </trkpt>
      <trkpt lat="48.38557" lon="6.85843">
        <ele>310.1</ele>
        <time>2012-04-15T06:56:48Z</time>
      </trkpt>
      <trkpt lat="48.38554" lon="6.85833">
        <ele>311.6</ele>
        <time>2012-04-15T06:56:52Z</time>
      </trkpt>
      <trkpt lat="48.38551" lon="6.85822">
        <ele>313.4</ele>
        <time>2012-04-15T06:56:55Z</time>
      </trkpt>
      <trkpt lat="48.38547" lon="6.8581">
        <ele>313.7</ele>
        <time>2012-04-15T06:56:58Z</time>
      </trkpt>
      <trkpt lat="48.38544" lon="6.858">
        <ele>313.8</ele>
        <time>2012-04-15T06:57:00Z</time>
      </trkpt>
      <trkpt lat="48.38541" lon="6.85791">
        <ele>314.1</ele>
        <time>2012-04-15T06:57:02Z</time>
      </trkpt>
      <trkpt lat="48.38536" lon="6.85781">
        <ele>314.8</ele>
        <time>2012-04-15T06:57:05Z</time>
      </trkpt>
      <trkpt lat="48.38533" lon="6.85774">
        <ele>315.7</ele>
        <time>2012-04-15T06:57:07Z</time>
      </trkpt>
      <trkpt lat="48.38529" lon="6.85765">
        <ele>316.6</ele>
        <time>2012-04-15T06:57:09Z</time>
      </trkpt>
      <trkpt lat="48.38525" lon="6.85756">
        <ele>317.1</ele>
        <time>2012-04-15T06:57:11Z</time>
      </trkpt>
      <trkpt lat="48.38521" lon="6.85748">
        <ele>317.3</ele>
        <time>2012-04-15T06:57:13Z</time>
      </trkpt>
      <trkpt lat="48.38518" lon="6.8574">
        <ele>317.4</ele>
        <time>2012-04-15T06:57:15Z</time>
      </trkpt>
      <trkpt lat="48.38516" lon="6.85736">
        <ele>317.6</ele>
        <time>2012-04-15T06:57:16Z</time>
      </trkpt>
      <trkpt lat="48.38512" lon="6.85718">
        <ele>318</ele>
        <time>2012-04-15T06:57:20Z</time>
      </trkpt>
      <trkpt lat="48.3851" lon="6.85706">
        <ele>317.9</ele>
        <time>2012-04-15T06:57:22Z</time>
      </trkpt>
      <trkpt lat="48.38508" lon="6.85694">
        <ele>319.4</ele>
        <time>2012-04-15T06:57:24Z</time>
      </trkpt>
      <trkpt lat="48.38507" lon="6.85684">
        <ele>320</ele>
        <time>2012-04-15T06:57:26Z</time>
      </trkpt>
      <trkpt lat="48.38507" lon="6.85671">
        <ele>320.9</ele>
        <time>2012-04-15T06:57:29Z</time>
      </trkpt>
      <trkpt lat="48.38506" lon="6.85661">
        <ele>321.9</ele>
        <time>2012-04-15T06:57:31Z</time>
      </trkpt>
      <trkpt lat="48.38506" lon="6.8565">
        <ele>323.5</ele>
        <time>2012-04-15T06:57:33Z</time>
      </trkpt>
      <trkpt lat="48.38504" lon="6.85637">
        <ele>324.4</ele>
        <time>2012-04-15T06:57:36Z</time>
      </trkpt>
      <trkpt lat="48.38503" lon="6.85629">
        <ele>324.4</ele>
        <time>2012-04-15T06:57:38Z</time>
      </trkpt>
      <trkpt lat="48.38501" lon="6.85619">
        <ele>325.8</ele>
        <time>2012-04-15T06:57:40Z</time>
      </trkpt>
      <trkpt lat="48.38498" lon="6.85609">
        <ele>326</ele>
        <time>2012-04-15T06:57:42Z</time>
      </trkpt>
      <trkpt lat="48.38495" lon="6.856">
        <ele>325.5</ele>
        <time>2012-04-15T06:57:44Z</time>
      </trkpt>
      <trkpt lat="48.38491" lon="6.85591">
        <ele>326.5</ele>
        <time>2012-04-15T06:57:46Z</time>
      </trkpt>
      <trkpt lat="48.38488" lon="6.85583">
        <ele>327</ele>
        <time>2012-04-15T06:57:48Z</time>
      </trkpt>
      <trkpt lat="48.38485" lon="6.85573">
        <ele>327.4</ele>
        <time>2012-04-15T06:57:50Z</time>
      </trkpt>
      <trkpt lat="48.38483" lon="6.85564">
        <ele>328.2</ele>
        <time>2012-04-15T06:57:52Z</time>
      </trkpt>
      <trkpt lat="48.38481" lon="6.85554">
        <ele>328.7</ele>
        <time>2012-04-15T06:57:54Z</time>
      </trkpt>
      <trkpt lat="48.38479" lon="6.85544">
        <ele>329.8</ele>
        <time>2012-04-15T06:57:56Z</time>
      </trkpt>
      <trkpt lat="48.38478" lon="6.85533">
        <ele>330.5</ele>
        <time>2012-04-15T06:57:58Z</time>
      </trkpt>
      <trkpt lat="48.38479" lon="6.8552">
        <ele>330.9</ele>
        <time>2012-04-15T06:58:00Z</time>
      </trkpt>
      <trkpt lat="48.3848" lon="6.85509">
        <ele>331.1</ele>
        <time>2012-04-15T06:58:02Z</time>
      </trkpt>
      <trkpt lat="48.38483" lon="6.85497">
        <ele>331.2</ele>
        <time>2012-04-15T06:58:04Z</time>
      </trkpt>
      <trkpt lat="48.38486" lon="6.85487">
        <ele>331.4</ele>
        <time>2012-04-15T06:58:06Z</time>
      </trkpt>
      <trkpt lat="48.38491" lon="6.85478">
        <ele>331.4</ele>
        <time>2012-04-15T06:58:08Z</time>
      </trkpt>
      <trkpt lat="48.38494" lon="6.85468">
        <ele>331.4</ele>
        <time>2012-04-15T06:58:10Z</time>
      </trkpt>
      <trkpt lat="48.38498" lon="6.8546">
        <ele>331.7</ele>
        <time>2012-04-15T06:58:12Z</time>
      </trkpt>
      <trkpt lat="48.38507" lon="6.85457">
        <ele>334.3</ele>
        <time>2012-04-15T06:58:21Z</time>
      </trkpt>
      <trkpt lat="48.38507" lon="6.85457">
        <ele>334.8</ele>
        <time>2012-04-15T06:58:22Z</time>
      </trkpt>
      <trkpt lat="48.38522" lon="6.85458">
        <ele>338</ele>
        <time>2012-04-15T06:58:36Z</time>
      </trkpt>
      <trkpt lat="48.38531" lon="6.85459">
        <ele>339.9</ele>
        <time>2012-04-15T06:58:40Z</time>
      </trkpt>
      <trkpt lat="48.38538" lon="6.85463">
        <ele>341.2</ele>
        <time>2012-04-15T06:58:43Z</time>
      </trkpt>
      <trkpt lat="48.38546" lon="6.85465">
        <ele>342.4</ele>
        <time>2012-04-15T06:58:47Z</time>
      </trkpt>
      <trkpt lat="48.38553" lon="6.85467">
        <ele>343</ele>
        <time>2012-04-15T06:58:50Z</time>
      </trkpt>
      <trkpt lat="48.3856" lon="6.8547">
        <ele>343.4</ele>
        <time>2012-04-15T06:58:53Z</time>
      </trkpt>
      <trkpt lat="48.38566" lon="6.85471">
        <ele>343.7</ele>
        <time>2012-04-15T06:58:55Z</time>
      </trkpt>
      <trkpt lat="48.38573" lon="6.85471">
        <ele>344</ele>
        <time>2012-04-15T06:58:57Z</time>
      </trkpt>
      <trkpt lat="48.38581" lon="6.8547">
        <ele>344.5</ele>
        <time>2012-04-15T06:59:00Z</time>
      </trkpt>
      <trkpt lat="48.38589" lon="6.85469">
        <ele>344.8</ele>
        <time>2012-04-15T06:59:03Z</time>
      </trkpt>
      <trkpt lat="48.38597" lon="6.85469">
        <ele>346.1</ele>
        <time>2012-04-15T06:59:06Z</time>
      </trkpt>
      <trkpt lat="48.38604" lon="6.8547">
        <ele>346.9</ele>
        <time>2012-04-15T06:59:08Z</time>
      </trkpt>
      <trkpt lat="48.3861" lon="6.85471">
        <ele>347.4</ele>
        <time>2012-04-15T06:59:10Z</time>
      </trkpt>
      <trkpt lat="48.38618" lon="6.85471">
        <ele>347.9</ele>
        <time>2012-04-15T06:59:13Z</time>
      </trkpt>
      <trkpt lat="48.38627" lon="6.85471">
        <ele>348.5</ele>
        <time>2012-04-15T06:59:16Z</time>
      </trkpt>
      <trkpt lat="48.38635" lon="6.8547">
        <ele>348.6</ele>
        <time>2012-04-15T06:59:19Z</time>
      </trkpt>
      <trkpt lat="48.38641" lon="6.85469">
        <ele>348.8</ele>
        <time>2012-04-15T06:59:21Z</time>
      </trkpt>
      <trkpt lat="48.38648" lon="6.8547">
        <ele>349.1</ele>
        <time>2012-04-15T06:59:23Z</time>
      </trkpt>
      <trkpt lat="48.38651" lon="6.8547">
        <ele>349.5</ele>
        <time>2012-04-15T06:59:24Z</time>
      </trkpt>
      <trkpt lat="48.38663" lon="6.85471">
        <ele>351.2</ele>
        <time>2012-04-15T06:59:29Z</time>
      </trkpt>
      <trkpt lat="48.3867" lon="6.85473">
        <ele>351.5</ele>
        <time>2012-04-15T06:59:31Z</time>
      </trkpt>
      <trkpt lat="48.38678" lon="6.85472">
        <ele>351.6</ele>
        <time>2012-04-15T06:59:34Z</time>
      </trkpt>
      <trkpt lat="48.38684" lon="6.85471">
        <ele>351.5</ele>
        <time>2012-04-15T06:59:36Z</time>
      </trkpt>
      <trkpt lat="48.38691" lon="6.85471">
        <ele>352.1</ele>
        <time>2012-04-15T06:59:38Z</time>
      </trkpt>
      <trkpt lat="48.38699" lon="6.85466">
        <ele>352.4</ele>
        <time>2012-04-15T06:59:41Z</time>
      </trkpt>
      <trkpt lat="48.38707" lon="6.85462">
        <ele>352.4</ele>
        <time>2012-04-15T06:59:44Z</time>
      </trkpt>
      <trkpt lat="48.38716" lon="6.8546">
        <ele>353.1</ele>
        <time>2012-04-15T06:59:47Z</time>
      </trkpt>
      <trkpt lat="48.38724" lon="6.85458">
        <ele>353.7</ele>
        <time>2012-04-15T06:59:50Z</time>
      </trkpt>
      <trkpt lat="48.3873" lon="6.85457">
        <ele>354</ele>
        <time>2012-04-15T06:59:52Z</time>
      </trkpt>
      <trkpt lat="48.38739" lon="6.85456">
        <ele>353.5</ele>
        <time>2012-04-15T06:59:55Z</time>
      </trkpt>
      <trkpt lat="48.38744" lon="6.85448">
        <ele>354.4</ele>
        <time>2012-04-15T06:59:58Z</time>
      </trkpt>
      <trkpt lat="48.3875" lon="6.85443">
        <ele>355.1</ele>
        <time>2012-04-15T07:00:01Z</time>
      </trkpt>
      <trkpt lat="48.38756" lon="6.85437">
        <ele>354.3</ele>
        <time>2012-04-15T07:00:04Z</time>
      </trkpt>
      <trkpt lat="48.38763" lon="6.8543">
        <ele>354.1</ele>
        <time>2012-04-15T07:00:07Z</time>
      </trkpt>
      <trkpt lat="48.38767" lon="6.85424">
        <ele>353.9</ele>
        <time>2012-04-15T07:00:09Z</time>
      </trkpt>
      <trkpt lat="48.38772" lon="6.85417">
        <ele>353.5</ele>
        <time>2012-04-15T07:00:11Z</time>
      </trkpt>
      <trkpt lat="48.38776" lon="6.8541">
        <ele>354.4</ele>
        <time>2012-04-15T07:00:13Z</time>
      </trkpt>
      <trkpt lat="48.38779" lon="6.85402">
        <ele>354.3</ele>
        <time>2012-04-15T07:00:15Z</time>
      </trkpt>
      <trkpt lat="48.38781" lon="6.85393">
        <ele>353.7</ele>
        <time>2012-04-15T07:00:17Z</time>
      </trkpt>
      <trkpt lat="48.38784" lon="6.85381">
        <ele>353.6</ele>
        <time>2012-04-15T07:00:20Z</time>
      </trkpt>
      <trkpt lat="48.38786" lon="6.85368">
        <ele>354.3</ele>
        <time>2012-04-15T07:00:24Z</time>
      </trkpt>
      <trkpt lat="48.38785" lon="6.85365">
        <ele>354.8</ele>
        <time>2012-04-15T07:00:25Z</time>
      </trkpt>
      <trkpt lat="48.38784" lon="6.85345">
        <ele>355.6</ele>
        <time>2012-04-15T07:00:30Z</time>
      </trkpt>
      <trkpt lat="48.38784" lon="6.85334">
        <ele>355.6</ele>
        <time>2012-04-15T07:00:32Z</time>
      </trkpt>
      <trkpt lat="48.38785" lon="6.85327">
        <ele>355.6</ele>
        <time>2012-04-15T07:00:33Z</time>
      </trkpt>
      <trkpt lat="48.38786" lon="6.85319">
        <ele>355.9</ele>
        <time>2012-04-15T07:00:34Z</time>
      </trkpt>
      <trkpt lat="48.38788" lon="6.85307">
        <ele>356.4</ele>
        <time>2012-04-15T07:00:36Z</time>
      </trkpt>
      <trkpt lat="48.3879" lon="6.85297">
        <ele>356.5</ele>
        <time>2012-04-15T07:00:38Z</time>
      </trkpt>
      <trkpt lat="48.38793" lon="6.85286">
        <ele>356.4</ele>
        <time>2012-04-15T07:00:40Z</time>
      </trkpt>
      <trkpt lat="48.38796" lon="6.85274">
        <ele>356.3</ele>
        <time>2012-04-15T07:00:42Z</time>
      </trkpt>
      <trkpt lat="48.38799" lon="6.85267">
        <ele>356.2</ele>
        <time>2012-04-15T07:00:43Z</time>
      </trkpt>
      <trkpt lat="48.38804" lon="6.85256">
        <ele>357</ele>
        <time>2012-04-15T07:00:45Z</time>
      </trkpt>
      <trkpt lat="48.3881" lon="6.85247">
        <ele>357.2</ele>
        <time>2012-04-15T07:00:47Z</time>
      </trkpt>
      <trkpt lat="48.38817" lon="6.85238">
        <ele>357.1</ele>
        <time>2012-04-15T07:00:49Z</time>
      </trkpt>
      <trkpt lat="48.38823" lon="6.85229">
        <ele>358.3</ele>
        <time>2012-04-15T07:00:51Z</time>
      </trkpt>
      <trkpt lat="48.3883" lon="6.85221">
        <ele>359</ele>
        <time>2012-04-15T07:00:53Z</time>
      </trkpt>
      <trkpt lat="48.38837" lon="6.85215">
        <ele>359.4</ele>
        <time>2012-04-15T07:00:55Z</time>
      </trkpt>
      <trkpt lat="48.38841" lon="6.85212">
        <ele>359.6</ele>
        <time>2012-04-15T07:00:56Z</time>
      </trkpt>
      <trkpt lat="48.3885" lon="6.85209">
        <ele>359.9</ele>
        <time>2012-04-15T07:00:58Z</time>
      </trkpt>
      <trkpt lat="48.38856" lon="6.85206">
        <ele>360.1</ele>
        <time>2012-04-15T07:01:00Z</time>
      </trkpt>
      <trkpt lat="48.38862" lon="6.85203">
        <ele>360.2</ele>
        <time>2012-04-15T07:01:02Z</time>
      </trkpt>
      <trkpt lat="48.3887" lon="6.85197">
        <ele>360.6</ele>
        <time>2012-04-15T07:01:05Z</time>
      </trkpt>
      <trkpt lat="48.38877" lon="6.85193">
        <ele>361.2</ele>
        <time>2012-04-15T07:01:07Z</time>
      </trkpt>
      <trkpt lat="48.38884" lon="6.8519">
        <ele>361.5</ele>
        <time>2012-04-15T07:01:09Z</time>
      </trkpt>
      <trkpt lat="48.38891" lon="6.85187">
        <ele>361.7</ele>
        <time>2012-04-15T07:01:11Z</time>
      </trkpt>
      <trkpt lat="48.38898" lon="6.85184">
        <ele>361.7</ele>
        <time>2012-04-15T07:01:13Z</time>
      </trkpt>
      <trkpt lat="48.38906" lon="6.85182">
        <ele>361.6</ele>
        <time>2012-04-15T07:01:15Z</time>
      </trkpt>
      <trkpt lat="48.38912" lon="6.85177">
        <ele>361.2</ele>
        <time>2012-04-15T07:01:17Z</time>
      </trkpt>
      <trkpt lat="48.38917" lon="6.85171">
        <ele>361.5</ele>
        <time>2012-04-15T07:01:19Z</time>
      </trkpt>
      <trkpt lat="48.38921" lon="6.85164">
        <ele>361.9</ele>
        <time>2012-04-15T07:01:21Z</time>
      </trkpt>
      <trkpt lat="48.38926" lon="6.85158">
        <ele>361.9</ele>
        <time>2012-04-15T07:01:23Z</time>
      </trkpt>
      <trkpt lat="48.38932" lon="6.85152">
        <ele>361.9</ele>
        <time>2012-04-15T07:01:25Z</time>
      </trkpt>
      <trkpt lat="48.38934" lon="6.85149">
        <ele>361.8</ele>
        <time>2012-04-15T07:01:26Z</time>
      </trkpt>
      <trkpt lat="48.38944" lon="6.8514">
        <ele>361.7</ele>
        <time>2012-04-15T07:01:29Z</time>
      </trkpt>
      <trkpt lat="48.38952" lon="6.85136">
        <ele>361.7</ele>
        <time>2012-04-15T07:01:31Z</time>
      </trkpt>
      <trkpt lat="48.38958" lon="6.85133">
        <ele>362.2</ele>
        <time>2012-04-15T07:01:33Z</time>
      </trkpt>
      <trkpt lat="48.38964" lon="6.85132">
        <ele>361.9</ele>
        <time>2012-04-15T07:01:35Z</time>
      </trkpt>
      <trkpt lat="48.38971" lon="6.85131">
        <ele>361.3</ele>
        <time>2012-04-15T07:01:37Z</time>
      </trkpt>
      <trkpt lat="48.38979" lon="6.85133">
        <ele>361.4</ele>
        <time>2012-04-15T07:01:40Z</time>
      </trkpt>
      <trkpt lat="48.38986" lon="6.85135">
        <ele>361.5</ele>
        <time>2012-04-15T07:01:42Z</time>
      </trkpt>
      <trkpt lat="48.38994" lon="6.85139">
        <ele>361.5</ele>
        <time>2012-04-15T07:01:44Z</time>
      </trkpt>
      <trkpt lat="48.39002" lon="6.85142">
        <ele>361.4</ele>
        <time>2012-04-15T07:01:46Z</time>
      </trkpt>
      <trkpt lat="48.39011" lon="6.85144">
        <ele>360.3</ele>
        <time>2012-04-15T07:01:49Z</time>
      </trkpt>
      <trkpt lat="48.39015" lon="6.8515">
        <ele>360</ele>
        <time>2012-04-15T07:01:51Z</time>
      </trkpt>
      <trkpt lat="48.39021" lon="6.85157">
        <ele>360.1</ele>
        <time>2012-04-15T07:01:53Z</time>
      </trkpt>
      <trkpt lat="48.39028" lon="6.85163">
        <ele>360</ele>
        <time>2012-04-15T07:01:55Z</time>
      </trkpt>
      <trkpt lat="48.39035" lon="6.85166">
        <ele>359.8</ele>
        <time>2012-04-15T07:01:57Z</time>
      </trkpt>
      <trkpt lat="48.3904" lon="6.85168">
        <ele>359.6</ele>
        <time>2012-04-15T07:01:58Z</time>
      </trkpt>
      <trkpt lat="48.39045" lon="6.85171">
        <ele>359.4</ele>
        <time>2012-04-15T07:01:59Z</time>
      </trkpt>
      <trkpt lat="48.3905" lon="6.85172">
        <ele>359.9</ele>
        <time>2012-04-15T07:02:00Z</time>
      </trkpt>
      <trkpt lat="48.39056" lon="6.85172">
        <ele>360.3</ele>
        <time>2012-04-15T07:02:01Z</time>
      </trkpt>
      <trkpt lat="48.39061" lon="6.85173">
        <ele>360.5</ele>
        <time>2012-04-15T07:02:02Z</time>
      </trkpt>
      <trkpt lat="48.39066" lon="6.85173">
        <ele>360.7</ele>
        <time>2012-04-15T07:02:03Z</time>
      </trkpt>
      <trkpt lat="48.39071" lon="6.85172">
        <ele>360.7</ele>
        <time>2012-04-15T07:02:04Z</time>
      </trkpt>
      <trkpt lat="48.39076" lon="6.85172">
        <ele>360.7</ele>
        <time>2012-04-15T07:02:05Z</time>
      </trkpt>
      <trkpt lat="48.3908" lon="6.8517">
        <ele>360.7</ele>
        <time>2012-04-15T07:02:06Z</time>
      </trkpt>
      <trkpt lat="48.39085" lon="6.85169">
        <ele>361</ele>
        <time>2012-04-15T07:02:07Z</time>
      </trkpt>
      <trkpt lat="48.3909" lon="6.85168">
        <ele>361.2</ele>
        <time>2012-04-15T07:02:08Z</time>
      </trkpt>
      <trkpt lat="48.39095" lon="6.85166">
        <ele>361.3</ele>
        <time>2012-04-15T07:02:09Z</time>
      </trkpt>
      <trkpt lat="48.39099" lon="6.85164">
        <ele>360.8</ele>
        <time>2012-04-15T07:02:10Z</time>
      </trkpt>
      <trkpt lat="48.39104" lon="6.85161">
        <ele>360.5</ele>
        <time>2012-04-15T07:02:11Z</time>
      </trkpt>
      <trkpt lat="48.3911" lon="6.85155">
        <ele>359.9</ele>
        <time>2012-04-15T07:02:13Z</time>
      </trkpt>
      <trkpt lat="48.39117" lon="6.85147">
        <ele>359.4</ele>
        <time>2012-04-15T07:02:15Z</time>
      </trkpt>
      <trkpt lat="48.39123" lon="6.85141">
        <ele>359.6</ele>
        <time>2012-04-15T07:02:17Z</time>
      </trkpt>
      <trkpt lat="48.39128" lon="6.85135">
        <ele>359.7</ele>
        <time>2012-04-15T07:02:19Z</time>
      </trkpt>
      <trkpt lat="48.39134" lon="6.8513">
        <ele>358.9</ele>
        <time>2012-04-15T07:02:21Z</time>
      </trkpt>
      <trkpt lat="48.39141" lon="6.85126">
        <ele>358.6</ele>
        <time>2012-04-15T07:02:23Z</time>
      </trkpt>
      <trkpt lat="48.39149" lon="6.8512">
        <ele>358.6</ele>
        <time>2012-04-15T07:02:25Z</time>
      </trkpt>
      <trkpt lat="48.39155" lon="6.85115">
        <ele>359.1</ele>
        <time>2012-04-15T07:02:27Z</time>
      </trkpt>
      <trkpt lat="48.39158" lon="6.85113">
        <ele>359.3</ele>
        <time>2012-04-15T07:02:28Z</time>
      </trkpt>
      <trkpt lat="48.39167" lon="6.85105">
        <ele>359.7</ele>
        <time>2012-04-15T07:02:30Z</time>
      </trkpt>
      <trkpt lat="48.39171" lon="6.851">
        <ele>359.8</ele>
        <time>2012-04-15T07:02:31Z</time>
      </trkpt>
      <trkpt lat="48.39179" lon="6.85093">
        <ele>359.7</ele>
        <time>2012-04-15T07:02:33Z</time>
      </trkpt>
      <trkpt lat="48.39183" lon="6.85089">
        <ele>359.7</ele>
        <time>2012-04-15T07:02:34Z</time>
      </trkpt>
      <trkpt lat="48.39188" lon="6.85085">
        <ele>359.7</ele>
        <time>2012-04-15T07:02:35Z</time>
      </trkpt>
      <trkpt lat="48.39193" lon="6.8508">
        <ele>359.3</ele>
        <time>2012-04-15T07:02:36Z</time>
      </trkpt>
      <trkpt lat="48.39198" lon="6.85076">
        <ele>359.1</ele>
        <time>2012-04-15T07:02:37Z</time>
      </trkpt>
      <trkpt lat="48.39202" lon="6.85072">
        <ele>358.8</ele>
        <time>2012-04-15T07:02:38Z</time>
      </trkpt>
      <trkpt lat="48.39207" lon="6.85067">
        <ele>358.9</ele>
        <time>2012-04-15T07:02:39Z</time>
      </trkpt>
      <trkpt lat="48.39212" lon="6.85063">
        <ele>358.9</ele>
        <time>2012-04-15T07:02:40Z</time>
      </trkpt>
      <trkpt lat="48.39216" lon="6.85059">
        <ele>359</ele>
        <time>2012-04-15T07:02:41Z</time>
      </trkpt>
      <trkpt lat="48.3922" lon="6.85054">
        <ele>358.6</ele>
        <time>2012-04-15T07:02:42Z</time>
      </trkpt>
      <trkpt lat="48.39223" lon="6.85049">
        <ele>358.2</ele>
        <time>2012-04-15T07:02:43Z</time>
      </trkpt>
      <trkpt lat="48.39229" lon="6.8504">
        <ele>358</ele>
        <time>2012-04-15T07:02:45Z</time>
      </trkpt>
      <trkpt lat="48.39235" lon="6.8503">
        <ele>357.9</ele>
        <time>2012-04-15T07:02:47Z</time>
      </trkpt>
      <trkpt lat="48.39238" lon="6.8502">
        <ele>357.9</ele>
        <time>2012-04-15T07:02:49Z</time>
      </trkpt>
      <trkpt lat="48.39238" lon="6.85008">
        <ele>358</ele>
        <time>2012-04-15T07:02:52Z</time>
      </trkpt>
      <trkpt lat="48.39237" lon="6.84998">
        <ele>358</ele>
        <time>2012-04-15T07:02:55Z</time>
      </trkpt>
      <trkpt lat="48.3924" lon="6.84989">
        <ele>357.8</ele>
        <time>2012-04-15T07:02:57Z</time>
      </trkpt>
      <trkpt lat="48.39245" lon="6.84982">
        <ele>357.9</ele>
        <time>2012-04-15T07:02:59Z</time>
      </trkpt>
      <trkpt lat="48.39253" lon="6.84976">
        <ele>358.3</ele>
        <time>2012-04-15T07:03:01Z</time>
      </trkpt>
      <trkpt lat="48.39257" lon="6.84973">
        <ele>358.6</ele>
        <time>2012-04-15T07:03:02Z</time>
      </trkpt>
      <trkpt lat="48.39262" lon="6.84969">
        <ele>358.8</ele>
        <time>2012-04-15T07:03:03Z</time>
      </trkpt>
      <trkpt lat="48.39269" lon="6.84962">
        <ele>358.9</ele>
        <time>2012-04-15T07:03:05Z</time>
      </trkpt>
      <trkpt lat="48.39273" lon="6.84958">
        <ele>358.9</ele>
        <time>2012-04-15T07:03:06Z</time>
      </trkpt>
      <trkpt lat="48.39276" lon="6.84953">
        <ele>358.5</ele>
        <time>2012-04-15T07:03:07Z</time>
      </trkpt>
      <trkpt lat="48.3928" lon="6.84947">
        <ele>358.3</ele>
        <time>2012-04-15T07:03:08Z</time>
      </trkpt>
      <trkpt lat="48.39283" lon="6.84942">
        <ele>358.1</ele>
        <time>2012-04-15T07:03:09Z</time>
      </trkpt>
      <trkpt lat="48.39286" lon="6.84936">
        <ele>357.9</ele>
        <time>2012-04-15T07:03:10Z</time>
      </trkpt>
      <trkpt lat="48.3929" lon="6.84929">
        <ele>357.7</ele>
        <time>2012-04-15T07:03:11Z</time>
      </trkpt>
      <trkpt lat="48.39293" lon="6.84923">
        <ele>357.6</ele>
        <time>2012-04-15T07:03:12Z</time>
      </trkpt>
      <trkpt lat="48.39297" lon="6.84916">
        <ele>357.4</ele>
        <time>2012-04-15T07:03:13Z</time>
      </trkpt>
      <trkpt lat="48.39301" lon="6.8491">
        <ele>356.6</ele>
        <time>2012-04-15T07:03:14Z</time>
      </trkpt>
      <trkpt lat="48.39306" lon="6.84904">
        <ele>356</ele>
        <time>2012-04-15T07:03:15Z</time>
      </trkpt>
      <trkpt lat="48.39311" lon="6.849">
        <ele>355.6</ele>
        <time>2012-04-15T07:03:16Z</time>
      </trkpt>
      <trkpt lat="48.39316" lon="6.84897">
        <ele>354.9</ele>
        <time>2012-04-15T07:03:17Z</time>
      </trkpt>
      <trkpt lat="48.39324" lon="6.84891">
        <ele>353.9</ele>
        <time>2012-04-15T07:03:19Z</time>
      </trkpt>
      <trkpt lat="48.39331" lon="6.84886">
        <ele>352.8</ele>
        <time>2012-04-15T07:03:22Z</time>
      </trkpt>
      <trkpt lat="48.39339" lon="6.84885">
        <ele>351.5</ele>
        <time>2012-04-15T07:03:25Z</time>
      </trkpt>
      <trkpt lat="48.39347" lon="6.84885">
        <ele>351.6</ele>
        <time>2012-04-15T07:03:28Z</time>
      </trkpt>
      <trkpt lat="48.3935" lon="6.84885">
        <ele>351.7</ele>
        <time>2012-04-15T07:03:29Z</time>
      </trkpt>
      <trkpt lat="48.39363" lon="6.84884">
        <ele>351.4</ele>
        <time>2012-04-15T07:03:32Z</time>
      </trkpt>
      <trkpt lat="48.39372" lon="6.84885">
        <ele>351.7</ele>
        <time>2012-04-15T07:03:34Z</time>
      </trkpt>
      <trkpt lat="48.39377" lon="6.84888">
        <ele>351.8</ele>
        <time>2012-04-15T07:03:35Z</time>
      </trkpt>
      <trkpt lat="48.39384" lon="6.84889">
        <ele>351.3</ele>
        <time>2012-04-15T07:03:36Z</time>
      </trkpt>
      <trkpt lat="48.3939" lon="6.84889">
        <ele>351</ele>
        <time>2012-04-15T07:03:37Z</time>
      </trkpt>
      <trkpt lat="48.39397" lon="6.84888">
        <ele>350.7</ele>
        <time>2012-04-15T07:03:38Z</time>
      </trkpt>
      <trkpt lat="48.39405" lon="6.84887">
        <ele>349.6</ele>
        <time>2012-04-15T07:03:39Z</time>
      </trkpt>
      <trkpt lat="48.39413" lon="6.84885">
        <ele>348.9</ele>
        <time>2012-04-15T07:03:40Z</time>
      </trkpt>
      <trkpt lat="48.39418" lon="6.84882">
        <ele>348.3</ele>
        <time>2012-04-15T07:03:41Z</time>
      </trkpt>
      <trkpt lat="48.39424" lon="6.84873">
        <ele>347.7</ele>
        <time>2012-04-15T07:03:43Z</time>
      </trkpt>
      <trkpt lat="48.39429" lon="6.84863">
        <ele>347.6</ele>
        <time>2012-04-15T07:03:45Z</time>
      </trkpt>
      <trkpt lat="48.39435" lon="6.84854">
        <ele>347.9</ele>
        <time>2012-04-15T07:03:47Z</time>
      </trkpt>
      <trkpt lat="48.39441" lon="6.84844">
        <ele>348.5</ele>
        <time>2012-04-15T07:03:49Z</time>
      </trkpt>
      <trkpt lat="48.39444" lon="6.84839">
        <ele>348.9</ele>
        <time>2012-04-15T07:03:50Z</time>
      </trkpt>
      <trkpt lat="48.39447" lon="6.84833">
        <ele>349.2</ele>
        <time>2012-04-15T07:03:51Z</time>
      </trkpt>
      <trkpt lat="48.3945" lon="6.84828">
        <ele>349.6</ele>
        <time>2012-04-15T07:03:52Z</time>
      </trkpt>
      <trkpt lat="48.39453" lon="6.84822">
        <ele>349.9</ele>
        <time>2012-04-15T07:03:53Z</time>
      </trkpt>
      <trkpt lat="48.39456" lon="6.84816">
        <ele>350.2</ele>
        <time>2012-04-15T07:03:54Z</time>
      </trkpt>
      <trkpt lat="48.39459" lon="6.8481">
        <ele>350.1</ele>
        <time>2012-04-15T07:03:55Z</time>
      </trkpt>
      <trkpt lat="48.39461" lon="6.84805">
        <ele>350</ele>
        <time>2012-04-15T07:03:56Z</time>
      </trkpt>
      <trkpt lat="48.39464" lon="6.84799">
        <ele>349.9</ele>
        <time>2012-04-15T07:03:57Z</time>
      </trkpt>
      <trkpt lat="48.39468" lon="6.84793">
        <ele>349.9</ele>
        <time>2012-04-15T07:03:58Z</time>
      </trkpt>
      <trkpt lat="48.39471" lon="6.84786">
        <ele>349.6</ele>
        <time>2012-04-15T07:03:59Z</time>
      </trkpt>
      <trkpt lat="48.39475" lon="6.84779">
        <ele>349.4</ele>
        <time>2012-04-15T07:04:00Z</time>
      </trkpt>
      <trkpt lat="48.39479" lon="6.84771">
        <ele>349.3</ele>
        <time>2012-04-15T07:04:01Z</time>
      </trkpt>
      <trkpt lat="48.39483" lon="6.84764">
        <ele>349.4</ele>
        <time>2012-04-15T07:04:02Z</time>
      </trkpt>
      <trkpt lat="48.39488" lon="6.84756">
        <ele>349.6</ele>
        <time>2012-04-15T07:04:03Z</time>
      </trkpt>
      <trkpt lat="48.39492" lon="6.84747">
        <ele>349.7</ele>
        <time>2012-04-15T07:04:04Z</time>
      </trkpt>
      <trkpt lat="48.39497" lon="6.84739">
        <ele>349</ele>
        <time>2012-04-15T07:04:05Z</time>
      </trkpt>
      <trkpt lat="48.39501" lon="6.84729">
        <ele>348.5</ele>
        <time>2012-04-15T07:04:06Z</time>
      </trkpt>
      <trkpt lat="48.39506" lon="6.84719">
        <ele>348.2</ele>
        <time>2012-04-15T07:04:07Z</time>
      </trkpt>
      <trkpt lat="48.39512" lon="6.84709">
        <ele>347.2</ele>
        <time>2012-04-15T07:04:08Z</time>
      </trkpt>
      <trkpt lat="48.39517" lon="6.84697">
        <ele>346.5</ele>
        <time>2012-04-15T07:04:09Z</time>
      </trkpt>
      <trkpt lat="48.39523" lon="6.84685">
        <ele>346</ele>
        <time>2012-04-15T07:04:10Z</time>
      </trkpt>
      <trkpt lat="48.39527" lon="6.84673">
        <ele>344.6</ele>
        <time>2012-04-15T07:04:11Z</time>
      </trkpt>
      <trkpt lat="48.39532" lon="6.84661">
        <ele>343.6</ele>
        <time>2012-04-15T07:04:12Z</time>
      </trkpt>
      <trkpt lat="48.39536" lon="6.8465">
        <ele>342.8</ele>
        <time>2012-04-15T07:04:13Z</time>
      </trkpt>
      <trkpt lat="48.39539" lon="6.84639">
        <ele>342.3</ele>
        <time>2012-04-15T07:04:14Z</time>
      </trkpt>
      <trkpt lat="48.39543" lon="6.84629">
        <ele>342.2</ele>
        <time>2012-04-15T07:04:15Z</time>
      </trkpt>
      <trkpt lat="48.39547" lon="6.84618">
        <ele>342.1</ele>
        <time>2012-04-15T07:04:16Z</time>
      </trkpt>
      <trkpt lat="48.39551" lon="6.84607">
        <ele>342.1</ele>
        <time>2012-04-15T07:04:17Z</time>
      </trkpt>
      <trkpt lat="48.39555" lon="6.84597">
        <ele>341.8</ele>
        <time>2012-04-15T07:04:18Z</time>
      </trkpt>
      <trkpt lat="48.39558" lon="6.84586">
        <ele>341.6</ele>
        <time>2012-04-15T07:04:19Z</time>
      </trkpt>
      <trkpt lat="48.39561" lon="6.84576">
        <ele>341.5</ele>
        <time>2012-04-15T07:04:20Z</time>
      </trkpt>
      <trkpt lat="48.39564" lon="6.84567">
        <ele>341.3</ele>
        <time>2012-04-15T07:04:21Z</time>
      </trkpt>
      <trkpt lat="48.39566" lon="6.84559">
        <ele>341.1</ele>
        <time>2012-04-15T07:04:22Z</time>
      </trkpt>
      <trkpt lat="48.39569" lon="6.84546">
        <ele>341.4</ele>
        <time>2012-04-15T07:04:24Z</time>
      </trkpt>
      <trkpt lat="48.39572" lon="6.84534">
        <ele>342.9</ele>
        <time>2012-04-15T07:04:27Z</time>
      </trkpt>
      <trkpt lat="48.39574" lon="6.84522">
        <ele>344.5</ele>
        <time>2012-04-15T07:04:30Z</time>
      </trkpt>
      <trkpt lat="48.39575" lon="6.84517">
        <ele>344.8</ele>
        <time>2012-04-15T07:04:31Z</time>
      </trkpt>
      <trkpt lat="48.39578" lon="6.84503">
        <ele>345.2</ele>
        <time>2012-04-15T07:04:34Z</time>
      </trkpt>
      <trkpt lat="48.3958" lon="6.84494">
        <ele>345.3</ele>
        <time>2012-04-15T07:04:36Z</time>
      </trkpt>
      <trkpt lat="48.39582" lon="6.84485">
        <ele>346</ele>
        <time>2012-04-15T07:04:38Z</time>
      </trkpt>
      <trkpt lat="48.39584" lon="6.84476">
        <ele>346.3</ele>
        <time>2012-04-15T07:04:40Z</time>
      </trkpt>
      <trkpt lat="48.39587" lon="6.84468">
        <ele>346.4</ele>
        <time>2012-04-15T07:04:42Z</time>
      </trkpt>
      <trkpt lat="48.39588" lon="6.84459">
        <ele>347.3</ele>
        <time>2012-04-15T07:04:44Z</time>
      </trkpt>
      <trkpt lat="48.3959" lon="6.8445">
        <ele>348</ele>
        <time>2012-04-15T07:04:46Z</time>
      </trkpt>
      <trkpt lat="48.39591" lon="6.84441">
        <ele>348.6</ele>
        <time>2012-04-15T07:04:48Z</time>
      </trkpt>
      <trkpt lat="48.39593" lon="6.84431">
        <ele>349.4</ele>
        <time>2012-04-15T07:04:50Z</time>
      </trkpt>
      <trkpt lat="48.39594" lon="6.84421">
        <ele>350.2</ele>
        <time>2012-04-15T07:04:52Z</time>
      </trkpt>
      <trkpt lat="48.39596" lon="6.8441">
        <ele>352.4</ele>
        <time>2012-04-15T07:04:55Z</time>
      </trkpt>
      <trkpt lat="48.39597" lon="6.84399">
        <ele>352.9</ele>
        <time>2012-04-15T07:04:58Z</time>
      </trkpt>
      <trkpt lat="48.39599" lon="6.84387">
        <ele>354.2</ele>
        <time>2012-04-15T07:05:01Z</time>
      </trkpt>
      <trkpt lat="48.396" lon="6.84375">
        <ele>356.4</ele>
        <time>2012-04-15T07:05:04Z</time>
      </trkpt>
      <trkpt lat="48.39601" lon="6.84364">
        <ele>357.9</ele>
        <time>2012-04-15T07:05:07Z</time>
      </trkpt>
      <trkpt lat="48.39602" lon="6.84352">
        <ele>358.6</ele>
        <time>2012-04-15T07:05:10Z</time>
      </trkpt>
      <trkpt lat="48.39604" lon="6.84342">
        <ele>359.3</ele>
        <time>2012-04-15T07:05:12Z</time>
      </trkpt>
      <trkpt lat="48.39605" lon="6.84329">
        <ele>360.3</ele>
        <time>2012-04-15T07:05:15Z</time>
      </trkpt>
      <trkpt lat="48.39606" lon="6.8432">
        <ele>360.7</ele>
        <time>2012-04-15T07:05:17Z</time>
      </trkpt>
      <trkpt lat="48.39607" lon="6.84306">
        <ele>362.1</ele>
        <time>2012-04-15T07:05:20Z</time>
      </trkpt>
      <trkpt lat="48.39608" lon="6.84293">
        <ele>362.9</ele>
        <time>2012-04-15T07:05:23Z</time>
      </trkpt>
      <trkpt lat="48.39609" lon="6.84284">
        <ele>363.6</ele>
        <time>2012-04-15T07:05:25Z</time>
      </trkpt>
      <trkpt lat="48.3961" lon="6.84275">
        <ele>364.3</ele>
        <time>2012-04-15T07:05:27Z</time>
      </trkpt>
      <trkpt lat="48.39611" lon="6.84265">
        <ele>363.7</ele>
        <time>2012-04-15T07:05:29Z</time>
      </trkpt>
      <trkpt lat="48.39611" lon="6.84254">
        <ele>364.1</ele>
        <time>2012-04-15T07:05:31Z</time>
      </trkpt>
      <trkpt lat="48.39611" lon="6.84249">
        <ele>364.5</ele>
        <time>2012-04-15T07:05:32Z</time>
      </trkpt>
      <trkpt lat="48.39611" lon="6.8423">
        <ele>365</ele>
        <time>2012-04-15T07:05:35Z</time>
      </trkpt>
      <trkpt lat="48.39611" lon="6.84224">
        <ele>365</ele>
        <time>2012-04-15T07:05:36Z</time>
      </trkpt>
      <trkpt lat="48.39611" lon="6.84217">
        <ele>365.1</ele>
        <time>2012-04-15T07:05:37Z</time>
      </trkpt>
      <trkpt lat="48.39611" lon="6.8421">
        <ele>364.7</ele>
        <time>2012-04-15T07:05:38Z</time>
      </trkpt>
      <trkpt lat="48.39612" lon="6.84201">
        <ele>364.4</ele>
        <time>2012-04-15T07:05:39Z</time>
      </trkpt>
      <trkpt lat="48.39612" lon="6.84191">
        <ele>364.2</ele>
        <time>2012-04-15T07:05:40Z</time>
      </trkpt>
      <trkpt lat="48.39611" lon="6.84182">
        <ele>364.1</ele>
        <time>2012-04-15T07:05:41Z</time>
      </trkpt>
      <trkpt lat="48.3961" lon="6.84173">
        <ele>364</ele>
        <time>2012-04-15T07:05:42Z</time>
      </trkpt>
      <trkpt lat="48.39609" lon="6.84165">
        <ele>363.9</ele>
        <time>2012-04-15T07:05:43Z</time>
      </trkpt>
      <trkpt lat="48.39608" lon="6.84158">
        <ele>363.6</ele>
        <time>2012-04-15T07:05:44Z</time>
      </trkpt>
      <trkpt lat="48.39604" lon="6.84148">
        <ele>363.2</ele>
        <time>2012-04-15T07:05:46Z</time>
      </trkpt>
      <trkpt lat="48.39602" lon="6.84139">
        <ele>363</ele>
        <time>2012-04-15T07:05:48Z</time>
      </trkpt>
      <trkpt lat="48.39598" lon="6.84129">
        <ele>363.4</ele>
        <time>2012-04-15T07:05:51Z</time>
      </trkpt>
      <trkpt lat="48.39594" lon="6.84118">
        <ele>364.3</ele>
        <time>2012-04-15T07:05:55Z</time>
      </trkpt>
      <trkpt lat="48.39592" lon="6.84109">
        <ele>366.1</ele>
        <time>2012-04-15T07:05:58Z</time>
      </trkpt>
      <trkpt lat="48.39587" lon="6.84097">
        <ele>366.8</ele>
        <time>2012-04-15T07:06:02Z</time>
      </trkpt>
      <trkpt lat="48.39583" lon="6.84086">
        <ele>368.7</ele>
        <time>2012-04-15T07:06:06Z</time>
      </trkpt>
      <trkpt lat="48.39581" lon="6.84075">
        <ele>370.3</ele>
        <time>2012-04-15T07:06:10Z</time>
      </trkpt>
      <trkpt lat="48.3958" lon="6.84062">
        <ele>371</ele>
        <time>2012-04-15T07:06:14Z</time>
      </trkpt>
      <trkpt lat="48.39578" lon="6.84051">
        <ele>372.1</ele>
        <time>2012-04-15T07:06:17Z</time>
      </trkpt>
      <trkpt lat="48.39577" lon="6.84041">
        <ele>373.1</ele>
        <time>2012-04-15T07:06:20Z</time>
      </trkpt>
      <trkpt lat="48.39576" lon="6.8403">
        <ele>375.1</ele>
        <time>2012-04-15T07:06:23Z</time>
      </trkpt>
      <trkpt lat="48.39574" lon="6.84021">
        <ele>374.8</ele>
        <time>2012-04-15T07:06:26Z</time>
      </trkpt>
      <trkpt lat="48.39571" lon="6.84008">
        <ele>374.9</ele>
        <time>2012-04-15T07:06:30Z</time>
      </trkpt>
      <trkpt lat="48.39569" lon="6.83996">
        <ele>376.7</ele>
        <time>2012-04-15T07:06:34Z</time>
      </trkpt>
      <trkpt lat="48.39568" lon="6.83993">
        <ele>376.7</ele>
        <time>2012-04-15T07:06:35Z</time>
      </trkpt>
      <trkpt lat="48.39564" lon="6.83975">
        <ele>378.1</ele>
        <time>2012-04-15T07:06:40Z</time>
      </trkpt>
      <trkpt lat="48.39561" lon="6.83964">
        <ele>379.6</ele>
        <time>2012-04-15T07:06:43Z</time>
      </trkpt>
      <trkpt lat="48.3956" lon="6.83952">
        <ele>380.1</ele>
        <time>2012-04-15T07:06:46Z</time>
      </trkpt>
      <trkpt lat="48.39556" lon="6.83941">
        <ele>379.7</ele>
        <time>2012-04-15T07:06:49Z</time>
      </trkpt>
      <trkpt lat="48.39552" lon="6.83931">
        <ele>380.5</ele>
        <time>2012-04-15T07:06:52Z</time>
      </trkpt>
      <trkpt lat="48.39547" lon="6.8392">
        <ele>381.9</ele>
        <time>2012-04-15T07:06:55Z</time>
      </trkpt>
      <trkpt lat="48.39543" lon="6.8391">
        <ele>382.8</ele>
        <time>2012-04-15T07:06:58Z</time>
      </trkpt>
      <trkpt lat="48.3954" lon="6.83901">
        <ele>383.8</ele>
        <time>2012-04-15T07:07:01Z</time>
      </trkpt>
      <trkpt lat="48.39535" lon="6.8389">
        <ele>385</ele>
        <time>2012-04-15T07:07:04Z</time>
      </trkpt>
      <trkpt lat="48.39531" lon="6.83883">
        <ele>385.5</ele>
        <time>2012-04-15T07:07:06Z</time>
      </trkpt>
      <trkpt lat="48.39527" lon="6.83876">
        <ele>385.7</ele>
        <time>2012-04-15T07:07:08Z</time>
      </trkpt>
      <trkpt lat="48.39523" lon="6.83869">
        <ele>386.4</ele>
        <time>2012-04-15T07:07:10Z</time>
      </trkpt>
      <trkpt lat="48.39518" lon="6.83862">
        <ele>387.1</ele>
        <time>2012-04-15T07:07:12Z</time>
      </trkpt>
      <trkpt lat="48.39514" lon="6.83855">
        <ele>387.4</ele>
        <time>2012-04-15T07:07:14Z</time>
      </trkpt>
      <trkpt lat="48.3951" lon="6.83846">
        <ele>387.9</ele>
        <time>2012-04-15T07:07:17Z</time>
      </trkpt>
      <trkpt lat="48.39505" lon="6.83839">
        <ele>388.1</ele>
        <time>2012-04-15T07:07:19Z</time>
      </trkpt>
      <trkpt lat="48.395" lon="6.83833">
        <ele>388.3</ele>
        <time>2012-04-15T07:07:21Z</time>
      </trkpt>
      <trkpt lat="48.39495" lon="6.83826">
        <ele>388.6</ele>
        <time>2012-04-15T07:07:23Z</time>
      </trkpt>
      <trkpt lat="48.39489" lon="6.83819">
        <ele>389</ele>
        <time>2012-04-15T07:07:25Z</time>
      </trkpt>
      <trkpt lat="48.39484" lon="6.83811">
        <ele>389.3</ele>
        <time>2012-04-15T07:07:27Z</time>
      </trkpt>
      <trkpt lat="48.39479" lon="6.83803">
        <ele>389.5</ele>
        <time>2012-04-15T07:07:29Z</time>
      </trkpt>
      <trkpt lat="48.39474" lon="6.83795">
        <ele>389.7</ele>
        <time>2012-04-15T07:07:31Z</time>
      </trkpt>
      <trkpt lat="48.39469" lon="6.83787">
        <ele>390.1</ele>
        <time>2012-04-15T07:07:33Z</time>
      </trkpt>
      <trkpt lat="48.39464" lon="6.83779">
        <ele>390.3</ele>
        <time>2012-04-15T07:07:35Z</time>
      </trkpt>
      <trkpt lat="48.39462" lon="6.83775">
        <ele>390.3</ele>
        <time>2012-04-15T07:07:36Z</time>
      </trkpt>
      <trkpt lat="48.39455" lon="6.83763">
        <ele>390.3</ele>
        <time>2012-04-15T07:07:39Z</time>
      </trkpt>
      <trkpt lat="48.39451" lon="6.83756">
        <ele>390.5</ele>
        <time>2012-04-15T07:07:41Z</time>
      </trkpt>
      <trkpt lat="48.39446" lon="6.83748">
        <ele>391</ele>
        <time>2012-04-15T07:07:43Z</time>
      </trkpt>
      <trkpt lat="48.39441" lon="6.8374">
        <ele>391.9</ele>
        <time>2012-04-15T07:07:45Z</time>
      </trkpt>
      <trkpt lat="48.39435" lon="6.83732">
        <ele>392.8</ele>
        <time>2012-04-15T07:07:47Z</time>
      </trkpt>
      <trkpt lat="48.3943" lon="6.83724">
        <ele>393</ele>
        <time>2012-04-15T07:07:49Z</time>
      </trkpt>
      <trkpt lat="48.39426" lon="6.83716">
        <ele>393.1</ele>
        <time>2012-04-15T07:07:51Z</time>
      </trkpt>
      <trkpt lat="48.39421" lon="6.83708">
        <ele>393.9</ele>
        <time>2012-04-15T07:07:53Z</time>
      </trkpt>
      <trkpt lat="48.39416" lon="6.83699">
        <ele>393.6</ele>
        <time>2012-04-15T07:07:55Z</time>
      </trkpt>
      <trkpt lat="48.39412" lon="6.83691">
        <ele>392.9</ele>
        <time>2012-04-15T07:07:57Z</time>
      </trkpt>
      <trkpt lat="48.39407" lon="6.83682">
        <ele>393.5</ele>
        <time>2012-04-15T07:07:59Z</time>
      </trkpt>
      <trkpt lat="48.39405" lon="6.83669">
        <ele>393.9</ele>
        <time>2012-04-15T07:08:01Z</time>
      </trkpt>
      <trkpt lat="48.39404" lon="6.83661">
        <ele>394</ele>
        <time>2012-04-15T07:08:02Z</time>
      </trkpt>
      <trkpt lat="48.39403" lon="6.83654">
        <ele>394.1</ele>
        <time>2012-04-15T07:08:03Z</time>
      </trkpt>
      <trkpt lat="48.39403" lon="6.83646">
        <ele>393.8</ele>
        <time>2012-04-15T07:08:04Z</time>
      </trkpt>
      <trkpt lat="48.39404" lon="6.83636">
        <ele>393.6</ele>
        <time>2012-04-15T07:08:05Z</time>
      </trkpt>
      <trkpt lat="48.39404" lon="6.83627">
        <ele>393.4</ele>
        <time>2012-04-15T07:08:06Z</time>
      </trkpt>
      <trkpt lat="48.39404" lon="6.83618">
        <ele>393.3</ele>
        <time>2012-04-15T07:08:07Z</time>
      </trkpt>
      <trkpt lat="48.39404" lon="6.83608">
        <ele>393</ele>
        <time>2012-04-15T07:08:08Z</time>
      </trkpt>
      <trkpt lat="48.39403" lon="6.83599">
        <ele>392.8</ele>
        <time>2012-04-15T07:08:09Z</time>
      </trkpt>
      <trkpt lat="48.39403" lon="6.83589">
        <ele>392.7</ele>
        <time>2012-04-15T07:08:10Z</time>
      </trkpt>
      <trkpt lat="48.39403" lon="6.83579">
        <ele>392</ele>
        <time>2012-04-15T07:08:11Z</time>
      </trkpt>
      <trkpt lat="48.39402" lon="6.83569">
        <ele>391.4</ele>
        <time>2012-04-15T07:08:12Z</time>
      </trkpt>
      <trkpt lat="48.394" lon="6.83559">
        <ele>391</ele>
        <time>2012-04-15T07:08:13Z</time>
      </trkpt>
      <trkpt lat="48.39398" lon="6.8355">
        <ele>390.5</ele>
        <time>2012-04-15T07:08:14Z</time>
      </trkpt>
      <trkpt lat="48.39394" lon="6.83541">
        <ele>390</ele>
        <time>2012-04-15T07:08:15Z</time>
      </trkpt>
      <trkpt lat="48.3939" lon="6.83534">
        <ele>389.7</ele>
        <time>2012-04-15T07:08:16Z</time>
      </trkpt>
      <trkpt lat="48.39386" lon="6.83527">
        <ele>389.4</ele>
        <time>2012-04-15T07:08:17Z</time>
      </trkpt>
      <trkpt lat="48.39382" lon="6.83521">
        <ele>389.2</ele>
        <time>2012-04-15T07:08:18Z</time>
      </trkpt>
      <trkpt lat="48.39377" lon="6.83516">
        <ele>389.1</ele>
        <time>2012-04-15T07:08:19Z</time>
      </trkpt>
      <trkpt lat="48.39372" lon="6.8351">
        <ele>389.1</ele>
        <time>2012-04-15T07:08:20Z</time>
      </trkpt>
      <trkpt lat="48.39367" lon="6.83505">
        <ele>389.2</ele>
        <time>2012-04-15T07:08:21Z</time>
      </trkpt>
      <trkpt lat="48.39362" lon="6.835">
        <ele>389.2</ele>
        <time>2012-04-15T07:08:22Z</time>
      </trkpt>
      <trkpt lat="48.39357" lon="6.83495">
        <ele>388.7</ele>
        <time>2012-04-15T07:08:23Z</time>
      </trkpt>
      <trkpt lat="48.39353" lon="6.8349">
        <ele>388.4</ele>
        <time>2012-04-15T07:08:24Z</time>
      </trkpt>
      <trkpt lat="48.39345" lon="6.83484">
        <ele>387.9</ele>
        <time>2012-04-15T07:08:26Z</time>
      </trkpt>
      <trkpt lat="48.39339" lon="6.83479">
        <ele>388.2</ele>
        <time>2012-04-15T07:08:28Z</time>
      </trkpt>
      <trkpt lat="48.39333" lon="6.83473">
        <ele>388.3</ele>
        <time>2012-04-15T07:08:30Z</time>
      </trkpt>
      <trkpt lat="48.39328" lon="6.8347">
        <ele>388.3</ele>
        <time>2012-04-15T07:08:31Z</time>
      </trkpt>
      <trkpt lat="48.39324" lon="6.83468">
        <ele>388.3</ele>
        <time>2012-04-15T07:08:32Z</time>
      </trkpt>
      <trkpt lat="48.3932" lon="6.83463">
        <ele>388.1</ele>
        <time>2012-04-15T07:08:33Z</time>
      </trkpt>
      <trkpt lat="48.39317" lon="6.83457">
        <ele>388</ele>
        <time>2012-04-15T07:08:34Z</time>
      </trkpt>
      <trkpt lat="48.39314" lon="6.83451">
        <ele>387.9</ele>
        <time>2012-04-15T07:08:35Z</time>
      </trkpt>
      <trkpt lat="48.39311" lon="6.83444">
        <ele>388.2</ele>
        <time>2012-04-15T07:08:36Z</time>
      </trkpt>
      <trkpt lat="48.39309" lon="6.83439">
        <ele>388.4</ele>
        <time>2012-04-15T07:08:37Z</time>
      </trkpt>
      <trkpt lat="48.39306" lon="6.83433">
        <ele>388.5</ele>
        <time>2012-04-15T07:08:38Z</time>
      </trkpt>
      <trkpt lat="48.39304" lon="6.83427">
        <ele>388.6</ele>
        <time>2012-04-15T07:08:39Z</time>
      </trkpt>
      <trkpt lat="48.39302" lon="6.83419">
        <ele>388.7</ele>
        <time>2012-04-15T07:08:40Z</time>
      </trkpt>
      <trkpt lat="48.393" lon="6.83411">
        <ele>388.8</ele>
        <time>2012-04-15T07:08:41Z</time>
      </trkpt>
      <trkpt lat="48.39297" lon="6.83403">
        <ele>388.9</ele>
        <time>2012-04-15T07:08:42Z</time>
      </trkpt>
      <trkpt lat="48.39295" lon="6.83395">
        <ele>388.5</ele>
        <time>2012-04-15T07:08:43Z</time>
      </trkpt>
      <trkpt lat="48.39292" lon="6.83388">
        <ele>388.3</ele>
        <time>2012-04-15T07:08:44Z</time>
      </trkpt>
      <trkpt lat="48.39289" lon="6.83379">
        <ele>388.1</ele>
        <time>2012-04-15T07:08:45Z</time>
      </trkpt>
      <trkpt lat="48.39286" lon="6.8337">
        <ele>388</ele>
        <time>2012-04-15T07:08:46Z</time>
      </trkpt>
      <trkpt lat="48.39285" lon="6.83361">
        <ele>388</ele>
        <time>2012-04-15T07:08:47Z</time>
      </trkpt>
      <trkpt lat="48.39283" lon="6.83352">
        <ele>387.9</ele>
        <time>2012-04-15T07:08:48Z</time>
      </trkpt>
      <trkpt lat="48.39282" lon="6.83342">
        <ele>386.9</ele>
        <time>2012-04-15T07:08:49Z</time>
      </trkpt>
      <trkpt lat="48.3928" lon="6.83334">
        <ele>386.1</ele>
        <time>2012-04-15T07:08:50Z</time>
      </trkpt>
      <trkpt lat="48.39279" lon="6.83326">
        <ele>385.5</ele>
        <time>2012-04-15T07:08:51Z</time>
      </trkpt>
      <trkpt lat="48.39279" lon="6.83316">
        <ele>384.7</ele>
        <time>2012-04-15T07:08:52Z</time>
      </trkpt>
      <trkpt lat="48.39279" lon="6.83308">
        <ele>384.1</ele>
        <time>2012-04-15T07:08:53Z</time>
      </trkpt>
      <trkpt lat="48.39279" lon="6.83299">
        <ele>383.6</ele>
        <time>2012-04-15T07:08:54Z</time>
      </trkpt>
      <trkpt lat="48.3928" lon="6.83288">
        <ele>383</ele>
        <time>2012-04-15T07:08:55Z</time>
      </trkpt>
      <trkpt lat="48.39282" lon="6.83275">
        <ele>382.6</ele>
        <time>2012-04-15T07:08:56Z</time>
      </trkpt>
      <trkpt lat="48.39284" lon="6.83264">
        <ele>382.3</ele>
        <time>2012-04-15T07:08:57Z</time>
      </trkpt>
      <trkpt lat="48.39286" lon="6.83251">
        <ele>382</ele>
        <time>2012-04-15T07:08:58Z</time>
      </trkpt>
      <trkpt lat="48.39288" lon="6.83239">
        <ele>381.6</ele>
        <time>2012-04-15T07:08:59Z</time>
      </trkpt>
      <trkpt lat="48.39289" lon="6.83227">
        <ele>381.3</ele>
        <time>2012-04-15T07:09:00Z</time>
      </trkpt>
      <trkpt lat="48.3929" lon="6.83214">
        <ele>381.1</ele>
        <time>2012-04-15T07:09:01Z</time>
      </trkpt>
      <trkpt lat="48.39291" lon="6.83201">
        <ele>380.6</ele>
        <time>2012-04-15T07:09:02Z</time>
      </trkpt>
      <trkpt lat="48.39292" lon="6.83188">
        <ele>380.3</ele>
        <time>2012-04-15T07:09:03Z</time>
      </trkpt>
      <trkpt lat="48.39294" lon="6.83174">
        <ele>380</ele>
        <time>2012-04-15T07:09:04Z</time>
      </trkpt>
      <trkpt lat="48.39294" lon="6.83162">
        <ele>379.5</ele>
        <time>2012-04-15T07:09:05Z</time>
      </trkpt>
      <trkpt lat="48.39295" lon="6.8315">
        <ele>379.1</ele>
        <time>2012-04-15T07:09:06Z</time>
      </trkpt>
      <trkpt lat="48.39296" lon="6.8314">
        <ele>378.8</ele>
        <time>2012-04-15T07:09:07Z</time>
      </trkpt>
      <trkpt lat="48.39297" lon="6.83131">
        <ele>378.7</ele>
        <time>2012-04-15T07:09:08Z</time>
      </trkpt>
      <trkpt lat="48.39299" lon="6.8312">
        <ele>378.7</ele>
        <time>2012-04-15T07:09:09Z</time>
      </trkpt>
      <trkpt lat="48.39301" lon="6.83109">
        <ele>378.7</ele>
        <time>2012-04-15T07:09:10Z</time>
      </trkpt>
      <trkpt lat="48.39303" lon="6.83099">
        <ele>378.5</ele>
        <time>2012-04-15T07:09:11Z</time>
      </trkpt>
      <trkpt lat="48.39305" lon="6.83089">
        <ele>378.4</ele>
        <time>2012-04-15T07:09:12Z</time>
      </trkpt>
      <trkpt lat="48.39307" lon="6.8308">
        <ele>378.3</ele>
        <time>2012-04-15T07:09:13Z</time>
      </trkpt>
      <trkpt lat="48.39309" lon="6.8307">
        <ele>378.2</ele>
        <time>2012-04-15T07:09:14Z</time>
      </trkpt>
      <trkpt lat="48.3931" lon="6.83061">
        <ele>378.3</ele>
        <time>2012-04-15T07:09:15Z</time>
      </trkpt>
      <trkpt lat="48.39313" lon="6.83052">
        <ele>378.4</ele>
        <time>2012-04-15T07:09:16Z</time>
      </trkpt>
      <trkpt lat="48.39314" lon="6.83043">
        <ele>378.5</ele>
        <time>2012-04-15T07:09:17Z</time>
      </trkpt>
      <trkpt lat="48.39316" lon="6.83034">
        <ele>379</ele>
        <time>2012-04-15T07:09:18Z</time>
      </trkpt>
      <trkpt lat="48.39318" lon="6.83027">
        <ele>379.4</ele>
        <time>2012-04-15T07:09:19Z</time>
      </trkpt>
      <trkpt lat="48.39321" lon="6.83019">
        <ele>379.7</ele>
        <time>2012-04-15T07:09:20Z</time>
      </trkpt>
      <trkpt lat="48.39323" lon="6.83011">
        <ele>379.6</ele>
        <time>2012-04-15T07:09:21Z</time>
      </trkpt>
      <trkpt lat="48.39325" lon="6.83004">
        <ele>379.4</ele>
        <time>2012-04-15T07:09:22Z</time>
      </trkpt>
      <trkpt lat="48.39327" lon="6.82997">
        <ele>379.4</ele>
        <time>2012-04-15T07:09:23Z</time>
      </trkpt>
      <trkpt lat="48.3933" lon="6.82991">
        <ele>379.4</ele>
        <time>2012-04-15T07:09:24Z</time>
      </trkpt>
      <trkpt lat="48.39333" lon="6.82979">
        <ele>379.4</ele>
        <time>2012-04-15T07:09:26Z</time>
      </trkpt>
      <trkpt lat="48.39336" lon="6.82967">
        <ele>381.1</ele>
        <time>2012-04-15T07:09:28Z</time>
      </trkpt>
      <trkpt lat="48.39339" lon="6.82956">
        <ele>381.7</ele>
        <time>2012-04-15T07:09:30Z</time>
      </trkpt>
      <trkpt lat="48.39341" lon="6.82943">
        <ele>381.8</ele>
        <time>2012-04-15T07:09:32Z</time>
      </trkpt>
      <trkpt lat="48.39343" lon="6.82937">
        <ele>381.8</ele>
        <time>2012-04-15T07:09:33Z</time>
      </trkpt>
      <trkpt lat="48.39345" lon="6.8293">
        <ele>382.3</ele>
        <time>2012-04-15T07:09:34Z</time>
      </trkpt>
      <trkpt lat="48.39346" lon="6.82923">
        <ele>382.6</ele>
        <time>2012-04-15T07:09:35Z</time>
      </trkpt>
      <trkpt lat="48.39347" lon="6.82916">
        <ele>382.9</ele>
        <time>2012-04-15T07:09:36Z</time>
      </trkpt>
      <trkpt lat="48.39349" lon="6.82909">
        <ele>382.9</ele>
        <time>2012-04-15T07:09:37Z</time>
      </trkpt>
      <trkpt lat="48.39349" lon="6.82902">
        <ele>382.8</ele>
        <time>2012-04-15T07:09:38Z</time>
      </trkpt>
      <trkpt lat="48.3935" lon="6.82894">
        <ele>382.8</ele>
        <time>2012-04-15T07:09:39Z</time>
      </trkpt>
      <trkpt lat="48.39351" lon="6.82886">
        <ele>383.2</ele>
        <time>2012-04-15T07:09:40Z</time>
      </trkpt>
      <trkpt lat="48.39352" lon="6.82879">
        <ele>383.5</ele>
        <time>2012-04-15T07:09:41Z</time>
      </trkpt>
      <trkpt lat="48.39354" lon="6.82872">
        <ele>383.7</ele>
        <time>2012-04-15T07:09:42Z</time>
      </trkpt>
      <trkpt lat="48.39355" lon="6.82865">
        <ele>384.1</ele>
        <time>2012-04-15T07:09:43Z</time>
      </trkpt>
      <trkpt lat="48.39356" lon="6.82857">
        <ele>384.5</ele>
        <time>2012-04-15T07:09:44Z</time>
      </trkpt>
      <trkpt lat="48.39357" lon="6.8285">
        <ele>384.7</ele>
        <time>2012-04-15T07:09:45Z</time>
      </trkpt>
      <trkpt lat="48.39357" lon="6.82842">
        <ele>384.8</ele>
        <time>2012-04-15T07:09:46Z</time>
      </trkpt>
      <trkpt lat="48.39357" lon="6.82834">
        <ele>384.8</ele>
        <time>2012-04-15T07:09:47Z</time>
      </trkpt>
      <trkpt lat="48.39357" lon="6.82826">
        <ele>384.8</ele>
        <time>2012-04-15T07:09:48Z</time>
      </trkpt>
      <trkpt lat="48.39357" lon="6.82818">
        <ele>384.9</ele>
        <time>2012-04-15T07:09:49Z</time>
      </trkpt>
      <trkpt lat="48.39356" lon="6.82811">
        <ele>385</ele>
        <time>2012-04-15T07:09:50Z</time>
      </trkpt>
      <trkpt lat="48.39356" lon="6.82802">
        <ele>385.2</ele>
        <time>2012-04-15T07:09:51Z</time>
      </trkpt>
      <trkpt lat="48.39356" lon="6.82794">
        <ele>385.3</ele>
        <time>2012-04-15T07:09:52Z</time>
      </trkpt>
      <trkpt lat="48.39355" lon="6.82786">
        <ele>385.3</ele>
        <time>2012-04-15T07:09:53Z</time>
      </trkpt>
      <trkpt lat="48.39354" lon="6.82778">
        <ele>385.4</ele>
        <time>2012-04-15T07:09:54Z</time>
      </trkpt>
      <trkpt lat="48.39354" lon="6.8277">
        <ele>385.4</ele>
        <time>2012-04-15T07:09:55Z</time>
      </trkpt>
      <trkpt lat="48.39353" lon="6.82762">
        <ele>385.2</ele>
        <time>2012-04-15T07:09:56Z</time>
      </trkpt>
      <trkpt lat="48.39351" lon="6.82755">
        <ele>385</ele>
        <time>2012-04-15T07:09:57Z</time>
      </trkpt>
      <trkpt lat="48.3935" lon="6.82747">
        <ele>384.9</ele>
        <time>2012-04-15T07:09:58Z</time>
      </trkpt>
      <trkpt lat="48.39349" lon="6.82739">
        <ele>385</ele>
        <time>2012-04-15T07:09:59Z</time>
      </trkpt>
      <trkpt lat="48.39348" lon="6.82731">
        <ele>385.1</ele>
        <time>2012-04-15T07:10:00Z</time>
      </trkpt>
      <trkpt lat="48.39347" lon="6.82724">
        <ele>385.2</ele>
        <time>2012-04-15T07:10:01Z</time>
      </trkpt>
      <trkpt lat="48.39345" lon="6.82716">
        <ele>384.8</ele>
        <time>2012-04-15T07:10:02Z</time>
      </trkpt>
      <trkpt lat="48.39344" lon="6.82708">
        <ele>384.5</ele>
        <time>2012-04-15T07:10:03Z</time>
      </trkpt>
      <trkpt lat="48.39343" lon="6.827">
        <ele>384.2</ele>
        <time>2012-04-15T07:10:04Z</time>
      </trkpt>
      <trkpt lat="48.39342" lon="6.82692">
        <ele>384</ele>
        <time>2012-04-15T07:10:05Z</time>
      </trkpt>
      <trkpt lat="48.39341" lon="6.82683">
        <ele>384.2</ele>
        <time>2012-04-15T07:10:06Z</time>
      </trkpt>
      <trkpt lat="48.3934" lon="6.82674">
        <ele>384.4</ele>
        <time>2012-04-15T07:10:07Z</time>
      </trkpt>
      <trkpt lat="48.39339" lon="6.82666">
        <ele>384.5</ele>
        <time>2012-04-15T07:10:08Z</time>
      </trkpt>
      <trkpt lat="48.39337" lon="6.82658">
        <ele>384.1</ele>
        <time>2012-04-15T07:10:09Z</time>
      </trkpt>
      <trkpt lat="48.39337" lon="6.8265">
        <ele>383.8</ele>
        <time>2012-04-15T07:10:10Z</time>
      </trkpt>
      <trkpt lat="48.39336" lon="6.82638">
        <ele>383.4</ele>
        <time>2012-04-15T07:10:12Z</time>
      </trkpt>
      <trkpt lat="48.39337" lon="6.82625">
        <ele>381.2</ele>
        <time>2012-04-15T07:10:22Z</time>
      </trkpt>
      <trkpt lat="48.39345" lon="6.82618">
        <ele>380.4</ele>
        <time>2012-04-15T07:13:33Z</time>
      </trkpt>
      <trkpt lat="48.39345" lon="6.82618">
        <ele>380.5</ele>
        <time>2012-04-15T07:13:34Z</time>
      </trkpt>
      <trkpt lat="48.39341" lon="6.82604">
        <ele>380.9</ele>
        <time>2012-04-15T07:15:51Z</time>
      </trkpt>
      <trkpt lat="48.39338" lon="6.82587">
        <ele>380.7</ele>
        <time>2012-04-15T07:15:54Z</time>
      </trkpt>
      <trkpt lat="48.39338" lon="6.82581">
        <ele>380.6</ele>
        <time>2012-04-15T07:15:55Z</time>
      </trkpt>
      <trkpt lat="48.39339" lon="6.82573">
        <ele>380.6</ele>
        <time>2012-04-15T07:15:56Z</time>
      </trkpt>
      <trkpt lat="48.3934" lon="6.82566">
        <ele>380.4</ele>
        <time>2012-04-15T07:15:57Z</time>
      </trkpt>
      <trkpt lat="48.39342" lon="6.82558">
        <ele>380.2</ele>
        <time>2012-04-15T07:15:58Z</time>
      </trkpt>
      <trkpt lat="48.39344" lon="6.82551">
        <ele>380.1</ele>
        <time>2012-04-15T07:15:59Z</time>
      </trkpt>
      <trkpt lat="48.39346" lon="6.82543">
        <ele>379.8</ele>
        <time>2012-04-15T07:16:00Z</time>
      </trkpt>
      <trkpt lat="48.39347" lon="6.82534">
        <ele>379.6</ele>
        <time>2012-04-15T07:16:01Z</time>
      </trkpt>
      <trkpt lat="48.39346" lon="6.82526">
        <ele>379.4</ele>
        <time>2012-04-15T07:16:02Z</time>
      </trkpt>
      <trkpt lat="48.39344" lon="6.82518">
        <ele>378.8</ele>
        <time>2012-04-15T07:16:03Z</time>
      </trkpt>
      <trkpt lat="48.39341" lon="6.82512">
        <ele>378.4</ele>
        <time>2012-04-15T07:16:04Z</time>
      </trkpt>
      <trkpt lat="48.39338" lon="6.82505">
        <ele>378.1</ele>
        <time>2012-04-15T07:16:05Z</time>
      </trkpt>
      <trkpt lat="48.39335" lon="6.82499">
        <ele>378</ele>
        <time>2012-04-15T07:16:06Z</time>
      </trkpt>
      <trkpt lat="48.39333" lon="6.82493">
        <ele>377.9</ele>
        <time>2012-04-15T07:16:07Z</time>
      </trkpt>
      <trkpt lat="48.3933" lon="6.82487">
        <ele>377.9</ele>
        <time>2012-04-15T07:16:08Z</time>
      </trkpt>
      <trkpt lat="48.39327" lon="6.8248">
        <ele>377</ele>
        <time>2012-04-15T07:16:09Z</time>
      </trkpt>
      <trkpt lat="48.39324" lon="6.82473">
        <ele>376.4</ele>
        <time>2012-04-15T07:16:10Z</time>
      </trkpt>
      <trkpt lat="48.39321" lon="6.82465">
        <ele>375.9</ele>
        <time>2012-04-15T07:16:11Z</time>
      </trkpt>
      <trkpt lat="48.39318" lon="6.82457">
        <ele>375.6</ele>
        <time>2012-04-15T07:16:12Z</time>
      </trkpt>
      <trkpt lat="48.39315" lon="6.82449">
        <ele>375.6</ele>
        <time>2012-04-15T07:16:13Z</time>
      </trkpt>
      <trkpt lat="48.39313" lon="6.8244">
        <ele>375.6</ele>
        <time>2012-04-15T07:16:14Z</time>
      </trkpt>
      <trkpt lat="48.3931" lon="6.82432">
        <ele>375.6</ele>
        <time>2012-04-15T07:16:15Z</time>
      </trkpt>
      <trkpt lat="48.39309" lon="6.82423">
        <ele>375.6</ele>
        <time>2012-04-15T07:16:16Z</time>
      </trkpt>
      <trkpt lat="48.39308" lon="6.82415">
        <ele>375.5</ele>
        <time>2012-04-15T07:16:17Z</time>
      </trkpt>
      <trkpt lat="48.39308" lon="6.82406">
        <ele>375.5</ele>
        <time>2012-04-15T07:16:18Z</time>
      </trkpt>
      <trkpt lat="48.39308" lon="6.82398">
        <ele>375</ele>
        <time>2012-04-15T07:16:19Z</time>
      </trkpt>
      <trkpt lat="48.3931" lon="6.82388">
        <ele>374.6</ele>
        <time>2012-04-15T07:16:20Z</time>
      </trkpt>
      <trkpt lat="48.39311" lon="6.82379">
        <ele>374.3</ele>
        <time>2012-04-15T07:16:21Z</time>
      </trkpt>
      <trkpt lat="48.39313" lon="6.82371">
        <ele>373.7</ele>
        <time>2012-04-15T07:16:22Z</time>
      </trkpt>
      <trkpt lat="48.39314" lon="6.82363">
        <ele>373.3</ele>
        <time>2012-04-15T07:16:23Z</time>
      </trkpt>
      <trkpt lat="48.39314" lon="6.82354">
        <ele>373</ele>
        <time>2012-04-15T07:16:24Z</time>
      </trkpt>
      <trkpt lat="48.39314" lon="6.82344">
        <ele>372.1</ele>
        <time>2012-04-15T07:16:25Z</time>
      </trkpt>
      <trkpt lat="48.39312" lon="6.82335">
        <ele>371.5</ele>
        <time>2012-04-15T07:16:26Z</time>
      </trkpt>
      <trkpt lat="48.3931" lon="6.82325">
        <ele>371</ele>
        <time>2012-04-15T07:16:27Z</time>
      </trkpt>
      <trkpt lat="48.39307" lon="6.82315">
        <ele>370.7</ele>
        <time>2012-04-15T07:16:28Z</time>
      </trkpt>
      <trkpt lat="48.39306" lon="6.82304">
        <ele>370.2</ele>
        <time>2012-04-15T07:16:29Z</time>
      </trkpt>
      <trkpt lat="48.39304" lon="6.82295">
        <ele>369.9</ele>
        <time>2012-04-15T07:16:30Z</time>
      </trkpt>
      <trkpt lat="48.39304" lon="6.82286">
        <ele>369.6</ele>
        <time>2012-04-15T07:16:31Z</time>
      </trkpt>
      <trkpt lat="48.39304" lon="6.82277">
        <ele>367.3</ele>
        <time>2012-04-15T07:16:32Z</time>
      </trkpt>
      <trkpt lat="48.39304" lon="6.82266">
        <ele>365.6</ele>
        <time>2012-04-15T07:16:33Z</time>
      </trkpt>
      <trkpt lat="48.39304" lon="6.82256">
        <ele>364.3</ele>
        <time>2012-04-15T07:16:34Z</time>
      </trkpt>
      <trkpt lat="48.39304" lon="6.82245">
        <ele>362.4</ele>
        <time>2012-04-15T07:16:35Z</time>
      </trkpt>
      <trkpt lat="48.39306" lon="6.82234">
        <ele>361</ele>
        <time>2012-04-15T07:16:36Z</time>
      </trkpt>
      <trkpt lat="48.39308" lon="6.82223">
        <ele>359.9</ele>
        <time>2012-04-15T07:16:37Z</time>
      </trkpt>
      <trkpt lat="48.39311" lon="6.82211">
        <ele>358.5</ele>
        <time>2012-04-15T07:16:38Z</time>
      </trkpt>
      <trkpt lat="48.39314" lon="6.82201">
        <ele>357.3</ele>
        <time>2012-04-15T07:16:39Z</time>
      </trkpt>
      <trkpt lat="48.39319" lon="6.82192">
        <ele>356.5</ele>
        <time>2012-04-15T07:16:40Z</time>
      </trkpt>
      <trkpt lat="48.39324" lon="6.82183">
        <ele>356</ele>
        <time>2012-04-15T07:16:41Z</time>
      </trkpt>
      <trkpt lat="48.3933" lon="6.82178">
        <ele>355.6</ele>
        <time>2012-04-15T07:16:42Z</time>
      </trkpt>
      <trkpt lat="48.39337" lon="6.82174">
        <ele>355.3</ele>
        <time>2012-04-15T07:16:43Z</time>
      </trkpt>
      <trkpt lat="48.39343" lon="6.8217">
        <ele>355</ele>
        <time>2012-04-15T07:16:44Z</time>
      </trkpt>
      <trkpt lat="48.3935" lon="6.82165">
        <ele>354.4</ele>
        <time>2012-04-15T07:16:45Z</time>
      </trkpt>
      <trkpt lat="48.39356" lon="6.82161">
        <ele>353.9</ele>
        <time>2012-04-15T07:16:46Z</time>
      </trkpt>
      <trkpt lat="48.39363" lon="6.82159">
        <ele>353.5</ele>
        <time>2012-04-15T07:16:47Z</time>
      </trkpt>
      <trkpt lat="48.39372" lon="6.82158">
        <ele>352.9</ele>
        <time>2012-04-15T07:16:48Z</time>
      </trkpt>
      <trkpt lat="48.3938" lon="6.82157">
        <ele>352.5</ele>
        <time>2012-04-15T07:16:49Z</time>
      </trkpt>
      <trkpt lat="48.39389" lon="6.82156">
        <ele>352.2</ele>
        <time>2012-04-15T07:16:50Z</time>
      </trkpt>
      <trkpt lat="48.39398" lon="6.82157">
        <ele>351.4</ele>
        <time>2012-04-15T07:16:51Z</time>
      </trkpt>
      <trkpt lat="48.39408" lon="6.82159">
        <ele>350.8</ele>
        <time>2012-04-15T07:16:52Z</time>
      </trkpt>
      <trkpt lat="48.39417" lon="6.82163">
        <ele>350.4</ele>
        <time>2012-04-15T07:16:53Z</time>
      </trkpt>
      <trkpt lat="48.39426" lon="6.82166">
        <ele>349.6</ele>
        <time>2012-04-15T07:16:54Z</time>
      </trkpt>
      <trkpt lat="48.39435" lon="6.82169">
        <ele>349</ele>
        <time>2012-04-15T07:16:55Z</time>
      </trkpt>
      <trkpt lat="48.39444" lon="6.82173">
        <ele>348.5</ele>
        <time>2012-04-15T07:16:56Z</time>
      </trkpt>
      <trkpt lat="48.39452" lon="6.82174">
        <ele>346.6</ele>
        <time>2012-04-15T07:16:57Z</time>
      </trkpt>
      <trkpt lat="48.3946" lon="6.82174">
        <ele>344</ele>
        <time>2012-04-15T07:16:59Z</time>
      </trkpt>
      <trkpt lat="48.39468" lon="6.82178">
        <ele>339.9</ele>
        <time>2012-04-15T07:17:03Z</time>
      </trkpt>
      <trkpt lat="48.39476" lon="6.82175">
        <ele>338.2</ele>
        <time>2012-04-15T07:17:08Z</time>
      </trkpt>
      <trkpt lat="48.39482" lon="6.82168">
        <ele>337</ele>
        <time>2012-04-15T07:17:12Z</time>
      </trkpt>
      <trkpt lat="48.39483" lon="6.82158">
        <ele>336.2</ele>
        <time>2012-04-15T07:17:14Z</time>
      </trkpt>
      <trkpt lat="48.39484" lon="6.82152">
        <ele>335.9</ele>
        <time>2012-04-15T07:17:15Z</time>
      </trkpt>
      <trkpt lat="48.39484" lon="6.82144">
        <ele>335.7</ele>
        <time>2012-04-15T07:17:16Z</time>
      </trkpt>
      <trkpt lat="48.39483" lon="6.82135">
        <ele>334.9</ele>
        <time>2012-04-15T07:17:17Z</time>
      </trkpt>
      <trkpt lat="48.3948" lon="6.82126">
        <ele>334.3</ele>
        <time>2012-04-15T07:17:18Z</time>
      </trkpt>
      <trkpt lat="48.39477" lon="6.82117">
        <ele>333.9</ele>
        <time>2012-04-15T07:17:19Z</time>
      </trkpt>
      <trkpt lat="48.39473" lon="6.82109">
        <ele>333.1</ele>
        <time>2012-04-15T07:17:20Z</time>
      </trkpt>
      <trkpt lat="48.39468" lon="6.82101">
        <ele>332.4</ele>
        <time>2012-04-15T07:17:21Z</time>
      </trkpt>
      <trkpt lat="48.39462" lon="6.82095">
        <ele>332</ele>
        <time>2012-04-15T07:17:22Z</time>
      </trkpt>
      <trkpt lat="48.39457" lon="6.82089">
        <ele>331.6</ele>
        <time>2012-04-15T07:17:23Z</time>
      </trkpt>
      <trkpt lat="48.39451" lon="6.82084">
        <ele>331.3</ele>
        <time>2012-04-15T07:17:24Z</time>
      </trkpt>
      <trkpt lat="48.39446" lon="6.82077">
        <ele>331.1</ele>
        <time>2012-04-15T07:17:25Z</time>
      </trkpt>
      <trkpt lat="48.39442" lon="6.8207">
        <ele>330.5</ele>
        <time>2012-04-15T07:17:26Z</time>
      </trkpt>
      <trkpt lat="48.39438" lon="6.82061">
        <ele>330</ele>
        <time>2012-04-15T07:17:27Z</time>
      </trkpt>
      <trkpt lat="48.39436" lon="6.82051">
        <ele>329.6</ele>
        <time>2012-04-15T07:17:28Z</time>
      </trkpt>
      <trkpt lat="48.39435" lon="6.82041">
        <ele>329.8</ele>
        <time>2012-04-15T07:17:29Z</time>
      </trkpt>
      <trkpt lat="48.39436" lon="6.82032">
        <ele>330</ele>
        <time>2012-04-15T07:17:30Z</time>
      </trkpt>
      <trkpt lat="48.39437" lon="6.82023">
        <ele>330.1</ele>
        <time>2012-04-15T07:17:31Z</time>
      </trkpt>
      <trkpt lat="48.39438" lon="6.82014">
        <ele>330.2</ele>
        <time>2012-04-15T07:17:32Z</time>
      </trkpt>
      <trkpt lat="48.39439" lon="6.82005">
        <ele>330.2</ele>
        <time>2012-04-15T07:17:33Z</time>
      </trkpt>
      <trkpt lat="48.39441" lon="6.81996">
        <ele>330.2</ele>
        <time>2012-04-15T07:17:34Z</time>
      </trkpt>
      <trkpt lat="48.39442" lon="6.81987">
        <ele>330.2</ele>
        <time>2012-04-15T07:17:35Z</time>
      </trkpt>
      <trkpt lat="48.39443" lon="6.81978">
        <ele>329.9</ele>
        <time>2012-04-15T07:17:36Z</time>
      </trkpt>
      <trkpt lat="48.39445" lon="6.81968">
        <ele>329.8</ele>
        <time>2012-04-15T07:17:37Z</time>
      </trkpt>
      <trkpt lat="48.39446" lon="6.81958">
        <ele>329.7</ele>
        <time>2012-04-15T07:17:38Z</time>
      </trkpt>
      <trkpt lat="48.39447" lon="6.81949">
        <ele>329.7</ele>
        <time>2012-04-15T07:17:39Z</time>
      </trkpt>
      <trkpt lat="48.39447" lon="6.81939">
        <ele>329.7</ele>
        <time>2012-04-15T07:17:40Z</time>
      </trkpt>
      <trkpt lat="48.39447" lon="6.81929">
        <ele>329.8</ele>
        <time>2012-04-15T07:17:41Z</time>
      </trkpt>
      <trkpt lat="48.39447" lon="6.8192">
        <ele>329.8</ele>
        <time>2012-04-15T07:17:42Z</time>
      </trkpt>
      <trkpt lat="48.39447" lon="6.81911">
        <ele>329.9</ele>
        <time>2012-04-15T07:17:43Z</time>
      </trkpt>
      <trkpt lat="48.39447" lon="6.81902">
        <ele>329.9</ele>
        <time>2012-04-15T07:17:44Z</time>
      </trkpt>
      <trkpt lat="48.39447" lon="6.81893">
        <ele>329.5</ele>
        <time>2012-04-15T07:17:45Z</time>
      </trkpt>
      <trkpt lat="48.39447" lon="6.81885">
        <ele>329.1</ele>
        <time>2012-04-15T07:17:46Z</time>
      </trkpt>
      <trkpt lat="48.39447" lon="6.81876">
        <ele>328.8</ele>
        <time>2012-04-15T07:17:47Z</time>
      </trkpt>
      <trkpt lat="48.39447" lon="6.81868">
        <ele>328.9</ele>
        <time>2012-04-15T07:17:48Z</time>
      </trkpt>
      <trkpt lat="48.39448" lon="6.8186">
        <ele>328.9</ele>
        <time>2012-04-15T07:17:49Z</time>
      </trkpt>
      <trkpt lat="48.39449" lon="6.81852">
        <ele>329</ele>
        <time>2012-04-15T07:17:50Z</time>
      </trkpt>
      <trkpt lat="48.39451" lon="6.81845">
        <ele>329</ele>
        <time>2012-04-15T07:17:51Z</time>
      </trkpt>
      <trkpt lat="48.39454" lon="6.81837">
        <ele>329.1</ele>
        <time>2012-04-15T07:17:52Z</time>
      </trkpt>
      <trkpt lat="48.39457" lon="6.81829">
        <ele>329.2</ele>
        <time>2012-04-15T07:17:53Z</time>
      </trkpt>
      <trkpt lat="48.39461" lon="6.81821">
        <ele>329.2</ele>
        <time>2012-04-15T07:17:54Z</time>
      </trkpt>
      <trkpt lat="48.39465" lon="6.81813">
        <ele>328.8</ele>
        <time>2012-04-15T07:17:55Z</time>
      </trkpt>
      <trkpt lat="48.39469" lon="6.81806">
        <ele>328.4</ele>
        <time>2012-04-15T07:17:56Z</time>
      </trkpt>
      <trkpt lat="48.39474" lon="6.818">
        <ele>328.1</ele>
        <time>2012-04-15T07:17:57Z</time>
      </trkpt>
      <trkpt lat="48.39478" lon="6.81795">
        <ele>327.6</ele>
        <time>2012-04-15T07:17:58Z</time>
      </trkpt>
      <trkpt lat="48.39485" lon="6.8179">
        <ele>327</ele>
        <time>2012-04-15T07:18:00Z</time>
      </trkpt>
      <trkpt lat="48.39492" lon="6.81787">
        <ele>326.6</ele>
        <time>2012-04-15T07:18:02Z</time>
      </trkpt>
      <trkpt lat="48.39497" lon="6.81784">
        <ele>326.4</ele>
        <time>2012-04-15T07:18:03Z</time>
      </trkpt>
      <trkpt lat="48.39502" lon="6.81781">
        <ele>326.1</ele>
        <time>2012-04-15T07:18:04Z</time>
      </trkpt>
      <trkpt lat="48.39508" lon="6.81778">
        <ele>325.9</ele>
        <time>2012-04-15T07:18:05Z</time>
      </trkpt>
      <trkpt lat="48.39514" lon="6.81775">
        <ele>325.8</ele>
        <time>2012-04-15T07:18:06Z</time>
      </trkpt>
      <trkpt lat="48.3952" lon="6.81772">
        <ele>325.6</ele>
        <time>2012-04-15T07:18:07Z</time>
      </trkpt>
      <trkpt lat="48.39526" lon="6.81768">
        <ele>324.9</ele>
        <time>2012-04-15T07:18:08Z</time>
      </trkpt>
      <trkpt lat="48.39531" lon="6.81765">
        <ele>324.4</ele>
        <time>2012-04-15T07:18:09Z</time>
      </trkpt>
      <trkpt lat="48.39537" lon="6.81761">
        <ele>324</ele>
        <time>2012-04-15T07:18:10Z</time>
      </trkpt>
      <trkpt lat="48.39543" lon="6.81757">
        <ele>324.2</ele>
        <time>2012-04-15T07:18:11Z</time>
      </trkpt>
      <trkpt lat="48.39549" lon="6.81752">
        <ele>324.3</ele>
        <time>2012-04-15T07:18:12Z</time>
      </trkpt>
      <trkpt lat="48.39555" lon="6.81747">
        <ele>324.4</ele>
        <time>2012-04-15T07:18:13Z</time>
      </trkpt>
      <trkpt lat="48.3956" lon="6.81741">
        <ele>323.7</ele>
        <time>2012-04-15T07:18:14Z</time>
      </trkpt>
      <trkpt lat="48.39564" lon="6.81733">
        <ele>323.1</ele>
        <time>2012-04-15T07:18:15Z</time>
      </trkpt>
      <trkpt lat="48.39566" lon="6.81723">
        <ele>322.7</ele>
        <time>2012-04-15T07:18:16Z</time>
      </trkpt>
      <trkpt lat="48.39567" lon="6.81713">
        <ele>322.3</ele>
        <time>2012-04-15T07:18:17Z</time>
      </trkpt>
      <trkpt lat="48.39565" lon="6.81704">
        <ele>322.1</ele>
        <time>2012-04-15T07:18:18Z</time>
      </trkpt>
      <trkpt lat="48.39561" lon="6.81695">
        <ele>321.9</ele>
        <time>2012-04-15T07:18:19Z</time>
      </trkpt>
      <trkpt lat="48.39557" lon="6.81687">
        <ele>320.5</ele>
        <time>2012-04-15T07:18:20Z</time>
      </trkpt>
      <trkpt lat="48.39552" lon="6.81679">
        <ele>319.5</ele>
        <time>2012-04-15T07:18:21Z</time>
      </trkpt>
      <trkpt lat="48.39547" lon="6.81671">
        <ele>318.7</ele>
        <time>2012-04-15T07:18:22Z</time>
      </trkpt>
      <trkpt lat="48.39542" lon="6.81663">
        <ele>318.2</ele>
        <time>2012-04-15T07:18:23Z</time>
      </trkpt>
      <trkpt lat="48.39537" lon="6.81655">
        <ele>317.7</ele>
        <time>2012-04-15T07:18:24Z</time>
      </trkpt>
      <trkpt lat="48.39533" lon="6.81647">
        <ele>317.3</ele>
        <time>2012-04-15T07:18:25Z</time>
      </trkpt>
      <trkpt lat="48.39529" lon="6.81638">
        <ele>317.1</ele>
        <time>2012-04-15T07:18:26Z</time>
      </trkpt>
      <trkpt lat="48.39526" lon="6.81627">
        <ele>316.9</ele>
        <time>2012-04-15T07:18:27Z</time>
      </trkpt>
      <trkpt lat="48.39522" lon="6.81617">
        <ele>316.7</ele>
        <time>2012-04-15T07:18:28Z</time>
      </trkpt>
      <trkpt lat="48.39519" lon="6.81606">
        <ele>316.6</ele>
        <time>2012-04-15T07:18:29Z</time>
      </trkpt>
      <trkpt lat="48.39515" lon="6.81596">
        <ele>316.3</ele>
        <time>2012-04-15T07:18:30Z</time>
      </trkpt>
      <trkpt lat="48.39512" lon="6.81587">
        <ele>316</ele>
        <time>2012-04-15T07:18:31Z</time>
      </trkpt>
      <trkpt lat="48.39508" lon="6.81578">
        <ele>315.8</ele>
        <time>2012-04-15T07:18:32Z</time>
      </trkpt>
      <trkpt lat="48.39504" lon="6.81568">
        <ele>315.2</ele>
        <time>2012-04-15T07:18:33Z</time>
      </trkpt>
      <trkpt lat="48.39501" lon="6.81559">
        <ele>314.6</ele>
        <time>2012-04-15T07:18:34Z</time>
      </trkpt>
      <trkpt lat="48.39498" lon="6.8155">
        <ele>314.2</ele>
        <time>2012-04-15T07:18:35Z</time>
      </trkpt>
      <trkpt lat="48.39497" lon="6.81541">
        <ele>313.7</ele>
        <time>2012-04-15T07:18:36Z</time>
      </trkpt>
      <trkpt lat="48.39496" lon="6.81532">
        <ele>313.4</ele>
        <time>2012-04-15T07:18:37Z</time>
      </trkpt>
      <trkpt lat="48.39497" lon="6.81523">
        <ele>313.1</ele>
        <time>2012-04-15T07:18:38Z</time>
      </trkpt>
      <trkpt lat="48.39499" lon="6.81516">
        <ele>313</ele>
        <time>2012-04-15T07:18:39Z</time>
      </trkpt>
      <trkpt lat="48.39502" lon="6.81509">
        <ele>313</ele>
        <time>2012-04-15T07:18:40Z</time>
      </trkpt>
      <trkpt lat="48.39505" lon="6.81502">
        <ele>312.9</ele>
        <time>2012-04-15T07:18:41Z</time>
      </trkpt>
      <trkpt lat="48.39509" lon="6.81497">
        <ele>312.9</ele>
        <time>2012-04-15T07:18:42Z</time>
      </trkpt>
      <trkpt lat="48.39512" lon="6.81491">
        <ele>313.2</ele>
        <time>2012-04-15T07:18:43Z</time>
      </trkpt>
      <trkpt lat="48.39516" lon="6.81486">
        <ele>313.4</ele>
        <time>2012-04-15T07:18:44Z</time>
      </trkpt>
      <trkpt lat="48.39522" lon="6.81477">
        <ele>314</ele>
        <time>2012-04-15T07:18:46Z</time>
      </trkpt>
      <trkpt lat="48.39529" lon="6.81469">
        <ele>314.6</ele>
        <time>2012-04-15T07:18:48Z</time>
      </trkpt>
      <trkpt lat="48.39536" lon="6.81463">
        <ele>314.9</ele>
        <time>2012-04-15T07:18:50Z</time>
      </trkpt>
      <trkpt lat="48.3954" lon="6.81459">
        <ele>315</ele>
        <time>2012-04-15T07:18:51Z</time>
      </trkpt>
      <trkpt lat="48.39544" lon="6.81454">
        <ele>315.4</ele>
        <time>2012-04-15T07:18:52Z</time>
      </trkpt>
      <trkpt lat="48.39548" lon="6.8145">
        <ele>315.7</ele>
        <time>2012-04-15T07:18:53Z</time>
      </trkpt>
      <trkpt lat="48.39552" lon="6.81445">
        <ele>316</ele>
        <time>2012-04-15T07:18:54Z</time>
      </trkpt>
      <trkpt lat="48.39556" lon="6.81441">
        <ele>315.7</ele>
        <time>2012-04-15T07:18:55Z</time>
      </trkpt>
      <trkpt lat="48.39563" lon="6.81433">
        <ele>315.4</ele>
        <time>2012-04-15T07:18:57Z</time>
      </trkpt>
      <trkpt lat="48.39567" lon="6.81429">
        <ele>315.3</ele>
        <time>2012-04-15T07:18:58Z</time>
      </trkpt>
      <trkpt lat="48.39571" lon="6.81425">
        <ele>315.6</ele>
        <time>2012-04-15T07:18:59Z</time>
      </trkpt>
      <trkpt lat="48.39575" lon="6.8142">
        <ele>315.9</ele>
        <time>2012-04-15T07:19:00Z</time>
      </trkpt>
      <trkpt lat="48.39579" lon="6.81415">
        <ele>316.2</ele>
        <time>2012-04-15T07:19:01Z</time>
      </trkpt>
      <trkpt lat="48.39583" lon="6.81411">
        <ele>316.5</ele>
        <time>2012-04-15T07:19:02Z</time>
      </trkpt>
      <trkpt lat="48.39587" lon="6.81406">
        <ele>316.7</ele>
        <time>2012-04-15T07:19:03Z</time>
      </trkpt>
      <trkpt lat="48.39591" lon="6.81402">
        <ele>316.9</ele>
        <time>2012-04-15T07:19:04Z</time>
      </trkpt>
      <trkpt lat="48.39594" lon="6.81397">
        <ele>316.9</ele>
        <time>2012-04-15T07:19:05Z</time>
      </trkpt>
      <trkpt lat="48.39597" lon="6.81392">
        <ele>316.9</ele>
        <time>2012-04-15T07:19:06Z</time>
      </trkpt>
      <trkpt lat="48.39603" lon="6.81382">
        <ele>317</ele>
        <time>2012-04-15T07:19:08Z</time>
      </trkpt>
      <trkpt lat="48.39607" lon="6.81371">
        <ele>317.2</ele>
        <time>2012-04-15T07:19:10Z</time>
      </trkpt>
      <trkpt lat="48.39609" lon="6.81364">
        <ele>317.9</ele>
        <time>2012-04-15T07:19:11Z</time>
      </trkpt>
      <trkpt lat="48.39611" lon="6.81358">
        <ele>318.5</ele>
        <time>2012-04-15T07:19:12Z</time>
      </trkpt>
      <trkpt lat="48.39613" lon="6.81351">
        <ele>318.9</ele>
        <time>2012-04-15T07:19:13Z</time>
      </trkpt>
      <trkpt lat="48.39616" lon="6.81339">
        <ele>319</ele>
        <time>2012-04-15T07:19:15Z</time>
      </trkpt>
      <trkpt lat="48.39617" lon="6.81332">
        <ele>318.9</ele>
        <time>2012-04-15T07:19:16Z</time>
      </trkpt>
      <trkpt lat="48.39617" lon="6.81325">
        <ele>318.8</ele>
        <time>2012-04-15T07:19:17Z</time>
      </trkpt>
      <trkpt lat="48.39617" lon="6.81317">
        <ele>319</ele>
        <time>2012-04-15T07:19:18Z</time>
      </trkpt>
      <trkpt lat="48.39617" lon="6.8131">
        <ele>319.2</ele>
        <time>2012-04-15T07:19:19Z</time>
      </trkpt>
      <trkpt lat="48.39618" lon="6.81303">
        <ele>319.3</ele>
        <time>2012-04-15T07:19:20Z</time>
      </trkpt>
      <trkpt lat="48.39618" lon="6.81296">
        <ele>319.5</ele>
        <time>2012-04-15T07:19:21Z</time>
      </trkpt>
      <trkpt lat="48.39618" lon="6.81289">
        <ele>319.6</ele>
        <time>2012-04-15T07:19:22Z</time>
      </trkpt>
      <trkpt lat="48.39618" lon="6.81282">
        <ele>319.7</ele>
        <time>2012-04-15T07:19:23Z</time>
      </trkpt>
      <trkpt lat="48.39618" lon="6.81274">
        <ele>319.5</ele>
        <time>2012-04-15T07:19:24Z</time>
      </trkpt>
      <trkpt lat="48.39619" lon="6.81261">
        <ele>319.3</ele>
        <time>2012-04-15T07:19:26Z</time>
      </trkpt>
      <trkpt lat="48.39619" lon="6.81248">
        <ele>319.4</ele>
        <time>2012-04-15T07:19:28Z</time>
      </trkpt>
      <trkpt lat="48.3962" lon="6.81241">
        <ele>319.5</ele>
        <time>2012-04-15T07:19:29Z</time>
      </trkpt>
      <trkpt lat="48.3962" lon="6.81234">
        <ele>319.5</ele>
        <time>2012-04-15T07:19:30Z</time>
      </trkpt>
      <trkpt lat="48.39621" lon="6.81227">
        <ele>320.2</ele>
        <time>2012-04-15T07:19:31Z</time>
      </trkpt>
      <trkpt lat="48.39621" lon="6.8122">
        <ele>320.7</ele>
        <time>2012-04-15T07:19:32Z</time>
      </trkpt>
      <trkpt lat="48.39622" lon="6.81213">
        <ele>321.1</ele>
        <time>2012-04-15T07:19:33Z</time>
      </trkpt>
      <trkpt lat="48.39622" lon="6.81206">
        <ele>320.9</ele>
        <time>2012-04-15T07:19:34Z</time>
      </trkpt>
      <trkpt lat="48.39623" lon="6.81193">
        <ele>320.7</ele>
        <time>2012-04-15T07:19:36Z</time>
      </trkpt>
      <trkpt lat="48.39622" lon="6.81179">
        <ele>320.4</ele>
        <time>2012-04-15T07:19:38Z</time>
      </trkpt>
      <trkpt lat="48.39621" lon="6.81172">
        <ele>320.2</ele>
        <time>2012-04-15T07:19:39Z</time>
      </trkpt>
      <trkpt lat="48.39619" lon="6.81165">
        <ele>320.9</ele>
        <time>2012-04-15T07:19:40Z</time>
      </trkpt>
      <trkpt lat="48.39618" lon="6.81159">
        <ele>321.4</ele>
        <time>2012-04-15T07:19:41Z</time>
      </trkpt>
      <trkpt lat="48.39616" lon="6.81152">
        <ele>321.7</ele>
        <time>2012-04-15T07:19:42Z</time>
      </trkpt>
      <trkpt lat="48.39614" lon="6.81145">
        <ele>321.8</ele>
        <time>2012-04-15T07:19:43Z</time>
      </trkpt>
      <trkpt lat="48.39612" lon="6.81138">
        <ele>321.8</ele>
        <time>2012-04-15T07:19:44Z</time>
      </trkpt>
      <trkpt lat="48.3961" lon="6.81132">
        <ele>321.8</ele>
        <time>2012-04-15T07:19:45Z</time>
      </trkpt>
      <trkpt lat="48.39607" lon="6.81125">
        <ele>321.9</ele>
        <time>2012-04-15T07:19:46Z</time>
      </trkpt>
      <trkpt lat="48.39603" lon="6.81115">
        <ele>321.8</ele>
        <time>2012-04-15T07:19:48Z</time>
      </trkpt>
      <trkpt lat="48.39597" lon="6.81105">
        <ele>322</ele>
        <time>2012-04-15T07:19:50Z</time>
      </trkpt>
      <trkpt lat="48.3959" lon="6.81099">
        <ele>322.5</ele>
        <time>2012-04-15T07:19:53Z</time>
      </trkpt>
      <trkpt lat="48.39585" lon="6.81109">
        <ele>323.3</ele>
        <time>2012-04-15T07:19:59Z</time>
      </trkpt>
      <trkpt lat="48.39586" lon="6.81112">
        <ele>323.5</ele>
        <time>2012-04-15T07:20:00Z</time>
      </trkpt>
      <trkpt lat="48.39586" lon="6.81133">
        <ele>324.9</ele>
        <time>2012-04-15T07:20:07Z</time>
      </trkpt>
      <trkpt lat="48.39585" lon="6.81143">
        <ele>326.4</ele>
        <time>2012-04-15T07:20:10Z</time>
      </trkpt>
      <trkpt lat="48.39581" lon="6.81152">
        <ele>326.8</ele>
        <time>2012-04-15T07:20:13Z</time>
      </trkpt>
      <trkpt lat="48.39575" lon="6.81158">
        <ele>326.4</ele>
        <time>2012-04-15T07:20:16Z</time>
      </trkpt>
      <trkpt lat="48.39567" lon="6.81161">
        <ele>327</ele>
        <time>2012-04-15T07:20:19Z</time>
      </trkpt>
      <trkpt lat="48.39559" lon="6.81162">
        <ele>328</ele>
        <time>2012-04-15T07:20:22Z</time>
      </trkpt>
      <trkpt lat="48.39551" lon="6.81162">
        <ele>329.2</ele>
        <time>2012-04-15T07:20:25Z</time>
      </trkpt>
      <trkpt lat="48.39543" lon="6.81165">
        <ele>330.3</ele>
        <time>2012-04-15T07:20:29Z</time>
      </trkpt>
      <trkpt lat="48.39535" lon="6.81167">
        <ele>331.9</ele>
        <time>2012-04-15T07:20:33Z</time>
      </trkpt>
      <trkpt lat="48.39527" lon="6.81166">
        <ele>333.4</ele>
        <time>2012-04-15T07:20:36Z</time>
      </trkpt>
      <trkpt lat="48.3952" lon="6.81166">
        <ele>334</ele>
        <time>2012-04-15T07:20:40Z</time>
      </trkpt>
      <trkpt lat="48.39512" lon="6.81167">
        <ele>335.9</ele>
        <time>2012-04-15T07:20:44Z</time>
      </trkpt>
      <trkpt lat="48.39503" lon="6.81169">
        <ele>337.4</ele>
        <time>2012-04-15T07:20:49Z</time>
      </trkpt>
      <trkpt lat="48.39494" lon="6.8117">
        <ele>340</ele>
        <time>2012-04-15T07:20:54Z</time>
      </trkpt>
      <trkpt lat="48.39486" lon="6.81168">
        <ele>341.2</ele>
        <time>2012-04-15T07:20:59Z</time>
      </trkpt>
      <trkpt lat="48.39478" lon="6.81167">
        <ele>342.9</ele>
        <time>2012-04-15T07:21:04Z</time>
      </trkpt>
      <trkpt lat="48.39476" lon="6.81166">
        <ele>343.1</ele>
        <time>2012-04-15T07:21:05Z</time>
      </trkpt>
      <trkpt lat="48.39462" lon="6.81165">
        <ele>346.3</ele>
        <time>2012-04-15T07:21:15Z</time>
      </trkpt>
      <trkpt lat="48.39454" lon="6.81168">
        <ele>348.2</ele>
        <time>2012-04-15T07:21:20Z</time>
      </trkpt>
      <trkpt lat="48.39447" lon="6.8117">
        <ele>350.3</ele>
        <time>2012-04-15T07:21:25Z</time>
      </trkpt>
      <trkpt lat="48.39438" lon="6.81172">
        <ele>351.8</ele>
        <time>2012-04-15T07:21:29Z</time>
      </trkpt>
      <trkpt lat="48.39432" lon="6.81171">
        <ele>352.8</ele>
        <time>2012-04-15T07:21:32Z</time>
      </trkpt>
      <trkpt lat="48.39425" lon="6.8117">
        <ele>353.5</ele>
        <time>2012-04-15T07:21:35Z</time>
      </trkpt>
      <trkpt lat="48.39418" lon="6.81165">
        <ele>353.5</ele>
        <time>2012-04-15T07:21:38Z</time>
      </trkpt>
      <trkpt lat="48.39411" lon="6.81161">
        <ele>353.9</ele>
        <time>2012-04-15T07:21:41Z</time>
      </trkpt>
      <trkpt lat="48.39403" lon="6.81159">
        <ele>354.5</ele>
        <time>2012-04-15T07:21:45Z</time>
      </trkpt>
      <trkpt lat="48.39395" lon="6.81155">
        <ele>355.2</ele>
        <time>2012-04-15T07:21:49Z</time>
      </trkpt>
      <trkpt lat="48.39389" lon="6.81154">
        <ele>355.2</ele>
        <time>2012-04-15T07:21:52Z</time>
      </trkpt>
      <trkpt lat="48.39381" lon="6.81149">
        <ele>355.4</ele>
        <time>2012-04-15T07:21:55Z</time>
      </trkpt>
      <trkpt lat="48.39375" lon="6.81146">
        <ele>355.7</ele>
        <time>2012-04-15T07:21:58Z</time>
      </trkpt>
      <trkpt lat="48.39367" lon="6.8114">
        <ele>355.9</ele>
        <time>2012-04-15T07:22:01Z</time>
      </trkpt>
      <trkpt lat="48.39363" lon="6.81137">
        <ele>356</ele>
        <time>2012-04-15T07:22:02Z</time>
      </trkpt>
      <trkpt lat="48.39358" lon="6.81133">
        <ele>356</ele>
        <time>2012-04-15T07:22:03Z</time>
      </trkpt>
      <trkpt lat="48.39353" lon="6.81128">
        <ele>355.8</ele>
        <time>2012-04-15T07:22:04Z</time>
      </trkpt>
      <trkpt lat="48.39348" lon="6.81124">
        <ele>355.6</ele>
        <time>2012-04-15T07:22:05Z</time>
      </trkpt>
      <trkpt lat="48.39343" lon="6.81119">
        <ele>355.4</ele>
        <time>2012-04-15T07:22:06Z</time>
      </trkpt>
      <trkpt lat="48.39339" lon="6.81113">
        <ele>354.9</ele>
        <time>2012-04-15T07:22:07Z</time>
      </trkpt>
      <trkpt lat="48.39334" lon="6.81109">
        <ele>354.5</ele>
        <time>2012-04-15T07:22:08Z</time>
      </trkpt>
      <trkpt lat="48.3933" lon="6.81105">
        <ele>354.2</ele>
        <time>2012-04-15T07:22:09Z</time>
      </trkpt>
      <trkpt lat="48.39325" lon="6.81104">
        <ele>354.2</ele>
        <time>2012-04-15T07:22:10Z</time>
      </trkpt>
      <trkpt lat="48.3932" lon="6.81104">
        <ele>354.2</ele>
        <time>2012-04-15T07:22:11Z</time>
      </trkpt>
      <trkpt lat="48.39312" lon="6.81107">
        <ele>353.9</ele>
        <time>2012-04-15T07:22:13Z</time>
      </trkpt>
      <trkpt lat="48.39304" lon="6.81107">
        <ele>353.3</ele>
        <time>2012-04-15T07:22:15Z</time>
      </trkpt>
      <trkpt lat="48.39295" lon="6.81108">
        <ele>353.1</ele>
        <time>2012-04-15T07:22:17Z</time>
      </trkpt>
      <trkpt lat="48.39286" lon="6.81108">
        <ele>353.1</ele>
        <time>2012-04-15T07:22:19Z</time>
      </trkpt>
      <trkpt lat="48.39279" lon="6.81107">
        <ele>353.4</ele>
        <time>2012-04-15T07:22:21Z</time>
      </trkpt>
      <trkpt lat="48.3927" lon="6.81106">
        <ele>353.8</ele>
        <time>2012-04-15T07:22:23Z</time>
      </trkpt>
      <trkpt lat="48.39263" lon="6.81104">
        <ele>354.2</ele>
        <time>2012-04-15T07:22:25Z</time>
      </trkpt>
      <trkpt lat="48.39258" lon="6.81103">
        <ele>354.4</ele>
        <time>2012-04-15T07:22:26Z</time>
      </trkpt>
      <trkpt lat="48.39253" lon="6.81101">
        <ele>354.4</ele>
        <time>2012-04-15T07:22:27Z</time>
      </trkpt>
      <trkpt lat="48.39248" lon="6.81098">
        <ele>354.5</ele>
        <time>2012-04-15T07:22:28Z</time>
      </trkpt>
      <trkpt lat="48.39243" lon="6.81096">
        <ele>354.1</ele>
        <time>2012-04-15T07:22:29Z</time>
      </trkpt>
      <trkpt lat="48.39238" lon="6.81093">
        <ele>353.7</ele>
        <time>2012-04-15T07:22:30Z</time>
      </trkpt>
      <trkpt lat="48.39233" lon="6.81089">
        <ele>353.5</ele>
        <time>2012-04-15T07:22:31Z</time>
      </trkpt>
      <trkpt lat="48.39229" lon="6.81086">
        <ele>352.9</ele>
        <time>2012-04-15T07:22:32Z</time>
      </trkpt>
      <trkpt lat="48.39223" lon="6.81083">
        <ele>352.4</ele>
        <time>2012-04-15T07:22:33Z</time>
      </trkpt>
      <trkpt lat="48.39219" lon="6.81079">
        <ele>352.1</ele>
        <time>2012-04-15T07:22:34Z</time>
      </trkpt>
      <trkpt lat="48.39214" lon="6.81075">
        <ele>351.9</ele>
        <time>2012-04-15T07:22:35Z</time>
      </trkpt>
      <trkpt lat="48.3921" lon="6.81071">
        <ele>351.6</ele>
        <time>2012-04-15T07:22:36Z</time>
      </trkpt>
      <trkpt lat="48.39206" lon="6.81068">
        <ele>351.4</ele>
        <time>2012-04-15T07:22:37Z</time>
      </trkpt>
      <trkpt lat="48.39201" lon="6.81064">
        <ele>351.2</ele>
        <time>2012-04-15T07:22:38Z</time>
      </trkpt>
      <trkpt lat="48.39197" lon="6.81061">
        <ele>351.7</ele>
        <time>2012-04-15T07:22:39Z</time>
      </trkpt>
      <trkpt lat="48.39192" lon="6.81058">
        <ele>352</ele>
        <time>2012-04-15T07:22:40Z</time>
      </trkpt>
      <trkpt lat="48.39188" lon="6.81055">
        <ele>352.3</ele>
        <time>2012-04-15T07:22:41Z</time>
      </trkpt>
      <trkpt lat="48.39183" lon="6.81051">
        <ele>352.3</ele>
        <time>2012-04-15T07:22:42Z</time>
      </trkpt>
      <trkpt lat="48.39179" lon="6.81047">
        <ele>352.4</ele>
        <time>2012-04-15T07:22:43Z</time>
      </trkpt>
      <trkpt lat="48.39174" lon="6.81044">
        <ele>352.5</ele>
        <time>2012-04-15T07:22:44Z</time>
      </trkpt>
      <trkpt lat="48.39169" lon="6.8104">
        <ele>352.3</ele>
        <time>2012-04-15T07:22:45Z</time>
      </trkpt>
      <trkpt lat="48.39165" lon="6.81035">
        <ele>352.1</ele>
        <time>2012-04-15T07:22:46Z</time>
      </trkpt>
      <trkpt lat="48.39161" lon="6.81031">
        <ele>352</ele>
        <time>2012-04-15T07:22:47Z</time>
      </trkpt>
      <trkpt lat="48.39157" lon="6.81025">
        <ele>352</ele>
        <time>2012-04-15T07:22:48Z</time>
      </trkpt>
      <trkpt lat="48.39152" lon="6.8102">
        <ele>352</ele>
        <time>2012-04-15T07:22:49Z</time>
      </trkpt>
      <trkpt lat="48.39148" lon="6.81014">
        <ele>351.9</ele>
        <time>2012-04-15T07:22:50Z</time>
      </trkpt>
      <trkpt lat="48.39145" lon="6.81009">
        <ele>351.9</ele>
        <time>2012-04-15T07:22:51Z</time>
      </trkpt>
      <trkpt lat="48.39141" lon="6.81004">
        <ele>352.1</ele>
        <time>2012-04-15T07:22:52Z</time>
      </trkpt>
      <trkpt lat="48.39137" lon="6.80999">
        <ele>352.2</ele>
        <time>2012-04-15T07:22:53Z</time>
      </trkpt>
      <trkpt lat="48.39134" lon="6.80995">
        <ele>352.2</ele>
        <time>2012-04-15T07:22:54Z</time>
      </trkpt>
      <trkpt lat="48.3913" lon="6.8099">
        <ele>351.9</ele>
        <time>2012-04-15T07:22:55Z</time>
      </trkpt>
      <trkpt lat="48.39126" lon="6.80985">
        <ele>351.7</ele>
        <time>2012-04-15T07:22:56Z</time>
      </trkpt>
      <trkpt lat="48.39122" lon="6.8098">
        <ele>351.6</ele>
        <time>2012-04-15T07:22:57Z</time>
      </trkpt>
      <trkpt lat="48.39118" lon="6.80974">
        <ele>351.4</ele>
        <time>2012-04-15T07:22:58Z</time>
      </trkpt>
      <trkpt lat="48.39115" lon="6.80969">
        <ele>351.3</ele>
        <time>2012-04-15T07:22:59Z</time>
      </trkpt>
      <trkpt lat="48.39111" lon="6.80964">
        <ele>351.3</ele>
        <time>2012-04-15T07:23:00Z</time>
      </trkpt>
      <trkpt lat="48.39105" lon="6.80955">
        <ele>350.9</ele>
        <time>2012-04-15T07:23:02Z</time>
      </trkpt>
      <trkpt lat="48.39099" lon="6.80945">
        <ele>350.4</ele>
        <time>2012-04-15T07:23:04Z</time>
      </trkpt>
      <trkpt lat="48.39093" lon="6.80936">
        <ele>349.9</ele>
        <time>2012-04-15T07:23:06Z</time>
      </trkpt>
      <trkpt lat="48.39089" lon="6.80931">
        <ele>349.8</ele>
        <time>2012-04-15T07:23:07Z</time>
      </trkpt>
      <trkpt lat="48.39086" lon="6.80926">
        <ele>349.5</ele>
        <time>2012-04-15T07:23:08Z</time>
      </trkpt>
      <trkpt lat="48.39083" lon="6.8092">
        <ele>349.3</ele>
        <time>2012-04-15T07:23:09Z</time>
      </trkpt>
      <trkpt lat="48.39079" lon="6.80914">
        <ele>349.2</ele>
        <time>2012-04-15T07:23:10Z</time>
      </trkpt>
      <trkpt lat="48.39076" lon="6.80909">
        <ele>349.5</ele>
        <time>2012-04-15T07:23:11Z</time>
      </trkpt>
      <trkpt lat="48.39071" lon="6.80897">
        <ele>349.8</ele>
        <time>2012-04-15T07:23:13Z</time>
      </trkpt>
      <trkpt lat="48.39069" lon="6.80891">
        <ele>350.3</ele>
        <time>2012-04-15T07:23:14Z</time>
      </trkpt>
      <trkpt lat="48.39066" lon="6.80886">
        <ele>350.7</ele>
        <time>2012-04-15T07:23:15Z</time>
      </trkpt>
      <trkpt lat="48.39063" lon="6.8088">
        <ele>351</ele>
        <time>2012-04-15T07:23:16Z</time>
      </trkpt>
      <trkpt lat="48.3906" lon="6.80875">
        <ele>350.7</ele>
        <time>2012-04-15T07:23:17Z</time>
      </trkpt>
      <trkpt lat="48.39058" lon="6.80869">
        <ele>350.6</ele>
        <time>2012-04-15T07:23:18Z</time>
      </trkpt>
      <trkpt lat="48.39053" lon="6.80859">
        <ele>349.9</ele>
        <time>2012-04-15T07:23:20Z</time>
      </trkpt>
      <trkpt lat="48.3905" lon="6.80848">
        <ele>349.3</ele>
        <time>2012-04-15T07:23:22Z</time>
      </trkpt>
      <trkpt lat="48.39046" lon="6.80836">
        <ele>349.4</ele>
        <time>2012-04-15T07:23:24Z</time>
      </trkpt>
      <trkpt lat="48.39042" lon="6.80824">
        <ele>349.7</ele>
        <time>2012-04-15T07:23:26Z</time>
      </trkpt>
      <trkpt lat="48.3904" lon="6.80818">
        <ele>349.7</ele>
        <time>2012-04-15T07:23:27Z</time>
      </trkpt>
      <trkpt lat="48.39038" lon="6.80812">
        <ele>349.8</ele>
        <time>2012-04-15T07:23:28Z</time>
      </trkpt>
      <trkpt lat="48.39035" lon="6.808">
        <ele>349.6</ele>
        <time>2012-04-15T07:23:30Z</time>
      </trkpt>
      <trkpt lat="48.39031" lon="6.8079">
        <ele>349.3</ele>
        <time>2012-04-15T07:23:32Z</time>
      </trkpt>
      <trkpt lat="48.39028" lon="6.80778">
        <ele>350.2</ele>
        <time>2012-04-15T07:23:34Z</time>
      </trkpt>
      <trkpt lat="48.39026" lon="6.80765">
        <ele>350</ele>
        <time>2012-04-15T07:23:36Z</time>
      </trkpt>
      <trkpt lat="48.39025" lon="6.80752">
        <ele>349.4</ele>
        <time>2012-04-15T07:23:38Z</time>
      </trkpt>
      <trkpt lat="48.39024" lon="6.80745">
        <ele>350.1</ele>
        <time>2012-04-15T07:23:39Z</time>
      </trkpt>
      <trkpt lat="48.39022" lon="6.80733">
        <ele>350.9</ele>
        <time>2012-04-15T07:23:41Z</time>
      </trkpt>
      <trkpt lat="48.3902" lon="6.8072">
        <ele>351.1</ele>
        <time>2012-04-15T07:23:43Z</time>
      </trkpt>
      <trkpt lat="48.39016" lon="6.80708">
        <ele>350.9</ele>
        <time>2012-04-15T07:23:45Z</time>
      </trkpt>
      <trkpt lat="48.39015" lon="6.80701">
        <ele>351</ele>
        <time>2012-04-15T07:23:46Z</time>
      </trkpt>
      <trkpt lat="48.39013" lon="6.80694">
        <ele>351.1</ele>
        <time>2012-04-15T07:23:47Z</time>
      </trkpt>
      <trkpt lat="48.39011" lon="6.80688">
        <ele>351.2</ele>
        <time>2012-04-15T07:23:48Z</time>
      </trkpt>
      <trkpt lat="48.39008" lon="6.80676">
        <ele>351.6</ele>
        <time>2012-04-15T07:23:50Z</time>
      </trkpt>
      <trkpt lat="48.39006" lon="6.8067">
        <ele>351.7</ele>
        <time>2012-04-15T07:23:51Z</time>
      </trkpt>
      <trkpt lat="48.39002" lon="6.80658">
        <ele>351.1</ele>
        <time>2012-04-15T07:23:53Z</time>
      </trkpt>
      <trkpt lat="48.38998" lon="6.80647">
        <ele>350.8</ele>
        <time>2012-04-15T07:23:55Z</time>
      </trkpt>
      <trkpt lat="48.38996" lon="6.80636">
        <ele>351.1</ele>
        <time>2012-04-15T07:23:57Z</time>
      </trkpt>
      <trkpt lat="48.38993" lon="6.80625">
        <ele>351.8</ele>
        <time>2012-04-15T07:23:59Z</time>
      </trkpt>
      <trkpt lat="48.38988" lon="6.80613">
        <ele>352.7</ele>
        <time>2012-04-15T07:24:01Z</time>
      </trkpt>
      <trkpt lat="48.38984" lon="6.80602">
        <ele>352.2</ele>
        <time>2012-04-15T07:24:03Z</time>
      </trkpt>
      <trkpt lat="48.38979" lon="6.80592">
        <ele>352</ele>
        <time>2012-04-15T07:24:05Z</time>
      </trkpt>
      <trkpt lat="48.38976" lon="6.80585">
        <ele>351.9</ele>
        <time>2012-04-15T07:24:06Z</time>
      </trkpt>
      <trkpt lat="48.38973" lon="6.80578">
        <ele>351.8</ele>
        <time>2012-04-15T07:24:07Z</time>
      </trkpt>
      <trkpt lat="48.38971" lon="6.80571">
        <ele>351.8</ele>
        <time>2012-04-15T07:24:08Z</time>
      </trkpt>
      <trkpt lat="48.38969" lon="6.80558">
        <ele>351.7</ele>
        <time>2012-04-15T07:24:10Z</time>
      </trkpt>
      <trkpt lat="48.38969" lon="6.80544">
        <ele>351.9</ele>
        <time>2012-04-15T07:24:12Z</time>
      </trkpt>
      <trkpt lat="48.38969" lon="6.80531">
        <ele>352</ele>
        <time>2012-04-15T07:24:14Z</time>
      </trkpt>
      <trkpt lat="48.3897" lon="6.80519">
        <ele>352.8</ele>
        <time>2012-04-15T07:24:16Z</time>
      </trkpt>
      <trkpt lat="48.38971" lon="6.80506">
        <ele>353.1</ele>
        <time>2012-04-15T07:24:18Z</time>
      </trkpt>
      <trkpt lat="48.38972" lon="6.80494">
        <ele>353.2</ele>
        <time>2012-04-15T07:24:20Z</time>
      </trkpt>
      <trkpt lat="48.3897" lon="6.80481">
        <ele>353.7</ele>
        <time>2012-04-15T07:24:22Z</time>
      </trkpt>
      <trkpt lat="48.38965" lon="6.80471">
        <ele>354.3</ele>
        <time>2012-04-15T07:24:24Z</time>
      </trkpt>
      <trkpt lat="48.38962" lon="6.80466">
        <ele>354.7</ele>
        <time>2012-04-15T07:24:25Z</time>
      </trkpt>
      <trkpt lat="48.38958" lon="6.80461">
        <ele>354.9</ele>
        <time>2012-04-15T07:24:26Z</time>
      </trkpt>
      <trkpt lat="48.38955" lon="6.80456">
        <ele>354.9</ele>
        <time>2012-04-15T07:24:27Z</time>
      </trkpt>
      <trkpt lat="48.38952" lon="6.8045">
        <ele>355</ele>
        <time>2012-04-15T07:24:28Z</time>
      </trkpt>
      <trkpt lat="48.38949" lon="6.80445">
        <ele>355</ele>
        <time>2012-04-15T07:24:29Z</time>
      </trkpt>
      <trkpt lat="48.38945" lon="6.80439">
        <ele>355</ele>
        <time>2012-04-15T07:24:30Z</time>
      </trkpt>
      <trkpt lat="48.38941" lon="6.80434">
        <ele>354.8</ele>
        <time>2012-04-15T07:24:31Z</time>
      </trkpt>
      <trkpt lat="48.38937" lon="6.80431">
        <ele>354.7</ele>
        <time>2012-04-15T07:24:32Z</time>
      </trkpt>
      <trkpt lat="48.38932" lon="6.80428">
        <ele>354.6</ele>
        <time>2012-04-15T07:24:33Z</time>
      </trkpt>
      <trkpt lat="48.38926" lon="6.80427">
        <ele>354.2</ele>
        <time>2012-04-15T07:24:34Z</time>
      </trkpt>
      <trkpt lat="48.38921" lon="6.80426">
        <ele>353.8</ele>
        <time>2012-04-15T07:24:35Z</time>
      </trkpt>
      <trkpt lat="48.38915" lon="6.80424">
        <ele>353.6</ele>
        <time>2012-04-15T07:24:36Z</time>
      </trkpt>
      <trkpt lat="48.3891" lon="6.80422">
        <ele>353.5</ele>
        <time>2012-04-15T07:24:37Z</time>
      </trkpt>
      <trkpt lat="48.38903" lon="6.80417">
        <ele>353.3</ele>
        <time>2012-04-15T07:24:39Z</time>
      </trkpt>
      <trkpt lat="48.38895" lon="6.80414">
        <ele>354</ele>
        <time>2012-04-15T07:24:41Z</time>
      </trkpt>
      <trkpt lat="48.38891" lon="6.80413">
        <ele>354.2</ele>
        <time>2012-04-15T07:24:42Z</time>
      </trkpt>
      <trkpt lat="48.38882" lon="6.80411">
        <ele>353.7</ele>
        <time>2012-04-15T07:24:44Z</time>
      </trkpt>
      <trkpt lat="48.38875" lon="6.80408">
        <ele>353.4</ele>
        <time>2012-04-15T07:24:46Z</time>
      </trkpt>
      <trkpt lat="48.38868" lon="6.80404">
        <ele>354.3</ele>
        <time>2012-04-15T07:24:49Z</time>
      </trkpt>
      <trkpt lat="48.3886" lon="6.80398">
        <ele>354.6</ele>
        <time>2012-04-15T07:24:54Z</time>
      </trkpt>
      <trkpt lat="48.38852" lon="6.80399">
        <ele>355.9</ele>
        <time>2012-04-15T07:25:07Z</time>
      </trkpt>
      <trkpt lat="48.38843" lon="6.80397">
        <ele>356.8</ele>
        <time>2012-04-15T07:25:12Z</time>
      </trkpt>
      <trkpt lat="48.38841" lon="6.80397">
        <ele>356.9</ele>
        <time>2012-04-15T07:25:13Z</time>
      </trkpt>
      <trkpt lat="48.38828" lon="6.80392">
        <ele>361.1</ele>
        <time>2012-04-15T07:25:22Z</time>
      </trkpt>
      <trkpt lat="48.38821" lon="6.80387">
        <ele>363.6</ele>
        <time>2012-04-15T07:25:31Z</time>
      </trkpt>
      <trkpt lat="48.38813" lon="6.80384">
        <ele>364.7</ele>
        <time>2012-04-15T07:25:36Z</time>
      </trkpt>
      <trkpt lat="48.38805" lon="6.80379">
        <ele>365</ele>
        <time>2012-04-15T07:25:40Z</time>
      </trkpt>
      <trkpt lat="48.38798" lon="6.80374">
        <ele>365.5</ele>
        <time>2012-04-15T07:25:43Z</time>
      </trkpt>
      <trkpt lat="48.38791" lon="6.80368">
        <ele>368</ele>
        <time>2012-04-15T07:25:46Z</time>
      </trkpt>
      <trkpt lat="48.38785" lon="6.80361">
        <ele>367.3</ele>
        <time>2012-04-15T07:25:49Z</time>
      </trkpt>
      <trkpt lat="48.38778" lon="6.80354">
        <ele>368.1</ele>
        <time>2012-04-15T07:25:52Z</time>
      </trkpt>
      <trkpt lat="48.38772" lon="6.80347">
        <ele>367.9</ele>
        <time>2012-04-15T07:25:54Z</time>
      </trkpt>
      <trkpt lat="48.38767" lon="6.80341">
        <ele>367.4</ele>
        <time>2012-04-15T07:25:56Z</time>
      </trkpt>
      <trkpt lat="48.38762" lon="6.80335">
        <ele>368</ele>
        <time>2012-04-15T07:25:58Z</time>
      </trkpt>
      <trkpt lat="48.38756" lon="6.80327">
        <ele>368.5</ele>
        <time>2012-04-15T07:26:00Z</time>
      </trkpt>
      <trkpt lat="48.3875" lon="6.8032">
        <ele>368.8</ele>
        <time>2012-04-15T07:26:02Z</time>
      </trkpt>
      <trkpt lat="48.38743" lon="6.80315">
        <ele>369.6</ele>
        <time>2012-04-15T07:26:04Z</time>
      </trkpt>
      <trkpt lat="48.38736" lon="6.80308">
        <ele>369.8</ele>
        <time>2012-04-15T07:26:06Z</time>
      </trkpt>
      <trkpt lat="48.38728" lon="6.80302">
        <ele>369.7</ele>
        <time>2012-04-15T07:26:08Z</time>
      </trkpt>
      <trkpt lat="48.38724" lon="6.80298">
        <ele>369.6</ele>
        <time>2012-04-15T07:26:09Z</time>
      </trkpt>
      <trkpt lat="48.38719" lon="6.80292">
        <ele>369.2</ele>
        <time>2012-04-15T07:26:10Z</time>
      </trkpt>
      <trkpt lat="48.38715" lon="6.80287">
        <ele>368.9</ele>
        <time>2012-04-15T07:26:11Z</time>
      </trkpt>
      <trkpt lat="48.38712" lon="6.80282">
        <ele>368.6</ele>
        <time>2012-04-15T07:26:12Z</time>
      </trkpt>
      <trkpt lat="48.38708" lon="6.80277">
        <ele>368.5</ele>
        <time>2012-04-15T07:26:13Z</time>
      </trkpt>
      <trkpt lat="48.38703" lon="6.80271">
        <ele>368.4</ele>
        <time>2012-04-15T07:26:14Z</time>
      </trkpt>
      <trkpt lat="48.38699" lon="6.80266">
        <ele>368.4</ele>
        <time>2012-04-15T07:26:15Z</time>
      </trkpt>
      <trkpt lat="48.38694" lon="6.8026">
        <ele>368.2</ele>
        <time>2012-04-15T07:26:16Z</time>
      </trkpt>
      <trkpt lat="48.3869" lon="6.80255">
        <ele>368.1</ele>
        <time>2012-04-15T07:26:17Z</time>
      </trkpt>
      <trkpt lat="48.38686" lon="6.8025">
        <ele>368</ele>
        <time>2012-04-15T07:26:18Z</time>
      </trkpt>
      <trkpt lat="48.38681" lon="6.80245">
        <ele>367.8</ele>
        <time>2012-04-15T07:26:19Z</time>
      </trkpt>
      <trkpt lat="48.38676" lon="6.8024">
        <ele>367.6</ele>
        <time>2012-04-15T07:26:20Z</time>
      </trkpt>
      <trkpt lat="48.38671" lon="6.80237">
        <ele>367.5</ele>
        <time>2012-04-15T07:26:21Z</time>
      </trkpt>
      <trkpt lat="48.38664" lon="6.80235">
        <ele>367.9</ele>
        <time>2012-04-15T07:26:22Z</time>
      </trkpt>
      <trkpt lat="48.38658" lon="6.80234">
        <ele>368.2</ele>
        <time>2012-04-15T07:26:23Z</time>
      </trkpt>
      <trkpt lat="48.38651" lon="6.80233">
        <ele>368.4</ele>
        <time>2012-04-15T07:26:24Z</time>
      </trkpt>
      <trkpt lat="48.38644" lon="6.80231">
        <ele>367.7</ele>
        <time>2012-04-15T07:26:25Z</time>
      </trkpt>
      <trkpt lat="48.38638" lon="6.80228">
        <ele>367.2</ele>
        <time>2012-04-15T07:26:26Z</time>
      </trkpt>
      <trkpt lat="48.38633" lon="6.80222">
        <ele>366.8</ele>
        <time>2012-04-15T07:26:27Z</time>
      </trkpt>
      <trkpt lat="48.38629" lon="6.80215">
        <ele>366.5</ele>
        <time>2012-04-15T07:26:28Z</time>
      </trkpt>
      <trkpt lat="48.38626" lon="6.80207">
        <ele>366.4</ele>
        <time>2012-04-15T07:26:29Z</time>
      </trkpt>
      <trkpt lat="48.38624" lon="6.80199">
        <ele>366.3</ele>
        <time>2012-04-15T07:26:30Z</time>
      </trkpt>
      <trkpt lat="48.38622" lon="6.80191">
        <ele>366.3</ele>
        <time>2012-04-15T07:26:31Z</time>
      </trkpt>
      <trkpt lat="48.3862" lon="6.80184">
        <ele>366.2</ele>
        <time>2012-04-15T07:26:32Z</time>
      </trkpt>
      <trkpt lat="48.38618" lon="6.80178">
        <ele>366.1</ele>
        <time>2012-04-15T07:26:33Z</time>
      </trkpt>
      <trkpt lat="48.38616" lon="6.80171">
        <ele>366.1</ele>
        <time>2012-04-15T07:26:34Z</time>
      </trkpt>
      <trkpt lat="48.38615" lon="6.80164">
        <ele>366.2</ele>
        <time>2012-04-15T07:26:35Z</time>
      </trkpt>
      <trkpt lat="48.38613" lon="6.80157">
        <ele>366.3</ele>
        <time>2012-04-15T07:26:36Z</time>
      </trkpt>
      <trkpt lat="48.38613" lon="6.80151">
        <ele>366.4</ele>
        <time>2012-04-15T07:26:37Z</time>
      </trkpt>
      <trkpt lat="48.38612" lon="6.80144">
        <ele>366.6</ele>
        <time>2012-04-15T07:26:38Z</time>
      </trkpt>
      <trkpt lat="48.3861" lon="6.80138">
        <ele>366.7</ele>
        <time>2012-04-15T07:26:39Z</time>
      </trkpt>
      <trkpt lat="48.38608" lon="6.80131">
        <ele>366.8</ele>
        <time>2012-04-15T07:26:40Z</time>
      </trkpt>
      <trkpt lat="48.38603" lon="6.8012">
        <ele>366.6</ele>
        <time>2012-04-15T07:26:42Z</time>
      </trkpt>
      <trkpt lat="48.38599" lon="6.80108">
        <ele>366.5</ele>
        <time>2012-04-15T07:26:44Z</time>
      </trkpt>
      <trkpt lat="48.38597" lon="6.80102">
        <ele>366.6</ele>
        <time>2012-04-15T07:26:45Z</time>
      </trkpt>
      <trkpt lat="48.38594" lon="6.80096">
        <ele>366.7</ele>
        <time>2012-04-15T07:26:46Z</time>
      </trkpt>
      <trkpt lat="48.38592" lon="6.80089">
        <ele>366.7</ele>
        <time>2012-04-15T07:26:47Z</time>
      </trkpt>
      <trkpt lat="48.3859" lon="6.80082">
        <ele>367.4</ele>
        <time>2012-04-15T07:26:48Z</time>
      </trkpt>
      <trkpt lat="48.38588" lon="6.80075">
        <ele>367.8</ele>
        <time>2012-04-15T07:26:49Z</time>
      </trkpt>
      <trkpt lat="48.38586" lon="6.80068">
        <ele>368.2</ele>
        <time>2012-04-15T07:26:50Z</time>
      </trkpt>
      <trkpt lat="48.38584" lon="6.80061">
        <ele>368.4</ele>
        <time>2012-04-15T07:26:51Z</time>
      </trkpt>
      <trkpt lat="48.38583" lon="6.80054">
        <ele>368.5</ele>
        <time>2012-04-15T07:26:52Z</time>
      </trkpt>
      <trkpt lat="48.38581" lon="6.80046">
        <ele>368.6</ele>
        <time>2012-04-15T07:26:53Z</time>
      </trkpt>
      <trkpt lat="48.3858" lon="6.80038">
        <ele>368.7</ele>
        <time>2012-04-15T07:26:54Z</time>
      </trkpt>
      <trkpt lat="48.38579" lon="6.80031">
        <ele>368.7</ele>
        <time>2012-04-15T07:26:55Z</time>
      </trkpt>
      <trkpt lat="48.38577" lon="6.80023">
        <ele>368.7</ele>
        <time>2012-04-15T07:26:56Z</time>
      </trkpt>
      <trkpt lat="48.38576" lon="6.80016">
        <ele>368.5</ele>
        <time>2012-04-15T07:26:57Z</time>
      </trkpt>
      <trkpt lat="48.38575" lon="6.80008">
        <ele>368.3</ele>
        <time>2012-04-15T07:26:58Z</time>
      </trkpt>
      <trkpt lat="48.38574" lon="6.8">
        <ele>368.1</ele>
        <time>2012-04-15T07:26:59Z</time>
      </trkpt>
      <trkpt lat="48.38573" lon="6.79991">
        <ele>368</ele>
        <time>2012-04-15T07:27:00Z</time>
      </trkpt>
      <trkpt lat="48.38572" lon="6.79983">
        <ele>368.5</ele>
        <time>2012-04-15T07:27:01Z</time>
      </trkpt>
      <trkpt lat="48.38571" lon="6.79974">
        <ele>369</ele>
        <time>2012-04-15T07:27:02Z</time>
      </trkpt>
      <trkpt lat="48.38571" lon="6.79966">
        <ele>369.3</ele>
        <time>2012-04-15T07:27:03Z</time>
      </trkpt>
      <trkpt lat="48.38571" lon="6.79957">
        <ele>369</ele>
        <time>2012-04-15T07:27:04Z</time>
      </trkpt>
      <trkpt lat="48.3857" lon="6.79949">
        <ele>368.7</ele>
        <time>2012-04-15T07:27:05Z</time>
      </trkpt>
      <trkpt lat="48.38568" lon="6.79942">
        <ele>368.6</ele>
        <time>2012-04-15T07:27:06Z</time>
      </trkpt>
      <trkpt lat="48.38566" lon="6.79934">
        <ele>368.3</ele>
        <time>2012-04-15T07:27:07Z</time>
      </trkpt>
      <trkpt lat="48.38563" lon="6.79928">
        <ele>368.1</ele>
        <time>2012-04-15T07:27:08Z</time>
      </trkpt>
      <trkpt lat="48.38559" lon="6.79923">
        <ele>368</ele>
        <time>2012-04-15T07:27:09Z</time>
      </trkpt>
      <trkpt lat="48.38554" lon="6.79919">
        <ele>368.1</ele>
        <time>2012-04-15T07:27:10Z</time>
      </trkpt>
      <trkpt lat="48.3855" lon="6.79917">
        <ele>368.2</ele>
        <time>2012-04-15T07:27:11Z</time>
      </trkpt>
      <trkpt lat="48.38544" lon="6.79915">
        <ele>368.2</ele>
        <time>2012-04-15T07:27:12Z</time>
      </trkpt>
      <trkpt lat="48.38539" lon="6.79914">
        <ele>367.6</ele>
        <time>2012-04-15T07:27:13Z</time>
      </trkpt>
      <trkpt lat="48.38535" lon="6.79915">
        <ele>367.2</ele>
        <time>2012-04-15T07:27:14Z</time>
      </trkpt>
      <trkpt lat="48.3853" lon="6.79916">
        <ele>366.9</ele>
        <time>2012-04-15T07:27:15Z</time>
      </trkpt>
      <trkpt lat="48.38525" lon="6.79919">
        <ele>366.6</ele>
        <time>2012-04-15T07:27:16Z</time>
      </trkpt>
      <trkpt lat="48.38521" lon="6.79921">
        <ele>366.8</ele>
        <time>2012-04-15T07:27:17Z</time>
      </trkpt>
      <trkpt lat="48.38513" lon="6.79927">
        <ele>367.1</ele>
        <time>2012-04-15T07:27:19Z</time>
      </trkpt>
      <trkpt lat="48.38505" lon="6.79932">
        <ele>367.2</ele>
        <time>2012-04-15T07:27:21Z</time>
      </trkpt>
      <trkpt lat="48.38499" lon="6.79933">
        <ele>367.2</ele>
        <time>2012-04-15T07:27:23Z</time>
      </trkpt>
      <trkpt lat="48.38492" lon="6.79931">
        <ele>367.2</ele>
        <time>2012-04-15T07:27:25Z</time>
      </trkpt>
      <trkpt lat="48.38486" lon="6.79928">
        <ele>368.6</ele>
        <time>2012-04-15T07:27:27Z</time>
      </trkpt>
      <trkpt lat="48.38479" lon="6.7992">
        <ele>369.3</ele>
        <time>2012-04-15T07:27:30Z</time>
      </trkpt>
      <trkpt lat="48.38474" lon="6.7991">
        <ele>370.1</ele>
        <time>2012-04-15T07:27:33Z</time>
      </trkpt>
      <trkpt lat="48.38472" lon="6.799">
        <ele>371.7</ele>
        <time>2012-04-15T07:27:36Z</time>
      </trkpt>
      <trkpt lat="48.3847" lon="6.79888">
        <ele>372.1</ele>
        <time>2012-04-15T07:27:39Z</time>
      </trkpt>
      <trkpt lat="48.38468" lon="6.79879">
        <ele>371.9</ele>
        <time>2012-04-15T07:27:41Z</time>
      </trkpt>
      <trkpt lat="48.38467" lon="6.7987">
        <ele>372.4</ele>
        <time>2012-04-15T07:27:43Z</time>
      </trkpt>
      <trkpt lat="48.38464" lon="6.7986">
        <ele>373.3</ele>
        <time>2012-04-15T07:27:45Z</time>
      </trkpt>
      <trkpt lat="48.38461" lon="6.79851">
        <ele>374.4</ele>
        <time>2012-04-15T07:27:47Z</time>
      </trkpt>
      <trkpt lat="48.38458" lon="6.79841">
        <ele>374.7</ele>
        <time>2012-04-15T07:27:49Z</time>
      </trkpt>
      <trkpt lat="48.38456" lon="6.7983">
        <ele>374.9</ele>
        <time>2012-04-15T07:27:51Z</time>
      </trkpt>
      <trkpt lat="48.38452" lon="6.7982">
        <ele>375.9</ele>
        <time>2012-04-15T07:27:53Z</time>
      </trkpt>
      <trkpt lat="48.38449" lon="6.79809">
        <ele>376.5</ele>
        <time>2012-04-15T07:27:55Z</time>
      </trkpt>
      <trkpt lat="48.38446" lon="6.79799">
        <ele>376.9</ele>
        <time>2012-04-15T07:27:57Z</time>
      </trkpt>
      <trkpt lat="48.38443" lon="6.7979">
        <ele>377.6</ele>
        <time>2012-04-15T07:27:59Z</time>
      </trkpt>
      <trkpt lat="48.3844" lon="6.79779">
        <ele>378.6</ele>
        <time>2012-04-15T07:28:01Z</time>
      </trkpt>
      <trkpt lat="48.38438" lon="6.79768">
        <ele>379.6</ele>
        <time>2012-04-15T07:28:03Z</time>
      </trkpt>
      <trkpt lat="48.38435" lon="6.79757">
        <ele>379.9</ele>
        <time>2012-04-15T07:28:05Z</time>
      </trkpt>
      <trkpt lat="48.38433" lon="6.79746">
        <ele>380.1</ele>
        <time>2012-04-15T07:28:07Z</time>
      </trkpt>
      <trkpt lat="48.3843" lon="6.79735">
        <ele>379.9</ele>
        <time>2012-04-15T07:28:09Z</time>
      </trkpt>
      <trkpt lat="48.38427" lon="6.79725">
        <ele>380.5</ele>
        <time>2012-04-15T07:28:11Z</time>
      </trkpt>
      <trkpt lat="48.38425" lon="6.79714">
        <ele>381.5</ele>
        <time>2012-04-15T07:28:13Z</time>
      </trkpt>
      <trkpt lat="48.38422" lon="6.79703">
        <ele>381.9</ele>
        <time>2012-04-15T07:28:15Z</time>
      </trkpt>
      <trkpt lat="48.3842" lon="6.79698">
        <ele>382.1</ele>
        <time>2012-04-15T07:28:16Z</time>
      </trkpt>
      <trkpt lat="48.38416" lon="6.79684">
        <ele>383.2</ele>
        <time>2012-04-15T07:28:19Z</time>
      </trkpt>
      <trkpt lat="48.38413" lon="6.79673">
        <ele>382.6</ele>
        <time>2012-04-15T07:28:21Z</time>
      </trkpt>
      <trkpt lat="48.3841" lon="6.79663">
        <ele>382.3</ele>
        <time>2012-04-15T07:28:23Z</time>
      </trkpt>
      <trkpt lat="48.38407" lon="6.79653">
        <ele>382.5</ele>
        <time>2012-04-15T07:28:25Z</time>
      </trkpt>
      <trkpt lat="48.38403" lon="6.79642">
        <ele>383</ele>
        <time>2012-04-15T07:28:27Z</time>
      </trkpt>
      <trkpt lat="48.38398" lon="6.79632">
        <ele>383.7</ele>
        <time>2012-04-15T07:28:29Z</time>
      </trkpt>
      <trkpt lat="48.38394" lon="6.79622">
        <ele>384.5</ele>
        <time>2012-04-15T07:28:31Z</time>
      </trkpt>
      <trkpt lat="48.3839" lon="6.79612">
        <ele>385</ele>
        <time>2012-04-15T07:28:33Z</time>
      </trkpt>
      <trkpt lat="48.38386" lon="6.79601">
        <ele>385.3</ele>
        <time>2012-04-15T07:28:35Z</time>
      </trkpt>
      <trkpt lat="48.38382" lon="6.7959">
        <ele>384.6</ele>
        <time>2012-04-15T07:28:37Z</time>
      </trkpt>
      <trkpt lat="48.38379" lon="6.7958">
        <ele>384.3</ele>
        <time>2012-04-15T07:28:39Z</time>
      </trkpt>
      <trkpt lat="48.38377" lon="6.79568">
        <ele>384.8</ele>
        <time>2012-04-15T07:28:41Z</time>
      </trkpt>
      <trkpt lat="48.38374" lon="6.79556">
        <ele>385.1</ele>
        <time>2012-04-15T07:28:43Z</time>
      </trkpt>
      <trkpt lat="48.3837" lon="6.79544">
        <ele>385.4</ele>
        <time>2012-04-15T07:28:45Z</time>
      </trkpt>
      <trkpt lat="48.38367" lon="6.79532">
        <ele>385.2</ele>
        <time>2012-04-15T07:28:47Z</time>
      </trkpt>
      <trkpt lat="48.38363" lon="6.7952">
        <ele>385.2</ele>
        <time>2012-04-15T07:28:49Z</time>
      </trkpt>
      <trkpt lat="48.38361" lon="6.79514">
        <ele>385.2</ele>
        <time>2012-04-15T07:28:50Z</time>
      </trkpt>
      <trkpt lat="48.38358" lon="6.79508">
        <ele>385.2</ele>
        <time>2012-04-15T07:28:51Z</time>
      </trkpt>
      <trkpt lat="48.38356" lon="6.79501">
        <ele>385.2</ele>
        <time>2012-04-15T07:28:52Z</time>
      </trkpt>
      <trkpt lat="48.38354" lon="6.79495">
        <ele>385.2</ele>
        <time>2012-04-15T07:28:53Z</time>
      </trkpt>
      <trkpt lat="48.38352" lon="6.79489">
        <ele>385.2</ele>
        <time>2012-04-15T07:28:54Z</time>
      </trkpt>
      <trkpt lat="48.38349" lon="6.79482">
        <ele>385.5</ele>
        <time>2012-04-15T07:28:55Z</time>
      </trkpt>
      <trkpt lat="48.38347" lon="6.79475">
        <ele>385.7</ele>
        <time>2012-04-15T07:28:56Z</time>
      </trkpt>
      <trkpt lat="48.38344" lon="6.79468">
        <ele>385.9</ele>
        <time>2012-04-15T07:28:57Z</time>
      </trkpt>
      <trkpt lat="48.38341" lon="6.7946">
        <ele>386.1</ele>
        <time>2012-04-15T07:28:58Z</time>
      </trkpt>
      <trkpt lat="48.38338" lon="6.79451">
        <ele>386</ele>
        <time>2012-04-15T07:28:59Z</time>
      </trkpt>
      <trkpt lat="48.38336" lon="6.79443">
        <ele>385.9</ele>
        <time>2012-04-15T07:29:00Z</time>
      </trkpt>
      <trkpt lat="48.38334" lon="6.79434">
        <ele>385.9</ele>
        <time>2012-04-15T07:29:01Z</time>
      </trkpt>
      <trkpt lat="48.38331" lon="6.79425">
        <ele>386.2</ele>
        <time>2012-04-15T07:29:02Z</time>
      </trkpt>
      <trkpt lat="48.38329" lon="6.79416">
        <ele>386.5</ele>
        <time>2012-04-15T07:29:03Z</time>
      </trkpt>
      <trkpt lat="48.38328" lon="6.79407">
        <ele>386.7</ele>
        <time>2012-04-15T07:29:04Z</time>
      </trkpt>
      <trkpt lat="48.38326" lon="6.79398">
        <ele>386.6</ele>
        <time>2012-04-15T07:29:05Z</time>
      </trkpt>
      <trkpt lat="48.38324" lon="6.79389">
        <ele>386.5</ele>
        <time>2012-04-15T07:29:06Z</time>
      </trkpt>
      <trkpt lat="48.38323" lon="6.79381">
        <ele>386.4</ele>
        <time>2012-04-15T07:29:07Z</time>
      </trkpt>
      <trkpt lat="48.38322" lon="6.79372">
        <ele>386.3</ele>
        <time>2012-04-15T07:29:08Z</time>
      </trkpt>
      <trkpt lat="48.38321" lon="6.79363">
        <ele>386.3</ele>
        <time>2012-04-15T07:29:09Z</time>
      </trkpt>
      <trkpt lat="48.3832" lon="6.79355">
        <ele>386.3</ele>
        <time>2012-04-15T07:29:10Z</time>
      </trkpt>
      <trkpt lat="48.3832" lon="6.79347">
        <ele>386.2</ele>
        <time>2012-04-15T07:29:11Z</time>
      </trkpt>
      <trkpt lat="48.3832" lon="6.79339">
        <ele>386.2</ele>
        <time>2012-04-15T07:29:12Z</time>
      </trkpt>
      <trkpt lat="48.3832" lon="6.79332">
        <ele>386.1</ele>
        <time>2012-04-15T07:29:13Z</time>
      </trkpt>
      <trkpt lat="48.38322" lon="6.79319">
        <ele>385.8</ele>
        <time>2012-04-15T07:29:15Z</time>
      </trkpt>
      <trkpt lat="48.38322" lon="6.79306">
        <ele>385.3</ele>
        <time>2012-04-15T07:29:17Z</time>
      </trkpt>
      <trkpt lat="48.38323" lon="6.793">
        <ele>385.6</ele>
        <time>2012-04-15T07:29:18Z</time>
      </trkpt>
      <trkpt lat="48.38323" lon="6.79287">
        <ele>386</ele>
        <time>2012-04-15T07:29:20Z</time>
      </trkpt>
      <trkpt lat="48.38322" lon="6.79274">
        <ele>386.7</ele>
        <time>2012-04-15T07:29:22Z</time>
      </trkpt>
      <trkpt lat="48.3832" lon="6.79261">
        <ele>387.3</ele>
        <time>2012-04-15T07:29:24Z</time>
      </trkpt>
      <trkpt lat="48.38318" lon="6.79248">
        <ele>387.8</ele>
        <time>2012-04-15T07:29:26Z</time>
      </trkpt>
      <trkpt lat="48.38316" lon="6.79241">
        <ele>387.8</ele>
        <time>2012-04-15T07:29:27Z</time>
      </trkpt>
      <trkpt lat="48.38315" lon="6.79228">
        <ele>387.8</ele>
        <time>2012-04-15T07:29:29Z</time>
      </trkpt>
      <trkpt lat="48.38313" lon="6.79215">
        <ele>388.2</ele>
        <time>2012-04-15T07:29:31Z</time>
      </trkpt>
      <trkpt lat="48.38311" lon="6.79204">
        <ele>388.8</ele>
        <time>2012-04-15T07:29:33Z</time>
      </trkpt>
      <trkpt lat="48.38308" lon="6.79191">
        <ele>389.5</ele>
        <time>2012-04-15T07:29:35Z</time>
      </trkpt>
      <trkpt lat="48.38306" lon="6.79184">
        <ele>389.8</ele>
        <time>2012-04-15T07:29:36Z</time>
      </trkpt>
      <trkpt lat="48.38305" lon="6.79178">
        <ele>389.5</ele>
        <time>2012-04-15T07:29:37Z</time>
      </trkpt>
      <trkpt lat="48.38303" lon="6.7917">
        <ele>389.3</ele>
        <time>2012-04-15T07:29:38Z</time>
      </trkpt>
      <trkpt lat="48.38301" lon="6.79163">
        <ele>389.1</ele>
        <time>2012-04-15T07:29:39Z</time>
      </trkpt>
      <trkpt lat="48.383" lon="6.79156">
        <ele>389</ele>
        <time>2012-04-15T07:29:40Z</time>
      </trkpt>
      <trkpt lat="48.38298" lon="6.79149">
        <ele>389</ele>
        <time>2012-04-15T07:29:41Z</time>
      </trkpt>
      <trkpt lat="48.38297" lon="6.79141">
        <ele>388.9</ele>
        <time>2012-04-15T07:29:42Z</time>
      </trkpt>
      <trkpt lat="48.38295" lon="6.79134">
        <ele>389.8</ele>
        <time>2012-04-15T07:29:43Z</time>
      </trkpt>
      <trkpt lat="48.38294" lon="6.79126">
        <ele>390.5</ele>
        <time>2012-04-15T07:29:44Z</time>
      </trkpt>
      <trkpt lat="48.38292" lon="6.79119">
        <ele>391</ele>
        <time>2012-04-15T07:29:45Z</time>
      </trkpt>
      <trkpt lat="48.3829" lon="6.79112">
        <ele>391.4</ele>
        <time>2012-04-15T07:29:46Z</time>
      </trkpt>
      <trkpt lat="48.38288" lon="6.79105">
        <ele>391.5</ele>
        <time>2012-04-15T07:29:47Z</time>
      </trkpt>
      <trkpt lat="48.38286" lon="6.79098">
        <ele>391.6</ele>
        <time>2012-04-15T07:29:48Z</time>
      </trkpt>
      <trkpt lat="48.38284" lon="6.79091">
        <ele>391.6</ele>
        <time>2012-04-15T07:29:49Z</time>
      </trkpt>
      <trkpt lat="48.38282" lon="6.79084">
        <ele>391.6</ele>
        <time>2012-04-15T07:29:50Z</time>
      </trkpt>
      <trkpt lat="48.3828" lon="6.79076">
        <ele>391.6</ele>
        <time>2012-04-15T07:29:51Z</time>
      </trkpt>
      <trkpt lat="48.38278" lon="6.79069">
        <ele>391.6</ele>
        <time>2012-04-15T07:29:52Z</time>
      </trkpt>
      <trkpt lat="48.38276" lon="6.79062">
        <ele>391.1</ele>
        <time>2012-04-15T07:29:53Z</time>
      </trkpt>
      <trkpt lat="48.38274" lon="6.79055">
        <ele>390.7</ele>
        <time>2012-04-15T07:29:54Z</time>
      </trkpt>
      <trkpt lat="48.38272" lon="6.79047">
        <ele>390.4</ele>
        <time>2012-04-15T07:29:55Z</time>
      </trkpt>
      <trkpt lat="48.3827" lon="6.79041">
        <ele>390</ele>
        <time>2012-04-15T07:29:56Z</time>
      </trkpt>
      <trkpt lat="48.38268" lon="6.79034">
        <ele>389.7</ele>
        <time>2012-04-15T07:29:57Z</time>
      </trkpt>
      <trkpt lat="48.38266" lon="6.79027">
        <ele>389.5</ele>
        <time>2012-04-15T07:29:58Z</time>
      </trkpt>
      <trkpt lat="48.38262" lon="6.79022">
        <ele>389.9</ele>
        <time>2012-04-15T07:29:59Z</time>
      </trkpt>
      <trkpt lat="48.38257" lon="6.7902">
        <ele>390.2</ele>
        <time>2012-04-15T07:30:00Z</time>
      </trkpt>
      <trkpt lat="48.38252" lon="6.7902">
        <ele>390.4</ele>
        <time>2012-04-15T07:30:01Z</time>
      </trkpt>
      <trkpt lat="48.38248" lon="6.79019">
        <ele>390.1</ele>
        <time>2012-04-15T07:30:02Z</time>
      </trkpt>
      <trkpt lat="48.38243" lon="6.79018">
        <ele>389.9</ele>
        <time>2012-04-15T07:30:03Z</time>
      </trkpt>
      <trkpt lat="48.38238" lon="6.79017">
        <ele>389.8</ele>
        <time>2012-04-15T07:30:04Z</time>
      </trkpt>
      <trkpt lat="48.38233" lon="6.79015">
        <ele>389.7</ele>
        <time>2012-04-15T07:30:05Z</time>
      </trkpt>
      <trkpt lat="48.38228" lon="6.79013">
        <ele>389.6</ele>
        <time>2012-04-15T07:30:06Z</time>
      </trkpt>
      <trkpt lat="48.38224" lon="6.79011">
        <ele>389.5</ele>
        <time>2012-04-15T07:30:07Z</time>
      </trkpt>
      <trkpt lat="48.3822" lon="6.79008">
        <ele>389.5</ele>
        <time>2012-04-15T07:30:08Z</time>
      </trkpt>
      <trkpt lat="48.38212" lon="6.79004">
        <ele>389.2</ele>
        <time>2012-04-15T07:30:10Z</time>
      </trkpt>
      <trkpt lat="48.38204" lon="6.79006">
        <ele>389.4</ele>
        <time>2012-04-15T07:30:12Z</time>
      </trkpt>
      <trkpt lat="48.38197" lon="6.79012">
        <ele>389.6</ele>
        <time>2012-04-15T07:30:15Z</time>
      </trkpt>
      <trkpt lat="48.3819" lon="6.7902">
        <ele>389.5</ele>
        <time>2012-04-15T07:30:18Z</time>
      </trkpt>
      <trkpt lat="48.38188" lon="6.79024">
        <ele>390.1</ele>
        <time>2012-04-15T07:30:19Z</time>
      </trkpt>
      <trkpt lat="48.38182" lon="6.79034">
        <ele>391.4</ele>
        <time>2012-04-15T07:30:22Z</time>
      </trkpt>
      <trkpt lat="48.38178" lon="6.79042">
        <ele>391.8</ele>
        <time>2012-04-15T07:30:24Z</time>
      </trkpt>
      <trkpt lat="48.38174" lon="6.79049">
        <ele>392.1</ele>
        <time>2012-04-15T07:30:26Z</time>
      </trkpt>
      <trkpt lat="48.3817" lon="6.79059">
        <ele>392.6</ele>
        <time>2012-04-15T07:30:29Z</time>
      </trkpt>
      <trkpt lat="48.38166" lon="6.79066">
        <ele>393.3</ele>
        <time>2012-04-15T07:30:31Z</time>
      </trkpt>
      <trkpt lat="48.38163" lon="6.79074">
        <ele>394</ele>
        <time>2012-04-15T07:30:33Z</time>
      </trkpt>
      <trkpt lat="48.38157" lon="6.79085">
        <ele>395.5</ele>
        <time>2012-04-15T07:30:36Z</time>
      </trkpt>
      <trkpt lat="48.38151" lon="6.79094">
        <ele>396.6</ele>
        <time>2012-04-15T07:30:39Z</time>
      </trkpt>
      <trkpt lat="48.38146" lon="6.79098">
        <ele>397</ele>
        <time>2012-04-15T07:30:41Z</time>
      </trkpt>
      <trkpt lat="48.3814" lon="6.79101">
        <ele>397.2</ele>
        <time>2012-04-15T07:30:43Z</time>
      </trkpt>
      <trkpt lat="48.38133" lon="6.79102">
        <ele>398.2</ele>
        <time>2012-04-15T07:30:45Z</time>
      </trkpt>
      <trkpt lat="48.38125" lon="6.79101">
        <ele>399</ele>
        <time>2012-04-15T07:30:47Z</time>
      </trkpt>
      <trkpt lat="48.38118" lon="6.79099">
        <ele>399.7</ele>
        <time>2012-04-15T07:30:49Z</time>
      </trkpt>
      <trkpt lat="48.38112" lon="6.79097">
        <ele>400.7</ele>
        <time>2012-04-15T07:30:51Z</time>
      </trkpt>
      <trkpt lat="48.38105" lon="6.79094">
        <ele>401.2</ele>
        <time>2012-04-15T07:30:53Z</time>
      </trkpt>
      <trkpt lat="48.38098" lon="6.79092">
        <ele>401.2</ele>
        <time>2012-04-15T07:30:55Z</time>
      </trkpt>
      <trkpt lat="48.38092" lon="6.79089">
        <ele>401.6</ele>
        <time>2012-04-15T07:30:57Z</time>
      </trkpt>
      <trkpt lat="48.38085" lon="6.79085">
        <ele>402.1</ele>
        <time>2012-04-15T07:30:59Z</time>
      </trkpt>
      <trkpt lat="48.38079" lon="6.79082">
        <ele>401.2</ele>
        <time>2012-04-15T07:31:01Z</time>
      </trkpt>
      <trkpt lat="48.38071" lon="6.79077">
        <ele>401.2</ele>
        <time>2012-04-15T07:31:04Z</time>
      </trkpt>
      <trkpt lat="48.38064" lon="6.79073">
        <ele>401.4</ele>
        <time>2012-04-15T07:31:07Z</time>
      </trkpt>
      <trkpt lat="48.38057" lon="6.79069">
        <ele>402</ele>
        <time>2012-04-15T07:31:10Z</time>
      </trkpt>
      <trkpt lat="48.38049" lon="6.79065">
        <ele>403.3</ele>
        <time>2012-04-15T07:31:13Z</time>
      </trkpt>
      <trkpt lat="48.38041" lon="6.79061">
        <ele>404.1</ele>
        <time>2012-04-15T07:31:16Z</time>
      </trkpt>
      <trkpt lat="48.38036" lon="6.79057">
        <ele>404.1</ele>
        <time>2012-04-15T07:31:18Z</time>
      </trkpt>
      <trkpt lat="48.3803" lon="6.79054">
        <ele>405.2</ele>
        <time>2012-04-15T07:31:20Z</time>
      </trkpt>
      <trkpt lat="48.38027" lon="6.79053">
        <ele>405.6</ele>
        <time>2012-04-15T07:31:21Z</time>
      </trkpt>
      <trkpt lat="48.38018" lon="6.79047">
        <ele>406.2</ele>
        <time>2012-04-15T07:31:24Z</time>
      </trkpt>
      <trkpt lat="48.38013" lon="6.79043">
        <ele>406.7</ele>
        <time>2012-04-15T07:31:26Z</time>
      </trkpt>
      <trkpt lat="48.38007" lon="6.79039">
        <ele>407</ele>
        <time>2012-04-15T07:31:28Z</time>
      </trkpt>
      <trkpt lat="48.38001" lon="6.79035">
        <ele>408.5</ele>
        <time>2012-04-15T07:31:30Z</time>
      </trkpt>
      <trkpt lat="48.37995" lon="6.79031">
        <ele>409.1</ele>
        <time>2012-04-15T07:31:32Z</time>
      </trkpt>
      <trkpt lat="48.3799" lon="6.79027">
        <ele>409.3</ele>
        <time>2012-04-15T07:31:34Z</time>
      </trkpt>
      <trkpt lat="48.37982" lon="6.79021">
        <ele>409.8</ele>
        <time>2012-04-15T07:31:37Z</time>
      </trkpt>
      <trkpt lat="48.37974" lon="6.79016">
        <ele>410.2</ele>
        <time>2012-04-15T07:31:40Z</time>
      </trkpt>
      <trkpt lat="48.37967" lon="6.7901">
        <ele>410.8</ele>
        <time>2012-04-15T07:31:43Z</time>
      </trkpt>
      <trkpt lat="48.3796" lon="6.79005">
        <ele>411.6</ele>
        <time>2012-04-15T07:31:46Z</time>
      </trkpt>
      <trkpt lat="48.37953" lon="6.78999">
        <ele>412.4</ele>
        <time>2012-04-15T07:31:49Z</time>
      </trkpt>
      <trkpt lat="48.37946" lon="6.78993">
        <ele>413.4</ele>
        <time>2012-04-15T07:31:52Z</time>
      </trkpt>
      <trkpt lat="48.37939" lon="6.78987">
        <ele>414.4</ele>
        <time>2012-04-15T07:31:55Z</time>
      </trkpt>
      <trkpt lat="48.37932" lon="6.78982">
        <ele>415.4</ele>
        <time>2012-04-15T07:31:59Z</time>
      </trkpt>
      <trkpt lat="48.37926" lon="6.78976">
        <ele>415.5</ele>
        <time>2012-04-15T07:32:02Z</time>
      </trkpt>
      <trkpt lat="48.37921" lon="6.7897">
        <ele>416.3</ele>
        <time>2012-04-15T07:32:05Z</time>
      </trkpt>
      <trkpt lat="48.37915" lon="6.78962">
        <ele>417.1</ele>
        <time>2012-04-15T07:32:08Z</time>
      </trkpt>
      <trkpt lat="48.37909" lon="6.78955">
        <ele>418</ele>
        <time>2012-04-15T07:32:11Z</time>
      </trkpt>
      <trkpt lat="48.37903" lon="6.78948">
        <ele>419.6</ele>
        <time>2012-04-15T07:32:14Z</time>
      </trkpt>
      <trkpt lat="48.37898" lon="6.78941">
        <ele>420.4</ele>
        <time>2012-04-15T07:32:17Z</time>
      </trkpt>
      <trkpt lat="48.37892" lon="6.78934">
        <ele>420.9</ele>
        <time>2012-04-15T07:32:20Z</time>
      </trkpt>
      <trkpt lat="48.37887" lon="6.78926">
        <ele>422.1</ele>
        <time>2012-04-15T07:32:23Z</time>
      </trkpt>
      <trkpt lat="48.37885" lon="6.78923">
        <ele>422.5</ele>
        <time>2012-04-15T07:32:24Z</time>
      </trkpt>
      <trkpt lat="48.37874" lon="6.78911">
        <ele>422.8</ele>
        <time>2012-04-15T07:32:29Z</time>
      </trkpt>
      <trkpt lat="48.37868" lon="6.78904">
        <ele>423</ele>
        <time>2012-04-15T07:32:32Z</time>
      </trkpt>
      <trkpt lat="48.37861" lon="6.789">
        <ele>423.5</ele>
        <time>2012-04-15T07:32:35Z</time>
      </trkpt>
      <trkpt lat="48.37853" lon="6.78896">
        <ele>424.7</ele>
        <time>2012-04-15T07:32:38Z</time>
      </trkpt>
      <trkpt lat="48.37845" lon="6.78892">
        <ele>424.6</ele>
        <time>2012-04-15T07:32:41Z</time>
      </trkpt>
      <trkpt lat="48.37837" lon="6.78889">
        <ele>425.4</ele>
        <time>2012-04-15T07:32:44Z</time>
      </trkpt>
      <trkpt lat="48.37829" lon="6.78889">
        <ele>426.2</ele>
        <time>2012-04-15T07:32:47Z</time>
      </trkpt>
      <trkpt lat="48.37821" lon="6.78892">
        <ele>426</ele>
        <time>2012-04-15T07:32:50Z</time>
      </trkpt>
      <trkpt lat="48.37815" lon="6.78898">
        <ele>426.4</ele>
        <time>2012-04-15T07:32:53Z</time>
      </trkpt>
      <trkpt lat="48.37809" lon="6.78904">
        <ele>427.2</ele>
        <time>2012-04-15T07:32:56Z</time>
      </trkpt>
      <trkpt lat="48.37803" lon="6.78911">
        <ele>427.8</ele>
        <time>2012-04-15T07:32:59Z</time>
      </trkpt>
      <trkpt lat="48.37797" lon="6.7892">
        <ele>428.6</ele>
        <time>2012-04-15T07:33:02Z</time>
      </trkpt>
      <trkpt lat="48.37791" lon="6.78929">
        <ele>429.2</ele>
        <time>2012-04-15T07:33:05Z</time>
      </trkpt>
      <trkpt lat="48.37786" lon="6.78937">
        <ele>429.8</ele>
        <time>2012-04-15T07:33:08Z</time>
      </trkpt>
      <trkpt lat="48.3778" lon="6.78945">
        <ele>430.2</ele>
        <time>2012-04-15T07:33:11Z</time>
      </trkpt>
      <trkpt lat="48.37774" lon="6.7895">
        <ele>430.6</ele>
        <time>2012-04-15T07:33:14Z</time>
      </trkpt>
      <trkpt lat="48.37768" lon="6.78953">
        <ele>431</ele>
        <time>2012-04-15T07:33:16Z</time>
      </trkpt>
      <trkpt lat="48.37759" lon="6.78955">
        <ele>432</ele>
        <time>2012-04-15T07:33:19Z</time>
      </trkpt>
      <trkpt lat="48.37752" lon="6.78958">
        <ele>433.5</ele>
        <time>2012-04-15T07:33:21Z</time>
      </trkpt>
      <trkpt lat="48.37744" lon="6.78959">
        <ele>433.8</ele>
        <time>2012-04-15T07:33:24Z</time>
      </trkpt>
      <trkpt lat="48.37741" lon="6.7896">
        <ele>433.4</ele>
        <time>2012-04-15T07:33:25Z</time>
      </trkpt>
      <trkpt lat="48.3773" lon="6.78961">
        <ele>432.5</ele>
        <time>2012-04-15T07:33:28Z</time>
      </trkpt>
      <trkpt lat="48.37721" lon="6.7896">
        <ele>432.5</ele>
        <time>2012-04-15T07:33:30Z</time>
      </trkpt>
      <trkpt lat="48.37714" lon="6.78958">
        <ele>432.9</ele>
        <time>2012-04-15T07:33:32Z</time>
      </trkpt>
      <trkpt lat="48.37707" lon="6.78955">
        <ele>433.8</ele>
        <time>2012-04-15T07:33:34Z</time>
      </trkpt>
      <trkpt lat="48.377" lon="6.78953">
        <ele>434.1</ele>
        <time>2012-04-15T07:33:36Z</time>
      </trkpt>
      <trkpt lat="48.37694" lon="6.7895">
        <ele>434</ele>
        <time>2012-04-15T07:33:38Z</time>
      </trkpt>
      <trkpt lat="48.37687" lon="6.78947">
        <ele>434.1</ele>
        <time>2012-04-15T07:33:40Z</time>
      </trkpt>
      <trkpt lat="48.3768" lon="6.78946">
        <ele>434.2</ele>
        <time>2012-04-15T07:33:42Z</time>
      </trkpt>
      <trkpt lat="48.37673" lon="6.78943">
        <ele>435.3</ele>
        <time>2012-04-15T07:33:44Z</time>
      </trkpt>
      <trkpt lat="48.37666" lon="6.78939">
        <ele>435.8</ele>
        <time>2012-04-15T07:33:46Z</time>
      </trkpt>
      <trkpt lat="48.37658" lon="6.78935">
        <ele>435.8</ele>
        <time>2012-04-15T07:33:48Z</time>
      </trkpt>
      <trkpt lat="48.37652" lon="6.78929">
        <ele>436.8</ele>
        <time>2012-04-15T07:33:50Z</time>
      </trkpt>
      <trkpt lat="48.37646" lon="6.78923">
        <ele>436.9</ele>
        <time>2012-04-15T07:33:52Z</time>
      </trkpt>
      <trkpt lat="48.3764" lon="6.78917">
        <ele>436.7</ele>
        <time>2012-04-15T07:33:54Z</time>
      </trkpt>
      <trkpt lat="48.37635" lon="6.78911">
        <ele>437.9</ele>
        <time>2012-04-15T07:33:56Z</time>
      </trkpt>
      <trkpt lat="48.37628" lon="6.78908">
        <ele>438.5</ele>
        <time>2012-04-15T07:33:58Z</time>
      </trkpt>
      <trkpt lat="48.37621" lon="6.78906">
        <ele>439.3</ele>
        <time>2012-04-15T07:34:00Z</time>
      </trkpt>
      <trkpt lat="48.37613" lon="6.78906">
        <ele>439.5</ele>
        <time>2012-04-15T07:34:02Z</time>
      </trkpt>
      <trkpt lat="48.37606" lon="6.78905">
        <ele>439.5</ele>
        <time>2012-04-15T07:34:04Z</time>
      </trkpt>
      <trkpt lat="48.376" lon="6.78903">
        <ele>440.1</ele>
        <time>2012-04-15T07:34:06Z</time>
      </trkpt>
      <trkpt lat="48.37593" lon="6.78901">
        <ele>440.9</ele>
        <time>2012-04-15T07:34:08Z</time>
      </trkpt>
      <trkpt lat="48.37586" lon="6.78899">
        <ele>441.8</ele>
        <time>2012-04-15T07:34:10Z</time>
      </trkpt>
      <trkpt lat="48.37579" lon="6.78896">
        <ele>441.4</ele>
        <time>2012-04-15T07:34:12Z</time>
      </trkpt>
      <trkpt lat="48.37572" lon="6.78893">
        <ele>441.2</ele>
        <time>2012-04-15T07:34:14Z</time>
      </trkpt>
      <trkpt lat="48.37566" lon="6.7889">
        <ele>442.2</ele>
        <time>2012-04-15T07:34:16Z</time>
      </trkpt>
      <trkpt lat="48.3756" lon="6.78886">
        <ele>443</ele>
        <time>2012-04-15T07:34:18Z</time>
      </trkpt>
      <trkpt lat="48.37554" lon="6.78882">
        <ele>443.6</ele>
        <time>2012-04-15T07:34:20Z</time>
      </trkpt>
      <trkpt lat="48.37548" lon="6.78878">
        <ele>444.2</ele>
        <time>2012-04-15T07:34:22Z</time>
      </trkpt>
      <trkpt lat="48.37542" lon="6.78874">
        <ele>444.6</ele>
        <time>2012-04-15T07:34:24Z</time>
      </trkpt>
      <trkpt lat="48.37537" lon="6.78868">
        <ele>444.8</ele>
        <time>2012-04-15T07:34:26Z</time>
      </trkpt>
      <trkpt lat="48.37535" lon="6.78865">
        <ele>445.4</ele>
        <time>2012-04-15T07:34:27Z</time>
      </trkpt>
      <trkpt lat="48.37524" lon="6.78851">
        <ele>446.6</ele>
        <time>2012-04-15T07:34:32Z</time>
      </trkpt>
      <trkpt lat="48.37518" lon="6.78844">
        <ele>447.8</ele>
        <time>2012-04-15T07:34:35Z</time>
      </trkpt>
      <trkpt lat="48.37512" lon="6.78836">
        <ele>448.8</ele>
        <time>2012-04-15T07:34:38Z</time>
      </trkpt>
      <trkpt lat="48.37506" lon="6.78828">
        <ele>449.7</ele>
        <time>2012-04-15T07:34:41Z</time>
      </trkpt>
      <trkpt lat="48.37501" lon="6.78818">
        <ele>450.9</ele>
        <time>2012-04-15T07:34:44Z</time>
      </trkpt>
      <trkpt lat="48.37495" lon="6.78808">
        <ele>451.4</ele>
        <time>2012-04-15T07:34:47Z</time>
      </trkpt>
      <trkpt lat="48.3749" lon="6.78799">
        <ele>451.7</ele>
        <time>2012-04-15T07:34:50Z</time>
      </trkpt>
      <trkpt lat="48.37485" lon="6.78788">
        <ele>453</ele>
        <time>2012-04-15T07:34:53Z</time>
      </trkpt>
      <trkpt lat="48.37479" lon="6.78779">
        <ele>454.1</ele>
        <time>2012-04-15T07:34:56Z</time>
      </trkpt>
      <trkpt lat="48.37474" lon="6.7877">
        <ele>454.3</ele>
        <time>2012-04-15T07:34:59Z</time>
      </trkpt>
      <trkpt lat="48.37468" lon="6.78761">
        <ele>454.4</ele>
        <time>2012-04-15T07:35:02Z</time>
      </trkpt>
      <trkpt lat="48.37462" lon="6.78752">
        <ele>455.6</ele>
        <time>2012-04-15T07:35:05Z</time>
      </trkpt>
      <trkpt lat="48.37456" lon="6.78744">
        <ele>455.8</ele>
        <time>2012-04-15T07:35:08Z</time>
      </trkpt>
      <trkpt lat="48.3745" lon="6.78736">
        <ele>456.8</ele>
        <time>2012-04-15T07:35:11Z</time>
      </trkpt>
      <trkpt lat="48.37444" lon="6.78729">
        <ele>457.4</ele>
        <time>2012-04-15T07:35:14Z</time>
      </trkpt>
      <trkpt lat="48.37438" lon="6.78721">
        <ele>458.2</ele>
        <time>2012-04-15T07:35:17Z</time>
      </trkpt>
      <trkpt lat="48.37432" lon="6.78714">
        <ele>459.8</ele>
        <time>2012-04-15T07:35:20Z</time>
      </trkpt>
      <trkpt lat="48.37426" lon="6.78706">
        <ele>459.9</ele>
        <time>2012-04-15T07:35:23Z</time>
      </trkpt>
      <trkpt lat="48.3742" lon="6.78699">
        <ele>460.6</ele>
        <time>2012-04-15T07:35:26Z</time>
      </trkpt>
      <trkpt lat="48.37414" lon="6.78692">
        <ele>461.2</ele>
        <time>2012-04-15T07:35:29Z</time>
      </trkpt>
      <trkpt lat="48.37412" lon="6.7869">
        <ele>461.3</ele>
        <time>2012-04-15T07:35:30Z</time>
      </trkpt>
      <trkpt lat="48.374" lon="6.78683">
        <ele>462.3</ele>
        <time>2012-04-15T07:35:35Z</time>
      </trkpt>
      <trkpt lat="48.37393" lon="6.78681">
        <ele>463.3</ele>
        <time>2012-04-15T07:35:38Z</time>
      </trkpt>
      <trkpt lat="48.37386" lon="6.78681">
        <ele>464.4</ele>
        <time>2012-04-15T07:35:41Z</time>
      </trkpt>
      <trkpt lat="48.37379" lon="6.78683">
        <ele>464.6</ele>
        <time>2012-04-15T07:35:44Z</time>
      </trkpt>
      <trkpt lat="48.37372" lon="6.78687">
        <ele>465.1</ele>
        <time>2012-04-15T07:35:47Z</time>
      </trkpt>
      <trkpt lat="48.37364" lon="6.78689">
        <ele>466.1</ele>
        <time>2012-04-15T07:35:50Z</time>
      </trkpt>
      <trkpt lat="48.37356" lon="6.78688">
        <ele>466.2</ele>
        <time>2012-04-15T07:35:53Z</time>
      </trkpt>
      <trkpt lat="48.37348" lon="6.78685">
        <ele>466.1</ele>
        <time>2012-04-15T07:35:56Z</time>
      </trkpt>
      <trkpt lat="48.3734" lon="6.78679">
        <ele>467.9</ele>
        <time>2012-04-15T07:35:59Z</time>
      </trkpt>
      <trkpt lat="48.37333" lon="6.78672">
        <ele>469.6</ele>
        <time>2012-04-15T07:36:02Z</time>
      </trkpt>
      <trkpt lat="48.37325" lon="6.78666">
        <ele>469.6</ele>
        <time>2012-04-15T07:36:05Z</time>
      </trkpt>
      <trkpt lat="48.37318" lon="6.78659">
        <ele>470.3</ele>
        <time>2012-04-15T07:36:08Z</time>
      </trkpt>
      <trkpt lat="48.37311" lon="6.78653">
        <ele>470.9</ele>
        <time>2012-04-15T07:36:11Z</time>
      </trkpt>
      <trkpt lat="48.37304" lon="6.78651">
        <ele>471.5</ele>
        <time>2012-04-15T07:36:14Z</time>
      </trkpt>
      <trkpt lat="48.37298" lon="6.7866">
        <ele>471.5</ele>
        <time>2012-04-15T07:36:18Z</time>
      </trkpt>
      <trkpt lat="48.37299" lon="6.78673">
        <ele>472.3</ele>
        <time>2012-04-15T07:36:21Z</time>
      </trkpt>
      <trkpt lat="48.373" lon="6.78682">
        <ele>472.3</ele>
        <time>2012-04-15T07:36:23Z</time>
      </trkpt>
      <trkpt lat="48.373" lon="6.78692">
        <ele>472.4</ele>
        <time>2012-04-15T07:36:25Z</time>
      </trkpt>
      <trkpt lat="48.37301" lon="6.78701">
        <ele>472.7</ele>
        <time>2012-04-15T07:36:27Z</time>
      </trkpt>
      <trkpt lat="48.37301" lon="6.7871">
        <ele>472.5</ele>
        <time>2012-04-15T07:36:29Z</time>
      </trkpt>
      <trkpt lat="48.37301" lon="6.7872">
        <ele>472.3</ele>
        <time>2012-04-15T07:36:31Z</time>
      </trkpt>
      <trkpt lat="48.37301" lon="6.78724">
        <ele>472.2</ele>
        <time>2012-04-15T07:36:32Z</time>
      </trkpt>
      <trkpt lat="48.373" lon="6.7874">
        <ele>472.1</ele>
        <time>2012-04-15T07:36:35Z</time>
      </trkpt>
      <trkpt lat="48.37299" lon="6.7875">
        <ele>472</ele>
        <time>2012-04-15T07:36:37Z</time>
      </trkpt>
      <trkpt lat="48.37297" lon="6.78761">
        <ele>473.1</ele>
        <time>2012-04-15T07:36:39Z</time>
      </trkpt>
      <trkpt lat="48.37296" lon="6.78771">
        <ele>473.7</ele>
        <time>2012-04-15T07:36:41Z</time>
      </trkpt>
      <trkpt lat="48.37295" lon="6.78781">
        <ele>474.1</ele>
        <time>2012-04-15T07:36:43Z</time>
      </trkpt>
      <trkpt lat="48.37293" lon="6.78791">
        <ele>474.6</ele>
        <time>2012-04-15T07:36:45Z</time>
      </trkpt>
      <trkpt lat="48.37291" lon="6.78801">
        <ele>475</ele>
        <time>2012-04-15T07:36:47Z</time>
      </trkpt>
      <trkpt lat="48.37288" lon="6.78812">
        <ele>475.5</ele>
        <time>2012-04-15T07:36:49Z</time>
      </trkpt>
      <trkpt lat="48.37285" lon="6.78823">
        <ele>476.1</ele>
        <time>2012-04-15T07:36:51Z</time>
      </trkpt>
      <trkpt lat="48.37282" lon="6.78834">
        <ele>476.7</ele>
        <time>2012-04-15T07:36:53Z</time>
      </trkpt>
      <trkpt lat="48.37279" lon="6.78845">
        <ele>476.9</ele>
        <time>2012-04-15T07:36:55Z</time>
      </trkpt>
      <trkpt lat="48.37277" lon="6.78856">
        <ele>477</ele>
        <time>2012-04-15T07:36:57Z</time>
      </trkpt>
      <trkpt lat="48.37275" lon="6.78868">
        <ele>477.2</ele>
        <time>2012-04-15T07:36:59Z</time>
      </trkpt>
      <trkpt lat="48.37273" lon="6.78879">
        <ele>477.5</ele>
        <time>2012-04-15T07:37:01Z</time>
      </trkpt>
      <trkpt lat="48.37272" lon="6.78891">
        <ele>477.8</ele>
        <time>2012-04-15T07:37:03Z</time>
      </trkpt>
      <trkpt lat="48.37272" lon="6.78902">
        <ele>478.5</ele>
        <time>2012-04-15T07:37:05Z</time>
      </trkpt>
      <trkpt lat="48.37272" lon="6.78913">
        <ele>479</ele>
        <time>2012-04-15T07:37:07Z</time>
      </trkpt>
      <trkpt lat="48.37272" lon="6.78924">
        <ele>479.3</ele>
        <time>2012-04-15T07:37:09Z</time>
      </trkpt>
      <trkpt lat="48.37274" lon="6.78936">
        <ele>479.3</ele>
        <time>2012-04-15T07:37:11Z</time>
      </trkpt>
      <trkpt lat="48.37275" lon="6.78948">
        <ele>479.1</ele>
        <time>2012-04-15T07:37:13Z</time>
      </trkpt>
      <trkpt lat="48.37278" lon="6.78961">
        <ele>478.9</ele>
        <time>2012-04-15T07:37:15Z</time>
      </trkpt>
      <trkpt lat="48.37281" lon="6.78973">
        <ele>478.7</ele>
        <time>2012-04-15T07:37:17Z</time>
      </trkpt>
      <trkpt lat="48.37283" lon="6.7898">
        <ele>478.6</ele>
        <time>2012-04-15T07:37:18Z</time>
      </trkpt>
      <trkpt lat="48.37285" lon="6.78987">
        <ele>478.5</ele>
        <time>2012-04-15T07:37:19Z</time>
      </trkpt>
      <trkpt lat="48.37288" lon="6.78994">
        <ele>478.1</ele>
        <time>2012-04-15T07:37:20Z</time>
      </trkpt>
      <trkpt lat="48.3729" lon="6.79001">
        <ele>477.9</ele>
        <time>2012-04-15T07:37:21Z</time>
      </trkpt>
      <trkpt lat="48.37293" lon="6.79009">
        <ele>477.7</ele>
        <time>2012-04-15T07:37:22Z</time>
      </trkpt>
      <trkpt lat="48.37295" lon="6.79017">
        <ele>477.9</ele>
        <time>2012-04-15T07:37:23Z</time>
      </trkpt>
      <trkpt lat="48.37298" lon="6.79026">
        <ele>478.1</ele>
        <time>2012-04-15T07:37:24Z</time>
      </trkpt>
      <trkpt lat="48.373" lon="6.79035">
        <ele>478.2</ele>
        <time>2012-04-15T07:37:25Z</time>
      </trkpt>
      <trkpt lat="48.37302" lon="6.79045">
        <ele>477.9</ele>
        <time>2012-04-15T07:37:26Z</time>
      </trkpt>
      <trkpt lat="48.37304" lon="6.79055">
        <ele>477.6</ele>
        <time>2012-04-15T07:37:27Z</time>
      </trkpt>
      <trkpt lat="48.37306" lon="6.79066">
        <ele>477.4</ele>
        <time>2012-04-15T07:37:28Z</time>
      </trkpt>
      <trkpt lat="48.37308" lon="6.79077">
        <ele>476.7</ele>
        <time>2012-04-15T07:37:29Z</time>
      </trkpt>
      <trkpt lat="48.3731" lon="6.79088">
        <ele>476.2</ele>
        <time>2012-04-15T07:37:30Z</time>
      </trkpt>
      <trkpt lat="48.37311" lon="6.791">
        <ele>475.8</ele>
        <time>2012-04-15T07:37:31Z</time>
      </trkpt>
      <trkpt lat="48.37313" lon="6.79111">
        <ele>475.6</ele>
        <time>2012-04-15T07:37:32Z</time>
      </trkpt>
      <trkpt lat="48.37315" lon="6.79122">
        <ele>474.8</ele>
        <time>2012-04-15T07:37:33Z</time>
      </trkpt>
      <trkpt lat="48.37317" lon="6.79134">
        <ele>474.2</ele>
        <time>2012-04-15T07:37:34Z</time>
      </trkpt>
      <trkpt lat="48.37319" lon="6.79145">
        <ele>473.8</ele>
        <time>2012-04-15T07:37:35Z</time>
      </trkpt>
      <trkpt lat="48.37321" lon="6.79157">
        <ele>473.3</ele>
        <time>2012-04-15T07:37:36Z</time>
      </trkpt>
      <trkpt lat="48.37322" lon="6.79167">
        <ele>473</ele>
        <time>2012-04-15T07:37:37Z</time>
      </trkpt>
      <trkpt lat="48.37324" lon="6.79178">
        <ele>472.8</ele>
        <time>2012-04-15T07:37:38Z</time>
      </trkpt>
      <trkpt lat="48.37325" lon="6.79189">
        <ele>472.3</ele>
        <time>2012-04-15T07:37:39Z</time>
      </trkpt>
      <trkpt lat="48.37326" lon="6.79199">
        <ele>471.9</ele>
        <time>2012-04-15T07:37:40Z</time>
      </trkpt>
      <trkpt lat="48.37328" lon="6.79209">
        <ele>471.6</ele>
        <time>2012-04-15T07:37:41Z</time>
      </trkpt>
      <trkpt lat="48.3733" lon="6.79218">
        <ele>471</ele>
        <time>2012-04-15T07:37:42Z</time>
      </trkpt>
      <trkpt lat="48.37331" lon="6.79227">
        <ele>470.6</ele>
        <time>2012-04-15T07:37:43Z</time>
      </trkpt>
      <trkpt lat="48.37332" lon="6.79237">
        <ele>470.3</ele>
        <time>2012-04-15T07:37:44Z</time>
      </trkpt>
      <trkpt lat="48.37332" lon="6.79246">
        <ele>470.5</ele>
        <time>2012-04-15T07:37:45Z</time>
      </trkpt>
      <trkpt lat="48.37332" lon="6.79255">
        <ele>470.6</ele>
        <time>2012-04-15T07:37:46Z</time>
      </trkpt>
      <trkpt lat="48.37332" lon="6.79264">
        <ele>470.7</ele>
        <time>2012-04-15T07:37:47Z</time>
      </trkpt>
      <trkpt lat="48.37331" lon="6.79273">
        <ele>470.8</ele>
        <time>2012-04-15T07:37:48Z</time>
      </trkpt>
      <trkpt lat="48.3733" lon="6.79282">
        <ele>470.5</ele>
        <time>2012-04-15T07:37:49Z</time>
      </trkpt>
      <trkpt lat="48.37329" lon="6.79291">
        <ele>470.3</ele>
        <time>2012-04-15T07:37:50Z</time>
      </trkpt>
      <trkpt lat="48.37328" lon="6.793">
        <ele>470.1</ele>
        <time>2012-04-15T07:37:51Z</time>
      </trkpt>
      <trkpt lat="48.37327" lon="6.79309">
        <ele>469.7</ele>
        <time>2012-04-15T07:37:52Z</time>
      </trkpt>
      <trkpt lat="48.37327" lon="6.79318">
        <ele>469.5</ele>
        <time>2012-04-15T07:37:53Z</time>
      </trkpt>
      <trkpt lat="48.37326" lon="6.79327">
        <ele>469.2</ele>
        <time>2012-04-15T07:37:54Z</time>
      </trkpt>
      <trkpt lat="48.37326" lon="6.79336">
        <ele>469.2</ele>
        <time>2012-04-15T07:37:55Z</time>
      </trkpt>
      <trkpt lat="48.37326" lon="6.79345">
        <ele>469.2</ele>
        <time>2012-04-15T07:37:56Z</time>
      </trkpt>
      <trkpt lat="48.37326" lon="6.79354">
        <ele>469.2</ele>
        <time>2012-04-15T07:37:57Z</time>
      </trkpt>
      <trkpt lat="48.37326" lon="6.79363">
        <ele>469.5</ele>
        <time>2012-04-15T07:37:58Z</time>
      </trkpt>
      <trkpt lat="48.37326" lon="6.79372">
        <ele>469.7</ele>
        <time>2012-04-15T07:37:59Z</time>
      </trkpt>
      <trkpt lat="48.37326" lon="6.7938">
        <ele>469.9</ele>
        <time>2012-04-15T07:38:00Z</time>
      </trkpt>
      <trkpt lat="48.37325" lon="6.79389">
        <ele>469.5</ele>
        <time>2012-04-15T07:38:01Z</time>
      </trkpt>
      <trkpt lat="48.37325" lon="6.79397">
        <ele>469.2</ele>
        <time>2012-04-15T07:38:02Z</time>
      </trkpt>
      <trkpt lat="48.37324" lon="6.79406">
        <ele>469</ele>
        <time>2012-04-15T07:38:03Z</time>
      </trkpt>
      <trkpt lat="48.37324" lon="6.79414">
        <ele>468.9</ele>
        <time>2012-04-15T07:38:04Z</time>
      </trkpt>
      <trkpt lat="48.37324" lon="6.79423">
        <ele>468.8</ele>
        <time>2012-04-15T07:38:05Z</time>
      </trkpt>
      <trkpt lat="48.37323" lon="6.7943">
        <ele>468.8</ele>
        <time>2012-04-15T07:38:06Z</time>
      </trkpt>
      <trkpt lat="48.37322" lon="6.79439">
        <ele>468.8</ele>
        <time>2012-04-15T07:38:07Z</time>
      </trkpt>
      <trkpt lat="48.37321" lon="6.79448">
        <ele>469.2</ele>
        <time>2012-04-15T07:38:08Z</time>
      </trkpt>
      <trkpt lat="48.37319" lon="6.79457">
        <ele>469.5</ele>
        <time>2012-04-15T07:38:09Z</time>
      </trkpt>
      <trkpt lat="48.37317" lon="6.79466">
        <ele>469.7</ele>
        <time>2012-04-15T07:38:10Z</time>
      </trkpt>
      <trkpt lat="48.37315" lon="6.79475">
        <ele>469.5</ele>
        <time>2012-04-15T07:38:11Z</time>
      </trkpt>
      <trkpt lat="48.37311" lon="6.79484">
        <ele>469.4</ele>
        <time>2012-04-15T07:38:12Z</time>
      </trkpt>
      <trkpt lat="48.37308" lon="6.79493">
        <ele>469.3</ele>
        <time>2012-04-15T07:38:13Z</time>
      </trkpt>
      <trkpt lat="48.37305" lon="6.79502">
        <ele>469.1</ele>
        <time>2012-04-15T07:38:14Z</time>
      </trkpt>
      <trkpt lat="48.37302" lon="6.7951">
        <ele>468.9</ele>
        <time>2012-04-15T07:38:15Z</time>
      </trkpt>
      <trkpt lat="48.37298" lon="6.79519">
        <ele>468.8</ele>
        <time>2012-04-15T07:38:16Z</time>
      </trkpt>
      <trkpt lat="48.37295" lon="6.79529">
        <ele>468.2</ele>
        <time>2012-04-15T07:38:17Z</time>
      </trkpt>
      <trkpt lat="48.37292" lon="6.79537">
        <ele>467.7</ele>
        <time>2012-04-15T07:38:18Z</time>
      </trkpt>
      <trkpt lat="48.37289" lon="6.79546">
        <ele>467.3</ele>
        <time>2012-04-15T07:38:19Z</time>
      </trkpt>
      <trkpt lat="48.37286" lon="6.79556">
        <ele>467.1</ele>
        <time>2012-04-15T07:38:20Z</time>
      </trkpt>
      <trkpt lat="48.37283" lon="6.79566">
        <ele>466.9</ele>
        <time>2012-04-15T07:38:21Z</time>
      </trkpt>
      <trkpt lat="48.3728" lon="6.79576">
        <ele>466.8</ele>
        <time>2012-04-15T07:38:22Z</time>
      </trkpt>
      <trkpt lat="48.37277" lon="6.79587">
        <ele>466.7</ele>
        <time>2012-04-15T07:38:23Z</time>
      </trkpt>
      <trkpt lat="48.37274" lon="6.79599">
        <ele>466.4</ele>
        <time>2012-04-15T07:38:24Z</time>
      </trkpt>
      <trkpt lat="48.37271" lon="6.79611">
        <ele>466.1</ele>
        <time>2012-04-15T07:38:25Z</time>
      </trkpt>
      <trkpt lat="48.37268" lon="6.79624">
        <ele>465.9</ele>
        <time>2012-04-15T07:38:26Z</time>
      </trkpt>
      <trkpt lat="48.37266" lon="6.79637">
        <ele>465</ele>
        <time>2012-04-15T07:38:27Z</time>
      </trkpt>
      <trkpt lat="48.37263" lon="6.7965">
        <ele>464.4</ele>
        <time>2012-04-15T07:38:28Z</time>
      </trkpt>
      <trkpt lat="48.37261" lon="6.79664">
        <ele>463.9</ele>
        <time>2012-04-15T07:38:29Z</time>
      </trkpt>
      <trkpt lat="48.37259" lon="6.79678">
        <ele>462.9</ele>
        <time>2012-04-15T07:38:30Z</time>
      </trkpt>
      <trkpt lat="48.37257" lon="6.79691">
        <ele>462.2</ele>
        <time>2012-04-15T07:38:31Z</time>
      </trkpt>
      <trkpt lat="48.37256" lon="6.79706">
        <ele>461.7</ele>
        <time>2012-04-15T07:38:32Z</time>
      </trkpt>
      <trkpt lat="48.37255" lon="6.79721">
        <ele>460.3</ele>
        <time>2012-04-15T07:38:33Z</time>
      </trkpt>
      <trkpt lat="48.37254" lon="6.79736">
        <ele>459.3</ele>
        <time>2012-04-15T07:38:34Z</time>
      </trkpt>
      <trkpt lat="48.37254" lon="6.79751">
        <ele>458.6</ele>
        <time>2012-04-15T07:38:35Z</time>
      </trkpt>
      <trkpt lat="48.37254" lon="6.79766">
        <ele>457.3</ele>
        <time>2012-04-15T07:38:36Z</time>
      </trkpt>
      <trkpt lat="48.37254" lon="6.79782">
        <ele>456.4</ele>
        <time>2012-04-15T07:38:37Z</time>
      </trkpt>
      <trkpt lat="48.37255" lon="6.79797">
        <ele>455.7</ele>
        <time>2012-04-15T07:38:38Z</time>
      </trkpt>
      <trkpt lat="48.37257" lon="6.79811">
        <ele>455.1</ele>
        <time>2012-04-15T07:38:39Z</time>
      </trkpt>
      <trkpt lat="48.37259" lon="6.79826">
        <ele>454.4</ele>
        <time>2012-04-15T07:38:40Z</time>
      </trkpt>
      <trkpt lat="48.37262" lon="6.7984">
        <ele>453.9</ele>
        <time>2012-04-15T07:38:41Z</time>
      </trkpt>
      <trkpt lat="48.37265" lon="6.79853">
        <ele>453.5</ele>
        <time>2012-04-15T07:38:42Z</time>
      </trkpt>
      <trkpt lat="48.37268" lon="6.79866">
        <ele>452.3</ele>
        <time>2012-04-15T07:38:43Z</time>
      </trkpt>
      <trkpt lat="48.3727" lon="6.79879">
        <ele>451.5</ele>
        <time>2012-04-15T07:38:44Z</time>
      </trkpt>
      <trkpt lat="48.37273" lon="6.79891">
        <ele>450.9</ele>
        <time>2012-04-15T07:38:45Z</time>
      </trkpt>
      <trkpt lat="48.37275" lon="6.79903">
        <ele>450.3</ele>
        <time>2012-04-15T07:38:46Z</time>
      </trkpt>
      <trkpt lat="48.37277" lon="6.79915">
        <ele>449.8</ele>
        <time>2012-04-15T07:38:47Z</time>
      </trkpt>
      <trkpt lat="48.3728" lon="6.79927">
        <ele>449.5</ele>
        <time>2012-04-15T07:38:48Z</time>
      </trkpt>
      <trkpt lat="48.37282" lon="6.79939">
        <ele>449.2</ele>
        <time>2012-04-15T07:38:49Z</time>
      </trkpt>
      <trkpt lat="48.37284" lon="6.7995">
        <ele>449</ele>
        <time>2012-04-15T07:38:50Z</time>
      </trkpt>
      <trkpt lat="48.37287" lon="6.79962">
        <ele>448.9</ele>
        <time>2012-04-15T07:38:51Z</time>
      </trkpt>
      <trkpt lat="48.3729" lon="6.79974">
        <ele>448.2</ele>
        <time>2012-04-15T07:38:52Z</time>
      </trkpt>
      <trkpt lat="48.37293" lon="6.79986">
        <ele>447.6</ele>
        <time>2012-04-15T07:38:53Z</time>
      </trkpt>
      <trkpt lat="48.37296" lon="6.79998">
        <ele>447.2</ele>
        <time>2012-04-15T07:38:54Z</time>
      </trkpt>
      <trkpt lat="48.37298" lon="6.8001">
        <ele>446.9</ele>
        <time>2012-04-15T07:38:55Z</time>
      </trkpt>
      <trkpt lat="48.373" lon="6.80022">
        <ele>446.2</ele>
        <time>2012-04-15T07:38:56Z</time>
      </trkpt>
      <trkpt lat="48.37302" lon="6.80034">
        <ele>445.7</ele>
        <time>2012-04-15T07:38:57Z</time>
      </trkpt>
      <trkpt lat="48.37304" lon="6.80047">
        <ele>445.3</ele>
        <time>2012-04-15T07:38:58Z</time>
      </trkpt>
      <trkpt lat="48.37306" lon="6.80059">
        <ele>444.4</ele>
        <time>2012-04-15T07:38:59Z</time>
      </trkpt>
      <trkpt lat="48.37308" lon="6.80072">
        <ele>443.7</ele>
        <time>2012-04-15T07:39:00Z</time>
      </trkpt>
      <trkpt lat="48.37309" lon="6.80085">
        <ele>443.2</ele>
        <time>2012-04-15T07:39:01Z</time>
      </trkpt>
      <trkpt lat="48.3731" lon="6.80096">
        <ele>442.2</ele>
        <time>2012-04-15T07:39:02Z</time>
      </trkpt>
      <trkpt lat="48.37311" lon="6.80108">
        <ele>441.6</ele>
        <time>2012-04-15T07:39:03Z</time>
      </trkpt>
      <trkpt lat="48.37311" lon="6.80119">
        <ele>441</ele>
        <time>2012-04-15T07:39:04Z</time>
      </trkpt>
      <trkpt lat="48.37312" lon="6.8013">
        <ele>441.3</ele>
        <time>2012-04-15T07:39:05Z</time>
      </trkpt>
      <trkpt lat="48.37311" lon="6.8014">
        <ele>441.6</ele>
        <time>2012-04-15T07:39:06Z</time>
      </trkpt>
      <trkpt lat="48.37311" lon="6.8015">
        <ele>441.7</ele>
        <time>2012-04-15T07:39:07Z</time>
      </trkpt>
      <trkpt lat="48.3731" lon="6.8016">
        <ele>441.2</ele>
        <time>2012-04-15T07:39:08Z</time>
      </trkpt>
      <trkpt lat="48.37309" lon="6.80169">
        <ele>440.8</ele>
        <time>2012-04-15T07:39:09Z</time>
      </trkpt>
      <trkpt lat="48.37308" lon="6.80178">
        <ele>440.4</ele>
        <time>2012-04-15T07:39:10Z</time>
      </trkpt>
      <trkpt lat="48.37307" lon="6.80187">
        <ele>440.2</ele>
        <time>2012-04-15T07:39:11Z</time>
      </trkpt>
      <trkpt lat="48.37306" lon="6.80196">
        <ele>440.1</ele>
        <time>2012-04-15T07:39:12Z</time>
      </trkpt>
      <trkpt lat="48.37304" lon="6.80205">
        <ele>440.1</ele>
        <time>2012-04-15T07:39:13Z</time>
      </trkpt>
      <trkpt lat="48.37303" lon="6.80214">
        <ele>440.1</ele>
        <time>2012-04-15T07:39:14Z</time>
      </trkpt>
      <trkpt lat="48.37302" lon="6.80223">
        <ele>440.1</ele>
        <time>2012-04-15T07:39:15Z</time>
      </trkpt>
      <trkpt lat="48.37302" lon="6.80232">
        <ele>440</ele>
        <time>2012-04-15T07:39:16Z</time>
      </trkpt>
      <trkpt lat="48.37302" lon="6.80241">
        <ele>440</ele>
        <time>2012-04-15T07:39:17Z</time>
      </trkpt>
      <trkpt lat="48.37301" lon="6.8025">
        <ele>440.5</ele>
        <time>2012-04-15T07:39:18Z</time>
      </trkpt>
      <trkpt lat="48.37301" lon="6.80259">
        <ele>440.8</ele>
        <time>2012-04-15T07:39:19Z</time>
      </trkpt>
      <trkpt lat="48.37301" lon="6.80268">
        <ele>441.1</ele>
        <time>2012-04-15T07:39:20Z</time>
      </trkpt>
      <trkpt lat="48.37301" lon="6.80277">
        <ele>441.1</ele>
        <time>2012-04-15T07:39:21Z</time>
      </trkpt>
      <trkpt lat="48.37302" lon="6.80286">
        <ele>441.1</ele>
        <time>2012-04-15T07:39:22Z</time>
      </trkpt>
      <trkpt lat="48.37302" lon="6.80294">
        <ele>441.2</ele>
        <time>2012-04-15T07:39:23Z</time>
      </trkpt>
      <trkpt lat="48.37303" lon="6.80301">
        <ele>441</ele>
        <time>2012-04-15T07:39:24Z</time>
      </trkpt>
      <trkpt lat="48.37303" lon="6.80309">
        <ele>440.9</ele>
        <time>2012-04-15T07:39:25Z</time>
      </trkpt>
      <trkpt lat="48.37304" lon="6.80317">
        <ele>440.9</ele>
        <time>2012-04-15T07:39:26Z</time>
      </trkpt>
      <trkpt lat="48.37305" lon="6.80324">
        <ele>441.6</ele>
        <time>2012-04-15T07:39:27Z</time>
      </trkpt>
      <trkpt lat="48.37306" lon="6.80331">
        <ele>442.1</ele>
        <time>2012-04-15T07:39:28Z</time>
      </trkpt>
      <trkpt lat="48.37307" lon="6.80338">
        <ele>442.5</ele>
        <time>2012-04-15T07:39:29Z</time>
      </trkpt>
      <trkpt lat="48.37307" lon="6.80345">
        <ele>442.8</ele>
        <time>2012-04-15T07:39:30Z</time>
      </trkpt>
      <trkpt lat="48.37308" lon="6.80352">
        <ele>443</ele>
        <time>2012-04-15T07:39:31Z</time>
      </trkpt>
      <trkpt lat="48.37308" lon="6.80359">
        <ele>443.1</ele>
        <time>2012-04-15T07:39:32Z</time>
      </trkpt>
      <trkpt lat="48.37309" lon="6.80373">
        <ele>443.6</ele>
        <time>2012-04-15T07:39:34Z</time>
      </trkpt>
      <trkpt lat="48.3731" lon="6.80379">
        <ele>443.9</ele>
        <time>2012-04-15T07:39:35Z</time>
      </trkpt>
      <trkpt lat="48.37311" lon="6.80399">
        <ele>444.6</ele>
        <time>2012-04-15T07:39:38Z</time>
      </trkpt>
      <trkpt lat="48.37311" lon="6.80412">
        <ele>445.6</ele>
        <time>2012-04-15T07:39:40Z</time>
      </trkpt>
      <trkpt lat="48.37311" lon="6.80425">
        <ele>446.7</ele>
        <time>2012-04-15T07:39:42Z</time>
      </trkpt>
      <trkpt lat="48.37312" lon="6.80431">
        <ele>446.5</ele>
        <time>2012-04-15T07:39:43Z</time>
      </trkpt>
      <trkpt lat="48.37313" lon="6.80438">
        <ele>446.4</ele>
        <time>2012-04-15T07:39:44Z</time>
      </trkpt>
      <trkpt lat="48.37313" lon="6.80452">
        <ele>446.2</ele>
        <time>2012-04-15T07:39:46Z</time>
      </trkpt>
      <trkpt lat="48.37312" lon="6.80465">
        <ele>447.4</ele>
        <time>2012-04-15T07:39:48Z</time>
      </trkpt>
      <trkpt lat="48.37312" lon="6.80478">
        <ele>448</ele>
        <time>2012-04-15T07:39:50Z</time>
      </trkpt>
      <trkpt lat="48.37312" lon="6.8049">
        <ele>448.3</ele>
        <time>2012-04-15T07:39:52Z</time>
      </trkpt>
      <trkpt lat="48.3731" lon="6.80503">
        <ele>448.2</ele>
        <time>2012-04-15T07:39:54Z</time>
      </trkpt>
      <trkpt lat="48.37309" lon="6.80515">
        <ele>448.5</ele>
        <time>2012-04-15T07:39:56Z</time>
      </trkpt>
      <trkpt lat="48.37308" lon="6.80528">
        <ele>448.9</ele>
        <time>2012-04-15T07:39:58Z</time>
      </trkpt>
      <trkpt lat="48.37307" lon="6.8054">
        <ele>449.1</ele>
        <time>2012-04-15T07:40:00Z</time>
      </trkpt>
      <trkpt lat="48.37305" lon="6.80552">
        <ele>449.1</ele>
        <time>2012-04-15T07:40:02Z</time>
      </trkpt>
      <trkpt lat="48.37303" lon="6.80565">
        <ele>449.5</ele>
        <time>2012-04-15T07:40:04Z</time>
      </trkpt>
      <trkpt lat="48.373" lon="6.80576">
        <ele>449.7</ele>
        <time>2012-04-15T07:40:06Z</time>
      </trkpt>
      <trkpt lat="48.37296" lon="6.80588">
        <ele>449.8</ele>
        <time>2012-04-15T07:40:08Z</time>
      </trkpt>
      <trkpt lat="48.37293" lon="6.80599">
        <ele>450.7</ele>
        <time>2012-04-15T07:40:10Z</time>
      </trkpt>
      <trkpt lat="48.37289" lon="6.80609">
        <ele>450.9</ele>
        <time>2012-04-15T07:40:12Z</time>
      </trkpt>
      <trkpt lat="48.37286" lon="6.80619">
        <ele>450.7</ele>
        <time>2012-04-15T07:40:14Z</time>
      </trkpt>
      <trkpt lat="48.37281" lon="6.80629">
        <ele>450.7</ele>
        <time>2012-04-15T07:40:16Z</time>
      </trkpt>
      <trkpt lat="48.37277" lon="6.8064">
        <ele>450.6</ele>
        <time>2012-04-15T07:40:18Z</time>
      </trkpt>
      <trkpt lat="48.37273" lon="6.8065">
        <ele>451.9</ele>
        <time>2012-04-15T07:40:20Z</time>
      </trkpt>
      <trkpt lat="48.37268" lon="6.8066">
        <ele>452.5</ele>
        <time>2012-04-15T07:40:22Z</time>
      </trkpt>
      <trkpt lat="48.37264" lon="6.8067">
        <ele>452.6</ele>
        <time>2012-04-15T07:40:24Z</time>
      </trkpt>
      <trkpt lat="48.37258" lon="6.80679">
        <ele>453.2</ele>
        <time>2012-04-15T07:40:26Z</time>
      </trkpt>
      <trkpt lat="48.37253" lon="6.80688">
        <ele>453.8</ele>
        <time>2012-04-15T07:40:28Z</time>
      </trkpt>
      <trkpt lat="48.37248" lon="6.80696">
        <ele>454.4</ele>
        <time>2012-04-15T07:40:30Z</time>
      </trkpt>
      <trkpt lat="48.37243" lon="6.80703">
        <ele>454.4</ele>
        <time>2012-04-15T07:40:32Z</time>
      </trkpt>
      <trkpt lat="48.37239" lon="6.80713">
        <ele>454.4</ele>
        <time>2012-04-15T07:40:34Z</time>
      </trkpt>
      <trkpt lat="48.37236" lon="6.80719">
        <ele>455</ele>
        <time>2012-04-15T07:40:35Z</time>
      </trkpt>
      <trkpt lat="48.37233" lon="6.80725">
        <ele>455.5</ele>
        <time>2012-04-15T07:40:36Z</time>
      </trkpt>
      <trkpt lat="48.3723" lon="6.80731">
        <ele>455.8</ele>
        <time>2012-04-15T07:40:37Z</time>
      </trkpt>
      <trkpt lat="48.37227" lon="6.80738">
        <ele>455.9</ele>
        <time>2012-04-15T07:40:38Z</time>
      </trkpt>
      <trkpt lat="48.37224" lon="6.80745">
        <ele>456</ele>
        <time>2012-04-15T07:40:39Z</time>
      </trkpt>
      <trkpt lat="48.37221" lon="6.80753">
        <ele>456</ele>
        <time>2012-04-15T07:40:40Z</time>
      </trkpt>
      <trkpt lat="48.37219" lon="6.80761">
        <ele>456.1</ele>
        <time>2012-04-15T07:40:41Z</time>
      </trkpt>
      <trkpt lat="48.37217" lon="6.8077">
        <ele>456.1</ele>
        <time>2012-04-15T07:40:42Z</time>
      </trkpt>
      <trkpt lat="48.37215" lon="6.80778">
        <ele>456.1</ele>
        <time>2012-04-15T07:40:43Z</time>
      </trkpt>
      <trkpt lat="48.37214" lon="6.80786">
        <ele>455.6</ele>
        <time>2012-04-15T07:40:44Z</time>
      </trkpt>
      <trkpt lat="48.37213" lon="6.80795">
        <ele>455.3</ele>
        <time>2012-04-15T07:40:45Z</time>
      </trkpt>
      <trkpt lat="48.37212" lon="6.80803">
        <ele>455</ele>
        <time>2012-04-15T07:40:46Z</time>
      </trkpt>
      <trkpt lat="48.37211" lon="6.80811">
        <ele>454.9</ele>
        <time>2012-04-15T07:40:47Z</time>
      </trkpt>
      <trkpt lat="48.3721" lon="6.80819">
        <ele>454.7</ele>
        <time>2012-04-15T07:40:48Z</time>
      </trkpt>
      <trkpt lat="48.37208" lon="6.80826">
        <ele>454.6</ele>
        <time>2012-04-15T07:40:49Z</time>
      </trkpt>
      <trkpt lat="48.37207" lon="6.80834">
        <ele>454.6</ele>
        <time>2012-04-15T07:40:50Z</time>
      </trkpt>
      <trkpt lat="48.37206" lon="6.80842">
        <ele>454.5</ele>
        <time>2012-04-15T07:40:51Z</time>
      </trkpt>
      <trkpt lat="48.37205" lon="6.80849">
        <ele>454.5</ele>
        <time>2012-04-15T07:40:52Z</time>
      </trkpt>
      <trkpt lat="48.37203" lon="6.80857">
        <ele>454.5</ele>
        <time>2012-04-15T07:40:53Z</time>
      </trkpt>
      <trkpt lat="48.37202" lon="6.80864">
        <ele>454.4</ele>
        <time>2012-04-15T07:40:54Z</time>
      </trkpt>
      <trkpt lat="48.372" lon="6.80872">
        <ele>454.3</ele>
        <time>2012-04-15T07:40:55Z</time>
      </trkpt>
      <trkpt lat="48.37199" lon="6.8088">
        <ele>454.2</ele>
        <time>2012-04-15T07:40:56Z</time>
      </trkpt>
      <trkpt lat="48.37198" lon="6.80888">
        <ele>454.1</ele>
        <time>2012-04-15T07:40:57Z</time>
      </trkpt>
      <trkpt lat="48.37197" lon="6.80895">
        <ele>454.1</ele>
        <time>2012-04-15T07:40:58Z</time>
      </trkpt>
      <trkpt lat="48.37196" lon="6.80903">
        <ele>454</ele>
        <time>2012-04-15T07:40:59Z</time>
      </trkpt>
      <trkpt lat="48.37196" lon="6.8091">
        <ele>453.7</ele>
        <time>2012-04-15T07:41:00Z</time>
      </trkpt>
      <trkpt lat="48.37196" lon="6.80918">
        <ele>453.6</ele>
        <time>2012-04-15T07:41:01Z</time>
      </trkpt>
      <trkpt lat="48.37195" lon="6.80925">
        <ele>453.4</ele>
        <time>2012-04-15T07:41:02Z</time>
      </trkpt>
      <trkpt lat="48.37195" lon="6.80933">
        <ele>454</ele>
        <time>2012-04-15T07:41:03Z</time>
      </trkpt>
      <trkpt lat="48.37195" lon="6.80941">
        <ele>454.4</ele>
        <time>2012-04-15T07:41:04Z</time>
      </trkpt>
      <trkpt lat="48.37196" lon="6.80948">
        <ele>454.7</ele>
        <time>2012-04-15T07:41:05Z</time>
      </trkpt>
      <trkpt lat="48.37196" lon="6.80956">
        <ele>454.7</ele>
        <time>2012-04-15T07:41:06Z</time>
      </trkpt>
      <trkpt lat="48.37197" lon="6.80963">
        <ele>454.7</ele>
        <time>2012-04-15T07:41:07Z</time>
      </trkpt>
      <trkpt lat="48.37198" lon="6.8097">
        <ele>454.7</ele>
        <time>2012-04-15T07:41:08Z</time>
      </trkpt>
      <trkpt lat="48.37199" lon="6.80978">
        <ele>454.7</ele>
        <time>2012-04-15T07:41:09Z</time>
      </trkpt>
      <trkpt lat="48.37201" lon="6.80985">
        <ele>454.4</ele>
        <time>2012-04-15T07:41:10Z</time>
      </trkpt>
      <trkpt lat="48.37204" lon="6.80992">
        <ele>454.3</ele>
        <time>2012-04-15T07:41:11Z</time>
      </trkpt>
      <trkpt lat="48.37206" lon="6.80999">
        <ele>454.1</ele>
        <time>2012-04-15T07:41:12Z</time>
      </trkpt>
      <trkpt lat="48.37209" lon="6.81006">
        <ele>454.1</ele>
        <time>2012-04-15T07:41:13Z</time>
      </trkpt>
      <trkpt lat="48.37213" lon="6.81013">
        <ele>454.1</ele>
        <time>2012-04-15T07:41:14Z</time>
      </trkpt>
      <trkpt lat="48.37217" lon="6.8102">
        <ele>454.1</ele>
        <time>2012-04-15T07:41:15Z</time>
      </trkpt>
      <trkpt lat="48.37222" lon="6.81027">
        <ele>454</ele>
        <time>2012-04-15T07:41:16Z</time>
      </trkpt>
      <trkpt lat="48.37226" lon="6.81034">
        <ele>454</ele>
        <time>2012-04-15T07:41:17Z</time>
      </trkpt>
      <trkpt lat="48.37231" lon="6.81042">
        <ele>453.9</ele>
        <time>2012-04-15T07:41:18Z</time>
      </trkpt>
      <trkpt lat="48.37236" lon="6.81049">
        <ele>453.5</ele>
        <time>2012-04-15T07:41:19Z</time>
      </trkpt>
      <trkpt lat="48.37241" lon="6.81056">
        <ele>453.1</ele>
        <time>2012-04-15T07:41:20Z</time>
      </trkpt>
      <trkpt lat="48.37247" lon="6.81063">
        <ele>452.8</ele>
        <time>2012-04-15T07:41:21Z</time>
      </trkpt>
      <trkpt lat="48.37251" lon="6.81071">
        <ele>452.4</ele>
        <time>2012-04-15T07:41:22Z</time>
      </trkpt>
      <trkpt lat="48.37255" lon="6.81078">
        <ele>452.1</ele>
        <time>2012-04-15T07:41:23Z</time>
      </trkpt>
      <trkpt lat="48.37259" lon="6.81086">
        <ele>451.9</ele>
        <time>2012-04-15T07:41:24Z</time>
      </trkpt>
      <trkpt lat="48.37262" lon="6.81093">
        <ele>451.8</ele>
        <time>2012-04-15T07:41:25Z</time>
      </trkpt>
      <trkpt lat="48.37266" lon="6.811">
        <ele>452</ele>
        <time>2012-04-15T07:41:26Z</time>
      </trkpt>
      <trkpt lat="48.37269" lon="6.81107">
        <ele>452.1</ele>
        <time>2012-04-15T07:41:27Z</time>
      </trkpt>
      <trkpt lat="48.37272" lon="6.81114">
        <ele>452.2</ele>
        <time>2012-04-15T07:41:28Z</time>
      </trkpt>
      <trkpt lat="48.37275" lon="6.81121">
        <ele>452.7</ele>
        <time>2012-04-15T07:41:29Z</time>
      </trkpt>
      <trkpt lat="48.37279" lon="6.81128">
        <ele>453</ele>
        <time>2012-04-15T07:41:30Z</time>
      </trkpt>
      <trkpt lat="48.37282" lon="6.81135">
        <ele>453.2</ele>
        <time>2012-04-15T07:41:31Z</time>
      </trkpt>
      <trkpt lat="48.37284" lon="6.81142">
        <ele>453.2</ele>
        <time>2012-04-15T07:41:32Z</time>
      </trkpt>
      <trkpt lat="48.37287" lon="6.81148">
        <ele>453.2</ele>
        <time>2012-04-15T07:41:33Z</time>
      </trkpt>
      <trkpt lat="48.3729" lon="6.81155">
        <ele>453.2</ele>
        <time>2012-04-15T07:41:34Z</time>
      </trkpt>
      <trkpt lat="48.37293" lon="6.81162">
        <ele>453.1</ele>
        <time>2012-04-15T07:41:35Z</time>
      </trkpt>
      <trkpt lat="48.37296" lon="6.81169">
        <ele>453</ele>
        <time>2012-04-15T07:41:36Z</time>
      </trkpt>
      <trkpt lat="48.37299" lon="6.81175">
        <ele>452.9</ele>
        <time>2012-04-15T07:41:37Z</time>
      </trkpt>
      <trkpt lat="48.37302" lon="6.81182">
        <ele>453.5</ele>
        <time>2012-04-15T07:41:38Z</time>
      </trkpt>
      <trkpt lat="48.37306" lon="6.81189">
        <ele>453.9</ele>
        <time>2012-04-15T07:41:39Z</time>
      </trkpt>
      <trkpt lat="48.37309" lon="6.81196">
        <ele>454.2</ele>
        <time>2012-04-15T07:41:40Z</time>
      </trkpt>
      <trkpt lat="48.37313" lon="6.81202">
        <ele>454.4</ele>
        <time>2012-04-15T07:41:41Z</time>
      </trkpt>
      <trkpt lat="48.37317" lon="6.81208">
        <ele>454.5</ele>
        <time>2012-04-15T07:41:42Z</time>
      </trkpt>
      <trkpt lat="48.37321" lon="6.81214">
        <ele>454.5</ele>
        <time>2012-04-15T07:41:43Z</time>
      </trkpt>
      <trkpt lat="48.37325" lon="6.81219">
        <ele>454.6</ele>
        <time>2012-04-15T07:41:44Z</time>
      </trkpt>
      <trkpt lat="48.37328" lon="6.81225">
        <ele>454.5</ele>
        <time>2012-04-15T07:41:45Z</time>
      </trkpt>
      <trkpt lat="48.37332" lon="6.81232">
        <ele>454.3</ele>
        <time>2012-04-15T07:41:46Z</time>
      </trkpt>
      <trkpt lat="48.37336" lon="6.81239">
        <ele>454.3</ele>
        <time>2012-04-15T07:41:47Z</time>
      </trkpt>
      <trkpt lat="48.3734" lon="6.81247">
        <ele>453.6</ele>
        <time>2012-04-15T07:41:48Z</time>
      </trkpt>
      <trkpt lat="48.37343" lon="6.81256">
        <ele>453.1</ele>
        <time>2012-04-15T07:41:49Z</time>
      </trkpt>
      <trkpt lat="48.37345" lon="6.81265">
        <ele>452.8</ele>
        <time>2012-04-15T07:41:50Z</time>
      </trkpt>
      <trkpt lat="48.37348" lon="6.81274">
        <ele>452.5</ele>
        <time>2012-04-15T07:41:51Z</time>
      </trkpt>
      <trkpt lat="48.3735" lon="6.81283">
        <ele>452.3</ele>
        <time>2012-04-15T07:41:52Z</time>
      </trkpt>
      <trkpt lat="48.37353" lon="6.81291">
        <ele>452.1</ele>
        <time>2012-04-15T07:41:53Z</time>
      </trkpt>
      <trkpt lat="48.37356" lon="6.81299">
        <ele>451.7</ele>
        <time>2012-04-15T07:41:54Z</time>
      </trkpt>
      <trkpt lat="48.3736" lon="6.81306">
        <ele>451.4</ele>
        <time>2012-04-15T07:41:55Z</time>
      </trkpt>
      <trkpt lat="48.37364" lon="6.81312">
        <ele>451.1</ele>
        <time>2012-04-15T07:41:56Z</time>
      </trkpt>
      <trkpt lat="48.37368" lon="6.81318">
        <ele>450.8</ele>
        <time>2012-04-15T07:41:57Z</time>
      </trkpt>
      <trkpt lat="48.37372" lon="6.81323">
        <ele>450.5</ele>
        <time>2012-04-15T07:41:58Z</time>
      </trkpt>
      <trkpt lat="48.37377" lon="6.81328">
        <ele>450.3</ele>
        <time>2012-04-15T07:41:59Z</time>
      </trkpt>
      <trkpt lat="48.37381" lon="6.81332">
        <ele>450.2</ele>
        <time>2012-04-15T07:42:00Z</time>
      </trkpt>
      <trkpt lat="48.37386" lon="6.81337">
        <ele>449.6</ele>
        <time>2012-04-15T07:42:01Z</time>
      </trkpt>
      <trkpt lat="48.37391" lon="6.81342">
        <ele>449.2</ele>
        <time>2012-04-15T07:42:02Z</time>
      </trkpt>
      <trkpt lat="48.37395" lon="6.81348">
        <ele>448.9</ele>
        <time>2012-04-15T07:42:03Z</time>
      </trkpt>
      <trkpt lat="48.374" lon="6.81353">
        <ele>448.8</ele>
        <time>2012-04-15T07:42:04Z</time>
      </trkpt>
      <trkpt lat="48.37404" lon="6.81359">
        <ele>448.7</ele>
        <time>2012-04-15T07:42:05Z</time>
      </trkpt>
      <trkpt lat="48.37409" lon="6.81365">
        <ele>448.6</ele>
        <time>2012-04-15T07:42:06Z</time>
      </trkpt>
      <trkpt lat="48.37414" lon="6.81371">
        <ele>448.6</ele>
        <time>2012-04-15T07:42:07Z</time>
      </trkpt>
      <trkpt lat="48.37418" lon="6.81377">
        <ele>448.6</ele>
        <time>2012-04-15T07:42:08Z</time>
      </trkpt>
      <trkpt lat="48.37423" lon="6.81382">
        <ele>448.6</ele>
        <time>2012-04-15T07:42:09Z</time>
      </trkpt>
      <trkpt lat="48.37428" lon="6.81388">
        <ele>448.1</ele>
        <time>2012-04-15T07:42:10Z</time>
      </trkpt>
      <trkpt lat="48.37432" lon="6.81394">
        <ele>447.8</ele>
        <time>2012-04-15T07:42:11Z</time>
      </trkpt>
      <trkpt lat="48.37437" lon="6.814">
        <ele>447.5</ele>
        <time>2012-04-15T07:42:12Z</time>
      </trkpt>
      <trkpt lat="48.37442" lon="6.81405">
        <ele>447.2</ele>
        <time>2012-04-15T07:42:13Z</time>
      </trkpt>
      <trkpt lat="48.37446" lon="6.81411">
        <ele>447</ele>
        <time>2012-04-15T07:42:14Z</time>
      </trkpt>
      <trkpt lat="48.3745" lon="6.81417">
        <ele>446.9</ele>
        <time>2012-04-15T07:42:15Z</time>
      </trkpt>
      <trkpt lat="48.37454" lon="6.81423">
        <ele>446.7</ele>
        <time>2012-04-15T07:42:16Z</time>
      </trkpt>
      <trkpt lat="48.37457" lon="6.81429">
        <ele>447.1</ele>
        <time>2012-04-15T07:42:17Z</time>
      </trkpt>
      <trkpt lat="48.3746" lon="6.81435">
        <ele>447.5</ele>
        <time>2012-04-15T07:42:18Z</time>
      </trkpt>
      <trkpt lat="48.37463" lon="6.81442">
        <ele>447.7</ele>
        <time>2012-04-15T07:42:19Z</time>
      </trkpt>
      <trkpt lat="48.37465" lon="6.81448">
        <ele>447.1</ele>
        <time>2012-04-15T07:42:20Z</time>
      </trkpt>
      <trkpt lat="48.37467" lon="6.81455">
        <ele>446.7</ele>
        <time>2012-04-15T07:42:21Z</time>
      </trkpt>
      <trkpt lat="48.37469" lon="6.81462">
        <ele>446.4</ele>
        <time>2012-04-15T07:42:22Z</time>
      </trkpt>
      <trkpt lat="48.3747" lon="6.81469">
        <ele>446.4</ele>
        <time>2012-04-15T07:42:23Z</time>
      </trkpt>
      <trkpt lat="48.37472" lon="6.81476">
        <ele>446.4</ele>
        <time>2012-04-15T07:42:24Z</time>
      </trkpt>
      <trkpt lat="48.37474" lon="6.81483">
        <ele>446.4</ele>
        <time>2012-04-15T07:42:25Z</time>
      </trkpt>
      <trkpt lat="48.37477" lon="6.81489">
        <ele>446.7</ele>
        <time>2012-04-15T07:42:26Z</time>
      </trkpt>
      <trkpt lat="48.37479" lon="6.81496">
        <ele>447</ele>
        <time>2012-04-15T07:42:27Z</time>
      </trkpt>
      <trkpt lat="48.37481" lon="6.81502">
        <ele>447.2</ele>
        <time>2012-04-15T07:42:28Z</time>
      </trkpt>
      <trkpt lat="48.37484" lon="6.81509">
        <ele>447.6</ele>
        <time>2012-04-15T07:42:29Z</time>
      </trkpt>
      <trkpt lat="48.37487" lon="6.81515">
        <ele>447.9</ele>
        <time>2012-04-15T07:42:30Z</time>
      </trkpt>
      <trkpt lat="48.37489" lon="6.81521">
        <ele>448.1</ele>
        <time>2012-04-15T07:42:31Z</time>
      </trkpt>
      <trkpt lat="48.37492" lon="6.81527">
        <ele>448.3</ele>
        <time>2012-04-15T07:42:32Z</time>
      </trkpt>
      <trkpt lat="48.37495" lon="6.81534">
        <ele>448.4</ele>
        <time>2012-04-15T07:42:33Z</time>
      </trkpt>
      <trkpt lat="48.37497" lon="6.8154">
        <ele>448.5</ele>
        <time>2012-04-15T07:42:34Z</time>
      </trkpt>
      <trkpt lat="48.375" lon="6.81547">
        <ele>448.6</ele>
        <time>2012-04-15T07:42:35Z</time>
      </trkpt>
      <trkpt lat="48.37502" lon="6.81553">
        <ele>448.8</ele>
        <time>2012-04-15T07:42:36Z</time>
      </trkpt>
      <trkpt lat="48.37504" lon="6.8156">
        <ele>449</ele>
        <time>2012-04-15T07:42:37Z</time>
      </trkpt>
      <trkpt lat="48.37507" lon="6.81566">
        <ele>449.1</ele>
        <time>2012-04-15T07:42:38Z</time>
      </trkpt>
      <trkpt lat="48.37509" lon="6.81573">
        <ele>449</ele>
        <time>2012-04-15T07:42:39Z</time>
      </trkpt>
      <trkpt lat="48.3751" lon="6.81579">
        <ele>448.9</ele>
        <time>2012-04-15T07:42:40Z</time>
      </trkpt>
      <trkpt lat="48.37512" lon="6.81586">
        <ele>448.9</ele>
        <time>2012-04-15T07:42:41Z</time>
      </trkpt>
      <trkpt lat="48.37514" lon="6.81593">
        <ele>449.1</ele>
        <time>2012-04-15T07:42:42Z</time>
      </trkpt>
      <trkpt lat="48.37517" lon="6.81605">
        <ele>449.5</ele>
        <time>2012-04-15T07:42:44Z</time>
      </trkpt>
      <trkpt lat="48.37519" lon="6.81618">
        <ele>449.5</ele>
        <time>2012-04-15T07:42:46Z</time>
      </trkpt>
      <trkpt lat="48.3752" lon="6.81625">
        <ele>449.4</ele>
        <time>2012-04-15T07:42:47Z</time>
      </trkpt>
      <trkpt lat="48.37523" lon="6.81638">
        <ele>449.8</ele>
        <time>2012-04-15T07:42:49Z</time>
      </trkpt>
      <trkpt lat="48.37525" lon="6.81651">
        <ele>450.4</ele>
        <time>2012-04-15T07:42:51Z</time>
      </trkpt>
      <trkpt lat="48.37527" lon="6.81657">
        <ele>450.6</ele>
        <time>2012-04-15T07:42:52Z</time>
      </trkpt>
      <trkpt lat="48.37528" lon="6.81664">
        <ele>450.8</ele>
        <time>2012-04-15T07:42:53Z</time>
      </trkpt>
      <trkpt lat="48.37529" lon="6.81671">
        <ele>451</ele>
        <time>2012-04-15T07:42:54Z</time>
      </trkpt>
      <trkpt lat="48.37531" lon="6.81677">
        <ele>451.2</ele>
        <time>2012-04-15T07:42:55Z</time>
      </trkpt>
      <trkpt lat="48.37532" lon="6.81684">
        <ele>451.4</ele>
        <time>2012-04-15T07:42:56Z</time>
      </trkpt>
      <trkpt lat="48.37534" lon="6.8169">
        <ele>451.5</ele>
        <time>2012-04-15T07:42:57Z</time>
      </trkpt>
      <trkpt lat="48.37535" lon="6.81697">
        <ele>452.2</ele>
        <time>2012-04-15T07:42:58Z</time>
      </trkpt>
      <trkpt lat="48.37537" lon="6.81704">
        <ele>452.7</ele>
        <time>2012-04-15T07:42:59Z</time>
      </trkpt>
      <trkpt lat="48.37539" lon="6.81712">
        <ele>453.1</ele>
        <time>2012-04-15T07:43:00Z</time>
      </trkpt>
      <trkpt lat="48.3754" lon="6.81719">
        <ele>452.6</ele>
        <time>2012-04-15T07:43:01Z</time>
      </trkpt>
      <trkpt lat="48.37541" lon="6.81726">
        <ele>452.3</ele>
        <time>2012-04-15T07:43:02Z</time>
      </trkpt>
      <trkpt lat="48.37543" lon="6.81734">
        <ele>452</ele>
        <time>2012-04-15T07:43:03Z</time>
      </trkpt>
      <trkpt lat="48.37544" lon="6.81742">
        <ele>451.8</ele>
        <time>2012-04-15T07:43:04Z</time>
      </trkpt>
      <trkpt lat="48.37546" lon="6.8175">
        <ele>452.1</ele>
        <time>2012-04-15T07:43:05Z</time>
      </trkpt>
      <trkpt lat="48.37547" lon="6.81758">
        <ele>452.4</ele>
        <time>2012-04-15T07:43:06Z</time>
      </trkpt>
      <trkpt lat="48.37548" lon="6.81766">
        <ele>452.6</ele>
        <time>2012-04-15T07:43:07Z</time>
      </trkpt>
      <trkpt lat="48.37548" lon="6.81774">
        <ele>452.3</ele>
        <time>2012-04-15T07:43:08Z</time>
      </trkpt>
      <trkpt lat="48.37548" lon="6.81782">
        <ele>452</ele>
        <time>2012-04-15T07:43:09Z</time>
      </trkpt>
      <trkpt lat="48.37549" lon="6.81791">
        <ele>451.8</ele>
        <time>2012-04-15T07:43:10Z</time>
      </trkpt>
      <trkpt lat="48.37549" lon="6.818">
        <ele>451.6</ele>
        <time>2012-04-15T07:43:11Z</time>
      </trkpt>
      <trkpt lat="48.3755" lon="6.81809">
        <ele>451.4</ele>
        <time>2012-04-15T07:43:12Z</time>
      </trkpt>
      <trkpt lat="48.37551" lon="6.81819">
        <ele>451.3</ele>
        <time>2012-04-15T07:43:13Z</time>
      </trkpt>
      <trkpt lat="48.37551" lon="6.81829">
        <ele>450.8</ele>
        <time>2012-04-15T07:43:14Z</time>
      </trkpt>
      <trkpt lat="48.37551" lon="6.8184">
        <ele>450.4</ele>
        <time>2012-04-15T07:43:15Z</time>
      </trkpt>
      <trkpt lat="48.37553" lon="6.8185">
        <ele>450.2</ele>
        <time>2012-04-15T07:43:16Z</time>
      </trkpt>
      <trkpt lat="48.37553" lon="6.81862">
        <ele>449.6</ele>
        <time>2012-04-15T07:43:17Z</time>
      </trkpt>
      <trkpt lat="48.37554" lon="6.81873">
        <ele>449.2</ele>
        <time>2012-04-15T07:43:18Z</time>
      </trkpt>
      <trkpt lat="48.37555" lon="6.81885">
        <ele>448.9</ele>
        <time>2012-04-15T07:43:19Z</time>
      </trkpt>
      <trkpt lat="48.37557" lon="6.81896">
        <ele>448.5</ele>
        <time>2012-04-15T07:43:20Z</time>
      </trkpt>
      <trkpt lat="48.37559" lon="6.81908">
        <ele>448.2</ele>
        <time>2012-04-15T07:43:21Z</time>
      </trkpt>
      <trkpt lat="48.37562" lon="6.81919">
        <ele>448</ele>
        <time>2012-04-15T07:43:22Z</time>
      </trkpt>
      <trkpt lat="48.37565" lon="6.8193">
        <ele>447.8</ele>
        <time>2012-04-15T07:43:23Z</time>
      </trkpt>
      <trkpt lat="48.37567" lon="6.81939">
        <ele>447.2</ele>
        <time>2012-04-15T07:43:24Z</time>
      </trkpt>
      <trkpt lat="48.3757" lon="6.81949">
        <ele>446.7</ele>
        <time>2012-04-15T07:43:25Z</time>
      </trkpt>
      <trkpt lat="48.37573" lon="6.81958">
        <ele>446.3</ele>
        <time>2012-04-15T07:43:26Z</time>
      </trkpt>
      <trkpt lat="48.37575" lon="6.81967">
        <ele>445.6</ele>
        <time>2012-04-15T07:43:27Z</time>
      </trkpt>
      <trkpt lat="48.37576" lon="6.81974">
        <ele>445.1</ele>
        <time>2012-04-15T07:43:28Z</time>
      </trkpt>
      <trkpt lat="48.37579" lon="6.81986">
        <ele>444.2</ele>
        <time>2012-04-15T07:43:30Z</time>
      </trkpt>
      <trkpt lat="48.37583" lon="6.81998">
        <ele>442.7</ele>
        <time>2012-04-15T07:43:35Z</time>
      </trkpt>
      <trkpt lat="48.37574" lon="6.81996">
        <ele>441.8</ele>
        <time>2012-04-15T07:46:02Z</time>
      </trkpt>
      <trkpt lat="48.37574" lon="6.81995">
        <ele>441.8</ele>
        <time>2012-04-15T07:46:03Z</time>
      </trkpt>
      <trkpt lat="48.3758" lon="6.82006">
        <ele>442.9</ele>
        <time>2012-04-15T07:50:02Z</time>
      </trkpt>
      <trkpt lat="48.37584" lon="6.82024">
        <ele>442</ele>
        <time>2012-04-15T07:50:07Z</time>
      </trkpt>
      <trkpt lat="48.37586" lon="6.82035">
        <ele>442.3</ele>
        <time>2012-04-15T07:50:09Z</time>
      </trkpt>
      <trkpt lat="48.37588" lon="6.82049">
        <ele>442.6</ele>
        <time>2012-04-15T07:50:11Z</time>
      </trkpt>
      <trkpt lat="48.37588" lon="6.82059">
        <ele>442.6</ele>
        <time>2012-04-15T07:50:13Z</time>
      </trkpt>
      <trkpt lat="48.37589" lon="6.82072">
        <ele>442.6</ele>
        <time>2012-04-15T07:50:15Z</time>
      </trkpt>
      <trkpt lat="48.3759" lon="6.82079">
        <ele>442.6</ele>
        <time>2012-04-15T07:50:16Z</time>
      </trkpt>
      <trkpt lat="48.37591" lon="6.82092">
        <ele>442.7</ele>
        <time>2012-04-15T07:50:18Z</time>
      </trkpt>
      <trkpt lat="48.37591" lon="6.82101">
        <ele>442.1</ele>
        <time>2012-04-15T07:50:20Z</time>
      </trkpt>
      <trkpt lat="48.37592" lon="6.82113">
        <ele>442</ele>
        <time>2012-04-15T07:50:22Z</time>
      </trkpt>
      <trkpt lat="48.37594" lon="6.82124">
        <ele>442.2</ele>
        <time>2012-04-15T07:50:24Z</time>
      </trkpt>
      <trkpt lat="48.37596" lon="6.82134">
        <ele>441.8</ele>
        <time>2012-04-15T07:50:26Z</time>
      </trkpt>
      <trkpt lat="48.37598" lon="6.82146">
        <ele>442.3</ele>
        <time>2012-04-15T07:50:28Z</time>
      </trkpt>
      <trkpt lat="48.37599" lon="6.82158">
        <ele>443.3</ele>
        <time>2012-04-15T07:50:31Z</time>
      </trkpt>
      <trkpt lat="48.376" lon="6.8217">
        <ele>444.5</ele>
        <time>2012-04-15T07:50:37Z</time>
      </trkpt>
      <trkpt lat="48.37601" lon="6.8218">
        <ele>444.2</ele>
        <time>2012-04-15T07:50:40Z</time>
      </trkpt>
      <trkpt lat="48.37602" lon="6.82192">
        <ele>444.8</ele>
        <time>2012-04-15T07:50:44Z</time>
      </trkpt>
      <trkpt lat="48.37601" lon="6.82202">
        <ele>445</ele>
        <time>2012-04-15T07:50:47Z</time>
      </trkpt>
      <trkpt lat="48.37601" lon="6.82215">
        <ele>445.3</ele>
        <time>2012-04-15T07:50:50Z</time>
      </trkpt>
      <trkpt lat="48.37601" lon="6.82226">
        <ele>445.2</ele>
        <time>2012-04-15T07:50:52Z</time>
      </trkpt>
      <trkpt lat="48.37602" lon="6.82238">
        <ele>445.1</ele>
        <time>2012-04-15T07:50:54Z</time>
      </trkpt>
      <trkpt lat="48.37601" lon="6.82248">
        <ele>444.9</ele>
        <time>2012-04-15T07:50:56Z</time>
      </trkpt>
      <trkpt lat="48.37601" lon="6.82259">
        <ele>443.9</ele>
        <time>2012-04-15T07:50:58Z</time>
      </trkpt>
      <trkpt lat="48.37602" lon="6.8227">
        <ele>443.4</ele>
        <time>2012-04-15T07:51:01Z</time>
      </trkpt>
      <trkpt lat="48.37602" lon="6.82282">
        <ele>444.3</ele>
        <time>2012-04-15T07:51:04Z</time>
      </trkpt>
      <trkpt lat="48.37603" lon="6.82287">
        <ele>444.6</ele>
        <time>2012-04-15T07:51:05Z</time>
      </trkpt>
      <trkpt lat="48.37603" lon="6.82303">
        <ele>445.9</ele>
        <time>2012-04-15T07:51:08Z</time>
      </trkpt>
      <trkpt lat="48.37605" lon="6.82316">
        <ele>445.7</ele>
        <time>2012-04-15T07:51:10Z</time>
      </trkpt>
      <trkpt lat="48.37606" lon="6.82328">
        <ele>444.9</ele>
        <time>2012-04-15T07:51:12Z</time>
      </trkpt>
      <trkpt lat="48.37608" lon="6.82339">
        <ele>445.3</ele>
        <time>2012-04-15T07:51:14Z</time>
      </trkpt>
      <trkpt lat="48.37609" lon="6.82352">
        <ele>445.7</ele>
        <time>2012-04-15T07:51:17Z</time>
      </trkpt>
      <trkpt lat="48.3761" lon="6.82365">
        <ele>446</ele>
        <time>2012-04-15T07:51:23Z</time>
      </trkpt>
      <trkpt lat="48.3761" lon="6.82375">
        <ele>446.4</ele>
        <time>2012-04-15T07:51:27Z</time>
      </trkpt>
      <trkpt lat="48.3761" lon="6.82387">
        <ele>447.2</ele>
        <time>2012-04-15T07:51:30Z</time>
      </trkpt>
      <trkpt lat="48.3761" lon="6.82396">
        <ele>448</ele>
        <time>2012-04-15T07:51:32Z</time>
      </trkpt>
      <trkpt lat="48.37611" lon="6.82409">
        <ele>448.6</ele>
        <time>2012-04-15T07:51:35Z</time>
      </trkpt>
      <trkpt lat="48.37613" lon="6.8242">
        <ele>448.3</ele>
        <time>2012-04-15T07:51:38Z</time>
      </trkpt>
      <trkpt lat="48.37615" lon="6.82431">
        <ele>448.5</ele>
        <time>2012-04-15T07:51:42Z</time>
      </trkpt>
      <trkpt lat="48.37616" lon="6.82442">
        <ele>447.9</ele>
        <time>2012-04-15T07:51:46Z</time>
      </trkpt>
      <trkpt lat="48.37617" lon="6.82455">
        <ele>448.2</ele>
        <time>2012-04-15T07:51:50Z</time>
      </trkpt>
      <trkpt lat="48.37619" lon="6.82467">
        <ele>448.1</ele>
        <time>2012-04-15T07:51:53Z</time>
      </trkpt>
      <trkpt lat="48.37621" lon="6.82479">
        <ele>448.6</ele>
        <time>2012-04-15T07:52:04Z</time>
      </trkpt>
      <trkpt lat="48.37624" lon="6.82491">
        <ele>450.7</ele>
        <time>2012-04-15T07:52:14Z</time>
      </trkpt>
      <trkpt lat="48.37624" lon="6.82492">
        <ele>450.8</ele>
        <time>2012-04-15T07:52:15Z</time>
      </trkpt>
      <trkpt lat="48.37633" lon="6.82513">
        <ele>451.9</ele>
        <time>2012-04-15T07:52:32Z</time>
      </trkpt>
      <trkpt lat="48.37638" lon="6.82525">
        <ele>453.6</ele>
        <time>2012-04-15T07:52:38Z</time>
      </trkpt>
      <trkpt lat="48.37641" lon="6.82535">
        <ele>454.5</ele>
        <time>2012-04-15T07:52:42Z</time>
      </trkpt>
      <trkpt lat="48.37646" lon="6.82547">
        <ele>455.6</ele>
        <time>2012-04-15T07:52:47Z</time>
      </trkpt>
      <trkpt lat="48.37649" lon="6.82556">
        <ele>456.2</ele>
        <time>2012-04-15T07:52:50Z</time>
      </trkpt>
      <trkpt lat="48.37653" lon="6.82566">
        <ele>455.9</ele>
        <time>2012-04-15T07:52:53Z</time>
      </trkpt>
      <trkpt lat="48.37657" lon="6.82577">
        <ele>456.1</ele>
        <time>2012-04-15T07:52:56Z</time>
      </trkpt>
      <trkpt lat="48.37662" lon="6.82587">
        <ele>456.1</ele>
        <time>2012-04-15T07:52:58Z</time>
      </trkpt>
      <trkpt lat="48.37665" lon="6.82597">
        <ele>456.1</ele>
        <time>2012-04-15T07:53:00Z</time>
      </trkpt>
      <trkpt lat="48.37668" lon="6.82607">
        <ele>455.8</ele>
        <time>2012-04-15T07:53:02Z</time>
      </trkpt>
      <trkpt lat="48.3767" lon="6.82617">
        <ele>455.7</ele>
        <time>2012-04-15T07:53:04Z</time>
      </trkpt>
      <trkpt lat="48.37673" lon="6.82628">
        <ele>455.4</ele>
        <time>2012-04-15T07:53:06Z</time>
      </trkpt>
      <trkpt lat="48.37676" lon="6.82639">
        <ele>455.8</ele>
        <time>2012-04-15T07:53:08Z</time>
      </trkpt>
      <trkpt lat="48.3768" lon="6.8265">
        <ele>456.5</ele>
        <time>2012-04-15T07:53:11Z</time>
      </trkpt>
      <trkpt lat="48.37683" lon="6.82658">
        <ele>456.5</ele>
        <time>2012-04-15T07:53:13Z</time>
      </trkpt>
      <trkpt lat="48.37685" lon="6.82668">
        <ele>456</ele>
        <time>2012-04-15T07:53:15Z</time>
      </trkpt>
      <trkpt lat="48.37686" lon="6.82672">
        <ele>455.8</ele>
        <time>2012-04-15T07:53:16Z</time>
      </trkpt>
      <trkpt lat="48.3769" lon="6.8269">
        <ele>456.3</ele>
        <time>2012-04-15T07:53:21Z</time>
      </trkpt>
      <trkpt lat="48.37692" lon="6.82704">
        <ele>457.3</ele>
        <time>2012-04-15T07:53:25Z</time>
      </trkpt>
      <trkpt lat="48.3769" lon="6.82716">
        <ele>457.8</ele>
        <time>2012-04-15T07:53:29Z</time>
      </trkpt>
      <trkpt lat="48.37689" lon="6.82726">
        <ele>457.5</ele>
        <time>2012-04-15T07:53:32Z</time>
      </trkpt>
      <trkpt lat="48.37686" lon="6.82738">
        <ele>457.7</ele>
        <time>2012-04-15T07:53:35Z</time>
      </trkpt>
      <trkpt lat="48.37684" lon="6.8275">
        <ele>457.6</ele>
        <time>2012-04-15T07:53:38Z</time>
      </trkpt>
      <trkpt lat="48.37682" lon="6.82761">
        <ele>457.5</ele>
        <time>2012-04-15T07:53:41Z</time>
      </trkpt>
      <trkpt lat="48.37679" lon="6.82773">
        <ele>459.1</ele>
        <time>2012-04-15T07:53:45Z</time>
      </trkpt>
      <trkpt lat="48.37675" lon="6.82785">
        <ele>459.2</ele>
        <time>2012-04-15T07:53:50Z</time>
      </trkpt>
      <trkpt lat="48.37672" lon="6.82795">
        <ele>460.1</ele>
        <time>2012-04-15T07:53:54Z</time>
      </trkpt>
      <trkpt lat="48.37668" lon="6.82804">
        <ele>461.6</ele>
        <time>2012-04-15T07:53:58Z</time>
      </trkpt>
      <trkpt lat="48.37663" lon="6.82815">
        <ele>461.8</ele>
        <time>2012-04-15T07:54:01Z</time>
      </trkpt>
      <trkpt lat="48.37659" lon="6.82822">
        <ele>461.9</ele>
        <time>2012-04-15T07:54:03Z</time>
      </trkpt>
      <trkpt lat="48.37655" lon="6.82832">
        <ele>462.4</ele>
        <time>2012-04-15T07:54:05Z</time>
      </trkpt>
      <trkpt lat="48.37652" lon="6.82842">
        <ele>463.1</ele>
        <time>2012-04-15T07:54:07Z</time>
      </trkpt>
      <trkpt lat="48.3765" lon="6.82851">
        <ele>462.6</ele>
        <time>2012-04-15T07:54:09Z</time>
      </trkpt>
      <trkpt lat="48.37647" lon="6.82861">
        <ele>462.3</ele>
        <time>2012-04-15T07:54:11Z</time>
      </trkpt>
      <trkpt lat="48.37644" lon="6.82873">
        <ele>462.5</ele>
        <time>2012-04-15T07:54:14Z</time>
      </trkpt>
      <trkpt lat="48.37643" lon="6.82884">
        <ele>461.2</ele>
        <time>2012-04-15T07:54:17Z</time>
      </trkpt>
      <trkpt lat="48.37644" lon="6.82888">
        <ele>461.3</ele>
        <time>2012-04-15T07:54:18Z</time>
      </trkpt>
      <trkpt lat="48.37645" lon="6.82906">
        <ele>461.9</ele>
        <time>2012-04-15T07:54:23Z</time>
      </trkpt>
      <trkpt lat="48.37647" lon="6.82914">
        <ele>462.8</ele>
        <time>2012-04-15T07:54:25Z</time>
      </trkpt>
      <trkpt lat="48.37649" lon="6.82924">
        <ele>463.4</ele>
        <time>2012-04-15T07:54:27Z</time>
      </trkpt>
      <trkpt lat="48.37651" lon="6.82935">
        <ele>464.1</ele>
        <time>2012-04-15T07:54:29Z</time>
      </trkpt>
      <trkpt lat="48.37653" lon="6.82943">
        <ele>464.4</ele>
        <time>2012-04-15T07:54:31Z</time>
      </trkpt>
      <trkpt lat="48.37656" lon="6.82953">
        <ele>464.4</ele>
        <time>2012-04-15T07:54:33Z</time>
      </trkpt>
      <trkpt lat="48.37658" lon="6.82965">
        <ele>464.1</ele>
        <time>2012-04-15T07:54:35Z</time>
      </trkpt>
      <trkpt lat="48.37659" lon="6.82976">
        <ele>463.7</ele>
        <time>2012-04-15T07:54:37Z</time>
      </trkpt>
      <trkpt lat="48.37662" lon="6.82987">
        <ele>462.9</ele>
        <time>2012-04-15T07:54:40Z</time>
      </trkpt>
      <trkpt lat="48.37665" lon="6.82999">
        <ele>462.3</ele>
        <time>2012-04-15T07:54:43Z</time>
      </trkpt>
      <trkpt lat="48.37668" lon="6.8301">
        <ele>462.4</ele>
        <time>2012-04-15T07:54:46Z</time>
      </trkpt>
      <trkpt lat="48.37671" lon="6.83021">
        <ele>461.8</ele>
        <time>2012-04-15T07:54:49Z</time>
      </trkpt>
      <trkpt lat="48.37674" lon="6.83032">
        <ele>461.9</ele>
        <time>2012-04-15T07:54:52Z</time>
      </trkpt>
      <trkpt lat="48.37677" lon="6.83044">
        <ele>461.3</ele>
        <time>2012-04-15T07:54:55Z</time>
      </trkpt>
      <trkpt lat="48.3768" lon="6.83055">
        <ele>461.4</ele>
        <time>2012-04-15T07:54:58Z</time>
      </trkpt>
      <trkpt lat="48.37683" lon="6.83065">
        <ele>462.2</ele>
        <time>2012-04-15T07:55:02Z</time>
      </trkpt>
      <trkpt lat="48.37684" lon="6.83077">
        <ele>462.2</ele>
        <time>2012-04-15T07:55:09Z</time>
      </trkpt>
      <trkpt lat="48.37686" lon="6.83089">
        <ele>464.3</ele>
        <time>2012-04-15T07:55:15Z</time>
      </trkpt>
      <trkpt lat="48.37684" lon="6.83101">
        <ele>464.4</ele>
        <time>2012-04-15T07:55:20Z</time>
      </trkpt>
      <trkpt lat="48.37683" lon="6.83103">
        <ele>464.5</ele>
        <time>2012-04-15T07:55:21Z</time>
      </trkpt>
      <trkpt lat="48.37679" lon="6.83121">
        <ele>466.6</ele>
        <time>2012-04-15T07:55:28Z</time>
      </trkpt>
      <trkpt lat="48.37673" lon="6.8313">
        <ele>467.5</ele>
        <time>2012-04-15T07:55:32Z</time>
      </trkpt>
      <trkpt lat="48.37669" lon="6.83141">
        <ele>468.7</ele>
        <time>2012-04-15T07:55:37Z</time>
      </trkpt>
      <trkpt lat="48.37665" lon="6.83151">
        <ele>469.4</ele>
        <time>2012-04-15T07:55:41Z</time>
      </trkpt>
      <trkpt lat="48.37659" lon="6.8316">
        <ele>470.1</ele>
        <time>2012-04-15T07:55:45Z</time>
      </trkpt>
      <trkpt lat="48.37653" lon="6.83169">
        <ele>470.6</ele>
        <time>2012-04-15T07:55:49Z</time>
      </trkpt>
      <trkpt lat="48.37647" lon="6.83178">
        <ele>471.7</ele>
        <time>2012-04-15T07:55:53Z</time>
      </trkpt>
      <trkpt lat="48.37641" lon="6.83187">
        <ele>473</ele>
        <time>2012-04-15T07:55:58Z</time>
      </trkpt>
      <trkpt lat="48.37636" lon="6.83197">
        <ele>474.4</ele>
        <time>2012-04-15T07:56:04Z</time>
      </trkpt>
      <trkpt lat="48.3763" lon="6.83205">
        <ele>474.7</ele>
        <time>2012-04-15T07:56:10Z</time>
      </trkpt>
      <trkpt lat="48.37623" lon="6.83212">
        <ele>475.1</ele>
        <time>2012-04-15T07:56:16Z</time>
      </trkpt>
      <trkpt lat="48.37616" lon="6.83219">
        <ele>475.2</ele>
        <time>2012-04-15T07:56:21Z</time>
      </trkpt>
      <trkpt lat="48.37615" lon="6.8322">
        <ele>475.7</ele>
        <time>2012-04-15T07:56:22Z</time>
      </trkpt>
      <trkpt lat="48.37605" lon="6.83236">
        <ele>477.1</ele>
        <time>2012-04-15T07:56:31Z</time>
      </trkpt>
      <trkpt lat="48.37599" lon="6.83243">
        <ele>478.7</ele>
        <time>2012-04-15T07:56:35Z</time>
      </trkpt>
      <trkpt lat="48.37595" lon="6.83255">
        <ele>479</ele>
        <time>2012-04-15T07:56:39Z</time>
      </trkpt>
      <trkpt lat="48.37595" lon="6.83266">
        <ele>479.3</ele>
        <time>2012-04-15T07:56:43Z</time>
      </trkpt>
      <trkpt lat="48.37598" lon="6.83279">
        <ele>479.7</ele>
        <time>2012-04-15T07:56:48Z</time>
      </trkpt>
      <trkpt lat="48.37599" lon="6.83292">
        <ele>480.5</ele>
        <time>2012-04-15T07:56:53Z</time>
      </trkpt>
      <trkpt lat="48.37601" lon="6.83304">
        <ele>482.1</ele>
        <time>2012-04-15T07:57:01Z</time>
      </trkpt>
      <trkpt lat="48.37603" lon="6.83316">
        <ele>481.9</ele>
        <time>2012-04-15T07:57:06Z</time>
      </trkpt>
      <trkpt lat="48.37606" lon="6.83328">
        <ele>484.1</ele>
        <time>2012-04-15T07:57:13Z</time>
      </trkpt>
      <trkpt lat="48.37609" lon="6.8334">
        <ele>485.2</ele>
        <time>2012-04-15T07:57:20Z</time>
      </trkpt>
      <trkpt lat="48.37614" lon="6.8335">
        <ele>485.1</ele>
        <time>2012-04-15T07:57:26Z</time>
      </trkpt>
      <trkpt lat="48.37615" lon="6.83352">
        <ele>485</ele>
        <time>2012-04-15T07:57:27Z</time>
      </trkpt>
      <trkpt lat="48.37621" lon="6.83369">
        <ele>485.1</ele>
        <time>2012-04-15T07:57:33Z</time>
      </trkpt>
      <trkpt lat="48.37624" lon="6.83378">
        <ele>485.4</ele>
        <time>2012-04-15T07:57:35Z</time>
      </trkpt>
      <trkpt lat="48.37627" lon="6.83388">
        <ele>484.6</ele>
        <time>2012-04-15T07:57:37Z</time>
      </trkpt>
      <trkpt lat="48.3763" lon="6.83397">
        <ele>483.9</ele>
        <time>2012-04-15T07:57:39Z</time>
      </trkpt>
      <trkpt lat="48.37634" lon="6.83407">
        <ele>483.3</ele>
        <time>2012-04-15T07:57:41Z</time>
      </trkpt>
      <trkpt lat="48.37638" lon="6.83417">
        <ele>483.5</ele>
        <time>2012-04-15T07:57:43Z</time>
      </trkpt>
      <trkpt lat="48.3764" lon="6.83426">
        <ele>483.6</ele>
        <time>2012-04-15T07:57:45Z</time>
      </trkpt>
      <trkpt lat="48.37642" lon="6.83434">
        <ele>483.7</ele>
        <time>2012-04-15T07:57:47Z</time>
      </trkpt>
      <trkpt lat="48.37645" lon="6.83445">
        <ele>483.1</ele>
        <time>2012-04-15T07:57:49Z</time>
      </trkpt>
      <trkpt lat="48.37646" lon="6.83451">
        <ele>482.6</ele>
        <time>2012-04-15T07:57:50Z</time>
      </trkpt>
      <trkpt lat="48.37648" lon="6.83458">
        <ele>482.3</ele>
        <time>2012-04-15T07:57:51Z</time>
      </trkpt>
      <trkpt lat="48.37651" lon="6.83465">
        <ele>482.3</ele>
        <time>2012-04-15T07:57:52Z</time>
      </trkpt>
      <trkpt lat="48.37653" lon="6.83472">
        <ele>482.2</ele>
        <time>2012-04-15T07:57:53Z</time>
      </trkpt>
      <trkpt lat="48.37655" lon="6.83481">
        <ele>482.2</ele>
        <time>2012-04-15T07:57:54Z</time>
      </trkpt>
      <trkpt lat="48.37658" lon="6.8349">
        <ele>481.8</ele>
        <time>2012-04-15T07:57:55Z</time>
      </trkpt>
      <trkpt lat="48.37661" lon="6.83502">
        <ele>481.3</ele>
        <time>2012-04-15T07:57:57Z</time>
      </trkpt>
      <trkpt lat="48.37663" lon="6.83512">
        <ele>479.8</ele>
        <time>2012-04-15T07:57:59Z</time>
      </trkpt>
      <trkpt lat="48.37663" lon="6.83525">
        <ele>478.8</ele>
        <time>2012-04-15T07:58:01Z</time>
      </trkpt>
      <trkpt lat="48.37662" lon="6.83537">
        <ele>477.8</ele>
        <time>2012-04-15T07:58:04Z</time>
      </trkpt>
      <trkpt lat="48.3766" lon="6.83549">
        <ele>476.4</ele>
        <time>2012-04-15T07:58:07Z</time>
      </trkpt>
      <trkpt lat="48.37655" lon="6.83559">
        <ele>475.8</ele>
        <time>2012-04-15T07:58:09Z</time>
      </trkpt>
      <trkpt lat="48.37649" lon="6.83569">
        <ele>475</ele>
        <time>2012-04-15T07:58:12Z</time>
      </trkpt>
      <trkpt lat="48.37645" lon="6.83578">
        <ele>474.3</ele>
        <time>2012-04-15T07:58:15Z</time>
      </trkpt>
      <trkpt lat="48.37642" lon="6.83588">
        <ele>474.2</ele>
        <time>2012-04-15T07:58:18Z</time>
      </trkpt>
      <trkpt lat="48.37635" lon="6.83595">
        <ele>474.2</ele>
        <time>2012-04-15T07:58:20Z</time>
      </trkpt>
      <trkpt lat="48.37629" lon="6.836">
        <ele>474.5</ele>
        <time>2012-04-15T07:58:22Z</time>
      </trkpt>
      <trkpt lat="48.37624" lon="6.83607">
        <ele>474.4</ele>
        <time>2012-04-15T07:58:24Z</time>
      </trkpt>
      <trkpt lat="48.37617" lon="6.83616">
        <ele>474.5</ele>
        <time>2012-04-15T07:58:27Z</time>
      </trkpt>
      <trkpt lat="48.37614" lon="6.83618">
        <ele>474.7</ele>
        <time>2012-04-15T07:58:28Z</time>
      </trkpt>
      <trkpt lat="48.37603" lon="6.83628">
        <ele>476.2</ele>
        <time>2012-04-15T07:58:32Z</time>
      </trkpt>
      <trkpt lat="48.37596" lon="6.83633">
        <ele>476.1</ele>
        <time>2012-04-15T07:58:34Z</time>
      </trkpt>
      <trkpt lat="48.37588" lon="6.83639">
        <ele>476</ele>
        <time>2012-04-15T07:58:36Z</time>
      </trkpt>
      <trkpt lat="48.37584" lon="6.83642">
        <ele>475.9</ele>
        <time>2012-04-15T07:58:37Z</time>
      </trkpt>
      <trkpt lat="48.37577" lon="6.83649">
        <ele>475.8</ele>
        <time>2012-04-15T07:58:39Z</time>
      </trkpt>
      <trkpt lat="48.37572" lon="6.83654">
        <ele>476</ele>
        <time>2012-04-15T07:58:41Z</time>
      </trkpt>
      <trkpt lat="48.37565" lon="6.83658">
        <ele>476.1</ele>
        <time>2012-04-15T07:58:43Z</time>
      </trkpt>
      <trkpt lat="48.37559" lon="6.83663">
        <ele>476.2</ele>
        <time>2012-04-15T07:58:45Z</time>
      </trkpt>
      <trkpt lat="48.37553" lon="6.83667">
        <ele>477</ele>
        <time>2012-04-15T07:58:47Z</time>
      </trkpt>
      <trkpt lat="48.37547" lon="6.83673">
        <ele>476.6</ele>
        <time>2012-04-15T07:58:49Z</time>
      </trkpt>
      <trkpt lat="48.3754" lon="6.83679">
        <ele>475.8</ele>
        <time>2012-04-15T07:58:51Z</time>
      </trkpt>
      <trkpt lat="48.37533" lon="6.83683">
        <ele>475</ele>
        <time>2012-04-15T07:58:53Z</time>
      </trkpt>
      <trkpt lat="48.37527" lon="6.83686">
        <ele>474.6</ele>
        <time>2012-04-15T07:58:55Z</time>
      </trkpt>
      <trkpt lat="48.3752" lon="6.83691">
        <ele>473.6</ele>
        <time>2012-04-15T07:58:57Z</time>
      </trkpt>
      <trkpt lat="48.37514" lon="6.83696">
        <ele>473.6</ele>
        <time>2012-04-15T07:58:59Z</time>
      </trkpt>
      <trkpt lat="48.37509" lon="6.83704">
        <ele>474</ele>
        <time>2012-04-15T07:59:02Z</time>
      </trkpt>
      <trkpt lat="48.37503" lon="6.83713">
        <ele>474.2</ele>
        <time>2012-04-15T07:59:05Z</time>
      </trkpt>
      <trkpt lat="48.37497" lon="6.83722">
        <ele>474.7</ele>
        <time>2012-04-15T07:59:08Z</time>
      </trkpt>
      <trkpt lat="48.37492" lon="6.83727">
        <ele>475.4</ele>
        <time>2012-04-15T07:59:10Z</time>
      </trkpt>
      <trkpt lat="48.37486" lon="6.83732">
        <ele>475.4</ele>
        <time>2012-04-15T07:59:12Z</time>
      </trkpt>
      <trkpt lat="48.3748" lon="6.83741">
        <ele>474.9</ele>
        <time>2012-04-15T07:59:15Z</time>
      </trkpt>
      <trkpt lat="48.37473" lon="6.83746">
        <ele>474.7</ele>
        <time>2012-04-15T07:59:17Z</time>
      </trkpt>
      <trkpt lat="48.37467" lon="6.83752">
        <ele>474.7</ele>
        <time>2012-04-15T07:59:19Z</time>
      </trkpt>
      <trkpt lat="48.37461" lon="6.83758">
        <ele>474.6</ele>
        <time>2012-04-15T07:59:21Z</time>
      </trkpt>
      <trkpt lat="48.37456" lon="6.83764">
        <ele>474.5</ele>
        <time>2012-04-15T07:59:23Z</time>
      </trkpt>
      <trkpt lat="48.37451" lon="6.8377">
        <ele>474.7</ele>
        <time>2012-04-15T07:59:25Z</time>
      </trkpt>
      <trkpt lat="48.37444" lon="6.83779">
        <ele>474.7</ele>
        <time>2012-04-15T07:59:28Z</time>
      </trkpt>
      <trkpt lat="48.37442" lon="6.83783">
        <ele>474.5</ele>
        <time>2012-04-15T07:59:29Z</time>
      </trkpt>
      <trkpt lat="48.37433" lon="6.83793">
        <ele>473.5</ele>
        <time>2012-04-15T07:59:33Z</time>
      </trkpt>
      <trkpt lat="48.37427" lon="6.83801">
        <ele>474</ele>
        <time>2012-04-15T07:59:35Z</time>
      </trkpt>
      <trkpt lat="48.37423" lon="6.83809">
        <ele>473.9</ele>
        <time>2012-04-15T07:59:37Z</time>
      </trkpt>
      <trkpt lat="48.3742" lon="6.83817">
        <ele>473.6</ele>
        <time>2012-04-15T07:59:39Z</time>
      </trkpt>
      <trkpt lat="48.37416" lon="6.83828">
        <ele>473.6</ele>
        <time>2012-04-15T07:59:41Z</time>
      </trkpt>
      <trkpt lat="48.37413" lon="6.8384">
        <ele>473.6</ele>
        <time>2012-04-15T07:59:43Z</time>
      </trkpt>
      <trkpt lat="48.3741" lon="6.83851">
        <ele>473.7</ele>
        <time>2012-04-15T07:59:45Z</time>
      </trkpt>
      <trkpt lat="48.37408" lon="6.83862">
        <ele>473.6</ele>
        <time>2012-04-15T07:59:47Z</time>
      </trkpt>
      <trkpt lat="48.37404" lon="6.83871">
        <ele>473.3</ele>
        <time>2012-04-15T07:59:49Z</time>
      </trkpt>
      <trkpt lat="48.37402" lon="6.83884">
        <ele>473.1</ele>
        <time>2012-04-15T07:59:52Z</time>
      </trkpt>
      <trkpt lat="48.37398" lon="6.83891">
        <ele>472.2</ele>
        <time>2012-04-15T07:59:54Z</time>
      </trkpt>
      <trkpt lat="48.37394" lon="6.83903">
        <ele>472.3</ele>
        <time>2012-04-15T07:59:57Z</time>
      </trkpt>
      <trkpt lat="48.37392" lon="6.83912">
        <ele>472.5</ele>
        <time>2012-04-15T07:59:59Z</time>
      </trkpt>
      <trkpt lat="48.37389" lon="6.83924">
        <ele>472.2</ele>
        <time>2012-04-15T08:00:01Z</time>
      </trkpt>
      <trkpt lat="48.37387" lon="6.83935">
        <ele>472.4</ele>
        <time>2012-04-15T08:00:03Z</time>
      </trkpt>
      <trkpt lat="48.37384" lon="6.83944">
        <ele>472.8</ele>
        <time>2012-04-15T08:00:05Z</time>
      </trkpt>
      <trkpt lat="48.37381" lon="6.83952">
        <ele>472.5</ele>
        <time>2012-04-15T08:00:07Z</time>
      </trkpt>
      <trkpt lat="48.37378" lon="6.83963">
        <ele>472.6</ele>
        <time>2012-04-15T08:00:09Z</time>
      </trkpt>
      <trkpt lat="48.37374" lon="6.83974">
        <ele>473</ele>
        <time>2012-04-15T08:00:11Z</time>
      </trkpt>
      <trkpt lat="48.37372" lon="6.83985">
        <ele>472.8</ele>
        <time>2012-04-15T08:00:14Z</time>
      </trkpt>
      <trkpt lat="48.3737" lon="6.83996">
        <ele>473.1</ele>
        <time>2012-04-15T08:00:17Z</time>
      </trkpt>
      <trkpt lat="48.37367" lon="6.84005">
        <ele>473.5</ele>
        <time>2012-04-15T08:00:20Z</time>
      </trkpt>
      <trkpt lat="48.37363" lon="6.84018">
        <ele>473.3</ele>
        <time>2012-04-15T08:00:24Z</time>
      </trkpt>
      <trkpt lat="48.37361" lon="6.84022">
        <ele>473</ele>
        <time>2012-04-15T08:00:25Z</time>
      </trkpt>
      <trkpt lat="48.37357" lon="6.84028">
        <ele>472.8</ele>
        <time>2012-04-15T08:00:26Z</time>
      </trkpt>
      <trkpt lat="48.37354" lon="6.84035">
        <ele>472.7</ele>
        <time>2012-04-15T08:00:27Z</time>
      </trkpt>
      <trkpt lat="48.37354" lon="6.84048">
        <ele>472</ele>
        <time>2012-04-15T08:00:29Z</time>
      </trkpt>
      <trkpt lat="48.37354" lon="6.84053">
        <ele>471.8</ele>
        <time>2012-04-15T08:00:30Z</time>
      </trkpt>
      <trkpt lat="48.37352" lon="6.8407">
        <ele>471.2</ele>
        <time>2012-04-15T08:00:33Z</time>
      </trkpt>
      <trkpt lat="48.37351" lon="6.84083">
        <ele>471.1</ele>
        <time>2012-04-15T08:00:35Z</time>
      </trkpt>
      <trkpt lat="48.3735" lon="6.84091">
        <ele>471.2</ele>
        <time>2012-04-15T08:00:36Z</time>
      </trkpt>
      <trkpt lat="48.3735" lon="6.84099">
        <ele>471.2</ele>
        <time>2012-04-15T08:00:37Z</time>
      </trkpt>
      <trkpt lat="48.3735" lon="6.84109">
        <ele>471.5</ele>
        <time>2012-04-15T08:00:38Z</time>
      </trkpt>
      <trkpt lat="48.3735" lon="6.84118">
        <ele>471.8</ele>
        <time>2012-04-15T08:00:39Z</time>
      </trkpt>
      <trkpt lat="48.3735" lon="6.84127">
        <ele>472</ele>
        <time>2012-04-15T08:00:40Z</time>
      </trkpt>
      <trkpt lat="48.37351" lon="6.84134">
        <ele>471.9</ele>
        <time>2012-04-15T08:00:41Z</time>
      </trkpt>
      <trkpt lat="48.37353" lon="6.84147">
        <ele>471.9</ele>
        <time>2012-04-15T08:00:43Z</time>
      </trkpt>
      <trkpt lat="48.37352" lon="6.84159">
        <ele>471.3</ele>
        <time>2012-04-15T08:00:46Z</time>
      </trkpt>
      <trkpt lat="48.37349" lon="6.84169">
        <ele>471.8</ele>
        <time>2012-04-15T08:00:49Z</time>
      </trkpt>
      <trkpt lat="48.37346" lon="6.84181">
        <ele>471.5</ele>
        <time>2012-04-15T08:00:52Z</time>
      </trkpt>
      <trkpt lat="48.37344" lon="6.84191">
        <ele>470.5</ele>
        <time>2012-04-15T08:00:54Z</time>
      </trkpt>
      <trkpt lat="48.37344" lon="6.842">
        <ele>469.5</ele>
        <time>2012-04-15T08:00:56Z</time>
      </trkpt>
      <trkpt lat="48.37344" lon="6.84211">
        <ele>468.5</ele>
        <time>2012-04-15T08:00:59Z</time>
      </trkpt>
      <trkpt lat="48.37343" lon="6.84224">
        <ele>467.2</ele>
        <time>2012-04-15T08:01:02Z</time>
      </trkpt>
      <trkpt lat="48.37343" lon="6.8423">
        <ele>467.5</ele>
        <time>2012-04-15T08:01:03Z</time>
      </trkpt>
      <trkpt lat="48.37343" lon="6.84238">
        <ele>467.6</ele>
        <time>2012-04-15T08:01:04Z</time>
      </trkpt>
      <trkpt lat="48.37343" lon="6.84247">
        <ele>467.7</ele>
        <time>2012-04-15T08:01:05Z</time>
      </trkpt>
      <trkpt lat="48.37343" lon="6.84256">
        <ele>467.8</ele>
        <time>2012-04-15T08:01:06Z</time>
      </trkpt>
      <trkpt lat="48.37343" lon="6.84266">
        <ele>467.2</ele>
        <time>2012-04-15T08:01:07Z</time>
      </trkpt>
      <trkpt lat="48.37343" lon="6.84277">
        <ele>466.8</ele>
        <time>2012-04-15T08:01:08Z</time>
      </trkpt>
      <trkpt lat="48.37343" lon="6.84289">
        <ele>466.5</ele>
        <time>2012-04-15T08:01:09Z</time>
      </trkpt>
      <trkpt lat="48.37344" lon="6.84299">
        <ele>465.6</ele>
        <time>2012-04-15T08:01:10Z</time>
      </trkpt>
      <trkpt lat="48.37345" lon="6.84309">
        <ele>465</ele>
        <time>2012-04-15T08:01:11Z</time>
      </trkpt>
      <trkpt lat="48.37347" lon="6.84319">
        <ele>464.5</ele>
        <time>2012-04-15T08:01:12Z</time>
      </trkpt>
      <trkpt lat="48.37347" lon="6.84331">
        <ele>464</ele>
        <time>2012-04-15T08:01:13Z</time>
      </trkpt>
      <trkpt lat="48.37347" lon="6.84345">
        <ele>463.6</ele>
        <time>2012-04-15T08:01:14Z</time>
      </trkpt>
      <trkpt lat="48.37348" lon="6.8436">
        <ele>463.3</ele>
        <time>2012-04-15T08:01:15Z</time>
      </trkpt>
      <trkpt lat="48.37348" lon="6.84373">
        <ele>462.9</ele>
        <time>2012-04-15T08:01:16Z</time>
      </trkpt>
      <trkpt lat="48.37349" lon="6.84388">
        <ele>462.5</ele>
        <time>2012-04-15T08:01:17Z</time>
      </trkpt>
      <trkpt lat="48.37349" lon="6.84401">
        <ele>462.2</ele>
        <time>2012-04-15T08:01:18Z</time>
      </trkpt>
      <trkpt lat="48.3735" lon="6.84414">
        <ele>460.7</ele>
        <time>2012-04-15T08:01:19Z</time>
      </trkpt>
      <trkpt lat="48.3735" lon="6.84426">
        <ele>459.5</ele>
        <time>2012-04-15T08:01:20Z</time>
      </trkpt>
      <trkpt lat="48.37349" lon="6.84438">
        <ele>458.6</ele>
        <time>2012-04-15T08:01:21Z</time>
      </trkpt>
      <trkpt lat="48.37349" lon="6.8445">
        <ele>457.7</ele>
        <time>2012-04-15T08:01:22Z</time>
      </trkpt>
      <trkpt lat="48.37346" lon="6.84464">
        <ele>457</ele>
        <time>2012-04-15T08:01:23Z</time>
      </trkpt>
      <trkpt lat="48.37344" lon="6.84478">
        <ele>456.5</ele>
        <time>2012-04-15T08:01:24Z</time>
      </trkpt>
      <trkpt lat="48.37341" lon="6.84493">
        <ele>456.2</ele>
        <time>2012-04-15T08:01:25Z</time>
      </trkpt>
      <trkpt lat="48.37338" lon="6.84507">
        <ele>455.1</ele>
        <time>2012-04-15T08:01:26Z</time>
      </trkpt>
      <trkpt lat="48.37335" lon="6.84521">
        <ele>454.4</ele>
        <time>2012-04-15T08:01:27Z</time>
      </trkpt>
      <trkpt lat="48.37333" lon="6.84535">
        <ele>453.8</ele>
        <time>2012-04-15T08:01:28Z</time>
      </trkpt>
      <trkpt lat="48.37333" lon="6.84548">
        <ele>452.9</ele>
        <time>2012-04-15T08:01:29Z</time>
      </trkpt>
      <trkpt lat="48.37334" lon="6.84562">
        <ele>452.2</ele>
        <time>2012-04-15T08:01:30Z</time>
      </trkpt>
      <trkpt lat="48.37335" lon="6.84576">
        <ele>451.7</ele>
        <time>2012-04-15T08:01:31Z</time>
      </trkpt>
      <trkpt lat="48.37336" lon="6.84588">
        <ele>450.1</ele>
        <time>2012-04-15T08:01:32Z</time>
      </trkpt>
      <trkpt lat="48.37337" lon="6.846">
        <ele>448.9</ele>
        <time>2012-04-15T08:01:33Z</time>
      </trkpt>
      <trkpt lat="48.37339" lon="6.8461">
        <ele>448</ele>
        <time>2012-04-15T08:01:34Z</time>
      </trkpt>
      <trkpt lat="48.3734" lon="6.84623">
        <ele>447.4</ele>
        <time>2012-04-15T08:01:35Z</time>
      </trkpt>
      <trkpt lat="48.3734" lon="6.84637">
        <ele>446.9</ele>
        <time>2012-04-15T08:01:36Z</time>
      </trkpt>
      <trkpt lat="48.37341" lon="6.84651">
        <ele>446.5</ele>
        <time>2012-04-15T08:01:37Z</time>
      </trkpt>
      <trkpt lat="48.37342" lon="6.84662">
        <ele>445.5</ele>
        <time>2012-04-15T08:01:38Z</time>
      </trkpt>
      <trkpt lat="48.37343" lon="6.84676">
        <ele>444.7</ele>
        <time>2012-04-15T08:01:39Z</time>
      </trkpt>
      <trkpt lat="48.37344" lon="6.84691">
        <ele>444.1</ele>
        <time>2012-04-15T08:01:40Z</time>
      </trkpt>
      <trkpt lat="48.37346" lon="6.84704">
        <ele>443.7</ele>
        <time>2012-04-15T08:01:41Z</time>
      </trkpt>
      <trkpt lat="48.37349" lon="6.84717">
        <ele>443.2</ele>
        <time>2012-04-15T08:01:42Z</time>
      </trkpt>
      <trkpt lat="48.37351" lon="6.84728">
        <ele>442.7</ele>
        <time>2012-04-15T08:01:43Z</time>
      </trkpt>
      <trkpt lat="48.37352" lon="6.84741">
        <ele>442.4</ele>
        <time>2012-04-15T08:01:44Z</time>
      </trkpt>
      <trkpt lat="48.37355" lon="6.84753">
        <ele>441.9</ele>
        <time>2012-04-15T08:01:45Z</time>
      </trkpt>
      <trkpt lat="48.37356" lon="6.84764">
        <ele>441.4</ele>
        <time>2012-04-15T08:01:46Z</time>
      </trkpt>
      <trkpt lat="48.37358" lon="6.84775">
        <ele>441.1</ele>
        <time>2012-04-15T08:01:47Z</time>
      </trkpt>
      <trkpt lat="48.3736" lon="6.84785">
        <ele>440.4</ele>
        <time>2012-04-15T08:01:48Z</time>
      </trkpt>
      <trkpt lat="48.3736" lon="6.84795">
        <ele>439.8</ele>
        <time>2012-04-15T08:01:49Z</time>
      </trkpt>
      <trkpt lat="48.37359" lon="6.84803">
        <ele>439.4</ele>
        <time>2012-04-15T08:01:50Z</time>
      </trkpt>
      <trkpt lat="48.37356" lon="6.84815">
        <ele>438.4</ele>
        <time>2012-04-15T08:01:52Z</time>
      </trkpt>
      <trkpt lat="48.37352" lon="6.84824">
        <ele>437.9</ele>
        <time>2012-04-15T08:01:54Z</time>
      </trkpt>
      <trkpt lat="48.37347" lon="6.84834">
        <ele>437.5</ele>
        <time>2012-04-15T08:01:56Z</time>
      </trkpt>
      <trkpt lat="48.37344" lon="6.8484">
        <ele>437.4</ele>
        <time>2012-04-15T08:01:57Z</time>
      </trkpt>
      <trkpt lat="48.37341" lon="6.84847">
        <ele>437.7</ele>
        <time>2012-04-15T08:01:58Z</time>
      </trkpt>
      <trkpt lat="48.37339" lon="6.84854">
        <ele>437.9</ele>
        <time>2012-04-15T08:01:59Z</time>
      </trkpt>
      <trkpt lat="48.37337" lon="6.84862">
        <ele>438</ele>
        <time>2012-04-15T08:02:00Z</time>
      </trkpt>
      <trkpt lat="48.37334" lon="6.84869">
        <ele>438</ele>
        <time>2012-04-15T08:02:01Z</time>
      </trkpt>
      <trkpt lat="48.37332" lon="6.84876">
        <ele>438.1</ele>
        <time>2012-04-15T08:02:02Z</time>
      </trkpt>
      <trkpt lat="48.37329" lon="6.84883">
        <ele>438.1</ele>
        <time>2012-04-15T08:02:03Z</time>
      </trkpt>
      <trkpt lat="48.37328" lon="6.8489">
        <ele>438.3</ele>
        <time>2012-04-15T08:02:04Z</time>
      </trkpt>
      <trkpt lat="48.37326" lon="6.84898">
        <ele>438.4</ele>
        <time>2012-04-15T08:02:05Z</time>
      </trkpt>
      <trkpt lat="48.37324" lon="6.84905">
        <ele>438.5</ele>
        <time>2012-04-15T08:02:06Z</time>
      </trkpt>
      <trkpt lat="48.37322" lon="6.84912">
        <ele>438.2</ele>
        <time>2012-04-15T08:02:07Z</time>
      </trkpt>
      <trkpt lat="48.3732" lon="6.8492">
        <ele>437.9</ele>
        <time>2012-04-15T08:02:08Z</time>
      </trkpt>
      <trkpt lat="48.37318" lon="6.84927">
        <ele>437.8</ele>
        <time>2012-04-15T08:02:09Z</time>
      </trkpt>
      <trkpt lat="48.37316" lon="6.84935">
        <ele>438</ele>
        <time>2012-04-15T08:02:10Z</time>
      </trkpt>
      <trkpt lat="48.37314" lon="6.84941">
        <ele>438.2</ele>
        <time>2012-04-15T08:02:11Z</time>
      </trkpt>
      <trkpt lat="48.37313" lon="6.84947">
        <ele>438.3</ele>
        <time>2012-04-15T08:02:12Z</time>
      </trkpt>
      <trkpt lat="48.37311" lon="6.84954">
        <ele>438.4</ele>
        <time>2012-04-15T08:02:13Z</time>
      </trkpt>
      <trkpt lat="48.3731" lon="6.84961">
        <ele>438</ele>
        <time>2012-04-15T08:02:14Z</time>
      </trkpt>
      <trkpt lat="48.3731" lon="6.84969">
        <ele>437.7</ele>
        <time>2012-04-15T08:02:15Z</time>
      </trkpt>
      <trkpt lat="48.37308" lon="6.84977">
        <ele>437.4</ele>
        <time>2012-04-15T08:02:16Z</time>
      </trkpt>
      <trkpt lat="48.37306" lon="6.84985">
        <ele>437.5</ele>
        <time>2012-04-15T08:02:17Z</time>
      </trkpt>
      <trkpt lat="48.37302" lon="6.84993">
        <ele>437.6</ele>
        <time>2012-04-15T08:02:18Z</time>
      </trkpt>
      <trkpt lat="48.37299" lon="6.85002">
        <ele>437.6</ele>
        <time>2012-04-15T08:02:19Z</time>
      </trkpt>
      <trkpt lat="48.37296" lon="6.8501">
        <ele>437.9</ele>
        <time>2012-04-15T08:02:20Z</time>
      </trkpt>
      <trkpt lat="48.37293" lon="6.85018">
        <ele>438.2</ele>
        <time>2012-04-15T08:02:21Z</time>
      </trkpt>
      <trkpt lat="48.37291" lon="6.85026">
        <ele>438.4</ele>
        <time>2012-04-15T08:02:22Z</time>
      </trkpt>
      <trkpt lat="48.37289" lon="6.85038">
        <ele>438.1</ele>
        <time>2012-04-15T08:02:24Z</time>
      </trkpt>
      <trkpt lat="48.37286" lon="6.85048">
        <ele>437.4</ele>
        <time>2012-04-15T08:02:26Z</time>
      </trkpt>
      <trkpt lat="48.37284" lon="6.85056">
        <ele>436.6</ele>
        <time>2012-04-15T08:02:28Z</time>
      </trkpt>
      <trkpt lat="48.37282" lon="6.85066">
        <ele>436.7</ele>
        <time>2012-04-15T08:02:30Z</time>
      </trkpt>
      <trkpt lat="48.37281" lon="6.85076">
        <ele>436.7</ele>
        <time>2012-04-15T08:02:32Z</time>
      </trkpt>
      <trkpt lat="48.3728" lon="6.85082">
        <ele>436.6</ele>
        <time>2012-04-15T08:02:33Z</time>
      </trkpt>
      <trkpt lat="48.37278" lon="6.85096">
        <ele>436.4</ele>
        <time>2012-04-15T08:02:35Z</time>
      </trkpt>
      <trkpt lat="48.37277" lon="6.85104">
        <ele>436.8</ele>
        <time>2012-04-15T08:02:36Z</time>
      </trkpt>
      <trkpt lat="48.37277" lon="6.85112">
        <ele>437.1</ele>
        <time>2012-04-15T08:02:37Z</time>
      </trkpt>
      <trkpt lat="48.37276" lon="6.85123">
        <ele>437.2</ele>
        <time>2012-04-15T08:02:39Z</time>
      </trkpt>
      <trkpt lat="48.37275" lon="6.85134">
        <ele>436.9</ele>
        <time>2012-04-15T08:02:42Z</time>
      </trkpt>
      <trkpt lat="48.37274" lon="6.85144">
        <ele>436.9</ele>
        <time>2012-04-15T08:02:44Z</time>
      </trkpt>
      <trkpt lat="48.37273" lon="6.85156">
        <ele>436.5</ele>
        <time>2012-04-15T08:02:46Z</time>
      </trkpt>
      <trkpt lat="48.37273" lon="6.85169">
        <ele>436.2</ele>
        <time>2012-04-15T08:02:48Z</time>
      </trkpt>
      <trkpt lat="48.37274" lon="6.85175">
        <ele>436.2</ele>
        <time>2012-04-15T08:02:49Z</time>
      </trkpt>
      <trkpt lat="48.37275" lon="6.85183">
        <ele>436.2</ele>
        <time>2012-04-15T08:02:50Z</time>
      </trkpt>
      <trkpt lat="48.37277" lon="6.85191">
        <ele>436.2</ele>
        <time>2012-04-15T08:02:51Z</time>
      </trkpt>
      <trkpt lat="48.37279" lon="6.85199">
        <ele>435.6</ele>
        <time>2012-04-15T08:02:52Z</time>
      </trkpt>
      <trkpt lat="48.37281" lon="6.85206">
        <ele>435</ele>
        <time>2012-04-15T08:02:53Z</time>
      </trkpt>
      <trkpt lat="48.37283" lon="6.85213">
        <ele>434.6</ele>
        <time>2012-04-15T08:02:54Z</time>
      </trkpt>
      <trkpt lat="48.37284" lon="6.85219">
        <ele>434.7</ele>
        <time>2012-04-15T08:02:55Z</time>
      </trkpt>
      <trkpt lat="48.37287" lon="6.8523">
        <ele>434.9</ele>
        <time>2012-04-15T08:02:57Z</time>
      </trkpt>
      <trkpt lat="48.3729" lon="6.85238">
        <ele>434.5</ele>
        <time>2012-04-15T08:02:59Z</time>
      </trkpt>
      <trkpt lat="48.37295" lon="6.8525">
        <ele>434.9</ele>
        <time>2012-04-15T08:03:02Z</time>
      </trkpt>
      <trkpt lat="48.37297" lon="6.85263">
        <ele>435.5</ele>
        <time>2012-04-15T08:03:06Z</time>
      </trkpt>
      <trkpt lat="48.37301" lon="6.85276">
        <ele>435.6</ele>
        <time>2012-04-15T08:03:09Z</time>
      </trkpt>
      <trkpt lat="48.37303" lon="6.85287">
        <ele>435.6</ele>
        <time>2012-04-15T08:03:11Z</time>
      </trkpt>
      <trkpt lat="48.37306" lon="6.85297">
        <ele>435.5</ele>
        <time>2012-04-15T08:03:13Z</time>
      </trkpt>
      <trkpt lat="48.37308" lon="6.85306">
        <ele>435.6</ele>
        <time>2012-04-15T08:03:15Z</time>
      </trkpt>
      <trkpt lat="48.3731" lon="6.85318">
        <ele>435.8</ele>
        <time>2012-04-15T08:03:17Z</time>
      </trkpt>
      <trkpt lat="48.37313" lon="6.85328">
        <ele>436.1</ele>
        <time>2012-04-15T08:03:19Z</time>
      </trkpt>
      <trkpt lat="48.37315" lon="6.85338">
        <ele>435.7</ele>
        <time>2012-04-15T08:03:21Z</time>
      </trkpt>
      <trkpt lat="48.37318" lon="6.85348">
        <ele>435.1</ele>
        <time>2012-04-15T08:03:23Z</time>
      </trkpt>
      <trkpt lat="48.3732" lon="6.85355">
        <ele>435.3</ele>
        <time>2012-04-15T08:03:24Z</time>
      </trkpt>
      <trkpt lat="48.37322" lon="6.85363">
        <ele>435.4</ele>
        <time>2012-04-15T08:03:25Z</time>
      </trkpt>
      <trkpt lat="48.37324" lon="6.85371">
        <ele>435.4</ele>
        <time>2012-04-15T08:03:26Z</time>
      </trkpt>
      <trkpt lat="48.37326" lon="6.85378">
        <ele>435.5</ele>
        <time>2012-04-15T08:03:27Z</time>
      </trkpt>
      <trkpt lat="48.37327" lon="6.85386">
        <ele>435.5</ele>
        <time>2012-04-15T08:03:28Z</time>
      </trkpt>
      <trkpt lat="48.37329" lon="6.85393">
        <ele>435.6</ele>
        <time>2012-04-15T08:03:29Z</time>
      </trkpt>
      <trkpt lat="48.37331" lon="6.85405">
        <ele>435.3</ele>
        <time>2012-04-15T08:03:31Z</time>
      </trkpt>
      <trkpt lat="48.37331" lon="6.85416">
        <ele>435</ele>
        <time>2012-04-15T08:03:33Z</time>
      </trkpt>
      <trkpt lat="48.3733" lon="6.85423">
        <ele>434.8</ele>
        <time>2012-04-15T08:03:34Z</time>
      </trkpt>
      <trkpt lat="48.37329" lon="6.85441">
        <ele>434.8</ele>
        <time>2012-04-15T08:03:37Z</time>
      </trkpt>
      <trkpt lat="48.37328" lon="6.85452">
        <ele>435</ele>
        <time>2012-04-15T08:03:39Z</time>
      </trkpt>
      <trkpt lat="48.37327" lon="6.85462">
        <ele>434.9</ele>
        <time>2012-04-15T08:03:41Z</time>
      </trkpt>
      <trkpt lat="48.37327" lon="6.85473">
        <ele>434.7</ele>
        <time>2012-04-15T08:03:43Z</time>
      </trkpt>
      <trkpt lat="48.37326" lon="6.85483">
        <ele>434.4</ele>
        <time>2012-04-15T08:03:45Z</time>
      </trkpt>
      <trkpt lat="48.37327" lon="6.85494">
        <ele>435.1</ele>
        <time>2012-04-15T08:03:47Z</time>
      </trkpt>
      <trkpt lat="48.37327" lon="6.85504">
        <ele>435.4</ele>
        <time>2012-04-15T08:03:49Z</time>
      </trkpt>
      <trkpt lat="48.37327" lon="6.85514">
        <ele>435.6</ele>
        <time>2012-04-15T08:03:51Z</time>
      </trkpt>
      <trkpt lat="48.37327" lon="6.85525">
        <ele>435.8</ele>
        <time>2012-04-15T08:03:53Z</time>
      </trkpt>
      <trkpt lat="48.37326" lon="6.85535">
        <ele>436</ele>
        <time>2012-04-15T08:03:55Z</time>
      </trkpt>
      <trkpt lat="48.37325" lon="6.85545">
        <ele>435.9</ele>
        <time>2012-04-15T08:03:57Z</time>
      </trkpt>
      <trkpt lat="48.37324" lon="6.85553">
        <ele>435.8</ele>
        <time>2012-04-15T08:03:59Z</time>
      </trkpt>
      <trkpt lat="48.37321" lon="6.85563">
        <ele>435.8</ele>
        <time>2012-04-15T08:04:01Z</time>
      </trkpt>
      <trkpt lat="48.3732" lon="6.85576">
        <ele>434.8</ele>
        <time>2012-04-15T08:04:04Z</time>
      </trkpt>
      <trkpt lat="48.37319" lon="6.85585">
        <ele>435.3</ele>
        <time>2012-04-15T08:04:06Z</time>
      </trkpt>
      <trkpt lat="48.37319" lon="6.85596">
        <ele>435</ele>
        <time>2012-04-15T08:04:08Z</time>
      </trkpt>
      <trkpt lat="48.37317" lon="6.85606">
        <ele>434.4</ele>
        <time>2012-04-15T08:04:10Z</time>
      </trkpt>
      <trkpt lat="48.37317" lon="6.85616">
        <ele>434.9</ele>
        <time>2012-04-15T08:04:12Z</time>
      </trkpt>
      <trkpt lat="48.37318" lon="6.85629">
        <ele>435.7</ele>
        <time>2012-04-15T08:04:15Z</time>
      </trkpt>
      <trkpt lat="48.37318" lon="6.8564">
        <ele>435.6</ele>
        <time>2012-04-15T08:04:17Z</time>
      </trkpt>
      <trkpt lat="48.37318" lon="6.8565">
        <ele>435.8</ele>
        <time>2012-04-15T08:04:19Z</time>
      </trkpt>
      <trkpt lat="48.37319" lon="6.85661">
        <ele>435.8</ele>
        <time>2012-04-15T08:04:21Z</time>
      </trkpt>
      <trkpt lat="48.3732" lon="6.85671">
        <ele>435.7</ele>
        <time>2012-04-15T08:04:23Z</time>
      </trkpt>
      <trkpt lat="48.37322" lon="6.85682">
        <ele>436.6</ele>
        <time>2012-04-15T08:04:25Z</time>
      </trkpt>
      <trkpt lat="48.37323" lon="6.85695">
        <ele>437</ele>
        <time>2012-04-15T08:04:28Z</time>
      </trkpt>
      <trkpt lat="48.37323" lon="6.85705">
        <ele>436.9</ele>
        <time>2012-04-15T08:04:30Z</time>
      </trkpt>
      <trkpt lat="48.37326" lon="6.85717">
        <ele>436.5</ele>
        <time>2012-04-15T08:04:33Z</time>
      </trkpt>
      <trkpt lat="48.37327" lon="6.85727">
        <ele>436.9</ele>
        <time>2012-04-15T08:04:36Z</time>
      </trkpt>
      <trkpt lat="48.37328" lon="6.85731">
        <ele>437</ele>
        <time>2012-04-15T08:04:37Z</time>
      </trkpt>
      <trkpt lat="48.3733" lon="6.85745">
        <ele>437</ele>
        <time>2012-04-15T08:04:40Z</time>
      </trkpt>
      <trkpt lat="48.37334" lon="6.85756">
        <ele>436.9</ele>
        <time>2012-04-15T08:04:43Z</time>
      </trkpt>
      <trkpt lat="48.37338" lon="6.85763">
        <ele>436.8</ele>
        <time>2012-04-15T08:04:45Z</time>
      </trkpt>
      <trkpt lat="48.37342" lon="6.85772">
        <ele>437</ele>
        <time>2012-04-15T08:04:47Z</time>
      </trkpt>
      <trkpt lat="48.37347" lon="6.85778">
        <ele>437.3</ele>
        <time>2012-04-15T08:04:49Z</time>
      </trkpt>
      <trkpt lat="48.37351" lon="6.85785">
        <ele>437.5</ele>
        <time>2012-04-15T08:04:51Z</time>
      </trkpt>
      <trkpt lat="48.37357" lon="6.85793">
        <ele>437.2</ele>
        <time>2012-04-15T08:04:53Z</time>
      </trkpt>
      <trkpt lat="48.37364" lon="6.85799">
        <ele>436.6</ele>
        <time>2012-04-15T08:04:55Z</time>
      </trkpt>
      <trkpt lat="48.37371" lon="6.85803">
        <ele>436.7</ele>
        <time>2012-04-15T08:04:57Z</time>
      </trkpt>
      <trkpt lat="48.37378" lon="6.85808">
        <ele>437.1</ele>
        <time>2012-04-15T08:05:00Z</time>
      </trkpt>
      <trkpt lat="48.37383" lon="6.85812">
        <ele>437.7</ele>
        <time>2012-04-15T08:05:02Z</time>
      </trkpt>
      <trkpt lat="48.37389" lon="6.85816">
        <ele>438.7</ele>
        <time>2012-04-15T08:05:04Z</time>
      </trkpt>
      <trkpt lat="48.37396" lon="6.85821">
        <ele>439.7</ele>
        <time>2012-04-15T08:05:06Z</time>
      </trkpt>
      <trkpt lat="48.37402" lon="6.85822">
        <ele>440.5</ele>
        <time>2012-04-15T08:05:08Z</time>
      </trkpt>
      <trkpt lat="48.37408" lon="6.85827">
        <ele>440.4</ele>
        <time>2012-04-15T08:05:10Z</time>
      </trkpt>
      <trkpt lat="48.37414" lon="6.8583">
        <ele>440.5</ele>
        <time>2012-04-15T08:05:12Z</time>
      </trkpt>
      <trkpt lat="48.37421" lon="6.85833">
        <ele>440.7</ele>
        <time>2012-04-15T08:05:14Z</time>
      </trkpt>
      <trkpt lat="48.37428" lon="6.85838">
        <ele>441.2</ele>
        <time>2012-04-15T08:05:16Z</time>
      </trkpt>
      <trkpt lat="48.37436" lon="6.85843">
        <ele>441.7</ele>
        <time>2012-04-15T08:05:18Z</time>
      </trkpt>
      <trkpt lat="48.37442" lon="6.85846">
        <ele>442.1</ele>
        <time>2012-04-15T08:05:20Z</time>
      </trkpt>
      <trkpt lat="48.37449" lon="6.85851">
        <ele>442.7</ele>
        <time>2012-04-15T08:05:22Z</time>
      </trkpt>
      <trkpt lat="48.37456" lon="6.85855">
        <ele>443.5</ele>
        <time>2012-04-15T08:05:24Z</time>
      </trkpt>
      <trkpt lat="48.37464" lon="6.85859">
        <ele>444.5</ele>
        <time>2012-04-15T08:05:26Z</time>
      </trkpt>
      <trkpt lat="48.37471" lon="6.85863">
        <ele>445.3</ele>
        <time>2012-04-15T08:05:28Z</time>
      </trkpt>
      <trkpt lat="48.37479" lon="6.85869">
        <ele>446</ele>
        <time>2012-04-15T08:05:30Z</time>
      </trkpt>
      <trkpt lat="48.37486" lon="6.85875">
        <ele>447.4</ele>
        <time>2012-04-15T08:05:32Z</time>
      </trkpt>
      <trkpt lat="48.37494" lon="6.85882">
        <ele>448.1</ele>
        <time>2012-04-15T08:05:34Z</time>
      </trkpt>
      <trkpt lat="48.37498" lon="6.85886">
        <ele>448.2</ele>
        <time>2012-04-15T08:05:35Z</time>
      </trkpt>
      <trkpt lat="48.37502" lon="6.85892">
        <ele>448.3</ele>
        <time>2012-04-15T08:05:36Z</time>
      </trkpt>
      <trkpt lat="48.37506" lon="6.85896">
        <ele>448.3</ele>
        <time>2012-04-15T08:05:37Z</time>
      </trkpt>
      <trkpt lat="48.37511" lon="6.85902">
        <ele>448.2</ele>
        <time>2012-04-15T08:05:38Z</time>
      </trkpt>
      <trkpt lat="48.37516" lon="6.85907">
        <ele>448.1</ele>
        <time>2012-04-15T08:05:39Z</time>
      </trkpt>
      <trkpt lat="48.3752" lon="6.85913">
        <ele>448.1</ele>
        <time>2012-04-15T08:05:40Z</time>
      </trkpt>
      <trkpt lat="48.37524" lon="6.85917">
        <ele>448</ele>
        <time>2012-04-15T08:05:41Z</time>
      </trkpt>
      <trkpt lat="48.37529" lon="6.85922">
        <ele>447.9</ele>
        <time>2012-04-15T08:05:42Z</time>
      </trkpt>
      <trkpt lat="48.37533" lon="6.85927">
        <ele>447.9</ele>
        <time>2012-04-15T08:05:43Z</time>
      </trkpt>
      <trkpt lat="48.3754" lon="6.85933">
        <ele>449.1</ele>
        <time>2012-04-15T08:05:45Z</time>
      </trkpt>
      <trkpt lat="48.37547" lon="6.85939">
        <ele>450.1</ele>
        <time>2012-04-15T08:05:48Z</time>
      </trkpt>
      <trkpt lat="48.37552" lon="6.85946">
        <ele>450.8</ele>
        <time>2012-04-15T08:05:51Z</time>
      </trkpt>
      <trkpt lat="48.37558" lon="6.85953">
        <ele>451.6</ele>
        <time>2012-04-15T08:05:54Z</time>
      </trkpt>
      <trkpt lat="48.37563" lon="6.85961">
        <ele>452.8</ele>
        <time>2012-04-15T08:05:57Z</time>
      </trkpt>
      <trkpt lat="48.37569" lon="6.85969">
        <ele>454.3</ele>
        <time>2012-04-15T08:06:00Z</time>
      </trkpt>
      <trkpt lat="48.37575" lon="6.85979">
        <ele>454.7</ele>
        <time>2012-04-15T08:06:03Z</time>
      </trkpt>
      <trkpt lat="48.37579" lon="6.85988">
        <ele>454.6</ele>
        <time>2012-04-15T08:06:05Z</time>
      </trkpt>
      <trkpt lat="48.37583" lon="6.85998">
        <ele>454.5</ele>
        <time>2012-04-15T08:06:07Z</time>
      </trkpt>
      <trkpt lat="48.37585" lon="6.86004">
        <ele>454.5</ele>
        <time>2012-04-15T08:06:08Z</time>
      </trkpt>
      <trkpt lat="48.37588" lon="6.8601">
        <ele>454.5</ele>
        <time>2012-04-15T08:06:09Z</time>
      </trkpt>
      <trkpt lat="48.37591" lon="6.86016">
        <ele>454.2</ele>
        <time>2012-04-15T08:06:10Z</time>
      </trkpt>
      <trkpt lat="48.37594" lon="6.86022">
        <ele>453.9</ele>
        <time>2012-04-15T08:06:11Z</time>
      </trkpt>
      <trkpt lat="48.37596" lon="6.86029">
        <ele>453.7</ele>
        <time>2012-04-15T08:06:12Z</time>
      </trkpt>
      <trkpt lat="48.37597" lon="6.86038">
        <ele>453.5</ele>
        <time>2012-04-15T08:06:13Z</time>
      </trkpt>
      <trkpt lat="48.37598" lon="6.86046">
        <ele>453.3</ele>
        <time>2012-04-15T08:06:14Z</time>
      </trkpt>
      <trkpt lat="48.37599" lon="6.86055">
        <ele>453.1</ele>
        <time>2012-04-15T08:06:15Z</time>
      </trkpt>
      <trkpt lat="48.37599" lon="6.86064">
        <ele>452.6</ele>
        <time>2012-04-15T08:06:16Z</time>
      </trkpt>
      <trkpt lat="48.376" lon="6.86073">
        <ele>452.2</ele>
        <time>2012-04-15T08:06:17Z</time>
      </trkpt>
      <trkpt lat="48.37601" lon="6.86081">
        <ele>451.9</ele>
        <time>2012-04-15T08:06:18Z</time>
      </trkpt>
      <trkpt lat="48.376" lon="6.86091">
        <ele>451.3</ele>
        <time>2012-04-15T08:06:19Z</time>
      </trkpt>
      <trkpt lat="48.37598" lon="6.86102">
        <ele>450.8</ele>
        <time>2012-04-15T08:06:20Z</time>
      </trkpt>
      <trkpt lat="48.37596" lon="6.86112">
        <ele>450.5</ele>
        <time>2012-04-15T08:06:21Z</time>
      </trkpt>
      <trkpt lat="48.37594" lon="6.86121">
        <ele>450.2</ele>
        <time>2012-04-15T08:06:22Z</time>
      </trkpt>
      <trkpt lat="48.37593" lon="6.8613">
        <ele>449.7</ele>
        <time>2012-04-15T08:06:23Z</time>
      </trkpt>
      <trkpt lat="48.37592" lon="6.86139">
        <ele>449.3</ele>
        <time>2012-04-15T08:06:24Z</time>
      </trkpt>
      <trkpt lat="48.3759" lon="6.86149">
        <ele>449.1</ele>
        <time>2012-04-15T08:06:25Z</time>
      </trkpt>
      <trkpt lat="48.37588" lon="6.86158">
        <ele>448.7</ele>
        <time>2012-04-15T08:06:26Z</time>
      </trkpt>
      <trkpt lat="48.37587" lon="6.86167">
        <ele>448.4</ele>
        <time>2012-04-15T08:06:27Z</time>
      </trkpt>
      <trkpt lat="48.37586" lon="6.86176">
        <ele>448.2</ele>
        <time>2012-04-15T08:06:28Z</time>
      </trkpt>
      <trkpt lat="48.37585" lon="6.86185">
        <ele>447.6</ele>
        <time>2012-04-15T08:06:29Z</time>
      </trkpt>
      <trkpt lat="48.37584" lon="6.86194">
        <ele>447.2</ele>
        <time>2012-04-15T08:06:30Z</time>
      </trkpt>
      <trkpt lat="48.37582" lon="6.86203">
        <ele>446.9</ele>
        <time>2012-04-15T08:06:31Z</time>
      </trkpt>
      <trkpt lat="48.37582" lon="6.86211">
        <ele>446.6</ele>
        <time>2012-04-15T08:06:32Z</time>
      </trkpt>
      <trkpt lat="48.37581" lon="6.8622">
        <ele>446.4</ele>
        <time>2012-04-15T08:06:33Z</time>
      </trkpt>
      <trkpt lat="48.3758" lon="6.86229">
        <ele>446.2</ele>
        <time>2012-04-15T08:06:34Z</time>
      </trkpt>
      <trkpt lat="48.37579" lon="6.86239">
        <ele>445.9</ele>
        <time>2012-04-15T08:06:35Z</time>
      </trkpt>
      <trkpt lat="48.37577" lon="6.86248">
        <ele>445.7</ele>
        <time>2012-04-15T08:06:36Z</time>
      </trkpt>
      <trkpt lat="48.37577" lon="6.86257">
        <ele>445.5</ele>
        <time>2012-04-15T08:06:37Z</time>
      </trkpt>
      <trkpt lat="48.37576" lon="6.8627">
        <ele>444.9</ele>
        <time>2012-04-15T08:06:39Z</time>
      </trkpt>
      <trkpt lat="48.37576" lon="6.86273">
        <ele>444.7</ele>
        <time>2012-04-15T08:06:40Z</time>
      </trkpt>
      <trkpt lat="48.37576" lon="6.86296">
        <ele>443.6</ele>
        <time>2012-04-15T08:06:55Z</time>
      </trkpt>
      <trkpt lat="48.37576" lon="6.86308">
        <ele>446.3</ele>
        <time>2012-04-15T08:07:05Z</time>
      </trkpt>
      <trkpt lat="48.37576" lon="6.8632">
        <ele>447.3</ele>
        <time>2012-04-15T08:07:13Z</time>
      </trkpt>
      <trkpt lat="48.37576" lon="6.86331">
        <ele>446</ele>
        <time>2012-04-15T08:07:19Z</time>
      </trkpt>
      <trkpt lat="48.3758" lon="6.86343">
        <ele>447.7</ele>
        <time>2012-04-15T08:07:24Z</time>
      </trkpt>
      <trkpt lat="48.37586" lon="6.86353">
        <ele>447.1</ele>
        <time>2012-04-15T08:07:29Z</time>
      </trkpt>
      <trkpt lat="48.37592" lon="6.8636">
        <ele>448</ele>
        <time>2012-04-15T08:07:34Z</time>
      </trkpt>
      <trkpt lat="48.376" lon="6.86366">
        <ele>450.7</ele>
        <time>2012-04-15T08:07:39Z</time>
      </trkpt>
      <trkpt lat="48.37594" lon="6.86356">
        <ele>457.2</ele>
        <time>2012-04-15T08:08:09Z</time>
      </trkpt>
      <trkpt lat="48.37594" lon="6.86354">
        <ele>457.5</ele>
        <time>2012-04-15T08:08:10Z</time>
      </trkpt>
      <trkpt lat="48.37591" lon="6.86333">
        <ele>459</ele>
        <time>2012-04-15T08:08:21Z</time>
      </trkpt>
      <trkpt lat="48.37589" lon="6.86322">
        <ele>460.1</ele>
        <time>2012-04-15T08:08:26Z</time>
      </trkpt>
      <trkpt lat="48.37588" lon="6.8631">
        <ele>461</ele>
        <time>2012-04-15T08:08:31Z</time>
      </trkpt>
      <trkpt lat="48.37587" lon="6.86297">
        <ele>462.6</ele>
        <time>2012-04-15T08:08:36Z</time>
      </trkpt>
      <trkpt lat="48.37587" lon="6.86286">
        <ele>464.4</ele>
        <time>2012-04-15T08:08:41Z</time>
      </trkpt>
      <trkpt lat="48.37588" lon="6.86273">
        <ele>465.4</ele>
        <time>2012-04-15T08:08:45Z</time>
      </trkpt>
      <trkpt lat="48.37588" lon="6.86261">
        <ele>466.7</ele>
        <time>2012-04-15T08:08:50Z</time>
      </trkpt>
      <trkpt lat="48.37589" lon="6.86249">
        <ele>467.3</ele>
        <time>2012-04-15T08:08:54Z</time>
      </trkpt>
      <trkpt lat="48.37592" lon="6.86238">
        <ele>467.6</ele>
        <time>2012-04-15T08:08:57Z</time>
      </trkpt>
      <trkpt lat="48.37595" lon="6.86227">
        <ele>468.2</ele>
        <time>2012-04-15T08:09:01Z</time>
      </trkpt>
      <trkpt lat="48.37598" lon="6.86217">
        <ele>469.4</ele>
        <time>2012-04-15T08:09:04Z</time>
      </trkpt>
      <trkpt lat="48.37601" lon="6.86208">
        <ele>470.7</ele>
        <time>2012-04-15T08:09:07Z</time>
      </trkpt>
      <trkpt lat="48.37605" lon="6.86196">
        <ele>471.2</ele>
        <time>2012-04-15T08:09:11Z</time>
      </trkpt>
      <trkpt lat="48.37605" lon="6.86193">
        <ele>471.4</ele>
        <time>2012-04-15T08:09:12Z</time>
      </trkpt>
      <trkpt lat="48.37613" lon="6.86175">
        <ele>472.8</ele>
        <time>2012-04-15T08:09:22Z</time>
      </trkpt>
      <trkpt lat="48.37618" lon="6.86165">
        <ele>476</ele>
        <time>2012-04-15T08:09:32Z</time>
      </trkpt>
      <trkpt lat="48.37622" lon="6.86152">
        <ele>476.3</ele>
        <time>2012-04-15T08:09:41Z</time>
      </trkpt>
      <trkpt lat="48.37628" lon="6.86143">
        <ele>477.3</ele>
        <time>2012-04-15T08:09:51Z</time>
      </trkpt>
      <trkpt lat="48.37634" lon="6.86135">
        <ele>479.2</ele>
        <time>2012-04-15T08:10:01Z</time>
      </trkpt>
      <trkpt lat="48.37643" lon="6.86137">
        <ele>482.7</ele>
        <time>2012-04-15T08:10:29Z</time>
      </trkpt>
      <trkpt lat="48.37644" lon="6.86139">
        <ele>482.8</ele>
        <time>2012-04-15T08:10:30Z</time>
      </trkpt>
      <trkpt lat="48.37654" lon="6.86154">
        <ele>489.6</ele>
        <time>2012-04-15T08:10:59Z</time>
      </trkpt>
      <trkpt lat="48.37657" lon="6.86164">
        <ele>491.4</ele>
        <time>2012-04-15T08:11:04Z</time>
      </trkpt>
      <trkpt lat="48.37658" lon="6.86177">
        <ele>492.6</ele>
        <time>2012-04-15T08:11:11Z</time>
      </trkpt>
      <trkpt lat="48.37658" lon="6.86191">
        <ele>495.7</ele>
        <time>2012-04-15T08:11:22Z</time>
      </trkpt>
      <trkpt lat="48.37659" lon="6.86204">
        <ele>497.3</ele>
        <time>2012-04-15T08:11:42Z</time>
      </trkpt>
      <trkpt lat="48.37659" lon="6.86204">
        <ele>497.5</ele>
        <time>2012-04-15T08:11:43Z</time>
      </trkpt>
      <trkpt lat="48.37668" lon="6.86207">
        <ele>497.3</ele>
        <time>2012-04-15T08:12:54Z</time>
      </trkpt>
      <trkpt lat="48.3767" lon="6.86202">
        <ele>497.6</ele>
        <time>2012-04-15T08:12:55Z</time>
      </trkpt>
      <trkpt lat="48.37679" lon="6.86189">
        <ele>498.7</ele>
        <time>2012-04-15T08:13:00Z</time>
      </trkpt>
      <trkpt lat="48.37684" lon="6.86178">
        <ele>498.5</ele>
        <time>2012-04-15T08:13:02Z</time>
      </trkpt>
      <trkpt lat="48.37686" lon="6.86172">
        <ele>498.4</ele>
        <time>2012-04-15T08:13:03Z</time>
      </trkpt>
      <trkpt lat="48.37688" lon="6.86164">
        <ele>498.4</ele>
        <time>2012-04-15T08:13:04Z</time>
      </trkpt>
      <trkpt lat="48.3769" lon="6.86157">
        <ele>498.1</ele>
        <time>2012-04-15T08:13:05Z</time>
      </trkpt>
      <trkpt lat="48.37691" lon="6.86149">
        <ele>497.9</ele>
        <time>2012-04-15T08:13:06Z</time>
      </trkpt>
      <trkpt lat="48.37693" lon="6.86141">
        <ele>497.8</ele>
        <time>2012-04-15T08:13:07Z</time>
      </trkpt>
      <trkpt lat="48.37696" lon="6.86134">
        <ele>497.1</ele>
        <time>2012-04-15T08:13:08Z</time>
      </trkpt>
      <trkpt lat="48.37699" lon="6.86125">
        <ele>496.7</ele>
        <time>2012-04-15T08:13:09Z</time>
      </trkpt>
      <trkpt lat="48.377" lon="6.86117">
        <ele>496.3</ele>
        <time>2012-04-15T08:13:10Z</time>
      </trkpt>
      <trkpt lat="48.377" lon="6.86109">
        <ele>496.7</ele>
        <time>2012-04-15T08:13:11Z</time>
      </trkpt>
      <trkpt lat="48.377" lon="6.86102">
        <ele>497</ele>
        <time>2012-04-15T08:13:12Z</time>
      </trkpt>
      <trkpt lat="48.37699" lon="6.86095">
        <ele>497.3</ele>
        <time>2012-04-15T08:13:13Z</time>
      </trkpt>
      <trkpt lat="48.37698" lon="6.86087">
        <ele>496.5</ele>
        <time>2012-04-15T08:13:14Z</time>
      </trkpt>
      <trkpt lat="48.37698" lon="6.86078">
        <ele>496</ele>
        <time>2012-04-15T08:13:15Z</time>
      </trkpt>
      <trkpt lat="48.37699" lon="6.86068">
        <ele>495.6</ele>
        <time>2012-04-15T08:13:16Z</time>
      </trkpt>
      <trkpt lat="48.37698" lon="6.86059">
        <ele>495.1</ele>
        <time>2012-04-15T08:13:17Z</time>
      </trkpt>
      <trkpt lat="48.37698" lon="6.86049">
        <ele>494.7</ele>
        <time>2012-04-15T08:13:18Z</time>
      </trkpt>
      <trkpt lat="48.37699" lon="6.86038">
        <ele>494.5</ele>
        <time>2012-04-15T08:13:19Z</time>
      </trkpt>
      <trkpt lat="48.377" lon="6.86027">
        <ele>494.3</ele>
        <time>2012-04-15T08:13:20Z</time>
      </trkpt>
      <trkpt lat="48.377" lon="6.86016">
        <ele>493.5</ele>
        <time>2012-04-15T08:13:21Z</time>
      </trkpt>
      <trkpt lat="48.37699" lon="6.86006">
        <ele>492.9</ele>
        <time>2012-04-15T08:13:22Z</time>
      </trkpt>
      <trkpt lat="48.37697" lon="6.85997">
        <ele>492.5</ele>
        <time>2012-04-15T08:13:23Z</time>
      </trkpt>
      <trkpt lat="48.37695" lon="6.85986">
        <ele>492.4</ele>
        <time>2012-04-15T08:13:24Z</time>
      </trkpt>
      <trkpt lat="48.37694" lon="6.85976">
        <ele>492.3</ele>
        <time>2012-04-15T08:13:25Z</time>
      </trkpt>
      <trkpt lat="48.37692" lon="6.85966">
        <ele>492.3</ele>
        <time>2012-04-15T08:13:26Z</time>
      </trkpt>
      <trkpt lat="48.3769" lon="6.85959">
        <ele>491.7</ele>
        <time>2012-04-15T08:13:27Z</time>
      </trkpt>
      <trkpt lat="48.37684" lon="6.85951">
        <ele>490.9</ele>
        <time>2012-04-15T08:13:29Z</time>
      </trkpt>
      <trkpt lat="48.37676" lon="6.85945">
        <ele>489.8</ele>
        <time>2012-04-15T08:13:31Z</time>
      </trkpt>
      <trkpt lat="48.37669" lon="6.85941">
        <ele>488.5</ele>
        <time>2012-04-15T08:13:33Z</time>
      </trkpt>
      <trkpt lat="48.37661" lon="6.85938">
        <ele>487.2</ele>
        <time>2012-04-15T08:13:35Z</time>
      </trkpt>
      <trkpt lat="48.37655" lon="6.85929">
        <ele>484.9</ele>
        <time>2012-04-15T08:13:41Z</time>
      </trkpt>
      <trkpt lat="48.37651" lon="6.85918">
        <ele>485.6</ele>
        <time>2012-04-15T08:13:46Z</time>
      </trkpt>
      <trkpt lat="48.37645" lon="6.85908">
        <ele>486.3</ele>
        <time>2012-04-15T08:13:49Z</time>
      </trkpt>
      <trkpt lat="48.37642" lon="6.85899">
        <ele>486.8</ele>
        <time>2012-04-15T08:13:52Z</time>
      </trkpt>
      <trkpt lat="48.37637" lon="6.8589">
        <ele>487.1</ele>
        <time>2012-04-15T08:13:55Z</time>
      </trkpt>
      <trkpt lat="48.37635" lon="6.85887">
        <ele>487.5</ele>
        <time>2012-04-15T08:13:56Z</time>
      </trkpt>
      <trkpt lat="48.37628" lon="6.85875">
        <ele>488.1</ele>
        <time>2012-04-15T08:13:59Z</time>
      </trkpt>
      <trkpt lat="48.37624" lon="6.85868">
        <ele>488</ele>
        <time>2012-04-15T08:14:01Z</time>
      </trkpt>
      <trkpt lat="48.3762" lon="6.8586">
        <ele>488.2</ele>
        <time>2012-04-15T08:14:03Z</time>
      </trkpt>
      <trkpt lat="48.37616" lon="6.85852">
        <ele>488.6</ele>
        <time>2012-04-15T08:14:05Z</time>
      </trkpt>
      <trkpt lat="48.37611" lon="6.85845">
        <ele>488.9</ele>
        <time>2012-04-15T08:14:07Z</time>
      </trkpt>
      <trkpt lat="48.37607" lon="6.85837">
        <ele>490</ele>
        <time>2012-04-15T08:14:09Z</time>
      </trkpt>
      <trkpt lat="48.37604" lon="6.85828">
        <ele>490.6</ele>
        <time>2012-04-15T08:14:11Z</time>
      </trkpt>
      <trkpt lat="48.37599" lon="6.85821">
        <ele>490.9</ele>
        <time>2012-04-15T08:14:13Z</time>
      </trkpt>
      <trkpt lat="48.37596" lon="6.85809">
        <ele>491</ele>
        <time>2012-04-15T08:14:16Z</time>
      </trkpt>
      <trkpt lat="48.37595" lon="6.85795">
        <ele>491.9</ele>
        <time>2012-04-15T08:14:19Z</time>
      </trkpt>
      <trkpt lat="48.37595" lon="6.85782">
        <ele>492.8</ele>
        <time>2012-04-15T08:14:22Z</time>
      </trkpt>
      <trkpt lat="48.37598" lon="6.85773">
        <ele>493.5</ele>
        <time>2012-04-15T08:14:24Z</time>
      </trkpt>
      <trkpt lat="48.376" lon="6.85763">
        <ele>494.2</ele>
        <time>2012-04-15T08:14:26Z</time>
      </trkpt>
      <trkpt lat="48.37603" lon="6.85754">
        <ele>494.4</ele>
        <time>2012-04-15T08:14:28Z</time>
      </trkpt>
      <trkpt lat="48.37606" lon="6.85744">
        <ele>494.4</ele>
        <time>2012-04-15T08:14:30Z</time>
      </trkpt>
      <trkpt lat="48.37608" lon="6.85735">
        <ele>495.1</ele>
        <time>2012-04-15T08:14:32Z</time>
      </trkpt>
      <trkpt lat="48.37609" lon="6.85725">
        <ele>495.7</ele>
        <time>2012-04-15T08:14:34Z</time>
      </trkpt>
      <trkpt lat="48.3761" lon="6.85714">
        <ele>496.3</ele>
        <time>2012-04-15T08:14:36Z</time>
      </trkpt>
      <trkpt lat="48.37611" lon="6.85701">
        <ele>497.2</ele>
        <time>2012-04-15T08:14:39Z</time>
      </trkpt>
      <trkpt lat="48.37612" lon="6.85689">
        <ele>497.7</ele>
        <time>2012-04-15T08:14:42Z</time>
      </trkpt>
      <trkpt lat="48.37614" lon="6.85675">
        <ele>498.1</ele>
        <time>2012-04-15T08:14:45Z</time>
      </trkpt>
      <trkpt lat="48.37616" lon="6.85666">
        <ele>498.1</ele>
        <time>2012-04-15T08:14:47Z</time>
      </trkpt>
      <trkpt lat="48.37618" lon="6.85656">
        <ele>498</ele>
        <time>2012-04-15T08:14:49Z</time>
      </trkpt>
      <trkpt lat="48.37621" lon="6.85648">
        <ele>498.7</ele>
        <time>2012-04-15T08:14:51Z</time>
      </trkpt>
      <trkpt lat="48.37625" lon="6.85639">
        <ele>499.1</ele>
        <time>2012-04-15T08:14:53Z</time>
      </trkpt>
      <trkpt lat="48.3763" lon="6.8563">
        <ele>500</ele>
        <time>2012-04-15T08:14:56Z</time>
      </trkpt>
      <trkpt lat="48.37633" lon="6.85627">
        <ele>500.4</ele>
        <time>2012-04-15T08:14:57Z</time>
      </trkpt>
      <trkpt lat="48.3764" lon="6.85617">
        <ele>500.8</ele>
        <time>2012-04-15T08:15:00Z</time>
      </trkpt>
      <trkpt lat="48.37646" lon="6.8561">
        <ele>500.7</ele>
        <time>2012-04-15T08:15:02Z</time>
      </trkpt>
      <trkpt lat="48.37651" lon="6.85602">
        <ele>501.7</ele>
        <time>2012-04-15T08:15:04Z</time>
      </trkpt>
      <trkpt lat="48.37656" lon="6.85593">
        <ele>502.2</ele>
        <time>2012-04-15T08:15:06Z</time>
      </trkpt>
      <trkpt lat="48.37661" lon="6.85583">
        <ele>502.3</ele>
        <time>2012-04-15T08:15:08Z</time>
      </trkpt>
      <trkpt lat="48.37665" lon="6.85571">
        <ele>502.5</ele>
        <time>2012-04-15T08:15:10Z</time>
      </trkpt>
      <trkpt lat="48.37668" lon="6.85559">
        <ele>502.6</ele>
        <time>2012-04-15T08:15:12Z</time>
      </trkpt>
      <trkpt lat="48.37669" lon="6.85553">
        <ele>502.6</ele>
        <time>2012-04-15T08:15:13Z</time>
      </trkpt>
      <trkpt lat="48.3767" lon="6.85546">
        <ele>502.6</ele>
        <time>2012-04-15T08:15:14Z</time>
      </trkpt>
      <trkpt lat="48.37671" lon="6.85539">
        <ele>502.6</ele>
        <time>2012-04-15T08:15:15Z</time>
      </trkpt>
      <trkpt lat="48.37671" lon="6.85531">
        <ele>502.2</ele>
        <time>2012-04-15T08:15:16Z</time>
      </trkpt>
      <trkpt lat="48.37672" lon="6.85523">
        <ele>501.9</ele>
        <time>2012-04-15T08:15:17Z</time>
      </trkpt>
      <trkpt lat="48.37672" lon="6.85515">
        <ele>501.7</ele>
        <time>2012-04-15T08:15:18Z</time>
      </trkpt>
      <trkpt lat="48.37671" lon="6.85507">
        <ele>501</ele>
        <time>2012-04-15T08:15:19Z</time>
      </trkpt>
      <trkpt lat="48.37671" lon="6.855">
        <ele>500.5</ele>
        <time>2012-04-15T08:15:20Z</time>
      </trkpt>
      <trkpt lat="48.37671" lon="6.85492">
        <ele>500.2</ele>
        <time>2012-04-15T08:15:21Z</time>
      </trkpt>
      <trkpt lat="48.37671" lon="6.85485">
        <ele>500.1</ele>
        <time>2012-04-15T08:15:22Z</time>
      </trkpt>
      <trkpt lat="48.37671" lon="6.85477">
        <ele>500</ele>
        <time>2012-04-15T08:15:23Z</time>
      </trkpt>
      <trkpt lat="48.37671" lon="6.8547">
        <ele>500</ele>
        <time>2012-04-15T08:15:24Z</time>
      </trkpt>
      <trkpt lat="48.37671" lon="6.85462">
        <ele>500.2</ele>
        <time>2012-04-15T08:15:25Z</time>
      </trkpt>
      <trkpt lat="48.37671" lon="6.85454">
        <ele>500.3</ele>
        <time>2012-04-15T08:15:26Z</time>
      </trkpt>
      <trkpt lat="48.37671" lon="6.85447">
        <ele>500.4</ele>
        <time>2012-04-15T08:15:27Z</time>
      </trkpt>
      <trkpt lat="48.37672" lon="6.8544">
        <ele>500.2</ele>
        <time>2012-04-15T08:15:28Z</time>
      </trkpt>
      <trkpt lat="48.37672" lon="6.85433">
        <ele>500</ele>
        <time>2012-04-15T08:15:29Z</time>
      </trkpt>
      <trkpt lat="48.37673" lon="6.85426">
        <ele>499.9</ele>
        <time>2012-04-15T08:15:30Z</time>
      </trkpt>
      <trkpt lat="48.37674" lon="6.85419">
        <ele>500.1</ele>
        <time>2012-04-15T08:15:31Z</time>
      </trkpt>
      <trkpt lat="48.37676" lon="6.85412">
        <ele>500.3</ele>
        <time>2012-04-15T08:15:32Z</time>
      </trkpt>
      <trkpt lat="48.37678" lon="6.85405">
        <ele>500.5</ele>
        <time>2012-04-15T08:15:33Z</time>
      </trkpt>
      <trkpt lat="48.3768" lon="6.85399">
        <ele>500.6</ele>
        <time>2012-04-15T08:15:34Z</time>
      </trkpt>
      <trkpt lat="48.37684" lon="6.85392">
        <ele>500.3</ele>
        <time>2012-04-15T08:15:35Z</time>
      </trkpt>
      <trkpt lat="48.37687" lon="6.85386">
        <ele>500.2</ele>
        <time>2012-04-15T08:15:36Z</time>
      </trkpt>
      <trkpt lat="48.37691" lon="6.8538">
        <ele>500</ele>
        <time>2012-04-15T08:15:37Z</time>
      </trkpt>
      <trkpt lat="48.37696" lon="6.85374">
        <ele>500</ele>
        <time>2012-04-15T08:15:38Z</time>
      </trkpt>
      <trkpt lat="48.377" lon="6.85367">
        <ele>500</ele>
        <time>2012-04-15T08:15:39Z</time>
      </trkpt>
      <trkpt lat="48.37705" lon="6.8536">
        <ele>500</ele>
        <time>2012-04-15T08:15:40Z</time>
      </trkpt>
      <trkpt lat="48.37709" lon="6.85352">
        <ele>499.8</ele>
        <time>2012-04-15T08:15:41Z</time>
      </trkpt>
      <trkpt lat="48.37714" lon="6.85345">
        <ele>499.6</ele>
        <time>2012-04-15T08:15:42Z</time>
      </trkpt>
      <trkpt lat="48.37718" lon="6.85337">
        <ele>499.5</ele>
        <time>2012-04-15T08:15:43Z</time>
      </trkpt>
      <trkpt lat="48.37722" lon="6.8533">
        <ele>499.1</ele>
        <time>2012-04-15T08:15:44Z</time>
      </trkpt>
      <trkpt lat="48.37726" lon="6.85322">
        <ele>498.9</ele>
        <time>2012-04-15T08:15:45Z</time>
      </trkpt>
      <trkpt lat="48.37731" lon="6.85315">
        <ele>498.7</ele>
        <time>2012-04-15T08:15:46Z</time>
      </trkpt>
      <trkpt lat="48.37735" lon="6.85307">
        <ele>498.4</ele>
        <time>2012-04-15T08:15:47Z</time>
      </trkpt>
      <trkpt lat="48.37739" lon="6.853">
        <ele>498.2</ele>
        <time>2012-04-15T08:15:48Z</time>
      </trkpt>
      <trkpt lat="48.37743" lon="6.85292">
        <ele>498.1</ele>
        <time>2012-04-15T08:15:49Z</time>
      </trkpt>
      <trkpt lat="48.37747" lon="6.85285">
        <ele>498</ele>
        <time>2012-04-15T08:15:50Z</time>
      </trkpt>
      <trkpt lat="48.37751" lon="6.85277">
        <ele>497.9</ele>
        <time>2012-04-15T08:15:51Z</time>
      </trkpt>
      <trkpt lat="48.37755" lon="6.8527">
        <ele>497.8</ele>
        <time>2012-04-15T08:15:52Z</time>
      </trkpt>
      <trkpt lat="48.37759" lon="6.85262">
        <ele>497.8</ele>
        <time>2012-04-15T08:15:53Z</time>
      </trkpt>
      <trkpt lat="48.37763" lon="6.85254">
        <ele>497.6</ele>
        <time>2012-04-15T08:15:54Z</time>
      </trkpt>
      <trkpt lat="48.37767" lon="6.85246">
        <ele>497.4</ele>
        <time>2012-04-15T08:15:55Z</time>
      </trkpt>
      <trkpt lat="48.37771" lon="6.85238">
        <ele>497.3</ele>
        <time>2012-04-15T08:15:56Z</time>
      </trkpt>
      <trkpt lat="48.37775" lon="6.8523">
        <ele>497.2</ele>
        <time>2012-04-15T08:15:57Z</time>
      </trkpt>
      <trkpt lat="48.37779" lon="6.85222">
        <ele>497.1</ele>
        <time>2012-04-15T08:15:58Z</time>
      </trkpt>
      <trkpt lat="48.37783" lon="6.85214">
        <ele>497.1</ele>
        <time>2012-04-15T08:15:59Z</time>
      </trkpt>
      <trkpt lat="48.37787" lon="6.85206">
        <ele>497.1</ele>
        <time>2012-04-15T08:16:00Z</time>
      </trkpt>
      <trkpt lat="48.3779" lon="6.85198">
        <ele>497.2</ele>
        <time>2012-04-15T08:16:01Z</time>
      </trkpt>
      <trkpt lat="48.37793" lon="6.8519">
        <ele>497.2</ele>
        <time>2012-04-15T08:16:02Z</time>
      </trkpt>
      <trkpt lat="48.37796" lon="6.85182">
        <ele>497.2</ele>
        <time>2012-04-15T08:16:03Z</time>
      </trkpt>
      <trkpt lat="48.37798" lon="6.85173">
        <ele>497.2</ele>
        <time>2012-04-15T08:16:04Z</time>
      </trkpt>
      <trkpt lat="48.378" lon="6.85165">
        <ele>497.2</ele>
        <time>2012-04-15T08:16:05Z</time>
      </trkpt>
      <trkpt lat="48.378" lon="6.85157">
        <ele>497.2</ele>
        <time>2012-04-15T08:16:06Z</time>
      </trkpt>
      <trkpt lat="48.37798" lon="6.85149">
        <ele>497.3</ele>
        <time>2012-04-15T08:16:07Z</time>
      </trkpt>
      <trkpt lat="48.37794" lon="6.85143">
        <ele>497.4</ele>
        <time>2012-04-15T08:16:08Z</time>
      </trkpt>
      <trkpt lat="48.3779" lon="6.85139">
        <ele>497.5</ele>
        <time>2012-04-15T08:16:09Z</time>
      </trkpt>
      <trkpt lat="48.37785" lon="6.85136">
        <ele>496.7</ele>
        <time>2012-04-15T08:16:10Z</time>
      </trkpt>
      <trkpt lat="48.3778" lon="6.85134">
        <ele>496.2</ele>
        <time>2012-04-15T08:16:11Z</time>
      </trkpt>
      <trkpt lat="48.37774" lon="6.85133">
        <ele>495.8</ele>
        <time>2012-04-15T08:16:12Z</time>
      </trkpt>
      <trkpt lat="48.37769" lon="6.85131">
        <ele>495.9</ele>
        <time>2012-04-15T08:16:13Z</time>
      </trkpt>
      <trkpt lat="48.37765" lon="6.85128">
        <ele>495.9</ele>
        <time>2012-04-15T08:16:14Z</time>
      </trkpt>
      <trkpt lat="48.37756" lon="6.85124">
        <ele>496.5</ele>
        <time>2012-04-15T08:16:16Z</time>
      </trkpt>
      <trkpt lat="48.37748" lon="6.8512">
        <ele>497.1</ele>
        <time>2012-04-15T08:16:18Z</time>
      </trkpt>
      <trkpt lat="48.3774" lon="6.85117">
        <ele>497.3</ele>
        <time>2012-04-15T08:16:20Z</time>
      </trkpt>
      <trkpt lat="48.37733" lon="6.85115">
        <ele>497.4</ele>
        <time>2012-04-15T08:16:22Z</time>
      </trkpt>
      <trkpt lat="48.37725" lon="6.85112">
        <ele>498.4</ele>
        <time>2012-04-15T08:16:24Z</time>
      </trkpt>
      <trkpt lat="48.37718" lon="6.8511">
        <ele>499.1</ele>
        <time>2012-04-15T08:16:26Z</time>
      </trkpt>
      <trkpt lat="48.37711" lon="6.85108">
        <ele>499.6</ele>
        <time>2012-04-15T08:16:28Z</time>
      </trkpt>
      <trkpt lat="48.37704" lon="6.85106">
        <ele>500</ele>
        <time>2012-04-15T08:16:30Z</time>
      </trkpt>
      <trkpt lat="48.37697" lon="6.85104">
        <ele>500.4</ele>
        <time>2012-04-15T08:16:32Z</time>
      </trkpt>
      <trkpt lat="48.37691" lon="6.85101">
        <ele>500.6</ele>
        <time>2012-04-15T08:16:34Z</time>
      </trkpt>
      <trkpt lat="48.37684" lon="6.851">
        <ele>501</ele>
        <time>2012-04-15T08:16:36Z</time>
      </trkpt>
      <trkpt lat="48.37678" lon="6.85098">
        <ele>501.7</ele>
        <time>2012-04-15T08:16:38Z</time>
      </trkpt>
      <trkpt lat="48.37671" lon="6.85096">
        <ele>502.4</ele>
        <time>2012-04-15T08:16:40Z</time>
      </trkpt>
      <trkpt lat="48.37665" lon="6.85093">
        <ele>502.5</ele>
        <time>2012-04-15T08:16:42Z</time>
      </trkpt>
      <trkpt lat="48.37658" lon="6.85091">
        <ele>502.4</ele>
        <time>2012-04-15T08:16:44Z</time>
      </trkpt>
      <trkpt lat="48.37652" lon="6.85089">
        <ele>502.8</ele>
        <time>2012-04-15T08:16:46Z</time>
      </trkpt>
      <trkpt lat="48.37645" lon="6.85087">
        <ele>503.4</ele>
        <time>2012-04-15T08:16:48Z</time>
      </trkpt>
      <trkpt lat="48.37639" lon="6.85084">
        <ele>504.1</ele>
        <time>2012-04-15T08:16:50Z</time>
      </trkpt>
      <trkpt lat="48.37633" lon="6.85082">
        <ele>504.9</ele>
        <time>2012-04-15T08:16:52Z</time>
      </trkpt>
      <trkpt lat="48.37627" lon="6.8508">
        <ele>505.2</ele>
        <time>2012-04-15T08:16:54Z</time>
      </trkpt>
      <trkpt lat="48.37621" lon="6.85077">
        <ele>505.2</ele>
        <time>2012-04-15T08:16:56Z</time>
      </trkpt>
      <trkpt lat="48.37613" lon="6.85072">
        <ele>506</ele>
        <time>2012-04-15T08:16:59Z</time>
      </trkpt>
      <trkpt lat="48.3761" lon="6.85071">
        <ele>506.2</ele>
        <time>2012-04-15T08:17:00Z</time>
      </trkpt>
      <trkpt lat="48.37597" lon="6.85064">
        <ele>507</ele>
        <time>2012-04-15T08:17:05Z</time>
      </trkpt>
      <trkpt lat="48.37589" lon="6.85059">
        <ele>508.3</ele>
        <time>2012-04-15T08:17:08Z</time>
      </trkpt>
      <trkpt lat="48.37581" lon="6.85054">
        <ele>509.3</ele>
        <time>2012-04-15T08:17:11Z</time>
      </trkpt>
      <trkpt lat="48.37574" lon="6.85049">
        <ele>509.8</ele>
        <time>2012-04-15T08:17:14Z</time>
      </trkpt>
      <trkpt lat="48.37567" lon="6.85044">
        <ele>510.5</ele>
        <time>2012-04-15T08:17:17Z</time>
      </trkpt>
      <trkpt lat="48.37561" lon="6.85038">
        <ele>511.6</ele>
        <time>2012-04-15T08:17:20Z</time>
      </trkpt>
      <trkpt lat="48.37554" lon="6.85033">
        <ele>511.9</ele>
        <time>2012-04-15T08:17:23Z</time>
      </trkpt>
      <trkpt lat="48.37547" lon="6.85027">
        <ele>511.7</ele>
        <time>2012-04-15T08:17:26Z</time>
      </trkpt>
      <trkpt lat="48.37541" lon="6.8502">
        <ele>511.8</ele>
        <time>2012-04-15T08:17:29Z</time>
      </trkpt>
      <trkpt lat="48.37535" lon="6.85011">
        <ele>512.8</ele>
        <time>2012-04-15T08:17:32Z</time>
      </trkpt>
      <trkpt lat="48.37531" lon="6.85001">
        <ele>513.5</ele>
        <time>2012-04-15T08:17:35Z</time>
      </trkpt>
      <trkpt lat="48.37528" lon="6.84988">
        <ele>514.4</ele>
        <time>2012-04-15T08:17:38Z</time>
      </trkpt>
      <trkpt lat="48.37527" lon="6.84979">
        <ele>514.7</ele>
        <time>2012-04-15T08:17:40Z</time>
      </trkpt>
      <trkpt lat="48.37526" lon="6.84969">
        <ele>515.3</ele>
        <time>2012-04-15T08:17:42Z</time>
      </trkpt>
      <trkpt lat="48.37526" lon="6.84959">
        <ele>515.9</ele>
        <time>2012-04-15T08:17:44Z</time>
      </trkpt>
      <trkpt lat="48.37528" lon="6.84949">
        <ele>516.7</ele>
        <time>2012-04-15T08:17:46Z</time>
      </trkpt>
      <trkpt lat="48.37529" lon="6.84938">
        <ele>517.6</ele>
        <time>2012-04-15T08:17:48Z</time>
      </trkpt>
      <trkpt lat="48.3753" lon="6.8493">
        <ele>517.7</ele>
        <time>2012-04-15T08:17:50Z</time>
      </trkpt>
      <trkpt lat="48.37531" lon="6.8492">
        <ele>517.5</ele>
        <time>2012-04-15T08:17:52Z</time>
      </trkpt>
      <trkpt lat="48.37532" lon="6.8491">
        <ele>517.2</ele>
        <time>2012-04-15T08:17:54Z</time>
      </trkpt>
      <trkpt lat="48.3753" lon="6.849">
        <ele>518</ele>
        <time>2012-04-15T08:17:56Z</time>
      </trkpt>
      <trkpt lat="48.37529" lon="6.84891">
        <ele>518.3</ele>
        <time>2012-04-15T08:17:58Z</time>
      </trkpt>
      <trkpt lat="48.37527" lon="6.84881">
        <ele>518.4</ele>
        <time>2012-04-15T08:18:00Z</time>
      </trkpt>
      <trkpt lat="48.37525" lon="6.84877">
        <ele>518.8</ele>
        <time>2012-04-15T08:18:01Z</time>
      </trkpt>
      <trkpt lat="48.37521" lon="6.84863">
        <ele>519.6</ele>
        <time>2012-04-15T08:18:04Z</time>
      </trkpt>
      <trkpt lat="48.37518" lon="6.84854">
        <ele>519.7</ele>
        <time>2012-04-15T08:18:06Z</time>
      </trkpt>
      <trkpt lat="48.37515" lon="6.84845">
        <ele>519.7</ele>
        <time>2012-04-15T08:18:08Z</time>
      </trkpt>
      <trkpt lat="48.37512" lon="6.84837">
        <ele>519.6</ele>
        <time>2012-04-15T08:18:10Z</time>
      </trkpt>
      <trkpt lat="48.37508" lon="6.84828">
        <ele>519.4</ele>
        <time>2012-04-15T08:18:12Z</time>
      </trkpt>
      <trkpt lat="48.37506" lon="6.84817">
        <ele>520.2</ele>
        <time>2012-04-15T08:18:16Z</time>
      </trkpt>
      <trkpt lat="48.37503" lon="6.84804">
        <ele>523.4</ele>
        <time>2012-04-15T08:18:25Z</time>
      </trkpt>
      <trkpt lat="48.37499" lon="6.84793">
        <ele>525.5</ele>
        <time>2012-04-15T08:18:34Z</time>
      </trkpt>
      <trkpt lat="48.37497" lon="6.84782">
        <ele>527.8</ele>
        <time>2012-04-15T08:18:43Z</time>
      </trkpt>
      <trkpt lat="48.37495" lon="6.8477">
        <ele>529.7</ele>
        <time>2012-04-15T08:18:50Z</time>
      </trkpt>
      <trkpt lat="48.37493" lon="6.84758">
        <ele>531.9</ele>
        <time>2012-04-15T08:18:58Z</time>
      </trkpt>
      <trkpt lat="48.37493" lon="6.84747">
        <ele>532.6</ele>
        <time>2012-04-15T08:19:02Z</time>
      </trkpt>
      <trkpt lat="48.37494" lon="6.84743">
        <ele>532.8</ele>
        <time>2012-04-15T08:19:03Z</time>
      </trkpt>
      <trkpt lat="48.37496" lon="6.84722">
        <ele>534.3</ele>
        <time>2012-04-15T08:19:08Z</time>
      </trkpt>
      <trkpt lat="48.37497" lon="6.84711">
        <ele>535.2</ele>
        <time>2012-04-15T08:19:11Z</time>
      </trkpt>
      <trkpt lat="48.37498" lon="6.84702">
        <ele>535</ele>
        <time>2012-04-15T08:19:13Z</time>
      </trkpt>
      <trkpt lat="48.37498" lon="6.84691">
        <ele>535</ele>
        <time>2012-04-15T08:19:15Z</time>
      </trkpt>
      <trkpt lat="48.37497" lon="6.8468">
        <ele>535.1</ele>
        <time>2012-04-15T08:19:17Z</time>
      </trkpt>
      <trkpt lat="48.37495" lon="6.8467">
        <ele>535</ele>
        <time>2012-04-15T08:19:19Z</time>
      </trkpt>
      <trkpt lat="48.37493" lon="6.84659">
        <ele>534.8</ele>
        <time>2012-04-15T08:19:21Z</time>
      </trkpt>
      <trkpt lat="48.37492" lon="6.84646">
        <ele>534.7</ele>
        <time>2012-04-15T08:19:23Z</time>
      </trkpt>
      <trkpt lat="48.37491" lon="6.84633">
        <ele>534.5</ele>
        <time>2012-04-15T08:19:25Z</time>
      </trkpt>
      <trkpt lat="48.37491" lon="6.84624">
        <ele>534.4</ele>
        <time>2012-04-15T08:19:26Z</time>
      </trkpt>
      <trkpt lat="48.37492" lon="6.84615">
        <ele>534.4</ele>
        <time>2012-04-15T08:19:27Z</time>
      </trkpt>
      <trkpt lat="48.37492" lon="6.84604">
        <ele>534</ele>
        <time>2012-04-15T08:19:28Z</time>
      </trkpt>
      <trkpt lat="48.37491" lon="6.84595">
        <ele>533.7</ele>
        <time>2012-04-15T08:19:29Z</time>
      </trkpt>
      <trkpt lat="48.37489" lon="6.84585">
        <ele>533.5</ele>
        <time>2012-04-15T08:19:30Z</time>
      </trkpt>
      <trkpt lat="48.37485" lon="6.84577">
        <ele>532.7</ele>
        <time>2012-04-15T08:19:31Z</time>
      </trkpt>
      <trkpt lat="48.37481" lon="6.8457">
        <ele>532.1</ele>
        <time>2012-04-15T08:19:32Z</time>
      </trkpt>
      <trkpt lat="48.37476" lon="6.84563">
        <ele>531.7</ele>
        <time>2012-04-15T08:19:33Z</time>
      </trkpt>
      <trkpt lat="48.37474" lon="6.84556">
        <ele>530.8</ele>
        <time>2012-04-15T08:19:34Z</time>
      </trkpt>
      <trkpt lat="48.37472" lon="6.84546">
        <ele>530.1</ele>
        <time>2012-04-15T08:19:35Z</time>
      </trkpt>
      <trkpt lat="48.37472" lon="6.84535">
        <ele>529.6</ele>
        <time>2012-04-15T08:19:36Z</time>
      </trkpt>
      <trkpt lat="48.37471" lon="6.84523">
        <ele>528</ele>
        <time>2012-04-15T08:19:37Z</time>
      </trkpt>
      <trkpt lat="48.37471" lon="6.84511">
        <ele>526.7</ele>
        <time>2012-04-15T08:19:38Z</time>
      </trkpt>
      <trkpt lat="48.3747" lon="6.84498">
        <ele>525.8</ele>
        <time>2012-04-15T08:19:39Z</time>
      </trkpt>
      <trkpt lat="48.3747" lon="6.84484">
        <ele>524.9</ele>
        <time>2012-04-15T08:19:40Z</time>
      </trkpt>
      <trkpt lat="48.3747" lon="6.84469">
        <ele>524.2</ele>
        <time>2012-04-15T08:19:41Z</time>
      </trkpt>
      <trkpt lat="48.3747" lon="6.84456">
        <ele>523.6</ele>
        <time>2012-04-15T08:19:42Z</time>
      </trkpt>
      <trkpt lat="48.37471" lon="6.84444">
        <ele>523.2</ele>
        <time>2012-04-15T08:19:43Z</time>
      </trkpt>
      <trkpt lat="48.37471" lon="6.84431">
        <ele>522.7</ele>
        <time>2012-04-15T08:19:44Z</time>
      </trkpt>
      <trkpt lat="48.37471" lon="6.8442">
        <ele>522.2</ele>
        <time>2012-04-15T08:19:45Z</time>
      </trkpt>
      <trkpt lat="48.37471" lon="6.84409">
        <ele>521.9</ele>
        <time>2012-04-15T08:19:46Z</time>
      </trkpt>
      <trkpt lat="48.3747" lon="6.84398">
        <ele>521.3</ele>
        <time>2012-04-15T08:19:47Z</time>
      </trkpt>
      <trkpt lat="48.37468" lon="6.84387">
        <ele>520.9</ele>
        <time>2012-04-15T08:19:48Z</time>
      </trkpt>
      <trkpt lat="48.37466" lon="6.84377">
        <ele>520.6</ele>
        <time>2012-04-15T08:19:49Z</time>
      </trkpt>
      <trkpt lat="48.37465" lon="6.84367">
        <ele>521.1</ele>
        <time>2012-04-15T08:19:50Z</time>
      </trkpt>
      <trkpt lat="48.37464" lon="6.84357">
        <ele>521.5</ele>
        <time>2012-04-15T08:19:51Z</time>
      </trkpt>
      <trkpt lat="48.37463" lon="6.84349">
        <ele>521.8</ele>
        <time>2012-04-15T08:19:52Z</time>
      </trkpt>
      <trkpt lat="48.37461" lon="6.84342">
        <ele>521.7</ele>
        <time>2012-04-15T08:19:53Z</time>
      </trkpt>
      <trkpt lat="48.3746" lon="6.84334">
        <ele>521.7</ele>
        <time>2012-04-15T08:19:54Z</time>
      </trkpt>
      <trkpt lat="48.3746" lon="6.84327">
        <ele>521.7</ele>
        <time>2012-04-15T08:19:55Z</time>
      </trkpt>
      <trkpt lat="48.37458" lon="6.84314">
        <ele>521.8</ele>
        <time>2012-04-15T08:19:57Z</time>
      </trkpt>
      <trkpt lat="48.37457" lon="6.84301">
        <ele>521.9</ele>
        <time>2012-04-15T08:19:59Z</time>
      </trkpt>
      <trkpt lat="48.37456" lon="6.84289">
        <ele>522.3</ele>
        <time>2012-04-15T08:20:01Z</time>
      </trkpt>
      <trkpt lat="48.37456" lon="6.84277">
        <ele>523.2</ele>
        <time>2012-04-15T08:20:03Z</time>
      </trkpt>
      <trkpt lat="48.37456" lon="6.84271">
        <ele>523.9</ele>
        <time>2012-04-15T08:20:04Z</time>
      </trkpt>
      <trkpt lat="48.37456" lon="6.84256">
        <ele>525</ele>
        <time>2012-04-15T08:20:07Z</time>
      </trkpt>
      <trkpt lat="48.37455" lon="6.84244">
        <ele>525.8</ele>
        <time>2012-04-15T08:20:09Z</time>
      </trkpt>
      <trkpt lat="48.37454" lon="6.84237">
        <ele>526.2</ele>
        <time>2012-04-15T08:20:10Z</time>
      </trkpt>
      <trkpt lat="48.37454" lon="6.8423">
        <ele>526.5</ele>
        <time>2012-04-15T08:20:11Z</time>
      </trkpt>
      <trkpt lat="48.37456" lon="6.84223">
        <ele>526.7</ele>
        <time>2012-04-15T08:20:12Z</time>
      </trkpt>
      <trkpt lat="48.37458" lon="6.84216">
        <ele>526.9</ele>
        <time>2012-04-15T08:20:13Z</time>
      </trkpt>
      <trkpt lat="48.37459" lon="6.84209">
        <ele>527</ele>
        <time>2012-04-15T08:20:14Z</time>
      </trkpt>
      <trkpt lat="48.37461" lon="6.84201">
        <ele>526.8</ele>
        <time>2012-04-15T08:20:15Z</time>
      </trkpt>
      <trkpt lat="48.37462" lon="6.84194">
        <ele>526.7</ele>
        <time>2012-04-15T08:20:16Z</time>
      </trkpt>
      <trkpt lat="48.37464" lon="6.84187">
        <ele>526.6</ele>
        <time>2012-04-15T08:20:17Z</time>
      </trkpt>
      <trkpt lat="48.37467" lon="6.84176">
        <ele>526.6</ele>
        <time>2012-04-15T08:20:19Z</time>
      </trkpt>
      <trkpt lat="48.37472" lon="6.84166">
        <ele>526.8</ele>
        <time>2012-04-15T08:20:21Z</time>
      </trkpt>
      <trkpt lat="48.37475" lon="6.84161">
        <ele>527.3</ele>
        <time>2012-04-15T08:20:22Z</time>
      </trkpt>
      <trkpt lat="48.37479" lon="6.84156">
        <ele>527.8</ele>
        <time>2012-04-15T08:20:23Z</time>
      </trkpt>
      <trkpt lat="48.37483" lon="6.84145">
        <ele>528</ele>
        <time>2012-04-15T08:20:25Z</time>
      </trkpt>
      <trkpt lat="48.37487" lon="6.84137">
        <ele>527.9</ele>
        <time>2012-04-15T08:20:27Z</time>
      </trkpt>
      <trkpt lat="48.37492" lon="6.84126">
        <ele>527</ele>
        <time>2012-04-15T08:20:29Z</time>
      </trkpt>
      <trkpt lat="48.37497" lon="6.84115">
        <ele>526.7</ele>
        <time>2012-04-15T08:20:31Z</time>
      </trkpt>
      <trkpt lat="48.37501" lon="6.84106">
        <ele>526.8</ele>
        <time>2012-04-15T08:20:33Z</time>
      </trkpt>
      <trkpt lat="48.37506" lon="6.84096">
        <ele>527.6</ele>
        <time>2012-04-15T08:20:36Z</time>
      </trkpt>
      <trkpt lat="48.37512" lon="6.84086">
        <ele>529.1</ele>
        <time>2012-04-15T08:20:40Z</time>
      </trkpt>
      <trkpt lat="48.37518" lon="6.84079">
        <ele>529</ele>
        <time>2012-04-15T08:20:43Z</time>
      </trkpt>
      <trkpt lat="48.37524" lon="6.84071">
        <ele>529.6</ele>
        <time>2012-04-15T08:20:46Z</time>
      </trkpt>
      <trkpt lat="48.3753" lon="6.84063">
        <ele>529.8</ele>
        <time>2012-04-15T08:20:49Z</time>
      </trkpt>
      <trkpt lat="48.37536" lon="6.84056">
        <ele>530.2</ele>
        <time>2012-04-15T08:20:52Z</time>
      </trkpt>
      <trkpt lat="48.37542" lon="6.8405">
        <ele>530.9</ele>
        <time>2012-04-15T08:20:56Z</time>
      </trkpt>
      <trkpt lat="48.3755" lon="6.84043">
        <ele>533.3</ele>
        <time>2012-04-15T08:21:01Z</time>
      </trkpt>
      <trkpt lat="48.37557" lon="6.84038">
        <ele>534.4</ele>
        <time>2012-04-15T08:21:04Z</time>
      </trkpt>
      <trkpt lat="48.3756" lon="6.84036">
        <ele>534.7</ele>
        <time>2012-04-15T08:21:05Z</time>
      </trkpt>
      <trkpt lat="48.37571" lon="6.84026">
        <ele>535.5</ele>
        <time>2012-04-15T08:21:10Z</time>
      </trkpt>
      <trkpt lat="48.37579" lon="6.84019">
        <ele>536.1</ele>
        <time>2012-04-15T08:21:13Z</time>
      </trkpt>
      <trkpt lat="48.37586" lon="6.84015">
        <ele>536.9</ele>
        <time>2012-04-15T08:21:17Z</time>
      </trkpt>
      <trkpt lat="48.37594" lon="6.84009">
        <ele>537.8</ele>
        <time>2012-04-15T08:21:21Z</time>
      </trkpt>
      <trkpt lat="48.37602" lon="6.84004">
        <ele>538.9</ele>
        <time>2012-04-15T08:21:25Z</time>
      </trkpt>
      <trkpt lat="48.37607" lon="6.84002">
        <ele>539.4</ele>
        <time>2012-04-15T08:21:27Z</time>
      </trkpt>
      <trkpt lat="48.37614" lon="6.83995">
        <ele>539.4</ele>
        <time>2012-04-15T08:21:30Z</time>
      </trkpt>
      <trkpt lat="48.37621" lon="6.83991">
        <ele>539.7</ele>
        <time>2012-04-15T08:21:33Z</time>
      </trkpt>
      <trkpt lat="48.37629" lon="6.83987">
        <ele>541.4</ele>
        <time>2012-04-15T08:21:38Z</time>
      </trkpt>
      <trkpt lat="48.37636" lon="6.83983">
        <ele>541.7</ele>
        <time>2012-04-15T08:21:42Z</time>
      </trkpt>
      <trkpt lat="48.37642" lon="6.83979">
        <ele>542.1</ele>
        <time>2012-04-15T08:21:45Z</time>
      </trkpt>
      <trkpt lat="48.37649" lon="6.83976">
        <ele>542.8</ele>
        <time>2012-04-15T08:21:48Z</time>
      </trkpt>
      <trkpt lat="48.37657" lon="6.83973">
        <ele>543.9</ele>
        <time>2012-04-15T08:21:52Z</time>
      </trkpt>
      <trkpt lat="48.37664" lon="6.83966">
        <ele>546.6</ele>
        <time>2012-04-15T08:21:57Z</time>
      </trkpt>
      <trkpt lat="48.37673" lon="6.83963">
        <ele>549.4</ele>
        <time>2012-04-15T08:22:06Z</time>
      </trkpt>
      <trkpt lat="48.37674" lon="6.83962">
        <ele>549.1</ele>
        <time>2012-04-15T08:22:07Z</time>
      </trkpt>
      <trkpt lat="48.37689" lon="6.83954">
        <ele>550.5</ele>
        <time>2012-04-15T08:22:23Z</time>
      </trkpt>
      <trkpt lat="48.37698" lon="6.8395">
        <ele>553.3</ele>
        <time>2012-04-15T08:22:35Z</time>
      </trkpt>
      <trkpt lat="48.37705" lon="6.83944">
        <ele>555.9</ele>
        <time>2012-04-15T08:22:43Z</time>
      </trkpt>
      <trkpt lat="48.37713" lon="6.8394">
        <ele>557.8</ele>
        <time>2012-04-15T08:22:50Z</time>
      </trkpt>
      <trkpt lat="48.3772" lon="6.83934">
        <ele>559.1</ele>
        <time>2012-04-15T08:22:58Z</time>
      </trkpt>
      <trkpt lat="48.37725" lon="6.83928">
        <ele>560.1</ele>
        <time>2012-04-15T08:23:01Z</time>
      </trkpt>
      <trkpt lat="48.37729" lon="6.8392">
        <ele>560.2</ele>
        <time>2012-04-15T08:23:04Z</time>
      </trkpt>
      <trkpt lat="48.37735" lon="6.83914">
        <ele>560.2</ele>
        <time>2012-04-15T08:23:07Z</time>
      </trkpt>
      <trkpt lat="48.37737" lon="6.83912">
        <ele>560.8</ele>
        <time>2012-04-15T08:23:08Z</time>
      </trkpt>
      <trkpt lat="48.37747" lon="6.83899">
        <ele>561.9</ele>
        <time>2012-04-15T08:23:13Z</time>
      </trkpt>
      <trkpt lat="48.37753" lon="6.83892">
        <ele>562</ele>
        <time>2012-04-15T08:23:15Z</time>
      </trkpt>
      <trkpt lat="48.3776" lon="6.83885">
        <ele>562</ele>
        <time>2012-04-15T08:23:17Z</time>
      </trkpt>
      <trkpt lat="48.37764" lon="6.83881">
        <ele>561.9</ele>
        <time>2012-04-15T08:23:18Z</time>
      </trkpt>
      <trkpt lat="48.37768" lon="6.83874">
        <ele>561.9</ele>
        <time>2012-04-15T08:23:19Z</time>
      </trkpt>
      <trkpt lat="48.37771" lon="6.83866">
        <ele>561.9</ele>
        <time>2012-04-15T08:23:20Z</time>
      </trkpt>
      <trkpt lat="48.37776" lon="6.8386">
        <ele>561.5</ele>
        <time>2012-04-15T08:23:21Z</time>
      </trkpt>
      <trkpt lat="48.37781" lon="6.83856">
        <ele>561.3</ele>
        <time>2012-04-15T08:23:22Z</time>
      </trkpt>
      <trkpt lat="48.37785" lon="6.83852">
        <ele>561.1</ele>
        <time>2012-04-15T08:23:23Z</time>
      </trkpt>
      <trkpt lat="48.3779" lon="6.83843">
        <ele>561.3</ele>
        <time>2012-04-15T08:23:25Z</time>
      </trkpt>
      <trkpt lat="48.37796" lon="6.83835">
        <ele>561.2</ele>
        <time>2012-04-15T08:23:27Z</time>
      </trkpt>
      <trkpt lat="48.378" lon="6.83831">
        <ele>561</ele>
        <time>2012-04-15T08:23:28Z</time>
      </trkpt>
      <trkpt lat="48.37804" lon="6.83826">
        <ele>560.9</ele>
        <time>2012-04-15T08:23:29Z</time>
      </trkpt>
      <trkpt lat="48.3781" lon="6.83819">
        <ele>560.3</ele>
        <time>2012-04-15T08:23:31Z</time>
      </trkpt>
      <trkpt lat="48.37815" lon="6.83811">
        <ele>560.2</ele>
        <time>2012-04-15T08:23:33Z</time>
      </trkpt>
      <trkpt lat="48.37819" lon="6.83804">
        <ele>560.4</ele>
        <time>2012-04-15T08:23:35Z</time>
      </trkpt>
      <trkpt lat="48.37824" lon="6.83799">
        <ele>560.8</ele>
        <time>2012-04-15T08:23:37Z</time>
      </trkpt>
      <trkpt lat="48.3783" lon="6.8379">
        <ele>561.2</ele>
        <time>2012-04-15T08:23:40Z</time>
      </trkpt>
      <trkpt lat="48.37835" lon="6.83783">
        <ele>561.2</ele>
        <time>2012-04-15T08:23:42Z</time>
      </trkpt>
      <trkpt lat="48.37839" lon="6.83776">
        <ele>562.2</ele>
        <time>2012-04-15T08:23:44Z</time>
      </trkpt>
      <trkpt lat="48.37844" lon="6.83767">
        <ele>562</ele>
        <time>2012-04-15T08:23:47Z</time>
      </trkpt>
      <trkpt lat="48.37851" lon="6.83759">
        <ele>562.4</ele>
        <time>2012-04-15T08:23:50Z</time>
      </trkpt>
      <trkpt lat="48.37858" lon="6.83751">
        <ele>562.7</ele>
        <time>2012-04-15T08:23:53Z</time>
      </trkpt>
      <trkpt lat="48.37863" lon="6.83743">
        <ele>563.5</ele>
        <time>2012-04-15T08:23:56Z</time>
      </trkpt>
      <trkpt lat="48.3787" lon="6.83737">
        <ele>564.1</ele>
        <time>2012-04-15T08:23:59Z</time>
      </trkpt>
      <trkpt lat="48.37876" lon="6.83733">
        <ele>564.2</ele>
        <time>2012-04-15T08:24:02Z</time>
      </trkpt>
      <trkpt lat="48.37882" lon="6.83726">
        <ele>565.4</ele>
        <time>2012-04-15T08:24:05Z</time>
      </trkpt>
      <trkpt lat="48.37885" lon="6.83717">
        <ele>566.5</ele>
        <time>2012-04-15T08:24:08Z</time>
      </trkpt>
      <trkpt lat="48.37886" lon="6.83714">
        <ele>566.7</ele>
        <time>2012-04-15T08:24:09Z</time>
      </trkpt>
      <trkpt lat="48.37893" lon="6.83698">
        <ele>567.4</ele>
        <time>2012-04-15T08:24:17Z</time>
      </trkpt>
      <trkpt lat="48.37899" lon="6.83688">
        <ele>569.9</ele>
        <time>2012-04-15T08:24:26Z</time>
      </trkpt>
      <trkpt lat="48.37905" lon="6.83678">
        <ele>571.2</ele>
        <time>2012-04-15T08:24:38Z</time>
      </trkpt>
      <trkpt lat="48.37911" lon="6.83669">
        <ele>572.4</ele>
        <time>2012-04-15T08:24:50Z</time>
      </trkpt>
      <trkpt lat="48.37917" lon="6.8366">
        <ele>573.8</ele>
        <time>2012-04-15T08:24:55Z</time>
      </trkpt>
      <trkpt lat="48.37921" lon="6.8365">
        <ele>575.4</ele>
        <time>2012-04-15T08:25:00Z</time>
      </trkpt>
      <trkpt lat="48.37926" lon="6.83641">
        <ele>576.9</ele>
        <time>2012-04-15T08:25:07Z</time>
      </trkpt>
      <trkpt lat="48.37932" lon="6.83631">
        <ele>577.6</ele>
        <time>2012-04-15T08:25:14Z</time>
      </trkpt>
      <trkpt lat="48.37932" lon="6.8363">
        <ele>577.6</ele>
        <time>2012-04-15T08:25:15Z</time>
      </trkpt>
      <trkpt lat="48.37945" lon="6.83614">
        <ele>583.1</ele>
        <time>2012-04-15T08:25:35Z</time>
      </trkpt>
      <trkpt lat="48.37953" lon="6.83607">
        <ele>584.8</ele>
        <time>2012-04-15T08:25:44Z</time>
      </trkpt>
      <trkpt lat="48.3796" lon="6.83602">
        <ele>587.5</ele>
        <time>2012-04-15T08:25:59Z</time>
      </trkpt>
      <trkpt lat="48.37967" lon="6.83594">
        <ele>589.8</ele>
        <time>2012-04-15T08:26:09Z</time>
      </trkpt>
      <trkpt lat="48.37975" lon="6.83587">
        <ele>589.8</ele>
        <time>2012-04-15T08:26:22Z</time>
      </trkpt>
      <trkpt lat="48.37976" lon="6.83585">
        <ele>590</ele>
        <time>2012-04-15T08:26:23Z</time>
      </trkpt>
      <trkpt lat="48.37983" lon="6.83569">
        <ele>591.4</ele>
        <time>2012-04-15T08:26:29Z</time>
      </trkpt>
      <trkpt lat="48.37989" lon="6.83561">
        <ele>592.5</ele>
        <time>2012-04-15T08:26:32Z</time>
      </trkpt>
      <trkpt lat="48.37995" lon="6.83553">
        <ele>592.5</ele>
        <time>2012-04-15T08:26:35Z</time>
      </trkpt>
      <trkpt lat="48.38002" lon="6.83546">
        <ele>592.2</ele>
        <time>2012-04-15T08:26:38Z</time>
      </trkpt>
      <trkpt lat="48.38007" lon="6.83542">
        <ele>593</ele>
        <time>2012-04-15T08:26:40Z</time>
      </trkpt>
      <trkpt lat="48.38014" lon="6.83539">
        <ele>593.8</ele>
        <time>2012-04-15T08:26:42Z</time>
      </trkpt>
      <trkpt lat="48.3802" lon="6.83535">
        <ele>594.5</ele>
        <time>2012-04-15T08:26:44Z</time>
      </trkpt>
      <trkpt lat="48.38026" lon="6.8353">
        <ele>594.4</ele>
        <time>2012-04-15T08:26:46Z</time>
      </trkpt>
      <trkpt lat="48.38032" lon="6.83525">
        <ele>594.5</ele>
        <time>2012-04-15T08:26:48Z</time>
      </trkpt>
      <trkpt lat="48.38039" lon="6.83519">
        <ele>594.8</ele>
        <time>2012-04-15T08:26:50Z</time>
      </trkpt>
      <trkpt lat="48.38046" lon="6.83514">
        <ele>594.6</ele>
        <time>2012-04-15T08:26:52Z</time>
      </trkpt>
      <trkpt lat="48.38054" lon="6.83511">
        <ele>594.7</ele>
        <time>2012-04-15T08:26:54Z</time>
      </trkpt>
      <trkpt lat="48.38061" lon="6.83511">
        <ele>594.9</ele>
        <time>2012-04-15T08:26:56Z</time>
      </trkpt>
      <trkpt lat="48.38069" lon="6.83511">
        <ele>594.8</ele>
        <time>2012-04-15T08:26:58Z</time>
      </trkpt>
      <trkpt lat="48.38076" lon="6.83511">
        <ele>594.6</ele>
        <time>2012-04-15T08:27:00Z</time>
      </trkpt>
      <trkpt lat="48.38082" lon="6.83511">
        <ele>594.4</ele>
        <time>2012-04-15T08:27:02Z</time>
      </trkpt>
      <trkpt lat="48.38089" lon="6.8351">
        <ele>594.5</ele>
        <time>2012-04-15T08:27:04Z</time>
      </trkpt>
      <trkpt lat="48.38096" lon="6.83509">
        <ele>594.8</ele>
        <time>2012-04-15T08:27:06Z</time>
      </trkpt>
      <trkpt lat="48.38105" lon="6.83507">
        <ele>594.3</ele>
        <time>2012-04-15T08:27:08Z</time>
      </trkpt>
      <trkpt lat="48.38109" lon="6.83507">
        <ele>594.1</ele>
        <time>2012-04-15T08:27:09Z</time>
      </trkpt>
      <trkpt lat="48.38114" lon="6.83506">
        <ele>594.6</ele>
        <time>2012-04-15T08:27:10Z</time>
      </trkpt>
      <trkpt lat="48.38119" lon="6.83506">
        <ele>595</ele>
        <time>2012-04-15T08:27:11Z</time>
      </trkpt>
      <trkpt lat="48.38124" lon="6.83507">
        <ele>595.2</ele>
        <time>2012-04-15T08:27:12Z</time>
      </trkpt>
      <trkpt lat="48.38129" lon="6.83506">
        <ele>595.4</ele>
        <time>2012-04-15T08:27:13Z</time>
      </trkpt>
      <trkpt lat="48.38134" lon="6.83506">
        <ele>595.6</ele>
        <time>2012-04-15T08:27:14Z</time>
      </trkpt>
      <trkpt lat="48.38139" lon="6.83506">
        <ele>595.7</ele>
        <time>2012-04-15T08:27:15Z</time>
      </trkpt>
      <trkpt lat="48.38145" lon="6.83506">
        <ele>595.8</ele>
        <time>2012-04-15T08:27:16Z</time>
      </trkpt>
      <trkpt lat="48.38151" lon="6.83506">
        <ele>595.3</ele>
        <time>2012-04-15T08:27:17Z</time>
      </trkpt>
      <trkpt lat="48.38157" lon="6.83506">
        <ele>594.9</ele>
        <time>2012-04-15T08:27:18Z</time>
      </trkpt>
      <trkpt lat="48.38162" lon="6.83505">
        <ele>594.7</ele>
        <time>2012-04-15T08:27:19Z</time>
      </trkpt>
      <trkpt lat="48.38167" lon="6.83504">
        <ele>594.7</ele>
        <time>2012-04-15T08:27:20Z</time>
      </trkpt>
      <trkpt lat="48.38172" lon="6.83503">
        <ele>594.7</ele>
        <time>2012-04-15T08:27:21Z</time>
      </trkpt>
      <trkpt lat="48.38177" lon="6.83502">
        <ele>594.7</ele>
        <time>2012-04-15T08:27:22Z</time>
      </trkpt>
      <trkpt lat="48.38183" lon="6.83501">
        <ele>594.2</ele>
        <time>2012-04-15T08:27:23Z</time>
      </trkpt>
      <trkpt lat="48.38189" lon="6.83501">
        <ele>593.8</ele>
        <time>2012-04-15T08:27:24Z</time>
      </trkpt>
      <trkpt lat="48.38195" lon="6.835">
        <ele>593.5</ele>
        <time>2012-04-15T08:27:25Z</time>
      </trkpt>
      <trkpt lat="48.38201" lon="6.835">
        <ele>593.3</ele>
        <time>2012-04-15T08:27:26Z</time>
      </trkpt>
      <trkpt lat="48.38208" lon="6.835">
        <ele>593.1</ele>
        <time>2012-04-15T08:27:27Z</time>
      </trkpt>
      <trkpt lat="48.38214" lon="6.83499">
        <ele>592.9</ele>
        <time>2012-04-15T08:27:28Z</time>
      </trkpt>
      <trkpt lat="48.38219" lon="6.83499">
        <ele>592.8</ele>
        <time>2012-04-15T08:27:29Z</time>
      </trkpt>
      <trkpt lat="48.38225" lon="6.83498">
        <ele>593</ele>
        <time>2012-04-15T08:27:30Z</time>
      </trkpt>
      <trkpt lat="48.38231" lon="6.83498">
        <ele>593.1</ele>
        <time>2012-04-15T08:27:31Z</time>
      </trkpt>
      <trkpt lat="48.38237" lon="6.83497">
        <ele>593.1</ele>
        <time>2012-04-15T08:27:32Z</time>
      </trkpt>
      <trkpt lat="48.38243" lon="6.83497">
        <ele>593</ele>
        <time>2012-04-15T08:27:33Z</time>
      </trkpt>
      <trkpt lat="48.38249" lon="6.83496">
        <ele>592.8</ele>
        <time>2012-04-15T08:27:34Z</time>
      </trkpt>
      <trkpt lat="48.38255" lon="6.83496">
        <ele>592.7</ele>
        <time>2012-04-15T08:27:35Z</time>
      </trkpt>
      <trkpt lat="48.38261" lon="6.83495">
        <ele>592.5</ele>
        <time>2012-04-15T08:27:36Z</time>
      </trkpt>
      <trkpt lat="48.38268" lon="6.83494">
        <ele>592.3</ele>
        <time>2012-04-15T08:27:37Z</time>
      </trkpt>
      <trkpt lat="48.38274" lon="6.83494">
        <ele>592.2</ele>
        <time>2012-04-15T08:27:38Z</time>
      </trkpt>
      <trkpt lat="48.3828" lon="6.83493">
        <ele>591.8</ele>
        <time>2012-04-15T08:27:39Z</time>
      </trkpt>
      <trkpt lat="48.38286" lon="6.83493">
        <ele>591.4</ele>
        <time>2012-04-15T08:27:40Z</time>
      </trkpt>
      <trkpt lat="48.38292" lon="6.83492">
        <ele>591.1</ele>
        <time>2012-04-15T08:27:41Z</time>
      </trkpt>
      <trkpt lat="48.38299" lon="6.83494">
        <ele>590.9</ele>
        <time>2012-04-15T08:27:43Z</time>
      </trkpt>
      <trkpt lat="48.38301" lon="6.83503">
        <ele>590.8</ele>
        <time>2012-04-15T08:27:45Z</time>
      </trkpt>
      <trkpt lat="48.38302" lon="6.83516">
        <ele>590.6</ele>
        <time>2012-04-15T08:27:48Z</time>
      </trkpt>
      <trkpt lat="48.38304" lon="6.83528">
        <ele>590.6</ele>
        <time>2012-04-15T08:27:50Z</time>
      </trkpt>
      <trkpt lat="48.38304" lon="6.83537">
        <ele>590.6</ele>
        <time>2012-04-15T08:27:51Z</time>
      </trkpt>
      <trkpt lat="48.38306" lon="6.83545">
        <ele>590.5</ele>
        <time>2012-04-15T08:27:52Z</time>
      </trkpt>
      <trkpt lat="48.38308" lon="6.83554">
        <ele>590.4</ele>
        <time>2012-04-15T08:27:53Z</time>
      </trkpt>
      <trkpt lat="48.38309" lon="6.83561">
        <ele>590.4</ele>
        <time>2012-04-15T08:27:54Z</time>
      </trkpt>
      <trkpt lat="48.3831" lon="6.83571">
        <ele>590.3</ele>
        <time>2012-04-15T08:27:55Z</time>
      </trkpt>
      <trkpt lat="48.38311" lon="6.83579">
        <ele>590.3</ele>
        <time>2012-04-15T08:27:56Z</time>
      </trkpt>
      <trkpt lat="48.38313" lon="6.83587">
        <ele>590.2</ele>
        <time>2012-04-15T08:27:57Z</time>
      </trkpt>
      <trkpt lat="48.38316" lon="6.83594">
        <ele>589.7</ele>
        <time>2012-04-15T08:27:58Z</time>
      </trkpt>
      <trkpt lat="48.38321" lon="6.83599">
        <ele>589.1</ele>
        <time>2012-04-15T08:28:00Z</time>
      </trkpt>
      <trkpt lat="48.38329" lon="6.83605">
        <ele>587.6</ele>
        <time>2012-04-15T08:28:03Z</time>
      </trkpt>
      <trkpt lat="48.38331" lon="6.83611">
        <ele>587.3</ele>
        <time>2012-04-15T08:28:04Z</time>
      </trkpt>
      <trkpt lat="48.38333" lon="6.83619">
        <ele>587.1</ele>
        <time>2012-04-15T08:28:05Z</time>
      </trkpt>
      <trkpt lat="48.38337" lon="6.83627">
        <ele>587</ele>
        <time>2012-04-15T08:28:06Z</time>
      </trkpt>
      <trkpt lat="48.38345" lon="6.83632">
        <ele>586.4</ele>
        <time>2012-04-15T08:28:08Z</time>
      </trkpt>
      <trkpt lat="48.38351" lon="6.83633">
        <ele>585.7</ele>
        <time>2012-04-15T08:28:10Z</time>
      </trkpt>
      <trkpt lat="48.38358" lon="6.83635">
        <ele>585.7</ele>
        <time>2012-04-15T08:28:12Z</time>
      </trkpt>
      <trkpt lat="48.38363" lon="6.8364">
        <ele>586</ele>
        <time>2012-04-15T08:28:14Z</time>
      </trkpt>
      <trkpt lat="48.38369" lon="6.83645">
        <ele>586.4</ele>
        <time>2012-04-15T08:28:16Z</time>
      </trkpt>
      <trkpt lat="48.38376" lon="6.83648">
        <ele>586.6</ele>
        <time>2012-04-15T08:28:18Z</time>
      </trkpt>
      <trkpt lat="48.38382" lon="6.83655">
        <ele>586.8</ele>
        <time>2012-04-15T08:28:20Z</time>
      </trkpt>
      <trkpt lat="48.38388" lon="6.83663">
        <ele>586.3</ele>
        <time>2012-04-15T08:28:22Z</time>
      </trkpt>
      <trkpt lat="48.38394" lon="6.8367">
        <ele>586.8</ele>
        <time>2012-04-15T08:28:24Z</time>
      </trkpt>
      <trkpt lat="48.38397" lon="6.83673">
        <ele>587.3</ele>
        <time>2012-04-15T08:28:25Z</time>
      </trkpt>
      <trkpt lat="48.38406" lon="6.8368">
        <ele>587.9</ele>
        <time>2012-04-15T08:28:28Z</time>
      </trkpt>
      <trkpt lat="48.38414" lon="6.83679">
        <ele>587.9</ele>
        <time>2012-04-15T08:28:30Z</time>
      </trkpt>
      <trkpt lat="48.38422" lon="6.83677">
        <ele>587.7</ele>
        <time>2012-04-15T08:28:32Z</time>
      </trkpt>
      <trkpt lat="48.3843" lon="6.83678">
        <ele>588.5</ele>
        <time>2012-04-15T08:28:34Z</time>
      </trkpt>
      <trkpt lat="48.38438" lon="6.83677">
        <ele>589</ele>
        <time>2012-04-15T08:28:36Z</time>
      </trkpt>
      <trkpt lat="48.38446" lon="6.83676">
        <ele>589.2</ele>
        <time>2012-04-15T08:28:38Z</time>
      </trkpt>
      <trkpt lat="48.38454" lon="6.83674">
        <ele>589.1</ele>
        <time>2012-04-15T08:28:40Z</time>
      </trkpt>
      <trkpt lat="48.38463" lon="6.83672">
        <ele>589.5</ele>
        <time>2012-04-15T08:28:43Z</time>
      </trkpt>
      <trkpt lat="48.38471" lon="6.83672">
        <ele>590.3</ele>
        <time>2012-04-15T08:28:46Z</time>
      </trkpt>
      <trkpt lat="48.38479" lon="6.83675">
        <ele>590.5</ele>
        <time>2012-04-15T08:28:49Z</time>
      </trkpt>
      <trkpt lat="48.38487" lon="6.83677">
        <ele>590.8</ele>
        <time>2012-04-15T08:28:52Z</time>
      </trkpt>
      <trkpt lat="48.38494" lon="6.83675">
        <ele>590.9</ele>
        <time>2012-04-15T08:28:55Z</time>
      </trkpt>
      <trkpt lat="48.385" lon="6.83672">
        <ele>591.6</ele>
        <time>2012-04-15T08:28:57Z</time>
      </trkpt>
      <trkpt lat="48.38507" lon="6.83672">
        <ele>592.1</ele>
        <time>2012-04-15T08:28:59Z</time>
      </trkpt>
      <trkpt lat="48.38514" lon="6.83673">
        <ele>592.5</ele>
        <time>2012-04-15T08:29:01Z</time>
      </trkpt>
      <trkpt lat="48.38521" lon="6.83676">
        <ele>593.2</ele>
        <time>2012-04-15T08:29:03Z</time>
      </trkpt>
      <trkpt lat="48.38528" lon="6.83679">
        <ele>593.7</ele>
        <time>2012-04-15T08:29:05Z</time>
      </trkpt>
      <trkpt lat="48.38533" lon="6.83683">
        <ele>594.1</ele>
        <time>2012-04-15T08:29:07Z</time>
      </trkpt>
      <trkpt lat="48.3854" lon="6.83688">
        <ele>594.7</ele>
        <time>2012-04-15T08:29:09Z</time>
      </trkpt>
      <trkpt lat="48.38547" lon="6.83692">
        <ele>595</ele>
        <time>2012-04-15T08:29:11Z</time>
      </trkpt>
      <trkpt lat="48.38555" lon="6.83696">
        <ele>594.6</ele>
        <time>2012-04-15T08:29:13Z</time>
      </trkpt>
      <trkpt lat="48.38563" lon="6.83699">
        <ele>594.2</ele>
        <time>2012-04-15T08:29:16Z</time>
      </trkpt>
      <trkpt lat="48.3857" lon="6.83702">
        <ele>594.1</ele>
        <time>2012-04-15T08:29:18Z</time>
      </trkpt>
      <trkpt lat="48.38575" lon="6.83705">
        <ele>594.1</ele>
        <time>2012-04-15T08:29:19Z</time>
      </trkpt>
      <trkpt lat="48.3858" lon="6.83707">
        <ele>594.1</ele>
        <time>2012-04-15T08:29:20Z</time>
      </trkpt>
      <trkpt lat="48.38586" lon="6.8371">
        <ele>594.4</ele>
        <time>2012-04-15T08:29:21Z</time>
      </trkpt>
      <trkpt lat="48.38592" lon="6.83713">
        <ele>594.7</ele>
        <time>2012-04-15T08:29:22Z</time>
      </trkpt>
      <trkpt lat="48.38597" lon="6.83716">
        <ele>594.9</ele>
        <time>2012-04-15T08:29:23Z</time>
      </trkpt>
      <trkpt lat="48.38602" lon="6.8372">
        <ele>595</ele>
        <time>2012-04-15T08:29:24Z</time>
      </trkpt>
      <trkpt lat="48.38607" lon="6.83724">
        <ele>595.5</ele>
        <time>2012-04-15T08:29:25Z</time>
      </trkpt>
      <trkpt lat="48.3861" lon="6.83729">
        <ele>595.9</ele>
        <time>2012-04-15T08:29:26Z</time>
      </trkpt>
      <trkpt lat="48.38614" lon="6.8374">
        <ele>595.8</ele>
        <time>2012-04-15T08:29:28Z</time>
      </trkpt>
      <trkpt lat="48.38614" lon="6.83753">
        <ele>595.4</ele>
        <time>2012-04-15T08:29:30Z</time>
      </trkpt>
      <trkpt lat="48.38614" lon="6.8376">
        <ele>595.4</ele>
        <time>2012-04-15T08:29:31Z</time>
      </trkpt>
      <trkpt lat="48.38615" lon="6.83768">
        <ele>595.5</ele>
        <time>2012-04-15T08:29:32Z</time>
      </trkpt>
      <trkpt lat="48.38618" lon="6.83775">
        <ele>595.5</ele>
        <time>2012-04-15T08:29:33Z</time>
      </trkpt>
      <trkpt lat="48.38622" lon="6.83782">
        <ele>594.9</ele>
        <time>2012-04-15T08:29:34Z</time>
      </trkpt>
      <trkpt lat="48.38626" lon="6.83787">
        <ele>594.5</ele>
        <time>2012-04-15T08:29:35Z</time>
      </trkpt>
      <trkpt lat="48.3863" lon="6.83793">
        <ele>594.2</ele>
        <time>2012-04-15T08:29:36Z</time>
      </trkpt>
      <trkpt lat="48.38634" lon="6.83799">
        <ele>594.3</ele>
        <time>2012-04-15T08:29:37Z</time>
      </trkpt>
      <trkpt lat="48.38637" lon="6.83806">
        <ele>594.3</ele>
        <time>2012-04-15T08:29:38Z</time>
      </trkpt>
      <trkpt lat="48.38639" lon="6.83813">
        <ele>594.4</ele>
        <time>2012-04-15T08:29:39Z</time>
      </trkpt>
      <trkpt lat="48.38642" lon="6.83821">
        <ele>594.9</ele>
        <time>2012-04-15T08:29:40Z</time>
      </trkpt>
      <trkpt lat="48.38645" lon="6.83828">
        <ele>595.3</ele>
        <time>2012-04-15T08:29:41Z</time>
      </trkpt>
      <trkpt lat="48.38648" lon="6.83834">
        <ele>595.6</ele>
        <time>2012-04-15T08:29:42Z</time>
      </trkpt>
      <trkpt lat="48.38651" lon="6.83841">
        <ele>595.8</ele>
        <time>2012-04-15T08:29:43Z</time>
      </trkpt>
      <trkpt lat="48.38655" lon="6.83847">
        <ele>595.7</ele>
        <time>2012-04-15T08:29:44Z</time>
      </trkpt>
      <trkpt lat="48.38659" lon="6.83852">
        <ele>595.6</ele>
        <time>2012-04-15T08:29:45Z</time>
      </trkpt>
      <trkpt lat="48.38662" lon="6.83857">
        <ele>595.6</ele>
        <time>2012-04-15T08:29:46Z</time>
      </trkpt>
      <trkpt lat="48.38666" lon="6.83862">
        <ele>595.7</ele>
        <time>2012-04-15T08:29:47Z</time>
      </trkpt>
      <trkpt lat="48.38669" lon="6.83866">
        <ele>595.9</ele>
        <time>2012-04-15T08:29:48Z</time>
      </trkpt>
      <trkpt lat="48.38673" lon="6.8387">
        <ele>596</ele>
        <time>2012-04-15T08:29:49Z</time>
      </trkpt>
      <trkpt lat="48.38678" lon="6.83873">
        <ele>596.1</ele>
        <time>2012-04-15T08:29:50Z</time>
      </trkpt>
      <trkpt lat="48.38682" lon="6.83877">
        <ele>596.2</ele>
        <time>2012-04-15T08:29:51Z</time>
      </trkpt>
      <trkpt lat="48.38686" lon="6.83882">
        <ele>596.3</ele>
        <time>2012-04-15T08:29:52Z</time>
      </trkpt>
      <trkpt lat="48.38689" lon="6.83886">
        <ele>596.2</ele>
        <time>2012-04-15T08:29:53Z</time>
      </trkpt>
      <trkpt lat="48.38693" lon="6.8389">
        <ele>596.2</ele>
        <time>2012-04-15T08:29:54Z</time>
      </trkpt>
      <trkpt lat="48.38699" lon="6.839">
        <ele>596</ele>
        <time>2012-04-15T08:29:56Z</time>
      </trkpt>
      <trkpt lat="48.38701" lon="6.83906">
        <ele>595.9</ele>
        <time>2012-04-15T08:29:57Z</time>
      </trkpt>
      <trkpt lat="48.38704" lon="6.83912">
        <ele>595.8</ele>
        <time>2012-04-15T08:29:58Z</time>
      </trkpt>
      <trkpt lat="48.38707" lon="6.83918">
        <ele>595.7</ele>
        <time>2012-04-15T08:29:59Z</time>
      </trkpt>
      <trkpt lat="48.38709" lon="6.83924">
        <ele>595.8</ele>
        <time>2012-04-15T08:30:00Z</time>
      </trkpt>
      <trkpt lat="48.38712" lon="6.8393">
        <ele>595.9</ele>
        <time>2012-04-15T08:30:01Z</time>
      </trkpt>
      <trkpt lat="48.38714" lon="6.83936">
        <ele>596</ele>
        <time>2012-04-15T08:30:02Z</time>
      </trkpt>
      <trkpt lat="48.38717" lon="6.83941">
        <ele>596.1</ele>
        <time>2012-04-15T08:30:03Z</time>
      </trkpt>
      <trkpt lat="48.38724" lon="6.8395">
        <ele>596.3</ele>
        <time>2012-04-15T08:30:05Z</time>
      </trkpt>
      <trkpt lat="48.38729" lon="6.83955">
        <ele>595.5</ele>
        <time>2012-04-15T08:30:07Z</time>
      </trkpt>
      <trkpt lat="48.38735" lon="6.83959">
        <ele>595.4</ele>
        <time>2012-04-15T08:30:09Z</time>
      </trkpt>
      <trkpt lat="48.38741" lon="6.83966">
        <ele>595.5</ele>
        <time>2012-04-15T08:30:11Z</time>
      </trkpt>
      <trkpt lat="48.38747" lon="6.83974">
        <ele>595.1</ele>
        <time>2012-04-15T08:30:13Z</time>
      </trkpt>
      <trkpt lat="48.38753" lon="6.83983">
        <ele>595.5</ele>
        <time>2012-04-15T08:30:15Z</time>
      </trkpt>
      <trkpt lat="48.38759" lon="6.83993">
        <ele>596.3</ele>
        <time>2012-04-15T08:30:17Z</time>
      </trkpt>
      <trkpt lat="48.38766" lon="6.84001">
        <ele>596.8</ele>
        <time>2012-04-15T08:30:19Z</time>
      </trkpt>
      <trkpt lat="48.38773" lon="6.84006">
        <ele>597.2</ele>
        <time>2012-04-15T08:30:21Z</time>
      </trkpt>
      <trkpt lat="48.38779" lon="6.84014">
        <ele>597.3</ele>
        <time>2012-04-15T08:30:23Z</time>
      </trkpt>
      <trkpt lat="48.38786" lon="6.8402">
        <ele>597.1</ele>
        <time>2012-04-15T08:30:25Z</time>
      </trkpt>
      <trkpt lat="48.38792" lon="6.84028">
        <ele>596.7</ele>
        <time>2012-04-15T08:30:27Z</time>
      </trkpt>
      <trkpt lat="48.38795" lon="6.84033">
        <ele>596.3</ele>
        <time>2012-04-15T08:30:28Z</time>
      </trkpt>
      <trkpt lat="48.38801" lon="6.84043">
        <ele>595.8</ele>
        <time>2012-04-15T08:30:30Z</time>
      </trkpt>
      <trkpt lat="48.38804" lon="6.84048">
        <ele>595.7</ele>
        <time>2012-04-15T08:30:31Z</time>
      </trkpt>
      <trkpt lat="48.38807" lon="6.84053">
        <ele>595.7</ele>
        <time>2012-04-15T08:30:32Z</time>
      </trkpt>
      <trkpt lat="48.38811" lon="6.84058">
        <ele>595.7</ele>
        <time>2012-04-15T08:30:33Z</time>
      </trkpt>
      <trkpt lat="48.38815" lon="6.84064">
        <ele>595.7</ele>
        <time>2012-04-15T08:30:34Z</time>
      </trkpt>
      <trkpt lat="48.38818" lon="6.84069">
        <ele>596.2</ele>
        <time>2012-04-15T08:30:35Z</time>
      </trkpt>
      <trkpt lat="48.38822" lon="6.84074">
        <ele>596.6</ele>
        <time>2012-04-15T08:30:36Z</time>
      </trkpt>
      <trkpt lat="48.38826" lon="6.84078">
        <ele>596.9</ele>
        <time>2012-04-15T08:30:37Z</time>
      </trkpt>
      <trkpt lat="48.3883" lon="6.84084">
        <ele>596.5</ele>
        <time>2012-04-15T08:30:38Z</time>
      </trkpt>
      <trkpt lat="48.38835" lon="6.84088">
        <ele>596.1</ele>
        <time>2012-04-15T08:30:39Z</time>
      </trkpt>
      <trkpt lat="48.38841" lon="6.84094">
        <ele>596.1</ele>
        <time>2012-04-15T08:30:41Z</time>
      </trkpt>
      <trkpt lat="48.38845" lon="6.84097">
        <ele>596.3</ele>
        <time>2012-04-15T08:30:42Z</time>
      </trkpt>
      <trkpt lat="48.38853" lon="6.84102">
        <ele>596.4</ele>
        <time>2012-04-15T08:30:44Z</time>
      </trkpt>
      <trkpt lat="48.38857" lon="6.84103">
        <ele>596.3</ele>
        <time>2012-04-15T08:30:45Z</time>
      </trkpt>
      <trkpt lat="48.38862" lon="6.84104">
        <ele>596.2</ele>
        <time>2012-04-15T08:30:46Z</time>
      </trkpt>
      <trkpt lat="48.38867" lon="6.84103">
        <ele>596.1</ele>
        <time>2012-04-15T08:30:47Z</time>
      </trkpt>
      <trkpt lat="48.38873" lon="6.84104">
        <ele>596</ele>
        <time>2012-04-15T08:30:48Z</time>
      </trkpt>
      <trkpt lat="48.38879" lon="6.84106">
        <ele>595.9</ele>
        <time>2012-04-15T08:30:49Z</time>
      </trkpt>
      <trkpt lat="48.38884" lon="6.84108">
        <ele>595.8</ele>
        <time>2012-04-15T08:30:50Z</time>
      </trkpt>
      <trkpt lat="48.38892" lon="6.84111">
        <ele>596.4</ele>
        <time>2012-04-15T08:30:52Z</time>
      </trkpt>
      <trkpt lat="48.38901" lon="6.84112">
        <ele>596.4</ele>
        <time>2012-04-15T08:30:54Z</time>
      </trkpt>
      <trkpt lat="48.38909" lon="6.84114">
        <ele>596</ele>
        <time>2012-04-15T08:30:56Z</time>
      </trkpt>
      <trkpt lat="48.38917" lon="6.84119">
        <ele>596</ele>
        <time>2012-04-15T08:30:58Z</time>
      </trkpt>
      <trkpt lat="48.38924" lon="6.84118">
        <ele>595.7</ele>
        <time>2012-04-15T08:31:00Z</time>
      </trkpt>
      <trkpt lat="48.38932" lon="6.84112">
        <ele>595.4</ele>
        <time>2012-04-15T08:31:02Z</time>
      </trkpt>
      <trkpt lat="48.38939" lon="6.84112">
        <ele>595.2</ele>
        <time>2012-04-15T08:31:04Z</time>
      </trkpt>
      <trkpt lat="48.38943" lon="6.84115">
        <ele>595.2</ele>
        <time>2012-04-15T08:31:05Z</time>
      </trkpt>
      <trkpt lat="48.38947" lon="6.84119">
        <ele>595.2</ele>
        <time>2012-04-15T08:31:06Z</time>
      </trkpt>
      <trkpt lat="48.38952" lon="6.84121">
        <ele>594.5</ele>
        <time>2012-04-15T08:31:07Z</time>
      </trkpt>
      <trkpt lat="48.3896" lon="6.84123">
        <ele>593.6</ele>
        <time>2012-04-15T08:31:09Z</time>
      </trkpt>
      <trkpt lat="48.38968" lon="6.84122">
        <ele>592.7</ele>
        <time>2012-04-15T08:31:11Z</time>
      </trkpt>
      <trkpt lat="48.38975" lon="6.8412">
        <ele>591.9</ele>
        <time>2012-04-15T08:31:13Z</time>
      </trkpt>
      <trkpt lat="48.38982" lon="6.84115">
        <ele>591.2</ele>
        <time>2012-04-15T08:31:15Z</time>
      </trkpt>
      <trkpt lat="48.3899" lon="6.84115">
        <ele>591.8</ele>
        <time>2012-04-15T08:31:17Z</time>
      </trkpt>
      <trkpt lat="48.38997" lon="6.84114">
        <ele>591.9</ele>
        <time>2012-04-15T08:31:19Z</time>
      </trkpt>
      <trkpt lat="48.39006" lon="6.84115">
        <ele>591.8</ele>
        <time>2012-04-15T08:31:21Z</time>
      </trkpt>
      <trkpt lat="48.3901" lon="6.84114">
        <ele>591.8</ele>
        <time>2012-04-15T08:31:22Z</time>
      </trkpt>
      <trkpt lat="48.39019" lon="6.84113">
        <ele>592</ele>
        <time>2012-04-15T08:31:24Z</time>
      </trkpt>
      <trkpt lat="48.39027" lon="6.84116">
        <ele>592.2</ele>
        <time>2012-04-15T08:31:26Z</time>
      </trkpt>
      <trkpt lat="48.39035" lon="6.84119">
        <ele>592.4</ele>
        <time>2012-04-15T08:31:28Z</time>
      </trkpt>
      <trkpt lat="48.39039" lon="6.84118">
        <ele>591.7</ele>
        <time>2012-04-15T08:31:29Z</time>
      </trkpt>
      <trkpt lat="48.3905" lon="6.84119">
        <ele>591.4</ele>
        <time>2012-04-15T08:31:32Z</time>
      </trkpt>
      <trkpt lat="48.39057" lon="6.84121">
        <ele>592.2</ele>
        <time>2012-04-15T08:31:34Z</time>
      </trkpt>
      <trkpt lat="48.39062" lon="6.84121">
        <ele>592.3</ele>
        <time>2012-04-15T08:31:35Z</time>
      </trkpt>
      <trkpt lat="48.3907" lon="6.84122">
        <ele>592.4</ele>
        <time>2012-04-15T08:31:37Z</time>
      </trkpt>
      <trkpt lat="48.39076" lon="6.84122">
        <ele>592.8</ele>
        <time>2012-04-15T08:31:39Z</time>
      </trkpt>
      <trkpt lat="48.39084" lon="6.84123">
        <ele>593.3</ele>
        <time>2012-04-15T08:31:41Z</time>
      </trkpt>
      <trkpt lat="48.39093" lon="6.84123">
        <ele>592.4</ele>
        <time>2012-04-15T08:31:43Z</time>
      </trkpt>
      <trkpt lat="48.39097" lon="6.84124">
        <ele>592.2</ele>
        <time>2012-04-15T08:31:44Z</time>
      </trkpt>
      <trkpt lat="48.39102" lon="6.84125">
        <ele>592.3</ele>
        <time>2012-04-15T08:31:45Z</time>
      </trkpt>
      <trkpt lat="48.39107" lon="6.84125">
        <ele>592.4</ele>
        <time>2012-04-15T08:31:46Z</time>
      </trkpt>
      <trkpt lat="48.39115" lon="6.84125">
        <ele>592.2</ele>
        <time>2012-04-15T08:31:48Z</time>
      </trkpt>
      <trkpt lat="48.39123" lon="6.84124">
        <ele>592.4</ele>
        <time>2012-04-15T08:31:52Z</time>
      </trkpt>
      <trkpt lat="48.39129" lon="6.84118">
        <ele>592</ele>
        <time>2012-04-15T08:31:56Z</time>
      </trkpt>
      <trkpt lat="48.39133" lon="6.84111">
        <ele>591.3</ele>
        <time>2012-04-15T08:31:59Z</time>
      </trkpt>
      <trkpt lat="48.39136" lon="6.84099">
        <ele>590.9</ele>
        <time>2012-04-15T08:32:03Z</time>
      </trkpt>
      <trkpt lat="48.39134" lon="6.84089">
        <ele>591.2</ele>
        <time>2012-04-15T08:32:06Z</time>
      </trkpt>
      <trkpt lat="48.39132" lon="6.8408">
        <ele>592.3</ele>
        <time>2012-04-15T08:32:08Z</time>
      </trkpt>
      <trkpt lat="48.39132" lon="6.84069">
        <ele>592.5</ele>
        <time>2012-04-15T08:32:10Z</time>
      </trkpt>
      <trkpt lat="48.39133" lon="6.84057">
        <ele>592.4</ele>
        <time>2012-04-15T08:32:12Z</time>
      </trkpt>
      <trkpt lat="48.39129" lon="6.84046">
        <ele>592.3</ele>
        <time>2012-04-15T08:32:14Z</time>
      </trkpt>
      <trkpt lat="48.39127" lon="6.84041">
        <ele>592.2</ele>
        <time>2012-04-15T08:32:15Z</time>
      </trkpt>
      <trkpt lat="48.39125" lon="6.84033">
        <ele>592.2</ele>
        <time>2012-04-15T08:32:16Z</time>
      </trkpt>
      <trkpt lat="48.39122" lon="6.84026">
        <ele>591.5</ele>
        <time>2012-04-15T08:32:17Z</time>
      </trkpt>
      <trkpt lat="48.39121" lon="6.84019">
        <ele>591.1</ele>
        <time>2012-04-15T08:32:18Z</time>
      </trkpt>
      <trkpt lat="48.39119" lon="6.84012">
        <ele>590.7</ele>
        <time>2012-04-15T08:32:19Z</time>
      </trkpt>
      <trkpt lat="48.39116" lon="6.84006">
        <ele>589.4</ele>
        <time>2012-04-15T08:32:20Z</time>
      </trkpt>
      <trkpt lat="48.39113" lon="6.84">
        <ele>588.5</ele>
        <time>2012-04-15T08:32:21Z</time>
      </trkpt>
      <trkpt lat="48.39111" lon="6.83992">
        <ele>587.8</ele>
        <time>2012-04-15T08:32:22Z</time>
      </trkpt>
      <trkpt lat="48.39108" lon="6.83984">
        <ele>586.7</ele>
        <time>2012-04-15T08:32:23Z</time>
      </trkpt>
      <trkpt lat="48.39105" lon="6.83976">
        <ele>585.9</ele>
        <time>2012-04-15T08:32:24Z</time>
      </trkpt>
      <trkpt lat="48.391" lon="6.83965">
        <ele>583.3</ele>
        <time>2012-04-15T08:32:27Z</time>
      </trkpt>
      <trkpt lat="48.39098" lon="6.83952">
        <ele>581.3</ele>
        <time>2012-04-15T08:32:34Z</time>
      </trkpt>
      <trkpt lat="48.39098" lon="6.83951">
        <ele>581</ele>
        <time>2012-04-15T08:32:35Z</time>
      </trkpt>
      <trkpt lat="48.39089" lon="6.83936">
        <ele>581</ele>
        <time>2012-04-15T08:32:42Z</time>
      </trkpt>
      <trkpt lat="48.39084" lon="6.83926">
        <ele>581.3</ele>
        <time>2012-04-15T08:32:45Z</time>
      </trkpt>
      <trkpt lat="48.39079" lon="6.83918">
        <ele>581.9</ele>
        <time>2012-04-15T08:32:48Z</time>
      </trkpt>
      <trkpt lat="48.39074" lon="6.83911">
        <ele>583.7</ele>
        <time>2012-04-15T08:32:51Z</time>
      </trkpt>
      <trkpt lat="48.39068" lon="6.83903">
        <ele>583.6</ele>
        <time>2012-04-15T08:32:54Z</time>
      </trkpt>
      <trkpt lat="48.39062" lon="6.83897">
        <ele>585.5</ele>
        <time>2012-04-15T08:32:57Z</time>
      </trkpt>
      <trkpt lat="48.39055" lon="6.8389">
        <ele>587</ele>
        <time>2012-04-15T08:33:00Z</time>
      </trkpt>
      <trkpt lat="48.3905" lon="6.83884">
        <ele>587.9</ele>
        <time>2012-04-15T08:33:02Z</time>
      </trkpt>
      <trkpt lat="48.39044" lon="6.83877">
        <ele>588.4</ele>
        <time>2012-04-15T08:33:04Z</time>
      </trkpt>
      <trkpt lat="48.39038" lon="6.8387">
        <ele>589</ele>
        <time>2012-04-15T08:33:06Z</time>
      </trkpt>
      <trkpt lat="48.39033" lon="6.83862">
        <ele>589.4</ele>
        <time>2012-04-15T08:33:08Z</time>
      </trkpt>
      <trkpt lat="48.39027" lon="6.83855">
        <ele>589.7</ele>
        <time>2012-04-15T08:33:10Z</time>
      </trkpt>
      <trkpt lat="48.3902" lon="6.83847">
        <ele>590.1</ele>
        <time>2012-04-15T08:33:12Z</time>
      </trkpt>
      <trkpt lat="48.39015" lon="6.83839">
        <ele>590.1</ele>
        <time>2012-04-15T08:33:14Z</time>
      </trkpt>
      <trkpt lat="48.39009" lon="6.83832">
        <ele>590</ele>
        <time>2012-04-15T08:33:16Z</time>
      </trkpt>
      <trkpt lat="48.39004" lon="6.83822">
        <ele>590.6</ele>
        <time>2012-04-15T08:33:18Z</time>
      </trkpt>
      <trkpt lat="48.39001" lon="6.83816">
        <ele>590.8</ele>
        <time>2012-04-15T08:33:19Z</time>
      </trkpt>
      <trkpt lat="48.38998" lon="6.83811">
        <ele>590.9</ele>
        <time>2012-04-15T08:33:20Z</time>
      </trkpt>
      <trkpt lat="48.38996" lon="6.83804">
        <ele>591</ele>
        <time>2012-04-15T08:33:21Z</time>
      </trkpt>
      <trkpt lat="48.38993" lon="6.83798">
        <ele>591.1</ele>
        <time>2012-04-15T08:33:22Z</time>
      </trkpt>
      <trkpt lat="48.3899" lon="6.83792">
        <ele>591.2</ele>
        <time>2012-04-15T08:33:23Z</time>
      </trkpt>
      <trkpt lat="48.38988" lon="6.83785">
        <ele>591.3</ele>
        <time>2012-04-15T08:33:24Z</time>
      </trkpt>
      <trkpt lat="48.38985" lon="6.83778">
        <ele>591.3</ele>
        <time>2012-04-15T08:33:25Z</time>
      </trkpt>
      <trkpt lat="48.38983" lon="6.83771">
        <ele>591.3</ele>
        <time>2012-04-15T08:33:26Z</time>
      </trkpt>
      <trkpt lat="48.3898" lon="6.83764">
        <ele>590.8</ele>
        <time>2012-04-15T08:33:27Z</time>
      </trkpt>
      <trkpt lat="48.38977" lon="6.83758">
        <ele>590.4</ele>
        <time>2012-04-15T08:33:28Z</time>
      </trkpt>
      <trkpt lat="48.38974" lon="6.83752">
        <ele>590.1</ele>
        <time>2012-04-15T08:33:29Z</time>
      </trkpt>
      <trkpt lat="48.38972" lon="6.83745">
        <ele>590.1</ele>
        <time>2012-04-15T08:33:30Z</time>
      </trkpt>
      <trkpt lat="48.38969" lon="6.83738">
        <ele>590.1</ele>
        <time>2012-04-15T08:33:31Z</time>
      </trkpt>
      <trkpt lat="48.38966" lon="6.83731">
        <ele>590.1</ele>
        <time>2012-04-15T08:33:32Z</time>
      </trkpt>
      <trkpt lat="48.38963" lon="6.83724">
        <ele>589.8</ele>
        <time>2012-04-15T08:33:33Z</time>
      </trkpt>
      <trkpt lat="48.3896" lon="6.83717">
        <ele>589.5</ele>
        <time>2012-04-15T08:33:34Z</time>
      </trkpt>
      <trkpt lat="48.38956" lon="6.83711">
        <ele>589.3</ele>
        <time>2012-04-15T08:33:35Z</time>
      </trkpt>
      <trkpt lat="48.38952" lon="6.83704">
        <ele>589.2</ele>
        <time>2012-04-15T08:33:36Z</time>
      </trkpt>
      <trkpt lat="48.38947" lon="6.83698">
        <ele>589.7</ele>
        <time>2012-04-15T08:33:37Z</time>
      </trkpt>
      <trkpt lat="48.38943" lon="6.83691">
        <ele>590.1</ele>
        <time>2012-04-15T08:33:38Z</time>
      </trkpt>
      <trkpt lat="48.38939" lon="6.83685">
        <ele>590.4</ele>
        <time>2012-04-15T08:33:39Z</time>
      </trkpt>
      <trkpt lat="48.38935" lon="6.83679">
        <ele>590</ele>
        <time>2012-04-15T08:33:40Z</time>
      </trkpt>
      <trkpt lat="48.3893" lon="6.83672">
        <ele>589.8</ele>
        <time>2012-04-15T08:33:41Z</time>
      </trkpt>
      <trkpt lat="48.38926" lon="6.83667">
        <ele>589.6</ele>
        <time>2012-04-15T08:33:42Z</time>
      </trkpt>
      <trkpt lat="48.38922" lon="6.83661">
        <ele>589.5</ele>
        <time>2012-04-15T08:33:43Z</time>
      </trkpt>
      <trkpt lat="48.38917" lon="6.83655">
        <ele>589.4</ele>
        <time>2012-04-15T08:33:44Z</time>
      </trkpt>
      <trkpt lat="48.38914" lon="6.83648">
        <ele>589.3</ele>
        <time>2012-04-15T08:33:45Z</time>
      </trkpt>
      <trkpt lat="48.3891" lon="6.83641">
        <ele>589.1</ele>
        <time>2012-04-15T08:33:46Z</time>
      </trkpt>
      <trkpt lat="48.38907" lon="6.83634">
        <ele>588.9</ele>
        <time>2012-04-15T08:33:47Z</time>
      </trkpt>
      <trkpt lat="48.38903" lon="6.83628">
        <ele>588.8</ele>
        <time>2012-04-15T08:33:48Z</time>
      </trkpt>
      <trkpt lat="48.38899" lon="6.83622">
        <ele>589.2</ele>
        <time>2012-04-15T08:33:49Z</time>
      </trkpt>
      <trkpt lat="48.38896" lon="6.83615">
        <ele>589.4</ele>
        <time>2012-04-15T08:33:50Z</time>
      </trkpt>
      <trkpt lat="48.38892" lon="6.83609">
        <ele>589.7</ele>
        <time>2012-04-15T08:33:51Z</time>
      </trkpt>
      <trkpt lat="48.38889" lon="6.83603">
        <ele>589.8</ele>
        <time>2012-04-15T08:33:52Z</time>
      </trkpt>
      <trkpt lat="48.38885" lon="6.83596">
        <ele>589.7</ele>
        <time>2012-04-15T08:33:53Z</time>
      </trkpt>
      <trkpt lat="48.38882" lon="6.8359">
        <ele>589.6</ele>
        <time>2012-04-15T08:33:54Z</time>
      </trkpt>
      <trkpt lat="48.38878" lon="6.83583">
        <ele>589.6</ele>
        <time>2012-04-15T08:33:55Z</time>
      </trkpt>
      <trkpt lat="48.38874" lon="6.83577">
        <ele>589.9</ele>
        <time>2012-04-15T08:33:56Z</time>
      </trkpt>
      <trkpt lat="48.3887" lon="6.83571">
        <ele>590.1</ele>
        <time>2012-04-15T08:33:57Z</time>
      </trkpt>
      <trkpt lat="48.38866" lon="6.83565">
        <ele>590.3</ele>
        <time>2012-04-15T08:33:58Z</time>
      </trkpt>
      <trkpt lat="48.38861" lon="6.8356">
        <ele>590.4</ele>
        <time>2012-04-15T08:33:59Z</time>
      </trkpt>
      <trkpt lat="48.38856" lon="6.83555">
        <ele>590.5</ele>
        <time>2012-04-15T08:34:00Z</time>
      </trkpt>
      <trkpt lat="48.38851" lon="6.8355">
        <ele>590.6</ele>
        <time>2012-04-15T08:34:01Z</time>
      </trkpt>
      <trkpt lat="48.38846" lon="6.83546">
        <ele>590.2</ele>
        <time>2012-04-15T08:34:02Z</time>
      </trkpt>
      <trkpt lat="48.38841" lon="6.83541">
        <ele>589.8</ele>
        <time>2012-04-15T08:34:03Z</time>
      </trkpt>
      <trkpt lat="48.38837" lon="6.83536">
        <ele>589.6</ele>
        <time>2012-04-15T08:34:04Z</time>
      </trkpt>
      <trkpt lat="48.38832" lon="6.83532">
        <ele>589.2</ele>
        <time>2012-04-15T08:34:05Z</time>
      </trkpt>
      <trkpt lat="48.38827" lon="6.83527">
        <ele>588.9</ele>
        <time>2012-04-15T08:34:06Z</time>
      </trkpt>
      <trkpt lat="48.38822" lon="6.83522">
        <ele>588.7</ele>
        <time>2012-04-15T08:34:07Z</time>
      </trkpt>
      <trkpt lat="48.38817" lon="6.83516">
        <ele>588.5</ele>
        <time>2012-04-15T08:34:08Z</time>
      </trkpt>
      <trkpt lat="48.38813" lon="6.83511">
        <ele>588.3</ele>
        <time>2012-04-15T08:34:09Z</time>
      </trkpt>
      <trkpt lat="48.38809" lon="6.83505">
        <ele>588.1</ele>
        <time>2012-04-15T08:34:10Z</time>
      </trkpt>
      <trkpt lat="48.38805" lon="6.83498">
        <ele>588</ele>
        <time>2012-04-15T08:34:11Z</time>
      </trkpt>
      <trkpt lat="48.38801" lon="6.83491">
        <ele>587.7</ele>
        <time>2012-04-15T08:34:12Z</time>
      </trkpt>
      <trkpt lat="48.38797" lon="6.83483">
        <ele>587.4</ele>
        <time>2012-04-15T08:34:13Z</time>
      </trkpt>
      <trkpt lat="48.38793" lon="6.83475">
        <ele>587.2</ele>
        <time>2012-04-15T08:34:14Z</time>
      </trkpt>
      <trkpt lat="48.38789" lon="6.83468">
        <ele>586.9</ele>
        <time>2012-04-15T08:34:15Z</time>
      </trkpt>
      <trkpt lat="48.38786" lon="6.83462">
        <ele>586.7</ele>
        <time>2012-04-15T08:34:16Z</time>
      </trkpt>
      <trkpt lat="48.38783" lon="6.83456">
        <ele>586.5</ele>
        <time>2012-04-15T08:34:17Z</time>
      </trkpt>
      <trkpt lat="48.38777" lon="6.83446">
        <ele>586.3</ele>
        <time>2012-04-15T08:34:19Z</time>
      </trkpt>
      <trkpt lat="48.38771" lon="6.83436">
        <ele>585.6</ele>
        <time>2012-04-15T08:34:21Z</time>
      </trkpt>
      <trkpt lat="48.38768" lon="6.83431">
        <ele>585.1</ele>
        <time>2012-04-15T08:34:22Z</time>
      </trkpt>
      <trkpt lat="48.38765" lon="6.83426">
        <ele>584.7</ele>
        <time>2012-04-15T08:34:23Z</time>
      </trkpt>
      <trkpt lat="48.38761" lon="6.83422">
        <ele>584.4</ele>
        <time>2012-04-15T08:34:24Z</time>
      </trkpt>
      <trkpt lat="48.38755" lon="6.83412">
        <ele>583.9</ele>
        <time>2012-04-15T08:34:26Z</time>
      </trkpt>
      <trkpt lat="48.38751" lon="6.83408">
        <ele>583.8</ele>
        <time>2012-04-15T08:34:27Z</time>
      </trkpt>
      <trkpt lat="48.38747" lon="6.83403">
        <ele>584</ele>
        <time>2012-04-15T08:34:28Z</time>
      </trkpt>
      <trkpt lat="48.38744" lon="6.83399">
        <ele>584.2</ele>
        <time>2012-04-15T08:34:29Z</time>
      </trkpt>
      <trkpt lat="48.3874" lon="6.83395">
        <ele>584.3</ele>
        <time>2012-04-15T08:34:30Z</time>
      </trkpt>
      <trkpt lat="48.38735" lon="6.83391">
        <ele>584.2</ele>
        <time>2012-04-15T08:34:31Z</time>
      </trkpt>
      <trkpt lat="48.38731" lon="6.83388">
        <ele>584.1</ele>
        <time>2012-04-15T08:34:32Z</time>
      </trkpt>
      <trkpt lat="48.38727" lon="6.83384">
        <ele>584</ele>
        <time>2012-04-15T08:34:33Z</time>
      </trkpt>
      <trkpt lat="48.38722" lon="6.83381">
        <ele>583.9</ele>
        <time>2012-04-15T08:34:34Z</time>
      </trkpt>
      <trkpt lat="48.38718" lon="6.83377">
        <ele>583.9</ele>
        <time>2012-04-15T08:34:35Z</time>
      </trkpt>
      <trkpt lat="48.38714" lon="6.83373">
        <ele>583.9</ele>
        <time>2012-04-15T08:34:36Z</time>
      </trkpt>
      <trkpt lat="48.3871" lon="6.83369">
        <ele>583.7</ele>
        <time>2012-04-15T08:34:37Z</time>
      </trkpt>
      <trkpt lat="48.38705" lon="6.83363">
        <ele>583.6</ele>
        <time>2012-04-15T08:34:38Z</time>
      </trkpt>
      <trkpt lat="48.38701" lon="6.83357">
        <ele>583.6</ele>
        <time>2012-04-15T08:34:39Z</time>
      </trkpt>
      <trkpt lat="48.38697" lon="6.83351">
        <ele>583.9</ele>
        <time>2012-04-15T08:34:40Z</time>
      </trkpt>
      <trkpt lat="48.38694" lon="6.83344">
        <ele>584.1</ele>
        <time>2012-04-15T08:34:41Z</time>
      </trkpt>
      <trkpt lat="48.38691" lon="6.83337">
        <ele>584.3</ele>
        <time>2012-04-15T08:34:42Z</time>
      </trkpt>
      <trkpt lat="48.38688" lon="6.83329">
        <ele>584.4</ele>
        <time>2012-04-15T08:34:43Z</time>
      </trkpt>
      <trkpt lat="48.38685" lon="6.83322">
        <ele>584.3</ele>
        <time>2012-04-15T08:34:44Z</time>
      </trkpt>
      <trkpt lat="48.38682" lon="6.83314">
        <ele>584.2</ele>
        <time>2012-04-15T08:34:45Z</time>
      </trkpt>
      <trkpt lat="48.3868" lon="6.83306">
        <ele>584.2</ele>
        <time>2012-04-15T08:34:46Z</time>
      </trkpt>
      <trkpt lat="48.38678" lon="6.83298">
        <ele>584.4</ele>
        <time>2012-04-15T08:34:47Z</time>
      </trkpt>
      <trkpt lat="48.38675" lon="6.83289">
        <ele>584.5</ele>
        <time>2012-04-15T08:34:48Z</time>
      </trkpt>
      <trkpt lat="48.38673" lon="6.83281">
        <ele>584.6</ele>
        <time>2012-04-15T08:34:49Z</time>
      </trkpt>
      <trkpt lat="48.3867" lon="6.83272">
        <ele>584.4</ele>
        <time>2012-04-15T08:34:50Z</time>
      </trkpt>
      <trkpt lat="48.38666" lon="6.83264">
        <ele>584.2</ele>
        <time>2012-04-15T08:34:51Z</time>
      </trkpt>
      <trkpt lat="48.38662" lon="6.83256">
        <ele>584</ele>
        <time>2012-04-15T08:34:52Z</time>
      </trkpt>
      <trkpt lat="48.38658" lon="6.83249">
        <ele>583.4</ele>
        <time>2012-04-15T08:34:53Z</time>
      </trkpt>
      <trkpt lat="48.38653" lon="6.83242">
        <ele>583</ele>
        <time>2012-04-15T08:34:54Z</time>
      </trkpt>
      <trkpt lat="48.38649" lon="6.83235">
        <ele>582.6</ele>
        <time>2012-04-15T08:34:55Z</time>
      </trkpt>
      <trkpt lat="48.38645" lon="6.83228">
        <ele>582.6</ele>
        <time>2012-04-15T08:34:56Z</time>
      </trkpt>
      <trkpt lat="48.38641" lon="6.8322">
        <ele>582.6</ele>
        <time>2012-04-15T08:34:57Z</time>
      </trkpt>
      <trkpt lat="48.38638" lon="6.83211">
        <ele>582.5</ele>
        <time>2012-04-15T08:34:58Z</time>
      </trkpt>
      <trkpt lat="48.38636" lon="6.83202">
        <ele>582.5</ele>
        <time>2012-04-15T08:34:59Z</time>
      </trkpt>
      <trkpt lat="48.38633" lon="6.83193">
        <ele>581.8</ele>
        <time>2012-04-15T08:35:00Z</time>
      </trkpt>
      <trkpt lat="48.3863" lon="6.83185">
        <ele>581.2</ele>
        <time>2012-04-15T08:35:01Z</time>
      </trkpt>
      <trkpt lat="48.38626" lon="6.83176">
        <ele>580.8</ele>
        <time>2012-04-15T08:35:02Z</time>
      </trkpt>
      <trkpt lat="48.38621" lon="6.83169">
        <ele>581</ele>
        <time>2012-04-15T08:35:03Z</time>
      </trkpt>
      <trkpt lat="48.38617" lon="6.83162">
        <ele>581.1</ele>
        <time>2012-04-15T08:35:04Z</time>
      </trkpt>
      <trkpt lat="48.38612" lon="6.83155">
        <ele>581.2</ele>
        <time>2012-04-15T08:35:05Z</time>
      </trkpt>
      <trkpt lat="48.38608" lon="6.83148">
        <ele>581.1</ele>
        <time>2012-04-15T08:35:06Z</time>
      </trkpt>
      <trkpt lat="48.38605" lon="6.8314">
        <ele>581</ele>
        <time>2012-04-15T08:35:07Z</time>
      </trkpt>
      <trkpt lat="48.38602" lon="6.83131">
        <ele>581</ele>
        <time>2012-04-15T08:35:08Z</time>
      </trkpt>
      <trkpt lat="48.38597" lon="6.83123">
        <ele>580.8</ele>
        <time>2012-04-15T08:35:09Z</time>
      </trkpt>
      <trkpt lat="48.38592" lon="6.83116">
        <ele>580.7</ele>
        <time>2012-04-15T08:35:10Z</time>
      </trkpt>
      <trkpt lat="48.38587" lon="6.8311">
        <ele>580.7</ele>
        <time>2012-04-15T08:35:11Z</time>
      </trkpt>
      <trkpt lat="48.38582" lon="6.83103">
        <ele>580.5</ele>
        <time>2012-04-15T08:35:12Z</time>
      </trkpt>
      <trkpt lat="48.38577" lon="6.83096">
        <ele>580.4</ele>
        <time>2012-04-15T08:35:13Z</time>
      </trkpt>
      <trkpt lat="48.38572" lon="6.83087">
        <ele>580.3</ele>
        <time>2012-04-15T08:35:14Z</time>
      </trkpt>
      <trkpt lat="48.38568" lon="6.83078">
        <ele>580.2</ele>
        <time>2012-04-15T08:35:15Z</time>
      </trkpt>
      <trkpt lat="48.38563" lon="6.83069">
        <ele>579.6</ele>
        <time>2012-04-15T08:35:16Z</time>
      </trkpt>
      <trkpt lat="48.3856" lon="6.8306">
        <ele>579.1</ele>
        <time>2012-04-15T08:35:17Z</time>
      </trkpt>
      <trkpt lat="48.38556" lon="6.8305">
        <ele>578.8</ele>
        <time>2012-04-15T08:35:18Z</time>
      </trkpt>
      <trkpt lat="48.38551" lon="6.83042">
        <ele>578.5</ele>
        <time>2012-04-15T08:35:19Z</time>
      </trkpt>
      <trkpt lat="48.38546" lon="6.83035">
        <ele>578.3</ele>
        <time>2012-04-15T08:35:20Z</time>
      </trkpt>
      <trkpt lat="48.38541" lon="6.83027">
        <ele>578.1</ele>
        <time>2012-04-15T08:35:21Z</time>
      </trkpt>
      <trkpt lat="48.38538" lon="6.83018">
        <ele>577.9</ele>
        <time>2012-04-15T08:35:22Z</time>
      </trkpt>
      <trkpt lat="48.38535" lon="6.83009">
        <ele>577.7</ele>
        <time>2012-04-15T08:35:23Z</time>
      </trkpt>
      <trkpt lat="48.38531" lon="6.83">
        <ele>577.6</ele>
        <time>2012-04-15T08:35:24Z</time>
      </trkpt>
      <trkpt lat="48.38528" lon="6.82991">
        <ele>576.9</ele>
        <time>2012-04-15T08:35:25Z</time>
      </trkpt>
      <trkpt lat="48.38524" lon="6.82982">
        <ele>576.5</ele>
        <time>2012-04-15T08:35:26Z</time>
      </trkpt>
      <trkpt lat="48.38521" lon="6.82974">
        <ele>576.1</ele>
        <time>2012-04-15T08:35:27Z</time>
      </trkpt>
      <trkpt lat="48.38519" lon="6.82965">
        <ele>575.6</ele>
        <time>2012-04-15T08:35:28Z</time>
      </trkpt>
      <trkpt lat="48.38516" lon="6.82955">
        <ele>575.2</ele>
        <time>2012-04-15T08:35:29Z</time>
      </trkpt>
      <trkpt lat="48.38514" lon="6.82945">
        <ele>574.9</ele>
        <time>2012-04-15T08:35:30Z</time>
      </trkpt>
      <trkpt lat="48.38512" lon="6.82934">
        <ele>574.2</ele>
        <time>2012-04-15T08:35:31Z</time>
      </trkpt>
      <trkpt lat="48.38509" lon="6.82925">
        <ele>573.7</ele>
        <time>2012-04-15T08:35:32Z</time>
      </trkpt>
      <trkpt lat="48.38506" lon="6.82914">
        <ele>573.4</ele>
        <time>2012-04-15T08:35:33Z</time>
      </trkpt>
      <trkpt lat="48.38503" lon="6.82904">
        <ele>573.1</ele>
        <time>2012-04-15T08:35:34Z</time>
      </trkpt>
      <trkpt lat="48.385" lon="6.82896">
        <ele>572.8</ele>
        <time>2012-04-15T08:35:35Z</time>
      </trkpt>
      <trkpt lat="48.38497" lon="6.82887">
        <ele>572.6</ele>
        <time>2012-04-15T08:35:36Z</time>
      </trkpt>
      <trkpt lat="48.38493" lon="6.82878">
        <ele>572.4</ele>
        <time>2012-04-15T08:35:37Z</time>
      </trkpt>
      <trkpt lat="48.3849" lon="6.8287">
        <ele>571.9</ele>
        <time>2012-04-15T08:35:38Z</time>
      </trkpt>
      <trkpt lat="48.38487" lon="6.82861">
        <ele>571.5</ele>
        <time>2012-04-15T08:35:39Z</time>
      </trkpt>
      <trkpt lat="48.38485" lon="6.8285">
        <ele>571.2</ele>
        <time>2012-04-15T08:35:40Z</time>
      </trkpt>
      <trkpt lat="48.38482" lon="6.8284">
        <ele>571.2</ele>
        <time>2012-04-15T08:35:41Z</time>
      </trkpt>
      <trkpt lat="48.38481" lon="6.8283">
        <ele>571.2</ele>
        <time>2012-04-15T08:35:42Z</time>
      </trkpt>
      <trkpt lat="48.38479" lon="6.82821">
        <ele>571.2</ele>
        <time>2012-04-15T08:35:43Z</time>
      </trkpt>
      <trkpt lat="48.38478" lon="6.82812">
        <ele>571.1</ele>
        <time>2012-04-15T08:35:44Z</time>
      </trkpt>
      <trkpt lat="48.38477" lon="6.82803">
        <ele>571</ele>
        <time>2012-04-15T08:35:45Z</time>
      </trkpt>
      <trkpt lat="48.38475" lon="6.82794">
        <ele>570.9</ele>
        <time>2012-04-15T08:35:46Z</time>
      </trkpt>
      <trkpt lat="48.38473" lon="6.82784">
        <ele>570.8</ele>
        <time>2012-04-15T08:35:47Z</time>
      </trkpt>
      <trkpt lat="48.38471" lon="6.82776">
        <ele>570.4</ele>
        <time>2012-04-15T08:35:48Z</time>
      </trkpt>
      <trkpt lat="48.38469" lon="6.82767">
        <ele>570.2</ele>
        <time>2012-04-15T08:35:49Z</time>
      </trkpt>
      <trkpt lat="48.38467" lon="6.82758">
        <ele>569.9</ele>
        <time>2012-04-15T08:35:50Z</time>
      </trkpt>
      <trkpt lat="48.38465" lon="6.82748">
        <ele>569.6</ele>
        <time>2012-04-15T08:35:51Z</time>
      </trkpt>
      <trkpt lat="48.38463" lon="6.82738">
        <ele>569.4</ele>
        <time>2012-04-15T08:35:52Z</time>
      </trkpt>
      <trkpt lat="48.38461" lon="6.82727">
        <ele>569.2</ele>
        <time>2012-04-15T08:35:53Z</time>
      </trkpt>
      <trkpt lat="48.38459" lon="6.82716">
        <ele>569</ele>
        <time>2012-04-15T08:35:54Z</time>
      </trkpt>
      <trkpt lat="48.38457" lon="6.82705">
        <ele>568.9</ele>
        <time>2012-04-15T08:35:55Z</time>
      </trkpt>
      <trkpt lat="48.38456" lon="6.82694">
        <ele>568.8</ele>
        <time>2012-04-15T08:35:56Z</time>
      </trkpt>
      <trkpt lat="48.38455" lon="6.82683">
        <ele>568</ele>
        <time>2012-04-15T08:35:57Z</time>
      </trkpt>
      <trkpt lat="48.38452" lon="6.82673">
        <ele>567.5</ele>
        <time>2012-04-15T08:35:58Z</time>
      </trkpt>
      <trkpt lat="48.3845" lon="6.82663">
        <ele>567.1</ele>
        <time>2012-04-15T08:35:59Z</time>
      </trkpt>
      <trkpt lat="48.38447" lon="6.82654">
        <ele>566.3</ele>
        <time>2012-04-15T08:36:00Z</time>
      </trkpt>
      <trkpt lat="48.38442" lon="6.82646">
        <ele>565.6</ele>
        <time>2012-04-15T08:36:01Z</time>
      </trkpt>
      <trkpt lat="48.38438" lon="6.82638">
        <ele>565.2</ele>
        <time>2012-04-15T08:36:02Z</time>
      </trkpt>
      <trkpt lat="48.38433" lon="6.82629">
        <ele>564.3</ele>
        <time>2012-04-15T08:36:03Z</time>
      </trkpt>
      <trkpt lat="48.38428" lon="6.82622">
        <ele>563.6</ele>
        <time>2012-04-15T08:36:04Z</time>
      </trkpt>
      <trkpt lat="48.38421" lon="6.82618">
        <ele>563.1</ele>
        <time>2012-04-15T08:36:05Z</time>
      </trkpt>
      <trkpt lat="48.38415" lon="6.82614">
        <ele>562.7</ele>
        <time>2012-04-15T08:36:06Z</time>
      </trkpt>
      <trkpt lat="48.38409" lon="6.8261">
        <ele>561.6</ele>
        <time>2012-04-15T08:36:07Z</time>
      </trkpt>
      <trkpt lat="48.38404" lon="6.82606">
        <ele>560.7</ele>
        <time>2012-04-15T08:36:08Z</time>
      </trkpt>
      <trkpt lat="48.38396" lon="6.82601">
        <ele>558.3</ele>
        <time>2012-04-15T08:36:10Z</time>
      </trkpt>
      <trkpt lat="48.3839" lon="6.82601">
        <ele>556.1</ele>
        <time>2012-04-15T08:36:12Z</time>
      </trkpt>
      <trkpt lat="48.38383" lon="6.82598">
        <ele>555.7</ele>
        <time>2012-04-15T08:36:14Z</time>
      </trkpt>
      <trkpt lat="48.38378" lon="6.82597">
        <ele>555.6</ele>
        <time>2012-04-15T08:36:15Z</time>
      </trkpt>
      <trkpt lat="48.38373" lon="6.82595">
        <ele>554.9</ele>
        <time>2012-04-15T08:36:16Z</time>
      </trkpt>
      <trkpt lat="48.38369" lon="6.82594">
        <ele>554.4</ele>
        <time>2012-04-15T08:36:17Z</time>
      </trkpt>
      <trkpt lat="48.38364" lon="6.82593">
        <ele>554.1</ele>
        <time>2012-04-15T08:36:18Z</time>
      </trkpt>
      <trkpt lat="48.38359" lon="6.82592">
        <ele>553.8</ele>
        <time>2012-04-15T08:36:19Z</time>
      </trkpt>
      <trkpt lat="48.38352" lon="6.82593">
        <ele>553.7</ele>
        <time>2012-04-15T08:36:20Z</time>
      </trkpt>
      <trkpt lat="48.38346" lon="6.82593">
        <ele>553.5</ele>
        <time>2012-04-15T08:36:21Z</time>
      </trkpt>
      <trkpt lat="48.3834" lon="6.82595">
        <ele>553.4</ele>
        <time>2012-04-15T08:36:22Z</time>
      </trkpt>
      <trkpt lat="48.38335" lon="6.82598">
        <ele>553</ele>
        <time>2012-04-15T08:36:23Z</time>
      </trkpt>
      <trkpt lat="48.38331" lon="6.82601">
        <ele>552.7</ele>
        <time>2012-04-15T08:36:24Z</time>
      </trkpt>
      <trkpt lat="48.38327" lon="6.82606">
        <ele>552.4</ele>
        <time>2012-04-15T08:36:25Z</time>
      </trkpt>
      <trkpt lat="48.38321" lon="6.8261">
        <ele>552</ele>
        <time>2012-04-15T08:36:26Z</time>
      </trkpt>
      <trkpt lat="48.38317" lon="6.82616">
        <ele>551.6</ele>
        <time>2012-04-15T08:36:27Z</time>
      </trkpt>
      <trkpt lat="48.38313" lon="6.82623">
        <ele>551.3</ele>
        <time>2012-04-15T08:36:28Z</time>
      </trkpt>
      <trkpt lat="48.3831" lon="6.82629">
        <ele>550.5</ele>
        <time>2012-04-15T08:36:29Z</time>
      </trkpt>
      <trkpt lat="48.38307" lon="6.82638">
        <ele>549.9</ele>
        <time>2012-04-15T08:36:30Z</time>
      </trkpt>
      <trkpt lat="48.38305" lon="6.82646">
        <ele>549.4</ele>
        <time>2012-04-15T08:36:31Z</time>
      </trkpt>
      <trkpt lat="48.38301" lon="6.82656">
        <ele>548.4</ele>
        <time>2012-04-15T08:36:32Z</time>
      </trkpt>
      <trkpt lat="48.38298" lon="6.82665">
        <ele>547.7</ele>
        <time>2012-04-15T08:36:33Z</time>
      </trkpt>
      <trkpt lat="48.38296" lon="6.82675">
        <ele>547.2</ele>
        <time>2012-04-15T08:36:34Z</time>
      </trkpt>
      <trkpt lat="48.38292" lon="6.82686">
        <ele>546.3</ele>
        <time>2012-04-15T08:36:35Z</time>
      </trkpt>
      <trkpt lat="48.38289" lon="6.82695">
        <ele>545.7</ele>
        <time>2012-04-15T08:36:36Z</time>
      </trkpt>
      <trkpt lat="48.38285" lon="6.82705">
        <ele>545.2</ele>
        <time>2012-04-15T08:36:37Z</time>
      </trkpt>
      <trkpt lat="48.38282" lon="6.82712">
        <ele>544.4</ele>
        <time>2012-04-15T08:36:38Z</time>
      </trkpt>
      <trkpt lat="48.38279" lon="6.82718">
        <ele>543.8</ele>
        <time>2012-04-15T08:36:39Z</time>
      </trkpt>
      <trkpt lat="48.38275" lon="6.82725">
        <ele>543.4</ele>
        <time>2012-04-15T08:36:40Z</time>
      </trkpt>
      <trkpt lat="48.3827" lon="6.82732">
        <ele>543</ele>
        <time>2012-04-15T08:36:41Z</time>
      </trkpt>
      <trkpt lat="48.38267" lon="6.82738">
        <ele>542.7</ele>
        <time>2012-04-15T08:36:42Z</time>
      </trkpt>
      <trkpt lat="48.38264" lon="6.82744">
        <ele>542.4</ele>
        <time>2012-04-15T08:36:43Z</time>
      </trkpt>
      <trkpt lat="48.38261" lon="6.8275">
        <ele>542.2</ele>
        <time>2012-04-15T08:36:44Z</time>
      </trkpt>
      <trkpt lat="48.38257" lon="6.82762">
        <ele>541.1</ele>
        <time>2012-04-15T08:36:46Z</time>
      </trkpt>
      <trkpt lat="48.38255" lon="6.82768">
        <ele>540.8</ele>
        <time>2012-04-15T08:36:47Z</time>
      </trkpt>
      <trkpt lat="48.38252" lon="6.82774">
        <ele>540.6</ele>
        <time>2012-04-15T08:36:48Z</time>
      </trkpt>
      <trkpt lat="48.3825" lon="6.82781">
        <ele>540.5</ele>
        <time>2012-04-15T08:36:49Z</time>
      </trkpt>
      <trkpt lat="48.38249" lon="6.82794">
        <ele>540.1</ele>
        <time>2012-04-15T08:36:51Z</time>
      </trkpt>
      <trkpt lat="48.38247" lon="6.82805">
        <ele>539.6</ele>
        <time>2012-04-15T08:36:53Z</time>
      </trkpt>
      <trkpt lat="48.38242" lon="6.82815">
        <ele>539.1</ele>
        <time>2012-04-15T08:36:55Z</time>
      </trkpt>
      <trkpt lat="48.38238" lon="6.82827">
        <ele>538.8</ele>
        <time>2012-04-15T08:36:57Z</time>
      </trkpt>
      <trkpt lat="48.38236" lon="6.82833">
        <ele>538.6</ele>
        <time>2012-04-15T08:36:58Z</time>
      </trkpt>
      <trkpt lat="48.38233" lon="6.8284">
        <ele>538.5</ele>
        <time>2012-04-15T08:36:59Z</time>
      </trkpt>
      <trkpt lat="48.3823" lon="6.82845">
        <ele>538.5</ele>
        <time>2012-04-15T08:37:00Z</time>
      </trkpt>
      <trkpt lat="48.38228" lon="6.82852">
        <ele>538.1</ele>
        <time>2012-04-15T08:37:01Z</time>
      </trkpt>
      <trkpt lat="48.38225" lon="6.8286">
        <ele>537.9</ele>
        <time>2012-04-15T08:37:02Z</time>
      </trkpt>
      <trkpt lat="48.38223" lon="6.82868">
        <ele>537.7</ele>
        <time>2012-04-15T08:37:03Z</time>
      </trkpt>
      <trkpt lat="48.38221" lon="6.82875">
        <ele>537.2</ele>
        <time>2012-04-15T08:37:04Z</time>
      </trkpt>
      <trkpt lat="48.38217" lon="6.82883">
        <ele>536.8</ele>
        <time>2012-04-15T08:37:05Z</time>
      </trkpt>
      <trkpt lat="48.38216" lon="6.82891">
        <ele>536.6</ele>
        <time>2012-04-15T08:37:06Z</time>
      </trkpt>
      <trkpt lat="48.38215" lon="6.82899">
        <ele>536.3</ele>
        <time>2012-04-15T08:37:07Z</time>
      </trkpt>
      <trkpt lat="48.38213" lon="6.82908">
        <ele>536.1</ele>
        <time>2012-04-15T08:37:08Z</time>
      </trkpt>
      <trkpt lat="48.38211" lon="6.82916">
        <ele>535.9</ele>
        <time>2012-04-15T08:37:09Z</time>
      </trkpt>
      <trkpt lat="48.38209" lon="6.82924">
        <ele>535.2</ele>
        <time>2012-04-15T08:37:10Z</time>
      </trkpt>
      <trkpt lat="48.38208" lon="6.82931">
        <ele>534.6</ele>
        <time>2012-04-15T08:37:11Z</time>
      </trkpt>
      <trkpt lat="48.38206" lon="6.82938">
        <ele>534.2</ele>
        <time>2012-04-15T08:37:12Z</time>
      </trkpt>
      <trkpt lat="48.38204" lon="6.82951">
        <ele>533.7</ele>
        <time>2012-04-15T08:37:14Z</time>
      </trkpt>
      <trkpt lat="48.382" lon="6.82961">
        <ele>533.4</ele>
        <time>2012-04-15T08:37:16Z</time>
      </trkpt>
      <trkpt lat="48.38198" lon="6.8297">
        <ele>533.7</ele>
        <time>2012-04-15T08:37:18Z</time>
      </trkpt>
      <trkpt lat="48.38195" lon="6.8298">
        <ele>533.8</ele>
        <time>2012-04-15T08:37:20Z</time>
      </trkpt>
      <trkpt lat="48.38191" lon="6.82988">
        <ele>533.8</ele>
        <time>2012-04-15T08:37:22Z</time>
      </trkpt>
      <trkpt lat="48.38187" lon="6.82998">
        <ele>533.2</ele>
        <time>2012-04-15T08:37:24Z</time>
      </trkpt>
      <trkpt lat="48.38184" lon="6.83004">
        <ele>533</ele>
        <time>2012-04-15T08:37:25Z</time>
      </trkpt>
      <trkpt lat="48.38181" lon="6.8301">
        <ele>533.1</ele>
        <time>2012-04-15T08:37:26Z</time>
      </trkpt>
      <trkpt lat="48.38174" lon="6.83019">
        <ele>533.3</ele>
        <time>2012-04-15T08:37:28Z</time>
      </trkpt>
      <trkpt lat="48.38168" lon="6.83026">
        <ele>533.1</ele>
        <time>2012-04-15T08:37:30Z</time>
      </trkpt>
      <trkpt lat="48.38161" lon="6.83033">
        <ele>532.8</ele>
        <time>2012-04-15T08:37:32Z</time>
      </trkpt>
      <trkpt lat="48.38157" lon="6.83037">
        <ele>533.1</ele>
        <time>2012-04-15T08:37:33Z</time>
      </trkpt>
      <trkpt lat="48.38153" lon="6.8304">
        <ele>533.3</ele>
        <time>2012-04-15T08:37:34Z</time>
      </trkpt>
      <trkpt lat="48.38146" lon="6.83047">
        <ele>533.3</ele>
        <time>2012-04-15T08:37:36Z</time>
      </trkpt>
      <trkpt lat="48.38139" lon="6.83051">
        <ele>533.1</ele>
        <time>2012-04-15T08:37:38Z</time>
      </trkpt>
      <trkpt lat="48.38131" lon="6.83052">
        <ele>533.1</ele>
        <time>2012-04-15T08:37:40Z</time>
      </trkpt>
      <trkpt lat="48.38126" lon="6.83051">
        <ele>533.2</ele>
        <time>2012-04-15T08:37:41Z</time>
      </trkpt>
      <trkpt lat="48.38114" lon="6.83051">
        <ele>531.7</ele>
        <time>2012-04-15T08:37:44Z</time>
      </trkpt>
      <trkpt lat="48.38106" lon="6.83048">
        <ele>531.7</ele>
        <time>2012-04-15T08:37:46Z</time>
      </trkpt>
      <trkpt lat="48.38101" lon="6.83046">
        <ele>531.9</ele>
        <time>2012-04-15T08:37:47Z</time>
      </trkpt>
      <trkpt lat="48.38097" lon="6.83044">
        <ele>532</ele>
        <time>2012-04-15T08:37:48Z</time>
      </trkpt>
      <trkpt lat="48.38092" lon="6.83041">
        <ele>532</ele>
        <time>2012-04-15T08:37:49Z</time>
      </trkpt>
      <trkpt lat="48.38088" lon="6.83038">
        <ele>531.9</ele>
        <time>2012-04-15T08:37:50Z</time>
      </trkpt>
      <trkpt lat="48.38083" lon="6.83036">
        <ele>531.9</ele>
        <time>2012-04-15T08:37:51Z</time>
      </trkpt>
      <trkpt lat="48.38075" lon="6.8303">
        <ele>531.9</ele>
        <time>2012-04-15T08:37:53Z</time>
      </trkpt>
      <trkpt lat="48.38068" lon="6.83022">
        <ele>531.9</ele>
        <time>2012-04-15T08:37:55Z</time>
      </trkpt>
      <trkpt lat="48.38064" lon="6.83018">
        <ele>532</ele>
        <time>2012-04-15T08:37:56Z</time>
      </trkpt>
      <trkpt lat="48.3806" lon="6.83013">
        <ele>532</ele>
        <time>2012-04-15T08:37:57Z</time>
      </trkpt>
      <trkpt lat="48.38055" lon="6.83008">
        <ele>531.8</ele>
        <time>2012-04-15T08:37:58Z</time>
      </trkpt>
      <trkpt lat="48.3805" lon="6.83002">
        <ele>531.6</ele>
        <time>2012-04-15T08:37:59Z</time>
      </trkpt>
      <trkpt lat="48.38045" lon="6.82996">
        <ele>531.4</ele>
        <time>2012-04-15T08:38:00Z</time>
      </trkpt>
      <trkpt lat="48.38041" lon="6.8299">
        <ele>531.3</ele>
        <time>2012-04-15T08:38:01Z</time>
      </trkpt>
      <trkpt lat="48.38037" lon="6.82985">
        <ele>531.4</ele>
        <time>2012-04-15T08:38:02Z</time>
      </trkpt>
      <trkpt lat="48.38032" lon="6.82978">
        <ele>531.5</ele>
        <time>2012-04-15T08:38:03Z</time>
      </trkpt>
      <trkpt lat="48.38028" lon="6.8297">
        <ele>531.5</ele>
        <time>2012-04-15T08:38:04Z</time>
      </trkpt>
      <trkpt lat="48.38024" lon="6.82962">
        <ele>530.8</ele>
        <time>2012-04-15T08:38:05Z</time>
      </trkpt>
      <trkpt lat="48.3802" lon="6.82955">
        <ele>530.3</ele>
        <time>2012-04-15T08:38:06Z</time>
      </trkpt>
      <trkpt lat="48.38017" lon="6.82947">
        <ele>529.9</ele>
        <time>2012-04-15T08:38:07Z</time>
      </trkpt>
      <trkpt lat="48.38013" lon="6.82939">
        <ele>530.3</ele>
        <time>2012-04-15T08:38:08Z</time>
      </trkpt>
      <trkpt lat="48.3801" lon="6.82932">
        <ele>530.5</ele>
        <time>2012-04-15T08:38:09Z</time>
      </trkpt>
      <trkpt lat="48.38006" lon="6.82926">
        <ele>530.7</ele>
        <time>2012-04-15T08:38:10Z</time>
      </trkpt>
      <trkpt lat="48.38003" lon="6.82919">
        <ele>530.5</ele>
        <time>2012-04-15T08:38:11Z</time>
      </trkpt>
      <trkpt lat="48.38" lon="6.82913">
        <ele>530.3</ele>
        <time>2012-04-15T08:38:12Z</time>
      </trkpt>
      <trkpt lat="48.37998" lon="6.82906">
        <ele>530.2</ele>
        <time>2012-04-15T08:38:13Z</time>
      </trkpt>
      <trkpt lat="48.37995" lon="6.82899">
        <ele>530</ele>
        <time>2012-04-15T08:38:14Z</time>
      </trkpt>
      <trkpt lat="48.37991" lon="6.82891">
        <ele>529.8</ele>
        <time>2012-04-15T08:38:15Z</time>
      </trkpt>
      <trkpt lat="48.37989" lon="6.82883">
        <ele>529.7</ele>
        <time>2012-04-15T08:38:16Z</time>
      </trkpt>
      <trkpt lat="48.37986" lon="6.82876">
        <ele>529.5</ele>
        <time>2012-04-15T08:38:17Z</time>
      </trkpt>
      <trkpt lat="48.37983" lon="6.82869">
        <ele>529.4</ele>
        <time>2012-04-15T08:38:18Z</time>
      </trkpt>
      <trkpt lat="48.3798" lon="6.82861">
        <ele>529.4</ele>
        <time>2012-04-15T08:38:19Z</time>
      </trkpt>
      <trkpt lat="48.37977" lon="6.82855">
        <ele>529.3</ele>
        <time>2012-04-15T08:38:20Z</time>
      </trkpt>
      <trkpt lat="48.37974" lon="6.82847">
        <ele>529.1</ele>
        <time>2012-04-15T08:38:21Z</time>
      </trkpt>
      <trkpt lat="48.3797" lon="6.82839">
        <ele>528.9</ele>
        <time>2012-04-15T08:38:22Z</time>
      </trkpt>
      <trkpt lat="48.37966" lon="6.82833">
        <ele>528.8</ele>
        <time>2012-04-15T08:38:23Z</time>
      </trkpt>
      <trkpt lat="48.37961" lon="6.82827">
        <ele>528.7</ele>
        <time>2012-04-15T08:38:24Z</time>
      </trkpt>
      <trkpt lat="48.37956" lon="6.82822">
        <ele>528.7</ele>
        <time>2012-04-15T08:38:25Z</time>
      </trkpt>
      <trkpt lat="48.37952" lon="6.82816">
        <ele>528.7</ele>
        <time>2012-04-15T08:38:26Z</time>
      </trkpt>
      <trkpt lat="48.37947" lon="6.82812">
        <ele>528.6</ele>
        <time>2012-04-15T08:38:27Z</time>
      </trkpt>
      <trkpt lat="48.37942" lon="6.82809">
        <ele>528.5</ele>
        <time>2012-04-15T08:38:28Z</time>
      </trkpt>
      <trkpt lat="48.37937" lon="6.82806">
        <ele>528.4</ele>
        <time>2012-04-15T08:38:29Z</time>
      </trkpt>
      <trkpt lat="48.37932" lon="6.82804">
        <ele>527.6</ele>
        <time>2012-04-15T08:38:30Z</time>
      </trkpt>
      <trkpt lat="48.37927" lon="6.82801">
        <ele>526.9</ele>
        <time>2012-04-15T08:38:31Z</time>
      </trkpt>
      <trkpt lat="48.37921" lon="6.82797">
        <ele>526.5</ele>
        <time>2012-04-15T08:38:32Z</time>
      </trkpt>
      <trkpt lat="48.37916" lon="6.82793">
        <ele>526.4</ele>
        <time>2012-04-15T08:38:33Z</time>
      </trkpt>
      <trkpt lat="48.37911" lon="6.82788">
        <ele>526.4</ele>
        <time>2012-04-15T08:38:34Z</time>
      </trkpt>
      <trkpt lat="48.37907" lon="6.82783">
        <ele>526.4</ele>
        <time>2012-04-15T08:38:35Z</time>
      </trkpt>
      <trkpt lat="48.379" lon="6.82775">
        <ele>526.6</ele>
        <time>2012-04-15T08:38:37Z</time>
      </trkpt>
      <trkpt lat="48.37896" lon="6.82766">
        <ele>526.8</ele>
        <time>2012-04-15T08:38:39Z</time>
      </trkpt>
      <trkpt lat="48.37893" lon="6.82756">
        <ele>526.4</ele>
        <time>2012-04-15T08:38:41Z</time>
      </trkpt>
      <trkpt lat="48.37892" lon="6.82749">
        <ele>526.3</ele>
        <time>2012-04-15T08:38:42Z</time>
      </trkpt>
      <trkpt lat="48.3789" lon="6.82743">
        <ele>525.8</ele>
        <time>2012-04-15T08:38:43Z</time>
      </trkpt>
      <trkpt lat="48.37889" lon="6.82736">
        <ele>525.4</ele>
        <time>2012-04-15T08:38:44Z</time>
      </trkpt>
      <trkpt lat="48.37888" lon="6.82729">
        <ele>525.1</ele>
        <time>2012-04-15T08:38:45Z</time>
      </trkpt>
      <trkpt lat="48.37887" lon="6.82722">
        <ele>524.7</ele>
        <time>2012-04-15T08:38:46Z</time>
      </trkpt>
      <trkpt lat="48.37886" lon="6.82715">
        <ele>524.3</ele>
        <time>2012-04-15T08:38:47Z</time>
      </trkpt>
      <trkpt lat="48.37885" lon="6.82707">
        <ele>524.1</ele>
        <time>2012-04-15T08:38:48Z</time>
      </trkpt>
      <trkpt lat="48.37885" lon="6.82699">
        <ele>524</ele>
        <time>2012-04-15T08:38:49Z</time>
      </trkpt>
      <trkpt lat="48.37882" lon="6.82691">
        <ele>524</ele>
        <time>2012-04-15T08:38:50Z</time>
      </trkpt>
      <trkpt lat="48.37879" lon="6.82683">
        <ele>524</ele>
        <time>2012-04-15T08:38:51Z</time>
      </trkpt>
      <trkpt lat="48.37875" lon="6.82675">
        <ele>523.9</ele>
        <time>2012-04-15T08:38:52Z</time>
      </trkpt>
      <trkpt lat="48.37871" lon="6.82668">
        <ele>523.6</ele>
        <time>2012-04-15T08:38:53Z</time>
      </trkpt>
      <trkpt lat="48.37866" lon="6.82663">
        <ele>523.3</ele>
        <time>2012-04-15T08:38:54Z</time>
      </trkpt>
      <trkpt lat="48.3786" lon="6.82658">
        <ele>523.1</ele>
        <time>2012-04-15T08:38:55Z</time>
      </trkpt>
      <trkpt lat="48.37855" lon="6.82652">
        <ele>522.4</ele>
        <time>2012-04-15T08:38:56Z</time>
      </trkpt>
      <trkpt lat="48.37852" lon="6.82645">
        <ele>521.9</ele>
        <time>2012-04-15T08:38:57Z</time>
      </trkpt>
      <trkpt lat="48.37849" lon="6.82636">
        <ele>521.6</ele>
        <time>2012-04-15T08:38:58Z</time>
      </trkpt>
      <trkpt lat="48.37848" lon="6.82627">
        <ele>521</ele>
        <time>2012-04-15T08:38:59Z</time>
      </trkpt>
      <trkpt lat="48.37847" lon="6.82616">
        <ele>520.6</ele>
        <time>2012-04-15T08:39:00Z</time>
      </trkpt>
      <trkpt lat="48.37847" lon="6.82607">
        <ele>520.3</ele>
        <time>2012-04-15T08:39:01Z</time>
      </trkpt>
      <trkpt lat="48.37847" lon="6.82597">
        <ele>519.6</ele>
        <time>2012-04-15T08:39:02Z</time>
      </trkpt>
      <trkpt lat="48.37846" lon="6.82586">
        <ele>519.1</ele>
        <time>2012-04-15T08:39:03Z</time>
      </trkpt>
      <trkpt lat="48.37847" lon="6.82577">
        <ele>518.8</ele>
        <time>2012-04-15T08:39:04Z</time>
      </trkpt>
      <trkpt lat="48.37846" lon="6.82567">
        <ele>518.3</ele>
        <time>2012-04-15T08:39:05Z</time>
      </trkpt>
      <trkpt lat="48.37846" lon="6.82559">
        <ele>518</ele>
        <time>2012-04-15T08:39:06Z</time>
      </trkpt>
      <trkpt lat="48.37845" lon="6.82551">
        <ele>517.8</ele>
        <time>2012-04-15T08:39:07Z</time>
      </trkpt>
      <trkpt lat="48.37844" lon="6.82544">
        <ele>517.2</ele>
        <time>2012-04-15T08:39:08Z</time>
      </trkpt>
      <trkpt lat="48.37843" lon="6.82536">
        <ele>516.7</ele>
        <time>2012-04-15T08:39:09Z</time>
      </trkpt>
      <trkpt lat="48.37841" lon="6.8253">
        <ele>516.4</ele>
        <time>2012-04-15T08:39:10Z</time>
      </trkpt>
      <trkpt lat="48.3784" lon="6.82522">
        <ele>516.2</ele>
        <time>2012-04-15T08:39:11Z</time>
      </trkpt>
      <trkpt lat="48.37839" lon="6.82513">
        <ele>515.6</ele>
        <time>2012-04-15T08:39:12Z</time>
      </trkpt>
      <trkpt lat="48.37837" lon="6.82503">
        <ele>515.2</ele>
        <time>2012-04-15T08:39:13Z</time>
      </trkpt>
      <trkpt lat="48.37836" lon="6.82493">
        <ele>514.9</ele>
        <time>2012-04-15T08:39:14Z</time>
      </trkpt>
      <trkpt lat="48.37836" lon="6.82483">
        <ele>513.9</ele>
        <time>2012-04-15T08:39:15Z</time>
      </trkpt>
      <trkpt lat="48.37835" lon="6.82472">
        <ele>513.1</ele>
        <time>2012-04-15T08:39:16Z</time>
      </trkpt>
      <trkpt lat="48.37835" lon="6.82461">
        <ele>512.6</ele>
        <time>2012-04-15T08:39:17Z</time>
      </trkpt>
      <trkpt lat="48.37835" lon="6.8245">
        <ele>511.4</ele>
        <time>2012-04-15T08:39:18Z</time>
      </trkpt>
      <trkpt lat="48.37835" lon="6.82439">
        <ele>510.5</ele>
        <time>2012-04-15T08:39:19Z</time>
      </trkpt>
      <trkpt lat="48.37833" lon="6.82428">
        <ele>509.8</ele>
        <time>2012-04-15T08:39:20Z</time>
      </trkpt>
      <trkpt lat="48.3783" lon="6.82418">
        <ele>508.6</ele>
        <time>2012-04-15T08:39:21Z</time>
      </trkpt>
      <trkpt lat="48.37827" lon="6.82407">
        <ele>507.8</ele>
        <time>2012-04-15T08:39:22Z</time>
      </trkpt>
      <trkpt lat="48.37824" lon="6.82398">
        <ele>507.1</ele>
        <time>2012-04-15T08:39:23Z</time>
      </trkpt>
      <trkpt lat="48.3782" lon="6.82387">
        <ele>506.6</ele>
        <time>2012-04-15T08:39:24Z</time>
      </trkpt>
      <trkpt lat="48.37816" lon="6.82377">
        <ele>506.4</ele>
        <time>2012-04-15T08:39:25Z</time>
      </trkpt>
      <trkpt lat="48.37812" lon="6.82368">
        <ele>506.3</ele>
        <time>2012-04-15T08:39:26Z</time>
      </trkpt>
      <trkpt lat="48.3781" lon="6.82357">
        <ele>506.1</ele>
        <time>2012-04-15T08:39:27Z</time>
      </trkpt>
      <trkpt lat="48.37809" lon="6.82346">
        <ele>505.3</ele>
        <time>2012-04-15T08:39:28Z</time>
      </trkpt>
      <trkpt lat="48.3781" lon="6.82336">
        <ele>504.6</ele>
        <time>2012-04-15T08:39:29Z</time>
      </trkpt>
      <trkpt lat="48.3781" lon="6.82326">
        <ele>504.2</ele>
        <time>2012-04-15T08:39:30Z</time>
      </trkpt>
      <trkpt lat="48.37809" lon="6.82314">
        <ele>503.1</ele>
        <time>2012-04-15T08:39:31Z</time>
      </trkpt>
      <trkpt lat="48.37809" lon="6.82302">
        <ele>502.3</ele>
        <time>2012-04-15T08:39:32Z</time>
      </trkpt>
      <trkpt lat="48.3781" lon="6.8229">
        <ele>501.8</ele>
        <time>2012-04-15T08:39:33Z</time>
      </trkpt>
      <trkpt lat="48.3781" lon="6.82279">
        <ele>500.4</ele>
        <time>2012-04-15T08:39:34Z</time>
      </trkpt>
      <trkpt lat="48.37809" lon="6.82269">
        <ele>499.4</ele>
        <time>2012-04-15T08:39:35Z</time>
      </trkpt>
      <trkpt lat="48.37806" lon="6.82259">
        <ele>498.7</ele>
        <time>2012-04-15T08:39:36Z</time>
      </trkpt>
      <trkpt lat="48.37803" lon="6.82249">
        <ele>497.7</ele>
        <time>2012-04-15T08:39:37Z</time>
      </trkpt>
      <trkpt lat="48.378" lon="6.82239">
        <ele>497</ele>
        <time>2012-04-15T08:39:38Z</time>
      </trkpt>
      <trkpt lat="48.37797" lon="6.8223">
        <ele>496.4</ele>
        <time>2012-04-15T08:39:39Z</time>
      </trkpt>
      <trkpt lat="48.37793" lon="6.82221">
        <ele>496.1</ele>
        <time>2012-04-15T08:39:40Z</time>
      </trkpt>
      <trkpt lat="48.3779" lon="6.82212">
        <ele>495.9</ele>
        <time>2012-04-15T08:39:41Z</time>
      </trkpt>
      <trkpt lat="48.3779" lon="6.82202">
        <ele>495.7</ele>
        <time>2012-04-15T08:39:42Z</time>
      </trkpt>
      <trkpt lat="48.37792" lon="6.82191">
        <ele>495.6</ele>
        <time>2012-04-15T08:39:43Z</time>
      </trkpt>
      <trkpt lat="48.37794" lon="6.82181">
        <ele>494.9</ele>
        <time>2012-04-15T08:39:44Z</time>
      </trkpt>
      <trkpt lat="48.37797" lon="6.82171">
        <ele>494.4</ele>
        <time>2012-04-15T08:39:45Z</time>
      </trkpt>
      <trkpt lat="48.37801" lon="6.82161">
        <ele>494.1</ele>
        <time>2012-04-15T08:39:46Z</time>
      </trkpt>
      <trkpt lat="48.37804" lon="6.82151">
        <ele>493.3</ele>
        <time>2012-04-15T08:39:47Z</time>
      </trkpt>
      <trkpt lat="48.37806" lon="6.82141">
        <ele>492.8</ele>
        <time>2012-04-15T08:39:48Z</time>
      </trkpt>
      <trkpt lat="48.37809" lon="6.82131">
        <ele>492.4</ele>
        <time>2012-04-15T08:39:49Z</time>
      </trkpt>
      <trkpt lat="48.37812" lon="6.82122">
        <ele>491.5</ele>
        <time>2012-04-15T08:39:50Z</time>
      </trkpt>
      <trkpt lat="48.37815" lon="6.82113">
        <ele>490.9</ele>
        <time>2012-04-15T08:39:51Z</time>
      </trkpt>
      <trkpt lat="48.37818" lon="6.82105">
        <ele>490.5</ele>
        <time>2012-04-15T08:39:52Z</time>
      </trkpt>
      <trkpt lat="48.37821" lon="6.82097">
        <ele>489.7</ele>
        <time>2012-04-15T08:39:53Z</time>
      </trkpt>
      <trkpt lat="48.37824" lon="6.82088">
        <ele>489.2</ele>
        <time>2012-04-15T08:39:54Z</time>
      </trkpt>
      <trkpt lat="48.37827" lon="6.82079">
        <ele>488.7</ele>
        <time>2012-04-15T08:39:55Z</time>
      </trkpt>
      <trkpt lat="48.3783" lon="6.8207">
        <ele>488.3</ele>
        <time>2012-04-15T08:39:56Z</time>
      </trkpt>
      <trkpt lat="48.37833" lon="6.8206">
        <ele>488</ele>
        <time>2012-04-15T08:39:57Z</time>
      </trkpt>
      <trkpt lat="48.37835" lon="6.82049">
        <ele>487.8</ele>
        <time>2012-04-15T08:39:58Z</time>
      </trkpt>
      <trkpt lat="48.37835" lon="6.82039">
        <ele>487.6</ele>
        <time>2012-04-15T08:39:59Z</time>
      </trkpt>
      <trkpt lat="48.37835" lon="6.82029">
        <ele>487.2</ele>
        <time>2012-04-15T08:40:00Z</time>
      </trkpt>
      <trkpt lat="48.37834" lon="6.82021">
        <ele>486.8</ele>
        <time>2012-04-15T08:40:01Z</time>
      </trkpt>
      <trkpt lat="48.37833" lon="6.82009">
        <ele>485.5</ele>
        <time>2012-04-15T08:40:03Z</time>
      </trkpt>
      <trkpt lat="48.37832" lon="6.82001">
        <ele>484.7</ele>
        <time>2012-04-15T08:40:04Z</time>
      </trkpt>
      <trkpt lat="48.37833" lon="6.81987">
        <ele>483</ele>
        <time>2012-04-15T08:40:06Z</time>
      </trkpt>
      <trkpt lat="48.37834" lon="6.8198">
        <ele>482.1</ele>
        <time>2012-04-15T08:40:07Z</time>
      </trkpt>
      <trkpt lat="48.37836" lon="6.81972">
        <ele>481.5</ele>
        <time>2012-04-15T08:40:08Z</time>
      </trkpt>
      <trkpt lat="48.37838" lon="6.81964">
        <ele>480.4</ele>
        <time>2012-04-15T08:40:09Z</time>
      </trkpt>
      <trkpt lat="48.37841" lon="6.81956">
        <ele>479.5</ele>
        <time>2012-04-15T08:40:10Z</time>
      </trkpt>
      <trkpt lat="48.37842" lon="6.81948">
        <ele>478.9</ele>
        <time>2012-04-15T08:40:11Z</time>
      </trkpt>
      <trkpt lat="48.37844" lon="6.81939">
        <ele>477.8</ele>
        <time>2012-04-15T08:40:12Z</time>
      </trkpt>
      <trkpt lat="48.37845" lon="6.8193">
        <ele>477</ele>
        <time>2012-04-15T08:40:13Z</time>
      </trkpt>
      <trkpt lat="48.37846" lon="6.81921">
        <ele>476.3</ele>
        <time>2012-04-15T08:40:14Z</time>
      </trkpt>
      <trkpt lat="48.37848" lon="6.81912">
        <ele>475.8</ele>
        <time>2012-04-15T08:40:15Z</time>
      </trkpt>
      <trkpt lat="48.3785" lon="6.81903">
        <ele>474.8</ele>
        <time>2012-04-15T08:40:16Z</time>
      </trkpt>
      <trkpt lat="48.3785" lon="6.8189">
        <ele>473.4</ele>
        <time>2012-04-15T08:40:18Z</time>
      </trkpt>
      <trkpt lat="48.37854" lon="6.81879">
        <ele>468.8</ele>
        <time>2012-04-15T08:40:25Z</time>
      </trkpt>
      <trkpt lat="48.37862" lon="6.81876">
        <ele>468.4</ele>
        <time>2012-04-15T08:40:30Z</time>
      </trkpt>
      <trkpt lat="48.3787" lon="6.81878">
        <ele>469.2</ele>
        <time>2012-04-15T08:40:36Z</time>
      </trkpt>
      <trkpt lat="48.37876" lon="6.81886">
        <ele>470.3</ele>
        <time>2012-04-15T08:40:40Z</time>
      </trkpt>
      <trkpt lat="48.37881" lon="6.81896">
        <ele>470.6</ele>
        <time>2012-04-15T08:40:44Z</time>
      </trkpt>
      <trkpt lat="48.37881" lon="6.819">
        <ele>470.8</ele>
        <time>2012-04-15T08:40:45Z</time>
      </trkpt>
      <trkpt lat="48.37894" lon="6.81901">
        <ele>469.8</ele>
        <time>2012-04-15T08:41:45Z</time>
      </trkpt>
      <trkpt lat="48.37894" lon="6.81901">
        <ele>469.8</ele>
        <time>2012-04-15T08:41:46Z</time>
      </trkpt>
      <trkpt lat="48.37902" lon="6.81913">
        <ele>470.5</ele>
        <time>2012-04-15T08:43:48Z</time>
      </trkpt>
      <trkpt lat="48.37904" lon="6.81931">
        <ele>470.9</ele>
        <time>2012-04-15T08:43:52Z</time>
      </trkpt>
      <trkpt lat="48.37907" lon="6.81942">
        <ele>471.1</ele>
        <time>2012-04-15T08:43:54Z</time>
      </trkpt>
      <trkpt lat="48.37909" lon="6.81953">
        <ele>471.4</ele>
        <time>2012-04-15T08:43:56Z</time>
      </trkpt>
      <trkpt lat="48.37911" lon="6.81965">
        <ele>471.6</ele>
        <time>2012-04-15T08:43:58Z</time>
      </trkpt>
      <trkpt lat="48.37909" lon="6.81976">
        <ele>471.6</ele>
        <time>2012-04-15T08:44:00Z</time>
      </trkpt>
      <trkpt lat="48.37905" lon="6.81987">
        <ele>471.6</ele>
        <time>2012-04-15T08:44:02Z</time>
      </trkpt>
      <trkpt lat="48.37901" lon="6.81996">
        <ele>471.7</ele>
        <time>2012-04-15T08:44:04Z</time>
      </trkpt>
      <trkpt lat="48.37899" lon="6.82003">
        <ele>471.4</ele>
        <time>2012-04-15T08:44:05Z</time>
      </trkpt>
      <trkpt lat="48.37897" lon="6.8201">
        <ele>471.1</ele>
        <time>2012-04-15T08:44:06Z</time>
      </trkpt>
      <trkpt lat="48.37896" lon="6.82018">
        <ele>470.9</ele>
        <time>2012-04-15T08:44:07Z</time>
      </trkpt>
      <trkpt lat="48.37896" lon="6.82026">
        <ele>470.7</ele>
        <time>2012-04-15T08:44:08Z</time>
      </trkpt>
      <trkpt lat="48.37895" lon="6.82034">
        <ele>470.5</ele>
        <time>2012-04-15T08:44:09Z</time>
      </trkpt>
      <trkpt lat="48.37894" lon="6.82042">
        <ele>470.3</ele>
        <time>2012-04-15T08:44:10Z</time>
      </trkpt>
      <trkpt lat="48.37893" lon="6.8205">
        <ele>470.1</ele>
        <time>2012-04-15T08:44:11Z</time>
      </trkpt>
      <trkpt lat="48.37892" lon="6.82059">
        <ele>470.6</ele>
        <time>2012-04-15T08:44:12Z</time>
      </trkpt>
      <trkpt lat="48.37891" lon="6.82067">
        <ele>471</ele>
        <time>2012-04-15T08:44:13Z</time>
      </trkpt>
      <trkpt lat="48.37889" lon="6.82076">
        <ele>471.2</ele>
        <time>2012-04-15T08:44:14Z</time>
      </trkpt>
      <trkpt lat="48.37888" lon="6.82084">
        <ele>470.9</ele>
        <time>2012-04-15T08:44:15Z</time>
      </trkpt>
      <trkpt lat="48.37887" lon="6.82093">
        <ele>470.6</ele>
        <time>2012-04-15T08:44:16Z</time>
      </trkpt>
      <trkpt lat="48.37885" lon="6.82102">
        <ele>470.4</ele>
        <time>2012-04-15T08:44:17Z</time>
      </trkpt>
      <trkpt lat="48.37884" lon="6.82111">
        <ele>470.2</ele>
        <time>2012-04-15T08:44:18Z</time>
      </trkpt>
      <trkpt lat="48.37884" lon="6.8212">
        <ele>470.1</ele>
        <time>2012-04-15T08:44:19Z</time>
      </trkpt>
      <trkpt lat="48.37884" lon="6.82129">
        <ele>470</ele>
        <time>2012-04-15T08:44:20Z</time>
      </trkpt>
      <trkpt lat="48.37885" lon="6.82138">
        <ele>469.5</ele>
        <time>2012-04-15T08:44:21Z</time>
      </trkpt>
      <trkpt lat="48.37886" lon="6.82147">
        <ele>469.1</ele>
        <time>2012-04-15T08:44:22Z</time>
      </trkpt>
      <trkpt lat="48.37887" lon="6.82156">
        <ele>468.8</ele>
        <time>2012-04-15T08:44:23Z</time>
      </trkpt>
      <trkpt lat="48.3789" lon="6.82163">
        <ele>468.5</ele>
        <time>2012-04-15T08:44:24Z</time>
      </trkpt>
      <trkpt lat="48.37893" lon="6.8217">
        <ele>468.2</ele>
        <time>2012-04-15T08:44:25Z</time>
      </trkpt>
      <trkpt lat="48.37895" lon="6.82177">
        <ele>468</ele>
        <time>2012-04-15T08:44:26Z</time>
      </trkpt>
      <trkpt lat="48.379" lon="6.82186">
        <ele>467.7</ele>
        <time>2012-04-15T08:44:28Z</time>
      </trkpt>
      <trkpt lat="48.37901" lon="6.82175">
        <ele>466.8</ele>
        <time>2012-04-15T08:44:32Z</time>
      </trkpt>
      <trkpt lat="48.37897" lon="6.82165">
        <ele>466.2</ele>
        <time>2012-04-15T08:44:34Z</time>
      </trkpt>
      <trkpt lat="48.37895" lon="6.82152">
        <ele>465.7</ele>
        <time>2012-04-15T08:44:36Z</time>
      </trkpt>
      <trkpt lat="48.37894" lon="6.82144">
        <ele>465.5</ele>
        <time>2012-04-15T08:44:37Z</time>
      </trkpt>
      <trkpt lat="48.37893" lon="6.82134">
        <ele>465.4</ele>
        <time>2012-04-15T08:44:38Z</time>
      </trkpt>
      <trkpt lat="48.37893" lon="6.82124">
        <ele>465.3</ele>
        <time>2012-04-15T08:44:39Z</time>
      </trkpt>
      <trkpt lat="48.37895" lon="6.82114">
        <ele>464.8</ele>
        <time>2012-04-15T08:44:40Z</time>
      </trkpt>
      <trkpt lat="48.37898" lon="6.82104">
        <ele>464.5</ele>
        <time>2012-04-15T08:44:41Z</time>
      </trkpt>
      <trkpt lat="48.37901" lon="6.82094">
        <ele>464.2</ele>
        <time>2012-04-15T08:44:42Z</time>
      </trkpt>
      <trkpt lat="48.37905" lon="6.82084">
        <ele>464</ele>
        <time>2012-04-15T08:44:43Z</time>
      </trkpt>
      <trkpt lat="48.3791" lon="6.82075">
        <ele>463.2</ele>
        <time>2012-04-15T08:44:44Z</time>
      </trkpt>
      <trkpt lat="48.37916" lon="6.82066">
        <ele>462.6</ele>
        <time>2012-04-15T08:44:45Z</time>
      </trkpt>
      <trkpt lat="48.37922" lon="6.82057">
        <ele>462.1</ele>
        <time>2012-04-15T08:44:46Z</time>
      </trkpt>
      <trkpt lat="48.37929" lon="6.82049">
        <ele>461.4</ele>
        <time>2012-04-15T08:44:47Z</time>
      </trkpt>
      <trkpt lat="48.37936" lon="6.82041">
        <ele>460.8</ele>
        <time>2012-04-15T08:44:48Z</time>
      </trkpt>
      <trkpt lat="48.37942" lon="6.82033">
        <ele>460.5</ele>
        <time>2012-04-15T08:44:49Z</time>
      </trkpt>
      <trkpt lat="48.37948" lon="6.82023">
        <ele>459.6</ele>
        <time>2012-04-15T08:44:50Z</time>
      </trkpt>
      <trkpt lat="48.37954" lon="6.82013">
        <ele>458.9</ele>
        <time>2012-04-15T08:44:51Z</time>
      </trkpt>
      <trkpt lat="48.37959" lon="6.82002">
        <ele>458.4</ele>
        <time>2012-04-15T08:44:52Z</time>
      </trkpt>
      <trkpt lat="48.37965" lon="6.81991">
        <ele>457.2</ele>
        <time>2012-04-15T08:44:53Z</time>
      </trkpt>
      <trkpt lat="48.37971" lon="6.8198">
        <ele>456.3</ele>
        <time>2012-04-15T08:44:54Z</time>
      </trkpt>
      <trkpt lat="48.37977" lon="6.81968">
        <ele>455.6</ele>
        <time>2012-04-15T08:44:55Z</time>
      </trkpt>
      <trkpt lat="48.37982" lon="6.81957">
        <ele>454.4</ele>
        <time>2012-04-15T08:44:56Z</time>
      </trkpt>
      <trkpt lat="48.37988" lon="6.81945">
        <ele>453.5</ele>
        <time>2012-04-15T08:44:57Z</time>
      </trkpt>
      <trkpt lat="48.37994" lon="6.81932">
        <ele>452.8</ele>
        <time>2012-04-15T08:44:58Z</time>
      </trkpt>
      <trkpt lat="48.37999" lon="6.8192">
        <ele>452.3</ele>
        <time>2012-04-15T08:44:59Z</time>
      </trkpt>
      <trkpt lat="48.38006" lon="6.81907">
        <ele>451.5</ele>
        <time>2012-04-15T08:45:00Z</time>
      </trkpt>
      <trkpt lat="48.38011" lon="6.81895">
        <ele>450.9</ele>
        <time>2012-04-15T08:45:01Z</time>
      </trkpt>
      <trkpt lat="48.38017" lon="6.81882">
        <ele>450.4</ele>
        <time>2012-04-15T08:45:02Z</time>
      </trkpt>
      <trkpt lat="48.38022" lon="6.8187">
        <ele>449.5</ele>
        <time>2012-04-15T08:45:03Z</time>
      </trkpt>
      <trkpt lat="48.38028" lon="6.8186">
        <ele>448.8</ele>
        <time>2012-04-15T08:45:04Z</time>
      </trkpt>
      <trkpt lat="48.38035" lon="6.81849">
        <ele>448.2</ele>
        <time>2012-04-15T08:45:05Z</time>
      </trkpt>
      <trkpt lat="48.38041" lon="6.81839">
        <ele>447.5</ele>
        <time>2012-04-15T08:45:06Z</time>
      </trkpt>
      <trkpt lat="48.38048" lon="6.81829">
        <ele>447</ele>
        <time>2012-04-15T08:45:07Z</time>
      </trkpt>
      <trkpt lat="48.38054" lon="6.81819">
        <ele>446.6</ele>
        <time>2012-04-15T08:45:08Z</time>
      </trkpt>
      <trkpt lat="48.38061" lon="6.8181">
        <ele>446.3</ele>
        <time>2012-04-15T08:45:09Z</time>
      </trkpt>
      <trkpt lat="48.38067" lon="6.81801">
        <ele>446.1</ele>
        <time>2012-04-15T08:45:10Z</time>
      </trkpt>
      <trkpt lat="48.38073" lon="6.81793">
        <ele>446</ele>
        <time>2012-04-15T08:45:11Z</time>
      </trkpt>
      <trkpt lat="48.3808" lon="6.81785">
        <ele>445.5</ele>
        <time>2012-04-15T08:45:12Z</time>
      </trkpt>
      <trkpt lat="48.38087" lon="6.81778">
        <ele>445.2</ele>
        <time>2012-04-15T08:45:13Z</time>
      </trkpt>
      <trkpt lat="48.38093" lon="6.81771">
        <ele>445</ele>
        <time>2012-04-15T08:45:14Z</time>
      </trkpt>
      <trkpt lat="48.38099" lon="6.81764">
        <ele>444.8</ele>
        <time>2012-04-15T08:45:15Z</time>
      </trkpt>
      <trkpt lat="48.38105" lon="6.81756">
        <ele>444.1</ele>
        <time>2012-04-15T08:45:16Z</time>
      </trkpt>
      <trkpt lat="48.38111" lon="6.81748">
        <ele>443.6</ele>
        <time>2012-04-15T08:45:17Z</time>
      </trkpt>
      <trkpt lat="48.38117" lon="6.8174">
        <ele>443.2</ele>
        <time>2012-04-15T08:45:18Z</time>
      </trkpt>
      <trkpt lat="48.38123" lon="6.81732">
        <ele>443.3</ele>
        <time>2012-04-15T08:45:19Z</time>
      </trkpt>
      <trkpt lat="48.38128" lon="6.81725">
        <ele>443.3</ele>
        <time>2012-04-15T08:45:20Z</time>
      </trkpt>
      <trkpt lat="48.38133" lon="6.81717">
        <ele>443.3</ele>
        <time>2012-04-15T08:45:21Z</time>
      </trkpt>
      <trkpt lat="48.38139" lon="6.8171">
        <ele>442.9</ele>
        <time>2012-04-15T08:45:22Z</time>
      </trkpt>
      <trkpt lat="48.38145" lon="6.81703">
        <ele>442.5</ele>
        <time>2012-04-15T08:45:23Z</time>
      </trkpt>
      <trkpt lat="48.38151" lon="6.81698">
        <ele>442.3</ele>
        <time>2012-04-15T08:45:24Z</time>
      </trkpt>
      <trkpt lat="48.38157" lon="6.81692">
        <ele>441.9</ele>
        <time>2012-04-15T08:45:25Z</time>
      </trkpt>
      <trkpt lat="48.38162" lon="6.81685">
        <ele>441.7</ele>
        <time>2012-04-15T08:45:26Z</time>
      </trkpt>
      <trkpt lat="48.38167" lon="6.81678">
        <ele>441.5</ele>
        <time>2012-04-15T08:45:27Z</time>
      </trkpt>
      <trkpt lat="48.38172" lon="6.81671">
        <ele>441.1</ele>
        <time>2012-04-15T08:45:28Z</time>
      </trkpt>
      <trkpt lat="48.38177" lon="6.81664">
        <ele>440.8</ele>
        <time>2012-04-15T08:45:29Z</time>
      </trkpt>
      <trkpt lat="48.38182" lon="6.81657">
        <ele>440.6</ele>
        <time>2012-04-15T08:45:30Z</time>
      </trkpt>
      <trkpt lat="48.38187" lon="6.81649">
        <ele>440.4</ele>
        <time>2012-04-15T08:45:31Z</time>
      </trkpt>
      <trkpt lat="48.38191" lon="6.81642">
        <ele>440.3</ele>
        <time>2012-04-15T08:45:32Z</time>
      </trkpt>
      <trkpt lat="48.38196" lon="6.81634">
        <ele>440.3</ele>
        <time>2012-04-15T08:45:33Z</time>
      </trkpt>
      <trkpt lat="48.38201" lon="6.81628">
        <ele>440.2</ele>
        <time>2012-04-15T08:45:34Z</time>
      </trkpt>
      <trkpt lat="48.38205" lon="6.81621">
        <ele>439.4</ele>
        <time>2012-04-15T08:45:35Z</time>
      </trkpt>
      <trkpt lat="48.3821" lon="6.81613">
        <ele>438.9</ele>
        <time>2012-04-15T08:45:36Z</time>
      </trkpt>
      <trkpt lat="48.38214" lon="6.81605">
        <ele>438.4</ele>
        <time>2012-04-15T08:45:37Z</time>
      </trkpt>
      <trkpt lat="48.38219" lon="6.81597">
        <ele>438.2</ele>
        <time>2012-04-15T08:45:38Z</time>
      </trkpt>
      <trkpt lat="48.38224" lon="6.81589">
        <ele>438.1</ele>
        <time>2012-04-15T08:45:39Z</time>
      </trkpt>
      <trkpt lat="48.38228" lon="6.8158">
        <ele>437.9</ele>
        <time>2012-04-15T08:45:40Z</time>
      </trkpt>
      <trkpt lat="48.38232" lon="6.81572">
        <ele>437.6</ele>
        <time>2012-04-15T08:45:41Z</time>
      </trkpt>
      <trkpt lat="48.38236" lon="6.81564">
        <ele>437.3</ele>
        <time>2012-04-15T08:45:42Z</time>
      </trkpt>
      <trkpt lat="48.3824" lon="6.81554">
        <ele>437.1</ele>
        <time>2012-04-15T08:45:43Z</time>
      </trkpt>
      <trkpt lat="48.38244" lon="6.81545">
        <ele>437.1</ele>
        <time>2012-04-15T08:45:44Z</time>
      </trkpt>
      <trkpt lat="48.38246" lon="6.81534">
        <ele>437.2</ele>
        <time>2012-04-15T08:45:45Z</time>
      </trkpt>
      <trkpt lat="48.38246" lon="6.81524">
        <ele>437.2</ele>
        <time>2012-04-15T08:45:46Z</time>
      </trkpt>
      <trkpt lat="48.38245" lon="6.81514">
        <ele>437.1</ele>
        <time>2012-04-15T08:45:47Z</time>
      </trkpt>
      <trkpt lat="48.38243" lon="6.81504">
        <ele>437</ele>
        <time>2012-04-15T08:45:48Z</time>
      </trkpt>
      <trkpt lat="48.3824" lon="6.81495">
        <ele>436.9</ele>
        <time>2012-04-15T08:45:49Z</time>
      </trkpt>
      <trkpt lat="48.38236" lon="6.81486">
        <ele>436.9</ele>
        <time>2012-04-15T08:45:50Z</time>
      </trkpt>
      <trkpt lat="48.38231" lon="6.81479">
        <ele>436.7</ele>
        <time>2012-04-15T08:45:51Z</time>
      </trkpt>
      <trkpt lat="48.38226" lon="6.81472">
        <ele>436.5</ele>
        <time>2012-04-15T08:45:52Z</time>
      </trkpt>
      <trkpt lat="48.38221" lon="6.81466">
        <ele>436.4</ele>
        <time>2012-04-15T08:45:53Z</time>
      </trkpt>
      <trkpt lat="48.38216" lon="6.81459">
        <ele>436.3</ele>
        <time>2012-04-15T08:45:54Z</time>
      </trkpt>
      <trkpt lat="48.38211" lon="6.81453">
        <ele>436.2</ele>
        <time>2012-04-15T08:45:55Z</time>
      </trkpt>
      <trkpt lat="48.38206" lon="6.81446">
        <ele>436.1</ele>
        <time>2012-04-15T08:45:56Z</time>
      </trkpt>
      <trkpt lat="48.38201" lon="6.81441">
        <ele>436.1</ele>
        <time>2012-04-15T08:45:57Z</time>
      </trkpt>
      <trkpt lat="48.38195" lon="6.81435">
        <ele>436.2</ele>
        <time>2012-04-15T08:45:58Z</time>
      </trkpt>
      <trkpt lat="48.3819" lon="6.81431">
        <ele>436.3</ele>
        <time>2012-04-15T08:45:59Z</time>
      </trkpt>
      <trkpt lat="48.38184" lon="6.81428">
        <ele>436</ele>
        <time>2012-04-15T08:46:00Z</time>
      </trkpt>
      <trkpt lat="48.38178" lon="6.81426">
        <ele>435.9</ele>
        <time>2012-04-15T08:46:01Z</time>
      </trkpt>
      <trkpt lat="48.38171" lon="6.81424">
        <ele>435.8</ele>
        <time>2012-04-15T08:46:02Z</time>
      </trkpt>
      <trkpt lat="48.38165" lon="6.81423">
        <ele>435.9</ele>
        <time>2012-04-15T08:46:03Z</time>
      </trkpt>
      <trkpt lat="48.38159" lon="6.81424">
        <ele>436</ele>
        <time>2012-04-15T08:46:04Z</time>
      </trkpt>
      <trkpt lat="48.38153" lon="6.81424">
        <ele>436.1</ele>
        <time>2012-04-15T08:46:05Z</time>
      </trkpt>
      <trkpt lat="48.38147" lon="6.81425">
        <ele>436.2</ele>
        <time>2012-04-15T08:46:06Z</time>
      </trkpt>
      <trkpt lat="48.38142" lon="6.81426">
        <ele>436.3</ele>
        <time>2012-04-15T08:46:07Z</time>
      </trkpt>
      <trkpt lat="48.38136" lon="6.81428">
        <ele>436.5</ele>
        <time>2012-04-15T08:46:08Z</time>
      </trkpt>
      <trkpt lat="48.38131" lon="6.8143">
        <ele>436.6</ele>
        <time>2012-04-15T08:46:09Z</time>
      </trkpt>
      <trkpt lat="48.38126" lon="6.81434">
        <ele>436.6</ele>
        <time>2012-04-15T08:46:10Z</time>
      </trkpt>
      <trkpt lat="48.38121" lon="6.81437">
        <ele>436.7</ele>
        <time>2012-04-15T08:46:11Z</time>
      </trkpt>
      <trkpt lat="48.38116" lon="6.8144">
        <ele>436.7</ele>
        <time>2012-04-15T08:46:12Z</time>
      </trkpt>
      <trkpt lat="48.38111" lon="6.81442">
        <ele>437.5</ele>
        <time>2012-04-15T08:46:13Z</time>
      </trkpt>
      <trkpt lat="48.38106" lon="6.81446">
        <ele>438.1</ele>
        <time>2012-04-15T08:46:14Z</time>
      </trkpt>
      <trkpt lat="48.38101" lon="6.81448">
        <ele>438.6</ele>
        <time>2012-04-15T08:46:15Z</time>
      </trkpt>
      <trkpt lat="48.38097" lon="6.8145">
        <ele>438.4</ele>
        <time>2012-04-15T08:46:16Z</time>
      </trkpt>
      <trkpt lat="48.38092" lon="6.81452">
        <ele>438.3</ele>
        <time>2012-04-15T08:46:17Z</time>
      </trkpt>
      <trkpt lat="48.38087" lon="6.81454">
        <ele>438.3</ele>
        <time>2012-04-15T08:46:18Z</time>
      </trkpt>
      <trkpt lat="48.38083" lon="6.81456">
        <ele>438.7</ele>
        <time>2012-04-15T08:46:19Z</time>
      </trkpt>
      <trkpt lat="48.38078" lon="6.81458">
        <ele>439.1</ele>
        <time>2012-04-15T08:46:20Z</time>
      </trkpt>
      <trkpt lat="48.38074" lon="6.81461">
        <ele>439.4</ele>
        <time>2012-04-15T08:46:21Z</time>
      </trkpt>
      <trkpt lat="48.38069" lon="6.81464">
        <ele>439.6</ele>
        <time>2012-04-15T08:46:22Z</time>
      </trkpt>
      <trkpt lat="48.38065" lon="6.81467">
        <ele>439.3</ele>
        <time>2012-04-15T08:46:23Z</time>
      </trkpt>
      <trkpt lat="48.3806" lon="6.8147">
        <ele>439.2</ele>
        <time>2012-04-15T08:46:24Z</time>
      </trkpt>
      <trkpt lat="48.38055" lon="6.81474">
        <ele>439</ele>
        <time>2012-04-15T08:46:25Z</time>
      </trkpt>
      <trkpt lat="48.38051" lon="6.81478">
        <ele>438.8</ele>
        <time>2012-04-15T08:46:26Z</time>
      </trkpt>
      <trkpt lat="48.38046" lon="6.81482">
        <ele>438.6</ele>
        <time>2012-04-15T08:46:27Z</time>
      </trkpt>
      <trkpt lat="48.38041" lon="6.81486">
        <ele>438.5</ele>
        <time>2012-04-15T08:46:28Z</time>
      </trkpt>
      <trkpt lat="48.38037" lon="6.8149">
        <ele>438.7</ele>
        <time>2012-04-15T08:46:29Z</time>
      </trkpt>
      <trkpt lat="48.38034" lon="6.81494">
        <ele>438.8</ele>
        <time>2012-04-15T08:46:30Z</time>
      </trkpt>
      <trkpt lat="48.3803" lon="6.81498">
        <ele>438.8</ele>
        <time>2012-04-15T08:46:31Z</time>
      </trkpt>
      <trkpt lat="48.38026" lon="6.81503">
        <ele>439</ele>
        <time>2012-04-15T08:46:32Z</time>
      </trkpt>
      <trkpt lat="48.38022" lon="6.81508">
        <ele>439.1</ele>
        <time>2012-04-15T08:46:33Z</time>
      </trkpt>
      <trkpt lat="48.38018" lon="6.81512">
        <ele>439.2</ele>
        <time>2012-04-15T08:46:34Z</time>
      </trkpt>
      <trkpt lat="48.38014" lon="6.81516">
        <ele>439.1</ele>
        <time>2012-04-15T08:46:35Z</time>
      </trkpt>
      <trkpt lat="48.3801" lon="6.81521">
        <ele>439</ele>
        <time>2012-04-15T08:46:36Z</time>
      </trkpt>
      <trkpt lat="48.38006" lon="6.81526">
        <ele>438.9</ele>
        <time>2012-04-15T08:46:37Z</time>
      </trkpt>
      <trkpt lat="48.38002" lon="6.81532">
        <ele>438.9</ele>
        <time>2012-04-15T08:46:38Z</time>
      </trkpt>
      <trkpt lat="48.37998" lon="6.81537">
        <ele>439.1</ele>
        <time>2012-04-15T08:46:39Z</time>
      </trkpt>
      <trkpt lat="48.37994" lon="6.81542">
        <ele>439.3</ele>
        <time>2012-04-15T08:46:40Z</time>
      </trkpt>
      <trkpt lat="48.3799" lon="6.81548">
        <ele>439.4</ele>
        <time>2012-04-15T08:46:41Z</time>
      </trkpt>
      <trkpt lat="48.37986" lon="6.81553">
        <ele>439.8</ele>
        <time>2012-04-15T08:46:42Z</time>
      </trkpt>
      <trkpt lat="48.37982" lon="6.81559">
        <ele>440</ele>
        <time>2012-04-15T08:46:43Z</time>
      </trkpt>
      <trkpt lat="48.37979" lon="6.81566">
        <ele>440.2</ele>
        <time>2012-04-15T08:46:44Z</time>
      </trkpt>
      <trkpt lat="48.37976" lon="6.81572">
        <ele>440.4</ele>
        <time>2012-04-15T08:46:45Z</time>
      </trkpt>
      <trkpt lat="48.37972" lon="6.81579">
        <ele>440.6</ele>
        <time>2012-04-15T08:46:46Z</time>
      </trkpt>
      <trkpt lat="48.37968" lon="6.81585">
        <ele>440.7</ele>
        <time>2012-04-15T08:46:47Z</time>
      </trkpt>
      <trkpt lat="48.37965" lon="6.81592">
        <ele>440.9</ele>
        <time>2012-04-15T08:46:48Z</time>
      </trkpt>
      <trkpt lat="48.37962" lon="6.81598">
        <ele>441.1</ele>
        <time>2012-04-15T08:46:49Z</time>
      </trkpt>
      <trkpt lat="48.37958" lon="6.81606">
        <ele>441.3</ele>
        <time>2012-04-15T08:46:50Z</time>
      </trkpt>
      <trkpt lat="48.37956" lon="6.81613">
        <ele>441.5</ele>
        <time>2012-04-15T08:46:51Z</time>
      </trkpt>
      <trkpt lat="48.37953" lon="6.8162">
        <ele>441.7</ele>
        <time>2012-04-15T08:46:52Z</time>
      </trkpt>
      <trkpt lat="48.3795" lon="6.81627">
        <ele>441.8</ele>
        <time>2012-04-15T08:46:53Z</time>
      </trkpt>
      <trkpt lat="48.37948" lon="6.81635">
        <ele>442</ele>
        <time>2012-04-15T08:46:54Z</time>
      </trkpt>
      <trkpt lat="48.37945" lon="6.81641">
        <ele>442.2</ele>
        <time>2012-04-15T08:46:55Z</time>
      </trkpt>
      <trkpt lat="48.37942" lon="6.81648">
        <ele>442.3</ele>
        <time>2012-04-15T08:46:56Z</time>
      </trkpt>
      <trkpt lat="48.37937" lon="6.81659">
        <ele>442.5</ele>
        <time>2012-04-15T08:46:58Z</time>
      </trkpt>
      <trkpt lat="48.37934" lon="6.81664">
        <ele>442.6</ele>
        <time>2012-04-15T08:46:59Z</time>
      </trkpt>
      <trkpt lat="48.3793" lon="6.81668">
        <ele>442.7</ele>
        <time>2012-04-15T08:47:00Z</time>
      </trkpt>
      <trkpt lat="48.37922" lon="6.81672">
        <ele>442.5</ele>
        <time>2012-04-15T08:47:02Z</time>
      </trkpt>
      <trkpt lat="48.37918" lon="6.81675">
        <ele>442.5</ele>
        <time>2012-04-15T08:47:03Z</time>
      </trkpt>
      <trkpt lat="48.37913" lon="6.81679">
        <ele>442.4</ele>
        <time>2012-04-15T08:47:04Z</time>
      </trkpt>
      <trkpt lat="48.37905" lon="6.81684">
        <ele>442.3</ele>
        <time>2012-04-15T08:47:06Z</time>
      </trkpt>
      <trkpt lat="48.37901" lon="6.81687">
        <ele>442.6</ele>
        <time>2012-04-15T08:47:07Z</time>
      </trkpt>
      <trkpt lat="48.37893" lon="6.81692">
        <ele>442.9</ele>
        <time>2012-04-15T08:47:09Z</time>
      </trkpt>
      <trkpt lat="48.37888" lon="6.81695">
        <ele>443</ele>
        <time>2012-04-15T08:47:10Z</time>
      </trkpt>
      <trkpt lat="48.37884" lon="6.81698">
        <ele>443</ele>
        <time>2012-04-15T08:47:11Z</time>
      </trkpt>
      <trkpt lat="48.3788" lon="6.81701">
        <ele>443</ele>
        <time>2012-04-15T08:47:12Z</time>
      </trkpt>
      <trkpt lat="48.37875" lon="6.81704">
        <ele>443</ele>
        <time>2012-04-15T08:47:13Z</time>
      </trkpt>
      <trkpt lat="48.37871" lon="6.81708">
        <ele>443.1</ele>
        <time>2012-04-15T08:47:14Z</time>
      </trkpt>
      <trkpt lat="48.37866" lon="6.81711">
        <ele>443.1</ele>
        <time>2012-04-15T08:47:15Z</time>
      </trkpt>
      <trkpt lat="48.37863" lon="6.81715">
        <ele>443.1</ele>
        <time>2012-04-15T08:47:16Z</time>
      </trkpt>
      <trkpt lat="48.37858" lon="6.81718">
        <ele>443.6</ele>
        <time>2012-04-15T08:47:17Z</time>
      </trkpt>
      <trkpt lat="48.37854" lon="6.81721">
        <ele>444</ele>
        <time>2012-04-15T08:47:18Z</time>
      </trkpt>
      <trkpt lat="48.37846" lon="6.81726">
        <ele>444.5</ele>
        <time>2012-04-15T08:47:20Z</time>
      </trkpt>
      <trkpt lat="48.37837" lon="6.8173">
        <ele>444.7</ele>
        <time>2012-04-15T08:47:22Z</time>
      </trkpt>
      <trkpt lat="48.37832" lon="6.8173">
        <ele>444.6</ele>
        <time>2012-04-15T08:47:23Z</time>
      </trkpt>
      <trkpt lat="48.37828" lon="6.81731">
        <ele>444.5</ele>
        <time>2012-04-15T08:47:24Z</time>
      </trkpt>
      <trkpt lat="48.37823" lon="6.81732">
        <ele>444.5</ele>
        <time>2012-04-15T08:47:25Z</time>
      </trkpt>
      <trkpt lat="48.37818" lon="6.81733">
        <ele>444.3</ele>
        <time>2012-04-15T08:47:26Z</time>
      </trkpt>
      <trkpt lat="48.37813" lon="6.81734">
        <ele>444.3</ele>
        <time>2012-04-15T08:47:27Z</time>
      </trkpt>
      <trkpt lat="48.37808" lon="6.81736">
        <ele>444.2</ele>
        <time>2012-04-15T08:47:28Z</time>
      </trkpt>
      <trkpt lat="48.37802" lon="6.81738">
        <ele>444.2</ele>
        <time>2012-04-15T08:47:29Z</time>
      </trkpt>
      <trkpt lat="48.37797" lon="6.8174">
        <ele>444.7</ele>
        <time>2012-04-15T08:47:30Z</time>
      </trkpt>
      <trkpt lat="48.37791" lon="6.81743">
        <ele>445.1</ele>
        <time>2012-04-15T08:47:31Z</time>
      </trkpt>
      <trkpt lat="48.37785" lon="6.81747">
        <ele>445.4</ele>
        <time>2012-04-15T08:47:32Z</time>
      </trkpt>
      <trkpt lat="48.37779" lon="6.81752">
        <ele>445.3</ele>
        <time>2012-04-15T08:47:33Z</time>
      </trkpt>
      <trkpt lat="48.37774" lon="6.81757">
        <ele>445.2</ele>
        <time>2012-04-15T08:47:34Z</time>
      </trkpt>
      <trkpt lat="48.37768" lon="6.81764">
        <ele>445.1</ele>
        <time>2012-04-15T08:47:35Z</time>
      </trkpt>
      <trkpt lat="48.37763" lon="6.81771">
        <ele>445.1</ele>
        <time>2012-04-15T08:47:36Z</time>
      </trkpt>
      <trkpt lat="48.37758" lon="6.8178">
        <ele>445.1</ele>
        <time>2012-04-15T08:47:37Z</time>
      </trkpt>
      <trkpt lat="48.37753" lon="6.81789">
        <ele>445.1</ele>
        <time>2012-04-15T08:47:38Z</time>
      </trkpt>
      <trkpt lat="48.37749" lon="6.81798">
        <ele>444.8</ele>
        <time>2012-04-15T08:47:39Z</time>
      </trkpt>
      <trkpt lat="48.37745" lon="6.81807">
        <ele>444.7</ele>
        <time>2012-04-15T08:47:40Z</time>
      </trkpt>
      <trkpt lat="48.37741" lon="6.81816">
        <ele>444.5</ele>
        <time>2012-04-15T08:47:41Z</time>
      </trkpt>
      <trkpt lat="48.37736" lon="6.81825">
        <ele>444.3</ele>
        <time>2012-04-15T08:47:42Z</time>
      </trkpt>
      <trkpt lat="48.37732" lon="6.81835">
        <ele>444.1</ele>
        <time>2012-04-15T08:47:43Z</time>
      </trkpt>
      <trkpt lat="48.37729" lon="6.81845">
        <ele>444</ele>
        <time>2012-04-15T08:47:44Z</time>
      </trkpt>
      <trkpt lat="48.37725" lon="6.81853">
        <ele>443.9</ele>
        <time>2012-04-15T08:47:45Z</time>
      </trkpt>
      <trkpt lat="48.37721" lon="6.81862">
        <ele>443.9</ele>
        <time>2012-04-15T08:47:46Z</time>
      </trkpt>
      <trkpt lat="48.37717" lon="6.8187">
        <ele>443.9</ele>
        <time>2012-04-15T08:47:47Z</time>
      </trkpt>
      <trkpt lat="48.37712" lon="6.81878">
        <ele>444</ele>
        <time>2012-04-15T08:47:48Z</time>
      </trkpt>
      <trkpt lat="48.37708" lon="6.81886">
        <ele>443.4</ele>
        <time>2012-04-15T08:47:49Z</time>
      </trkpt>
      <trkpt lat="48.37705" lon="6.81893">
        <ele>442.9</ele>
        <time>2012-04-15T08:47:50Z</time>
      </trkpt>
      <trkpt lat="48.37701" lon="6.81901">
        <ele>442.6</ele>
        <time>2012-04-15T08:47:51Z</time>
      </trkpt>
      <trkpt lat="48.37697" lon="6.81908">
        <ele>442.6</ele>
        <time>2012-04-15T08:47:52Z</time>
      </trkpt>
      <trkpt lat="48.37692" lon="6.81916">
        <ele>442.5</ele>
        <time>2012-04-15T08:47:53Z</time>
      </trkpt>
      <trkpt lat="48.37687" lon="6.81923">
        <ele>442.5</ele>
        <time>2012-04-15T08:47:54Z</time>
      </trkpt>
      <trkpt lat="48.37682" lon="6.8193">
        <ele>442.5</ele>
        <time>2012-04-15T08:47:55Z</time>
      </trkpt>
      <trkpt lat="48.37677" lon="6.81936">
        <ele>442.6</ele>
        <time>2012-04-15T08:47:56Z</time>
      </trkpt>
      <trkpt lat="48.37672" lon="6.81943">
        <ele>442.6</ele>
        <time>2012-04-15T08:47:57Z</time>
      </trkpt>
      <trkpt lat="48.37666" lon="6.81951">
        <ele>442.6</ele>
        <time>2012-04-15T08:47:58Z</time>
      </trkpt>
      <trkpt lat="48.37661" lon="6.81958">
        <ele>442.6</ele>
        <time>2012-04-15T08:47:59Z</time>
      </trkpt>
      <trkpt lat="48.37656" lon="6.81965">
        <ele>442.6</ele>
        <time>2012-04-15T08:48:00Z</time>
      </trkpt>
      <trkpt lat="48.37651" lon="6.81972">
        <ele>442.6</ele>
        <time>2012-04-15T08:48:01Z</time>
      </trkpt>
      <trkpt lat="48.37646" lon="6.81979">
        <ele>442.5</ele>
        <time>2012-04-15T08:48:02Z</time>
      </trkpt>
      <trkpt lat="48.3764" lon="6.81984">
        <ele>442.4</ele>
        <time>2012-04-15T08:48:03Z</time>
      </trkpt>
      <trkpt lat="48.37634" lon="6.81988">
        <ele>442.4</ele>
        <time>2012-04-15T08:48:04Z</time>
      </trkpt>
      <trkpt lat="48.37628" lon="6.8199">
        <ele>442</ele>
        <time>2012-04-15T08:48:05Z</time>
      </trkpt>
      <trkpt lat="48.37623" lon="6.81989">
        <ele>441.7</ele>
        <time>2012-04-15T08:48:06Z</time>
      </trkpt>
      <trkpt lat="48.37617" lon="6.81987">
        <ele>441.5</ele>
        <time>2012-04-15T08:48:07Z</time>
      </trkpt>
      <trkpt lat="48.37611" lon="6.81985">
        <ele>441.4</ele>
        <time>2012-04-15T08:48:08Z</time>
      </trkpt>
      <trkpt lat="48.37606" lon="6.81983">
        <ele>441.3</ele>
        <time>2012-04-15T08:48:09Z</time>
      </trkpt>
      <trkpt lat="48.37601" lon="6.81984">
        <ele>441.2</ele>
        <time>2012-04-15T08:48:10Z</time>
      </trkpt>
      <trkpt lat="48.37594" lon="6.81991">
        <ele>440.9</ele>
        <time>2012-04-15T08:48:12Z</time>
      </trkpt>
      <trkpt lat="48.37591" lon="6.82003">
        <ele>439.2</ele>
        <time>2012-04-15T08:48:18Z</time>
      </trkpt>
      <trkpt lat="48.37582" lon="6.82006">
        <ele>438.2</ele>
        <time>2012-04-15T08:48:42Z</time>
      </trkpt>
      <trkpt lat="48.37591" lon="6.82003">
        <ele>437.5</ele>
        <time>2012-04-15T08:54:59Z</time>
      </trkpt>
      <trkpt lat="48.37591" lon="6.82003">
        <ele>437.6</ele>
        <time>2012-04-15T08:55:00Z</time>
      </trkpt>
      <trkpt lat="48.37582" lon="6.81995">
        <ele>438.7</ele>
        <time>2012-04-15T08:56:57Z</time>
      </trkpt>
      <trkpt lat="48.37569" lon="6.82001">
        <ele>439.9</ele>
        <time>2012-04-15T08:57:02Z</time>
      </trkpt>
      <trkpt lat="48.37561" lon="6.82007">
        <ele>440.3</ele>
        <time>2012-04-15T08:57:04Z</time>
      </trkpt>
      <trkpt lat="48.37556" lon="6.82009">
        <ele>440.3</ele>
        <time>2012-04-15T08:57:05Z</time>
      </trkpt>
      <trkpt lat="48.37549" lon="6.82014">
        <ele>440.2</ele>
        <time>2012-04-15T08:57:07Z</time>
      </trkpt>
      <trkpt lat="48.37543" lon="6.82021">
        <ele>439.9</ele>
        <time>2012-04-15T08:57:09Z</time>
      </trkpt>
      <trkpt lat="48.3754" lon="6.8203">
        <ele>440</ele>
        <time>2012-04-15T08:57:11Z</time>
      </trkpt>
      <trkpt lat="48.37535" lon="6.8204">
        <ele>440.1</ele>
        <time>2012-04-15T08:57:13Z</time>
      </trkpt>
      <trkpt lat="48.37532" lon="6.82048">
        <ele>439.2</ele>
        <time>2012-04-15T08:57:15Z</time>
      </trkpt>
      <trkpt lat="48.37527" lon="6.82055">
        <ele>438.7</ele>
        <time>2012-04-15T08:57:17Z</time>
      </trkpt>
      <trkpt lat="48.37521" lon="6.82064">
        <ele>438.5</ele>
        <time>2012-04-15T08:57:19Z</time>
      </trkpt>
      <trkpt lat="48.37518" lon="6.8207">
        <ele>437.8</ele>
        <time>2012-04-15T08:57:20Z</time>
      </trkpt>
      <trkpt lat="48.37514" lon="6.82077">
        <ele>437.4</ele>
        <time>2012-04-15T08:57:21Z</time>
      </trkpt>
      <trkpt lat="48.37511" lon="6.82082">
        <ele>437</ele>
        <time>2012-04-15T08:57:22Z</time>
      </trkpt>
      <trkpt lat="48.37506" lon="6.82088">
        <ele>436.3</ele>
        <time>2012-04-15T08:57:23Z</time>
      </trkpt>
      <trkpt lat="48.37502" lon="6.82095">
        <ele>435.8</ele>
        <time>2012-04-15T08:57:24Z</time>
      </trkpt>
      <trkpt lat="48.37498" lon="6.82102">
        <ele>435.5</ele>
        <time>2012-04-15T08:57:25Z</time>
      </trkpt>
      <trkpt lat="48.37494" lon="6.82108">
        <ele>435.2</ele>
        <time>2012-04-15T08:57:26Z</time>
      </trkpt>
      <trkpt lat="48.37491" lon="6.82113">
        <ele>434.6</ele>
        <time>2012-04-15T08:57:27Z</time>
      </trkpt>
      <trkpt lat="48.37487" lon="6.8212">
        <ele>434.2</ele>
        <time>2012-04-15T08:57:28Z</time>
      </trkpt>
      <trkpt lat="48.37483" lon="6.82129">
        <ele>433.9</ele>
        <time>2012-04-15T08:57:29Z</time>
      </trkpt>
      <trkpt lat="48.3748" lon="6.82137">
        <ele>433.8</ele>
        <time>2012-04-15T08:57:30Z</time>
      </trkpt>
      <trkpt lat="48.37476" lon="6.82145">
        <ele>433.7</ele>
        <time>2012-04-15T08:57:31Z</time>
      </trkpt>
      <trkpt lat="48.37473" lon="6.82155">
        <ele>433.7</ele>
        <time>2012-04-15T08:57:32Z</time>
      </trkpt>
      <trkpt lat="48.37468" lon="6.82165">
        <ele>433</ele>
        <time>2012-04-15T08:57:33Z</time>
      </trkpt>
      <trkpt lat="48.37463" lon="6.82174">
        <ele>432.4</ele>
        <time>2012-04-15T08:57:34Z</time>
      </trkpt>
      <trkpt lat="48.37458" lon="6.82182">
        <ele>432</ele>
        <time>2012-04-15T08:57:35Z</time>
      </trkpt>
      <trkpt lat="48.37452" lon="6.82188">
        <ele>431.7</ele>
        <time>2012-04-15T08:57:36Z</time>
      </trkpt>
      <trkpt lat="48.37445" lon="6.82194">
        <ele>431.4</ele>
        <time>2012-04-15T08:57:37Z</time>
      </trkpt>
      <trkpt lat="48.3744" lon="6.82201">
        <ele>431.2</ele>
        <time>2012-04-15T08:57:38Z</time>
      </trkpt>
      <trkpt lat="48.37435" lon="6.8221">
        <ele>430.9</ele>
        <time>2012-04-15T08:57:39Z</time>
      </trkpt>
      <trkpt lat="48.3743" lon="6.82218">
        <ele>430.7</ele>
        <time>2012-04-15T08:57:40Z</time>
      </trkpt>
      <trkpt lat="48.37425" lon="6.82227">
        <ele>430.5</ele>
        <time>2012-04-15T08:57:41Z</time>
      </trkpt>
      <trkpt lat="48.37419" lon="6.82235">
        <ele>430.4</ele>
        <time>2012-04-15T08:57:42Z</time>
      </trkpt>
      <trkpt lat="48.37414" lon="6.82242">
        <ele>430.3</ele>
        <time>2012-04-15T08:57:43Z</time>
      </trkpt>
      <trkpt lat="48.37409" lon="6.82249">
        <ele>430.3</ele>
        <time>2012-04-15T08:57:44Z</time>
      </trkpt>
      <trkpt lat="48.37402" lon="6.82256">
        <ele>430.3</ele>
        <time>2012-04-15T08:57:45Z</time>
      </trkpt>
      <trkpt lat="48.37396" lon="6.82262">
        <ele>430.1</ele>
        <time>2012-04-15T08:57:46Z</time>
      </trkpt>
      <trkpt lat="48.3739" lon="6.82269">
        <ele>430</ele>
        <time>2012-04-15T08:57:47Z</time>
      </trkpt>
      <trkpt lat="48.37386" lon="6.82277">
        <ele>429.9</ele>
        <time>2012-04-15T08:57:48Z</time>
      </trkpt>
      <trkpt lat="48.37382" lon="6.82286">
        <ele>430</ele>
        <time>2012-04-15T08:57:49Z</time>
      </trkpt>
      <trkpt lat="48.37378" lon="6.82294">
        <ele>430.1</ele>
        <time>2012-04-15T08:57:50Z</time>
      </trkpt>
      <trkpt lat="48.37375" lon="6.82303">
        <ele>430.2</ele>
        <time>2012-04-15T08:57:51Z</time>
      </trkpt>
      <trkpt lat="48.37371" lon="6.82311">
        <ele>430.3</ele>
        <time>2012-04-15T08:57:52Z</time>
      </trkpt>
      <trkpt lat="48.37367" lon="6.82317">
        <ele>430.3</ele>
        <time>2012-04-15T08:57:53Z</time>
      </trkpt>
      <trkpt lat="48.37361" lon="6.82324">
        <ele>430.3</ele>
        <time>2012-04-15T08:57:54Z</time>
      </trkpt>
      <trkpt lat="48.37357" lon="6.82332">
        <ele>430.3</ele>
        <time>2012-04-15T08:57:55Z</time>
      </trkpt>
      <trkpt lat="48.37354" lon="6.82339">
        <ele>430.3</ele>
        <time>2012-04-15T08:57:56Z</time>
      </trkpt>
      <trkpt lat="48.37351" lon="6.82345">
        <ele>430.3</ele>
        <time>2012-04-15T08:57:57Z</time>
      </trkpt>
      <trkpt lat="48.37347" lon="6.82351">
        <ele>430.3</ele>
        <time>2012-04-15T08:57:58Z</time>
      </trkpt>
      <trkpt lat="48.37343" lon="6.82357">
        <ele>430.3</ele>
        <time>2012-04-15T08:57:59Z</time>
      </trkpt>
      <trkpt lat="48.37339" lon="6.82362">
        <ele>430.4</ele>
        <time>2012-04-15T08:58:00Z</time>
      </trkpt>
      <trkpt lat="48.37335" lon="6.8237">
        <ele>430.4</ele>
        <time>2012-04-15T08:58:01Z</time>
      </trkpt>
      <trkpt lat="48.37332" lon="6.82378">
        <ele>430.6</ele>
        <time>2012-04-15T08:58:02Z</time>
      </trkpt>
      <trkpt lat="48.37328" lon="6.82385">
        <ele>430.8</ele>
        <time>2012-04-15T08:58:03Z</time>
      </trkpt>
      <trkpt lat="48.37323" lon="6.82393">
        <ele>430.9</ele>
        <time>2012-04-15T08:58:04Z</time>
      </trkpt>
      <trkpt lat="48.37319" lon="6.82401">
        <ele>430.8</ele>
        <time>2012-04-15T08:58:05Z</time>
      </trkpt>
      <trkpt lat="48.37316" lon="6.8241">
        <ele>430.7</ele>
        <time>2012-04-15T08:58:06Z</time>
      </trkpt>
      <trkpt lat="48.37312" lon="6.82418">
        <ele>430.6</ele>
        <time>2012-04-15T08:58:07Z</time>
      </trkpt>
      <trkpt lat="48.37308" lon="6.82427">
        <ele>430.5</ele>
        <time>2012-04-15T08:58:08Z</time>
      </trkpt>
      <trkpt lat="48.37303" lon="6.82434">
        <ele>430.4</ele>
        <time>2012-04-15T08:58:09Z</time>
      </trkpt>
      <trkpt lat="48.37299" lon="6.82442">
        <ele>430.4</ele>
        <time>2012-04-15T08:58:10Z</time>
      </trkpt>
      <trkpt lat="48.37295" lon="6.82451">
        <ele>430</ele>
        <time>2012-04-15T08:58:11Z</time>
      </trkpt>
      <trkpt lat="48.3729" lon="6.82459">
        <ele>429.7</ele>
        <time>2012-04-15T08:58:12Z</time>
      </trkpt>
      <trkpt lat="48.37286" lon="6.82467">
        <ele>429.5</ele>
        <time>2012-04-15T08:58:13Z</time>
      </trkpt>
      <trkpt lat="48.3728" lon="6.82475">
        <ele>429.3</ele>
        <time>2012-04-15T08:58:14Z</time>
      </trkpt>
      <trkpt lat="48.37276" lon="6.82482">
        <ele>429.1</ele>
        <time>2012-04-15T08:58:15Z</time>
      </trkpt>
      <trkpt lat="48.37271" lon="6.8249">
        <ele>429</ele>
        <time>2012-04-15T08:58:16Z</time>
      </trkpt>
      <trkpt lat="48.37267" lon="6.82498">
        <ele>428.9</ele>
        <time>2012-04-15T08:58:17Z</time>
      </trkpt>
      <trkpt lat="48.37263" lon="6.82506">
        <ele>429.1</ele>
        <time>2012-04-15T08:58:18Z</time>
      </trkpt>
      <trkpt lat="48.3726" lon="6.82515">
        <ele>429.2</ele>
        <time>2012-04-15T08:58:19Z</time>
      </trkpt>
      <trkpt lat="48.37256" lon="6.82523">
        <ele>429.3</ele>
        <time>2012-04-15T08:58:20Z</time>
      </trkpt>
      <trkpt lat="48.37252" lon="6.82531">
        <ele>429</ele>
        <time>2012-04-15T08:58:21Z</time>
      </trkpt>
      <trkpt lat="48.37249" lon="6.8254">
        <ele>428.9</ele>
        <time>2012-04-15T08:58:22Z</time>
      </trkpt>
      <trkpt lat="48.37244" lon="6.82549">
        <ele>428.7</ele>
        <time>2012-04-15T08:58:23Z</time>
      </trkpt>
      <trkpt lat="48.37241" lon="6.82558">
        <ele>428.8</ele>
        <time>2012-04-15T08:58:24Z</time>
      </trkpt>
      <trkpt lat="48.37237" lon="6.82566">
        <ele>428.9</ele>
        <time>2012-04-15T08:58:25Z</time>
      </trkpt>
      <trkpt lat="48.37234" lon="6.82575">
        <ele>428.9</ele>
        <time>2012-04-15T08:58:26Z</time>
      </trkpt>
      <trkpt lat="48.37231" lon="6.82583">
        <ele>428.7</ele>
        <time>2012-04-15T08:58:27Z</time>
      </trkpt>
      <trkpt lat="48.37227" lon="6.82593">
        <ele>428.6</ele>
        <time>2012-04-15T08:58:28Z</time>
      </trkpt>
      <trkpt lat="48.37224" lon="6.82601">
        <ele>428.5</ele>
        <time>2012-04-15T08:58:29Z</time>
      </trkpt>
      <trkpt lat="48.3722" lon="6.8261">
        <ele>428</ele>
        <time>2012-04-15T08:58:30Z</time>
      </trkpt>
      <trkpt lat="48.37216" lon="6.82619">
        <ele>427.6</ele>
        <time>2012-04-15T08:58:31Z</time>
      </trkpt>
      <trkpt lat="48.37212" lon="6.82628">
        <ele>427.4</ele>
        <time>2012-04-15T08:58:32Z</time>
      </trkpt>
      <trkpt lat="48.37209" lon="6.82637">
        <ele>427.2</ele>
        <time>2012-04-15T08:58:33Z</time>
      </trkpt>
      <trkpt lat="48.37204" lon="6.82645">
        <ele>427</ele>
        <time>2012-04-15T08:58:34Z</time>
      </trkpt>
      <trkpt lat="48.37199" lon="6.82653">
        <ele>426.9</ele>
        <time>2012-04-15T08:58:35Z</time>
      </trkpt>
      <trkpt lat="48.37194" lon="6.82661">
        <ele>426.8</ele>
        <time>2012-04-15T08:58:36Z</time>
      </trkpt>
      <trkpt lat="48.3719" lon="6.8267">
        <ele>426.4</ele>
        <time>2012-04-15T08:58:37Z</time>
      </trkpt>
      <trkpt lat="48.37185" lon="6.82678">
        <ele>426</ele>
        <time>2012-04-15T08:58:38Z</time>
      </trkpt>
      <trkpt lat="48.3718" lon="6.82686">
        <ele>425.8</ele>
        <time>2012-04-15T08:58:39Z</time>
      </trkpt>
      <trkpt lat="48.37176" lon="6.82693">
        <ele>425.5</ele>
        <time>2012-04-15T08:58:40Z</time>
      </trkpt>
      <trkpt lat="48.37172" lon="6.827">
        <ele>425.2</ele>
        <time>2012-04-15T08:58:41Z</time>
      </trkpt>
      <trkpt lat="48.37168" lon="6.82707">
        <ele>425.1</ele>
        <time>2012-04-15T08:58:42Z</time>
      </trkpt>
      <trkpt lat="48.37164" lon="6.82715">
        <ele>424.7</ele>
        <time>2012-04-15T08:58:43Z</time>
      </trkpt>
      <trkpt lat="48.37159" lon="6.82721">
        <ele>424.4</ele>
        <time>2012-04-15T08:58:44Z</time>
      </trkpt>
      <trkpt lat="48.37154" lon="6.82726">
        <ele>424.2</ele>
        <time>2012-04-15T08:58:45Z</time>
      </trkpt>
      <trkpt lat="48.37148" lon="6.82729">
        <ele>423.6</ele>
        <time>2012-04-15T08:58:46Z</time>
      </trkpt>
      <trkpt lat="48.37144" lon="6.82735">
        <ele>423.2</ele>
        <time>2012-04-15T08:58:47Z</time>
      </trkpt>
      <trkpt lat="48.3714" lon="6.82742">
        <ele>422.9</ele>
        <time>2012-04-15T08:58:48Z</time>
      </trkpt>
      <trkpt lat="48.37135" lon="6.82749">
        <ele>422.6</ele>
        <time>2012-04-15T08:58:49Z</time>
      </trkpt>
      <trkpt lat="48.3713" lon="6.82756">
        <ele>422.6</ele>
        <time>2012-04-15T08:58:50Z</time>
      </trkpt>
      <trkpt lat="48.37126" lon="6.8276">
        <ele>422.7</ele>
        <time>2012-04-15T08:58:51Z</time>
      </trkpt>
      <trkpt lat="48.37122" lon="6.82766">
        <ele>422.7</ele>
        <time>2012-04-15T08:58:52Z</time>
      </trkpt>
      <trkpt lat="48.37118" lon="6.82772">
        <ele>422</ele>
        <time>2012-04-15T08:58:53Z</time>
      </trkpt>
      <trkpt lat="48.37112" lon="6.82778">
        <ele>421.5</ele>
        <time>2012-04-15T08:58:54Z</time>
      </trkpt>
      <trkpt lat="48.37106" lon="6.82783">
        <ele>421.1</ele>
        <time>2012-04-15T08:58:55Z</time>
      </trkpt>
      <trkpt lat="48.37098" lon="6.82787">
        <ele>420.6</ele>
        <time>2012-04-15T08:58:56Z</time>
      </trkpt>
      <trkpt lat="48.3709" lon="6.82791">
        <ele>420.2</ele>
        <time>2012-04-15T08:58:57Z</time>
      </trkpt>
      <trkpt lat="48.37081" lon="6.82793">
        <ele>419.9</ele>
        <time>2012-04-15T08:58:58Z</time>
      </trkpt>
      <trkpt lat="48.37073" lon="6.82794">
        <ele>419.7</ele>
        <time>2012-04-15T08:58:59Z</time>
      </trkpt>
      <trkpt lat="48.37065" lon="6.82793">
        <ele>419.6</ele>
        <time>2012-04-15T08:59:00Z</time>
      </trkpt>
      <trkpt lat="48.37058" lon="6.82791">
        <ele>419.5</ele>
        <time>2012-04-15T08:59:01Z</time>
      </trkpt>
      <trkpt lat="48.37051" lon="6.82789">
        <ele>418.9</ele>
        <time>2012-04-15T08:59:02Z</time>
      </trkpt>
      <trkpt lat="48.37045" lon="6.82785">
        <ele>418.4</ele>
        <time>2012-04-15T08:59:03Z</time>
      </trkpt>
      <trkpt lat="48.3704" lon="6.82782">
        <ele>418.1</ele>
        <time>2012-04-15T08:59:04Z</time>
      </trkpt>
      <trkpt lat="48.37034" lon="6.82779">
        <ele>417.6</ele>
        <time>2012-04-15T08:59:05Z</time>
      </trkpt>
      <trkpt lat="48.37028" lon="6.82775">
        <ele>417.3</ele>
        <time>2012-04-15T08:59:06Z</time>
      </trkpt>
      <trkpt lat="48.37022" lon="6.8277">
        <ele>417</ele>
        <time>2012-04-15T08:59:07Z</time>
      </trkpt>
      <trkpt lat="48.37016" lon="6.82765">
        <ele>416.9</ele>
        <time>2012-04-15T08:59:08Z</time>
      </trkpt>
      <trkpt lat="48.3701" lon="6.8276">
        <ele>416.7</ele>
        <time>2012-04-15T08:59:09Z</time>
      </trkpt>
      <trkpt lat="48.37004" lon="6.82755">
        <ele>416.7</ele>
        <time>2012-04-15T08:59:10Z</time>
      </trkpt>
      <trkpt lat="48.37" lon="6.8275">
        <ele>416.6</ele>
        <time>2012-04-15T08:59:11Z</time>
      </trkpt>
      <trkpt lat="48.36996" lon="6.82744">
        <ele>416.7</ele>
        <time>2012-04-15T08:59:12Z</time>
      </trkpt>
      <trkpt lat="48.36991" lon="6.82737">
        <ele>416.8</ele>
        <time>2012-04-15T08:59:13Z</time>
      </trkpt>
      <trkpt lat="48.36987" lon="6.82731">
        <ele>416.9</ele>
        <time>2012-04-15T08:59:14Z</time>
      </trkpt>
      <trkpt lat="48.36983" lon="6.82726">
        <ele>416.6</ele>
        <time>2012-04-15T08:59:15Z</time>
      </trkpt>
      <trkpt lat="48.3698" lon="6.8272">
        <ele>416.3</ele>
        <time>2012-04-15T08:59:16Z</time>
      </trkpt>
      <trkpt lat="48.36976" lon="6.82715">
        <ele>416.1</ele>
        <time>2012-04-15T08:59:17Z</time>
      </trkpt>
      <trkpt lat="48.36972" lon="6.8271">
        <ele>416.2</ele>
        <time>2012-04-15T08:59:18Z</time>
      </trkpt>
      <trkpt lat="48.36968" lon="6.82704">
        <ele>416.3</ele>
        <time>2012-04-15T08:59:19Z</time>
      </trkpt>
      <trkpt lat="48.36964" lon="6.82698">
        <ele>416.4</ele>
        <time>2012-04-15T08:59:20Z</time>
      </trkpt>
      <trkpt lat="48.36959" lon="6.82692">
        <ele>416.5</ele>
        <time>2012-04-15T08:59:21Z</time>
      </trkpt>
      <trkpt lat="48.36954" lon="6.82687">
        <ele>416.5</ele>
        <time>2012-04-15T08:59:22Z</time>
      </trkpt>
      <trkpt lat="48.3695" lon="6.8268">
        <ele>416.6</ele>
        <time>2012-04-15T08:59:23Z</time>
      </trkpt>
      <trkpt lat="48.36945" lon="6.82675">
        <ele>416.6</ele>
        <time>2012-04-15T08:59:24Z</time>
      </trkpt>
      <trkpt lat="48.36941" lon="6.82669">
        <ele>416.7</ele>
        <time>2012-04-15T08:59:25Z</time>
      </trkpt>
      <trkpt lat="48.36936" lon="6.82663">
        <ele>416.7</ele>
        <time>2012-04-15T08:59:26Z</time>
      </trkpt>
      <trkpt lat="48.36931" lon="6.82657">
        <ele>416.7</ele>
        <time>2012-04-15T08:59:27Z</time>
      </trkpt>
      <trkpt lat="48.36927" lon="6.82652">
        <ele>416.6</ele>
        <time>2012-04-15T08:59:28Z</time>
      </trkpt>
      <trkpt lat="48.36921" lon="6.82646">
        <ele>416.4</ele>
        <time>2012-04-15T08:59:29Z</time>
      </trkpt>
      <trkpt lat="48.36916" lon="6.82641">
        <ele>416.3</ele>
        <time>2012-04-15T08:59:30Z</time>
      </trkpt>
      <trkpt lat="48.36911" lon="6.82636">
        <ele>416.3</ele>
        <time>2012-04-15T08:59:31Z</time>
      </trkpt>
      <trkpt lat="48.36906" lon="6.8263">
        <ele>416.2</ele>
        <time>2012-04-15T08:59:32Z</time>
      </trkpt>
      <trkpt lat="48.36901" lon="6.82625">
        <ele>416.2</ele>
        <time>2012-04-15T08:59:33Z</time>
      </trkpt>
      <trkpt lat="48.36897" lon="6.82621">
        <ele>416.3</ele>
        <time>2012-04-15T08:59:34Z</time>
      </trkpt>
      <trkpt lat="48.36891" lon="6.82619">
        <ele>416.4</ele>
        <time>2012-04-15T08:59:35Z</time>
      </trkpt>
      <trkpt lat="48.36886" lon="6.82621">
        <ele>416.5</ele>
        <time>2012-04-15T08:59:36Z</time>
      </trkpt>
      <trkpt lat="48.36882" lon="6.82625">
        <ele>415.9</ele>
        <time>2012-04-15T08:59:37Z</time>
      </trkpt>
      <trkpt lat="48.3688" lon="6.82632">
        <ele>415.4</ele>
        <time>2012-04-15T08:59:38Z</time>
      </trkpt>
      <trkpt lat="48.36878" lon="6.82641">
        <ele>415.1</ele>
        <time>2012-04-15T08:59:39Z</time>
      </trkpt>
      <trkpt lat="48.36878" lon="6.82651">
        <ele>414.9</ele>
        <time>2012-04-15T08:59:40Z</time>
      </trkpt>
      <trkpt lat="48.36879" lon="6.82661">
        <ele>413.9</ele>
        <time>2012-04-15T08:59:41Z</time>
      </trkpt>
      <trkpt lat="48.36881" lon="6.82672">
        <ele>413.2</ele>
        <time>2012-04-15T08:59:42Z</time>
      </trkpt>
      <trkpt lat="48.36885" lon="6.82683">
        <ele>412.6</ele>
        <time>2012-04-15T08:59:43Z</time>
      </trkpt>
      <trkpt lat="48.36889" lon="6.82694">
        <ele>412.2</ele>
        <time>2012-04-15T08:59:44Z</time>
      </trkpt>
      <trkpt lat="48.36893" lon="6.82706">
        <ele>411.8</ele>
        <time>2012-04-15T08:59:45Z</time>
      </trkpt>
      <trkpt lat="48.36898" lon="6.82718">
        <ele>411.6</ele>
        <time>2012-04-15T08:59:46Z</time>
      </trkpt>
      <trkpt lat="48.36903" lon="6.8273">
        <ele>410.1</ele>
        <time>2012-04-15T08:59:47Z</time>
      </trkpt>
      <trkpt lat="48.36908" lon="6.82742">
        <ele>409</ele>
        <time>2012-04-15T08:59:48Z</time>
      </trkpt>
      <trkpt lat="48.36914" lon="6.82754">
        <ele>408.2</ele>
        <time>2012-04-15T08:59:49Z</time>
      </trkpt>
      <trkpt lat="48.36919" lon="6.82765">
        <ele>406.5</ele>
        <time>2012-04-15T08:59:50Z</time>
      </trkpt>
      <trkpt lat="48.36924" lon="6.82776">
        <ele>405.2</ele>
        <time>2012-04-15T08:59:51Z</time>
      </trkpt>
      <trkpt lat="48.36928" lon="6.82788">
        <ele>404.2</ele>
        <time>2012-04-15T08:59:52Z</time>
      </trkpt>
      <trkpt lat="48.36932" lon="6.82801">
        <ele>402</ele>
        <time>2012-04-15T08:59:53Z</time>
      </trkpt>
      <trkpt lat="48.36934" lon="6.82814">
        <ele>400.4</ele>
        <time>2012-04-15T08:59:54Z</time>
      </trkpt>
      <trkpt lat="48.36937" lon="6.82827">
        <ele>399.2</ele>
        <time>2012-04-15T08:59:55Z</time>
      </trkpt>
      <trkpt lat="48.3694" lon="6.82841">
        <ele>398.2</ele>
        <time>2012-04-15T08:59:56Z</time>
      </trkpt>
      <trkpt lat="48.36942" lon="6.82855">
        <ele>396.8</ele>
        <time>2012-04-15T08:59:57Z</time>
      </trkpt>
      <trkpt lat="48.36945" lon="6.8287">
        <ele>395.7</ele>
        <time>2012-04-15T08:59:58Z</time>
      </trkpt>
      <trkpt lat="48.36947" lon="6.82885">
        <ele>394.9</ele>
        <time>2012-04-15T08:59:59Z</time>
      </trkpt>
      <trkpt lat="48.36949" lon="6.829">
        <ele>393.3</ele>
        <time>2012-04-15T09:00:00Z</time>
      </trkpt>
      <trkpt lat="48.3695" lon="6.82916">
        <ele>392.2</ele>
        <time>2012-04-15T09:00:01Z</time>
      </trkpt>
      <trkpt lat="48.3695" lon="6.82932">
        <ele>391.3</ele>
        <time>2012-04-15T09:00:02Z</time>
      </trkpt>
      <trkpt lat="48.3695" lon="6.82949">
        <ele>389.5</ele>
        <time>2012-04-15T09:00:03Z</time>
      </trkpt>
      <trkpt lat="48.3695" lon="6.82965">
        <ele>388.2</ele>
        <time>2012-04-15T09:00:04Z</time>
      </trkpt>
      <trkpt lat="48.36949" lon="6.82982">
        <ele>387.2</ele>
        <time>2012-04-15T09:00:05Z</time>
      </trkpt>
      <trkpt lat="48.36948" lon="6.82998">
        <ele>385.4</ele>
        <time>2012-04-15T09:00:06Z</time>
      </trkpt>
      <trkpt lat="48.36946" lon="6.83014">
        <ele>384.1</ele>
        <time>2012-04-15T09:00:07Z</time>
      </trkpt>
      <trkpt lat="48.36944" lon="6.8303">
        <ele>383.1</ele>
        <time>2012-04-15T09:00:08Z</time>
      </trkpt>
      <trkpt lat="48.36942" lon="6.83045">
        <ele>381.3</ele>
        <time>2012-04-15T09:00:09Z</time>
      </trkpt>
      <trkpt lat="48.36941" lon="6.8306">
        <ele>379.9</ele>
        <time>2012-04-15T09:00:10Z</time>
      </trkpt>
      <trkpt lat="48.36939" lon="6.83075">
        <ele>378.9</ele>
        <time>2012-04-15T09:00:11Z</time>
      </trkpt>
      <trkpt lat="48.36938" lon="6.8309">
        <ele>378.2</ele>
        <time>2012-04-15T09:00:12Z</time>
      </trkpt>
      <trkpt lat="48.36936" lon="6.83104">
        <ele>377.2</ele>
        <time>2012-04-15T09:00:13Z</time>
      </trkpt>
      <trkpt lat="48.36935" lon="6.83118">
        <ele>376.6</ele>
        <time>2012-04-15T09:00:14Z</time>
      </trkpt>
      <trkpt lat="48.36933" lon="6.83133">
        <ele>376</ele>
        <time>2012-04-15T09:00:15Z</time>
      </trkpt>
      <trkpt lat="48.36932" lon="6.83147">
        <ele>374.7</ele>
        <time>2012-04-15T09:00:16Z</time>
      </trkpt>
      <trkpt lat="48.36931" lon="6.83161">
        <ele>373.7</ele>
        <time>2012-04-15T09:00:17Z</time>
      </trkpt>
      <trkpt lat="48.36929" lon="6.83174">
        <ele>373</ele>
        <time>2012-04-15T09:00:18Z</time>
      </trkpt>
      <trkpt lat="48.36928" lon="6.83187">
        <ele>372.5</ele>
        <time>2012-04-15T09:00:19Z</time>
      </trkpt>
      <trkpt lat="48.36927" lon="6.83201">
        <ele>372.2</ele>
        <time>2012-04-15T09:00:20Z</time>
      </trkpt>
      <trkpt lat="48.36925" lon="6.83214">
        <ele>371.9</ele>
        <time>2012-04-15T09:00:21Z</time>
      </trkpt>
      <trkpt lat="48.36924" lon="6.83227">
        <ele>371.2</ele>
        <time>2012-04-15T09:00:22Z</time>
      </trkpt>
      <trkpt lat="48.36923" lon="6.8324">
        <ele>370.6</ele>
        <time>2012-04-15T09:00:23Z</time>
      </trkpt>
      <trkpt lat="48.36921" lon="6.83253">
        <ele>370.2</ele>
        <time>2012-04-15T09:00:24Z</time>
      </trkpt>
      <trkpt lat="48.3692" lon="6.83266">
        <ele>369.8</ele>
        <time>2012-04-15T09:00:25Z</time>
      </trkpt>
      <trkpt lat="48.36919" lon="6.83279">
        <ele>369.4</ele>
        <time>2012-04-15T09:00:26Z</time>
      </trkpt>
      <trkpt lat="48.36917" lon="6.83292">
        <ele>369.2</ele>
        <time>2012-04-15T09:00:27Z</time>
      </trkpt>
      <trkpt lat="48.36916" lon="6.83305">
        <ele>368.1</ele>
        <time>2012-04-15T09:00:28Z</time>
      </trkpt>
      <trkpt lat="48.36915" lon="6.83319">
        <ele>367.3</ele>
        <time>2012-04-15T09:00:29Z</time>
      </trkpt>
      <trkpt lat="48.36913" lon="6.83333">
        <ele>366.7</ele>
        <time>2012-04-15T09:00:30Z</time>
      </trkpt>
      <trkpt lat="48.36912" lon="6.83347">
        <ele>366.2</ele>
        <time>2012-04-15T09:00:31Z</time>
      </trkpt>
      <trkpt lat="48.3691" lon="6.83362">
        <ele>365.3</ele>
        <time>2012-04-15T09:00:32Z</time>
      </trkpt>
      <trkpt lat="48.36909" lon="6.83376">
        <ele>364.6</ele>
        <time>2012-04-15T09:00:33Z</time>
      </trkpt>
      <trkpt lat="48.36907" lon="6.83391">
        <ele>364</ele>
        <time>2012-04-15T09:00:34Z</time>
      </trkpt>
      <trkpt lat="48.36906" lon="6.83405">
        <ele>362.7</ele>
        <time>2012-04-15T09:00:35Z</time>
      </trkpt>
      <trkpt lat="48.36905" lon="6.8342">
        <ele>361.8</ele>
        <time>2012-04-15T09:00:36Z</time>
      </trkpt>
      <trkpt lat="48.36903" lon="6.83434">
        <ele>361</ele>
        <time>2012-04-15T09:00:37Z</time>
      </trkpt>
      <trkpt lat="48.36902" lon="6.83448">
        <ele>360.4</ele>
        <time>2012-04-15T09:00:38Z</time>
      </trkpt>
      <trkpt lat="48.369" lon="6.83462">
        <ele>359.9</ele>
        <time>2012-04-15T09:00:39Z</time>
      </trkpt>
      <trkpt lat="48.36899" lon="6.83477">
        <ele>359.6</ele>
        <time>2012-04-15T09:00:40Z</time>
      </trkpt>
      <trkpt lat="48.36897" lon="6.8349">
        <ele>358.6</ele>
        <time>2012-04-15T09:00:41Z</time>
      </trkpt>
      <trkpt lat="48.36895" lon="6.83503">
        <ele>357.9</ele>
        <time>2012-04-15T09:00:42Z</time>
      </trkpt>
      <trkpt lat="48.36893" lon="6.83517">
        <ele>357.4</ele>
        <time>2012-04-15T09:00:43Z</time>
      </trkpt>
      <trkpt lat="48.36891" lon="6.83531">
        <ele>356.5</ele>
        <time>2012-04-15T09:00:44Z</time>
      </trkpt>
      <trkpt lat="48.3689" lon="6.83544">
        <ele>355.9</ele>
        <time>2012-04-15T09:00:45Z</time>
      </trkpt>
      <trkpt lat="48.36887" lon="6.83558">
        <ele>355.4</ele>
        <time>2012-04-15T09:00:46Z</time>
      </trkpt>
      <trkpt lat="48.36885" lon="6.83572">
        <ele>355.1</ele>
        <time>2012-04-15T09:00:47Z</time>
      </trkpt>
      <trkpt lat="48.36883" lon="6.83585">
        <ele>354.1</ele>
        <time>2012-04-15T09:00:48Z</time>
      </trkpt>
      <trkpt lat="48.3688" lon="6.83599">
        <ele>353.4</ele>
        <time>2012-04-15T09:00:49Z</time>
      </trkpt>
      <trkpt lat="48.36878" lon="6.83613">
        <ele>352.9</ele>
        <time>2012-04-15T09:00:50Z</time>
      </trkpt>
      <trkpt lat="48.36875" lon="6.83626">
        <ele>352.2</ele>
        <time>2012-04-15T09:00:51Z</time>
      </trkpt>
      <trkpt lat="48.36872" lon="6.83639">
        <ele>351.7</ele>
        <time>2012-04-15T09:00:52Z</time>
      </trkpt>
      <trkpt lat="48.36868" lon="6.83653">
        <ele>351.3</ele>
        <time>2012-04-15T09:00:53Z</time>
      </trkpt>
      <trkpt lat="48.36865" lon="6.83667">
        <ele>350.4</ele>
        <time>2012-04-15T09:00:54Z</time>
      </trkpt>
      <trkpt lat="48.36861" lon="6.8368">
        <ele>349.7</ele>
        <time>2012-04-15T09:00:55Z</time>
      </trkpt>
      <trkpt lat="48.36858" lon="6.83694">
        <ele>349.2</ele>
        <time>2012-04-15T09:00:56Z</time>
      </trkpt>
      <trkpt lat="48.36855" lon="6.83708">
        <ele>348.8</ele>
        <time>2012-04-15T09:00:57Z</time>
      </trkpt>
      <trkpt lat="48.36853" lon="6.83722">
        <ele>348.5</ele>
        <time>2012-04-15T09:00:58Z</time>
      </trkpt>
      <trkpt lat="48.3685" lon="6.83736">
        <ele>348.2</ele>
        <time>2012-04-15T09:00:59Z</time>
      </trkpt>
      <trkpt lat="48.36847" lon="6.8375">
        <ele>346.8</ele>
        <time>2012-04-15T09:01:00Z</time>
      </trkpt>
      <trkpt lat="48.36844" lon="6.83764">
        <ele>345.7</ele>
        <time>2012-04-15T09:01:01Z</time>
      </trkpt>
      <trkpt lat="48.36841" lon="6.83777">
        <ele>344.9</ele>
        <time>2012-04-15T09:01:02Z</time>
      </trkpt>
      <trkpt lat="48.36838" lon="6.83791">
        <ele>344.3</ele>
        <time>2012-04-15T09:01:03Z</time>
      </trkpt>
      <trkpt lat="48.36836" lon="6.83806">
        <ele>343.4</ele>
        <time>2012-04-15T09:01:04Z</time>
      </trkpt>
      <trkpt lat="48.36836" lon="6.83821">
        <ele>342.7</ele>
        <time>2012-04-15T09:01:05Z</time>
      </trkpt>
      <trkpt lat="48.36837" lon="6.83836">
        <ele>342.2</ele>
        <time>2012-04-15T09:01:06Z</time>
      </trkpt>
      <trkpt lat="48.36838" lon="6.83851">
        <ele>341.1</ele>
        <time>2012-04-15T09:01:07Z</time>
      </trkpt>
      <trkpt lat="48.3684" lon="6.83865">
        <ele>340.3</ele>
        <time>2012-04-15T09:01:08Z</time>
      </trkpt>
      <trkpt lat="48.36843" lon="6.83879">
        <ele>339.7</ele>
        <time>2012-04-15T09:01:09Z</time>
      </trkpt>
      <trkpt lat="48.36844" lon="6.83892">
        <ele>339</ele>
        <time>2012-04-15T09:01:10Z</time>
      </trkpt>
      <trkpt lat="48.36844" lon="6.83906">
        <ele>338.5</ele>
        <time>2012-04-15T09:01:11Z</time>
      </trkpt>
      <trkpt lat="48.36842" lon="6.83918">
        <ele>338.1</ele>
        <time>2012-04-15T09:01:12Z</time>
      </trkpt>
      <trkpt lat="48.36837" lon="6.83928">
        <ele>337.5</ele>
        <time>2012-04-15T09:01:13Z</time>
      </trkpt>
      <trkpt lat="48.36832" lon="6.83936">
        <ele>337.1</ele>
        <time>2012-04-15T09:01:14Z</time>
      </trkpt>
      <trkpt lat="48.36825" lon="6.83943">
        <ele>336.7</ele>
        <time>2012-04-15T09:01:15Z</time>
      </trkpt>
      <trkpt lat="48.36819" lon="6.83948">
        <ele>336.1</ele>
        <time>2012-04-15T09:01:16Z</time>
      </trkpt>
      <trkpt lat="48.36812" lon="6.83954">
        <ele>335.5</ele>
        <time>2012-04-15T09:01:17Z</time>
      </trkpt>
      <trkpt lat="48.36806" lon="6.83959">
        <ele>335.2</ele>
        <time>2012-04-15T09:01:18Z</time>
      </trkpt>
      <trkpt lat="48.368" lon="6.83964">
        <ele>334.9</ele>
        <time>2012-04-15T09:01:19Z</time>
      </trkpt>
      <trkpt lat="48.36794" lon="6.8397">
        <ele>335.1</ele>
        <time>2012-04-15T09:01:20Z</time>
      </trkpt>
      <trkpt lat="48.36788" lon="6.83976">
        <ele>335.3</ele>
        <time>2012-04-15T09:01:21Z</time>
      </trkpt>
      <trkpt lat="48.36782" lon="6.83981">
        <ele>335.4</ele>
        <time>2012-04-15T09:01:22Z</time>
      </trkpt>
      <trkpt lat="48.36776" lon="6.83988">
        <ele>335.3</ele>
        <time>2012-04-15T09:01:23Z</time>
      </trkpt>
      <trkpt lat="48.36772" lon="6.83995">
        <ele>335.2</ele>
        <time>2012-04-15T09:01:24Z</time>
      </trkpt>
      <trkpt lat="48.36767" lon="6.84003">
        <ele>335.2</ele>
        <time>2012-04-15T09:01:25Z</time>
      </trkpt>
      <trkpt lat="48.36764" lon="6.84012">
        <ele>335.4</ele>
        <time>2012-04-15T09:01:26Z</time>
      </trkpt>
      <trkpt lat="48.36761" lon="6.84021">
        <ele>335.7</ele>
        <time>2012-04-15T09:01:27Z</time>
      </trkpt>
      <trkpt lat="48.36759" lon="6.84031">
        <ele>335.8</ele>
        <time>2012-04-15T09:01:28Z</time>
      </trkpt>
      <trkpt lat="48.36758" lon="6.8404">
        <ele>336.5</ele>
        <time>2012-04-15T09:01:29Z</time>
      </trkpt>
      <trkpt lat="48.36757" lon="6.8405">
        <ele>337</ele>
        <time>2012-04-15T09:01:30Z</time>
      </trkpt>
      <trkpt lat="48.36756" lon="6.84059">
        <ele>337.4</ele>
        <time>2012-04-15T09:01:31Z</time>
      </trkpt>
      <trkpt lat="48.36757" lon="6.84068">
        <ele>337.5</ele>
        <time>2012-04-15T09:01:32Z</time>
      </trkpt>
      <trkpt lat="48.36761" lon="6.8408">
        <ele>337.5</ele>
        <time>2012-04-15T09:01:34Z</time>
      </trkpt>
      <trkpt lat="48.36768" lon="6.84082">
        <ele>338.2</ele>
        <time>2012-04-15T09:01:36Z</time>
      </trkpt>
      <trkpt lat="48.36776" lon="6.84081">
        <ele>338.6</ele>
        <time>2012-04-15T09:01:38Z</time>
      </trkpt>
      <trkpt lat="48.36781" lon="6.8408">
        <ele>339</ele>
        <time>2012-04-15T09:01:39Z</time>
      </trkpt>
      <trkpt lat="48.36789" lon="6.84082">
        <ele>339.4</ele>
        <time>2012-04-15T09:01:41Z</time>
      </trkpt>
      <trkpt lat="48.36795" lon="6.84092">
        <ele>339.5</ele>
        <time>2012-04-15T09:01:43Z</time>
      </trkpt>
      <trkpt lat="48.36797" lon="6.84098">
        <ele>339.5</ele>
        <time>2012-04-15T09:01:44Z</time>
      </trkpt>
      <trkpt lat="48.36799" lon="6.84105">
        <ele>339.8</ele>
        <time>2012-04-15T09:01:45Z</time>
      </trkpt>
      <trkpt lat="48.36801" lon="6.84111">
        <ele>340</ele>
        <time>2012-04-15T09:01:46Z</time>
      </trkpt>
      <trkpt lat="48.36803" lon="6.84118">
        <ele>340.2</ele>
        <time>2012-04-15T09:01:47Z</time>
      </trkpt>
      <trkpt lat="48.36805" lon="6.84125">
        <ele>340.4</ele>
        <time>2012-04-15T09:01:48Z</time>
      </trkpt>
      <trkpt lat="48.36807" lon="6.84132">
        <ele>340.6</ele>
        <time>2012-04-15T09:01:49Z</time>
      </trkpt>
      <trkpt lat="48.36809" lon="6.84138">
        <ele>340.7</ele>
        <time>2012-04-15T09:01:50Z</time>
      </trkpt>
      <trkpt lat="48.36811" lon="6.84144">
        <ele>340.6</ele>
        <time>2012-04-15T09:01:51Z</time>
      </trkpt>
      <trkpt lat="48.36813" lon="6.8415">
        <ele>340.6</ele>
        <time>2012-04-15T09:01:52Z</time>
      </trkpt>
      <trkpt lat="48.36816" lon="6.84156">
        <ele>340.6</ele>
        <time>2012-04-15T09:01:53Z</time>
      </trkpt>
      <trkpt lat="48.36818" lon="6.84162">
        <ele>340.6</ele>
        <time>2012-04-15T09:01:54Z</time>
      </trkpt>
      <trkpt lat="48.36823" lon="6.84173">
        <ele>341.5</ele>
        <time>2012-04-15T09:01:56Z</time>
      </trkpt>
      <trkpt lat="48.36826" lon="6.84178">
        <ele>341.9</ele>
        <time>2012-04-15T09:01:57Z</time>
      </trkpt>
      <trkpt lat="48.36829" lon="6.84184">
        <ele>342.5</ele>
        <time>2012-04-15T09:01:58Z</time>
      </trkpt>
      <trkpt lat="48.36831" lon="6.8419">
        <ele>342.9</ele>
        <time>2012-04-15T09:01:59Z</time>
      </trkpt>
      <trkpt lat="48.36836" lon="6.84201">
        <ele>343.4</ele>
        <time>2012-04-15T09:02:01Z</time>
      </trkpt>
      <trkpt lat="48.36839" lon="6.84206">
        <ele>343.5</ele>
        <time>2012-04-15T09:02:02Z</time>
      </trkpt>
      <trkpt lat="48.36842" lon="6.84212">
        <ele>343.5</ele>
        <time>2012-04-15T09:02:03Z</time>
      </trkpt>
      <trkpt lat="48.36844" lon="6.84218">
        <ele>343.8</ele>
        <time>2012-04-15T09:02:04Z</time>
      </trkpt>
      <trkpt lat="48.36847" lon="6.84223">
        <ele>344.1</ele>
        <time>2012-04-15T09:02:05Z</time>
      </trkpt>
      <trkpt lat="48.3685" lon="6.84228">
        <ele>344.2</ele>
        <time>2012-04-15T09:02:06Z</time>
      </trkpt>
      <trkpt lat="48.36853" lon="6.84234">
        <ele>344.7</ele>
        <time>2012-04-15T09:02:07Z</time>
      </trkpt>
      <trkpt lat="48.36856" lon="6.84239">
        <ele>345.1</ele>
        <time>2012-04-15T09:02:08Z</time>
      </trkpt>
      <trkpt lat="48.36858" lon="6.84245">
        <ele>345.3</ele>
        <time>2012-04-15T09:02:09Z</time>
      </trkpt>
      <trkpt lat="48.36861" lon="6.84252">
        <ele>345.5</ele>
        <time>2012-04-15T09:02:10Z</time>
      </trkpt>
      <trkpt lat="48.36864" lon="6.84259">
        <ele>345.7</ele>
        <time>2012-04-15T09:02:11Z</time>
      </trkpt>
      <trkpt lat="48.36867" lon="6.84266">
        <ele>345.8</ele>
        <time>2012-04-15T09:02:12Z</time>
      </trkpt>
      <trkpt lat="48.3687" lon="6.84274">
        <ele>345.9</ele>
        <time>2012-04-15T09:02:13Z</time>
      </trkpt>
      <trkpt lat="48.36873" lon="6.84281">
        <ele>345.8</ele>
        <time>2012-04-15T09:02:14Z</time>
      </trkpt>
      <trkpt lat="48.36876" lon="6.84287">
        <ele>345.8</ele>
        <time>2012-04-15T09:02:15Z</time>
      </trkpt>
      <trkpt lat="48.3688" lon="6.84295">
        <ele>345.7</ele>
        <time>2012-04-15T09:02:16Z</time>
      </trkpt>
      <trkpt lat="48.36883" lon="6.84302">
        <ele>345.5</ele>
        <time>2012-04-15T09:02:17Z</time>
      </trkpt>
      <trkpt lat="48.36887" lon="6.84309">
        <ele>345.3</ele>
        <time>2012-04-15T09:02:18Z</time>
      </trkpt>
      <trkpt lat="48.36889" lon="6.84316">
        <ele>345.2</ele>
        <time>2012-04-15T09:02:19Z</time>
      </trkpt>
      <trkpt lat="48.36893" lon="6.84322">
        <ele>344.6</ele>
        <time>2012-04-15T09:02:20Z</time>
      </trkpt>
      <trkpt lat="48.36896" lon="6.84329">
        <ele>344</ele>
        <time>2012-04-15T09:02:21Z</time>
      </trkpt>
      <trkpt lat="48.36899" lon="6.84336">
        <ele>343.7</ele>
        <time>2012-04-15T09:02:22Z</time>
      </trkpt>
      <trkpt lat="48.36902" lon="6.84343">
        <ele>343.7</ele>
        <time>2012-04-15T09:02:23Z</time>
      </trkpt>
      <trkpt lat="48.36905" lon="6.84351">
        <ele>343.7</ele>
        <time>2012-04-15T09:02:24Z</time>
      </trkpt>
      <trkpt lat="48.36908" lon="6.84359">
        <ele>343.7</ele>
        <time>2012-04-15T09:02:25Z</time>
      </trkpt>
      <trkpt lat="48.3691" lon="6.84368">
        <ele>343.6</ele>
        <time>2012-04-15T09:02:26Z</time>
      </trkpt>
      <trkpt lat="48.36912" lon="6.84376">
        <ele>343.6</ele>
        <time>2012-04-15T09:02:27Z</time>
      </trkpt>
      <trkpt lat="48.36914" lon="6.84385">
        <ele>343.5</ele>
        <time>2012-04-15T09:02:28Z</time>
      </trkpt>
      <trkpt lat="48.36916" lon="6.84393">
        <ele>343.4</ele>
        <time>2012-04-15T09:02:29Z</time>
      </trkpt>
      <trkpt lat="48.36918" lon="6.84401">
        <ele>343.5</ele>
        <time>2012-04-15T09:02:30Z</time>
      </trkpt>
      <trkpt lat="48.36921" lon="6.84409">
        <ele>343.5</ele>
        <time>2012-04-15T09:02:31Z</time>
      </trkpt>
      <trkpt lat="48.36923" lon="6.84418">
        <ele>343.5</ele>
        <time>2012-04-15T09:02:32Z</time>
      </trkpt>
      <trkpt lat="48.36925" lon="6.84427">
        <ele>343.1</ele>
        <time>2012-04-15T09:02:33Z</time>
      </trkpt>
      <trkpt lat="48.36927" lon="6.84437">
        <ele>342.7</ele>
        <time>2012-04-15T09:02:34Z</time>
      </trkpt>
      <trkpt lat="48.3693" lon="6.84448">
        <ele>342.4</ele>
        <time>2012-04-15T09:02:35Z</time>
      </trkpt>
      <trkpt lat="48.36932" lon="6.8446">
        <ele>341.7</ele>
        <time>2012-04-15T09:02:36Z</time>
      </trkpt>
      <trkpt lat="48.36933" lon="6.84472">
        <ele>341.1</ele>
        <time>2012-04-15T09:02:37Z</time>
      </trkpt>
      <trkpt lat="48.36932" lon="6.84483">
        <ele>340.7</ele>
        <time>2012-04-15T09:02:38Z</time>
      </trkpt>
      <trkpt lat="48.36931" lon="6.84493">
        <ele>340.2</ele>
        <time>2012-04-15T09:02:39Z</time>
      </trkpt>
      <trkpt lat="48.36929" lon="6.84501">
        <ele>339.8</ele>
        <time>2012-04-15T09:02:40Z</time>
      </trkpt>
      <trkpt lat="48.36928" lon="6.84513">
        <ele>339.5</ele>
        <time>2012-04-15T09:02:42Z</time>
      </trkpt>
      <trkpt lat="48.36923" lon="6.84522">
        <ele>339.4</ele>
        <time>2012-04-15T09:02:45Z</time>
      </trkpt>
      <trkpt lat="48.36918" lon="6.84531">
        <ele>341</ele>
        <time>2012-04-15T09:02:50Z</time>
      </trkpt>
      <trkpt lat="48.36913" lon="6.84539">
        <ele>343.2</ele>
        <time>2012-04-15T09:02:55Z</time>
      </trkpt>
      <trkpt lat="48.36907" lon="6.84545">
        <ele>344.5</ele>
        <time>2012-04-15T09:02:58Z</time>
      </trkpt>
      <trkpt lat="48.36905" lon="6.84553">
        <ele>345.3</ele>
        <time>2012-04-15T09:03:00Z</time>
      </trkpt>
      <trkpt lat="48.36904" lon="6.84564">
        <ele>345.1</ele>
        <time>2012-04-15T09:03:02Z</time>
      </trkpt>
      <trkpt lat="48.36902" lon="6.84574">
        <ele>344.6</ele>
        <time>2012-04-15T09:03:04Z</time>
      </trkpt>
      <trkpt lat="48.36899" lon="6.84582">
        <ele>344.6</ele>
        <time>2012-04-15T09:03:06Z</time>
      </trkpt>
      <trkpt lat="48.36897" lon="6.84587">
        <ele>344.6</ele>
        <time>2012-04-15T09:03:07Z</time>
      </trkpt>
      <trkpt lat="48.36891" lon="6.84603">
        <ele>344.8</ele>
        <time>2012-04-15T09:03:10Z</time>
      </trkpt>
      <trkpt lat="48.36887" lon="6.84613">
        <ele>344.2</ele>
        <time>2012-04-15T09:03:12Z</time>
      </trkpt>
      <trkpt lat="48.36884" lon="6.84619">
        <ele>344</ele>
        <time>2012-04-15T09:03:13Z</time>
      </trkpt>
      <trkpt lat="48.36881" lon="6.84626">
        <ele>343.5</ele>
        <time>2012-04-15T09:03:14Z</time>
      </trkpt>
      <trkpt lat="48.36878" lon="6.84635">
        <ele>343.2</ele>
        <time>2012-04-15T09:03:15Z</time>
      </trkpt>
      <trkpt lat="48.36875" lon="6.84646">
        <ele>342.9</ele>
        <time>2012-04-15T09:03:16Z</time>
      </trkpt>
      <trkpt lat="48.36874" lon="6.84658">
        <ele>342.7</ele>
        <time>2012-04-15T09:03:17Z</time>
      </trkpt>
      <trkpt lat="48.36873" lon="6.8467">
        <ele>341.8</ele>
        <time>2012-04-15T09:03:18Z</time>
      </trkpt>
      <trkpt lat="48.36871" lon="6.8468">
        <ele>341.1</ele>
        <time>2012-04-15T09:03:19Z</time>
      </trkpt>
      <trkpt lat="48.36868" lon="6.84692">
        <ele>339.9</ele>
        <time>2012-04-15T09:03:21Z</time>
      </trkpt>
      <trkpt lat="48.36868" lon="6.84702">
        <ele>339</ele>
        <time>2012-04-15T09:03:23Z</time>
      </trkpt>
      <trkpt lat="48.36865" lon="6.84712">
        <ele>340.4</ele>
        <time>2012-04-15T09:03:26Z</time>
      </trkpt>
      <trkpt lat="48.36865" lon="6.84723">
        <ele>342.1</ele>
        <time>2012-04-15T09:03:29Z</time>
      </trkpt>
      <trkpt lat="48.36864" lon="6.84734">
        <ele>344</ele>
        <time>2012-04-15T09:03:32Z</time>
      </trkpt>
      <trkpt lat="48.36863" lon="6.84746">
        <ele>345</ele>
        <time>2012-04-15T09:03:35Z</time>
      </trkpt>
      <trkpt lat="48.36863" lon="6.84758">
        <ele>346.7</ele>
        <time>2012-04-15T09:03:38Z</time>
      </trkpt>
      <trkpt lat="48.36863" lon="6.84771">
        <ele>347.1</ele>
        <time>2012-04-15T09:03:41Z</time>
      </trkpt>
      <trkpt lat="48.36861" lon="6.84782">
        <ele>347.4</ele>
        <time>2012-04-15T09:03:44Z</time>
      </trkpt>
      <trkpt lat="48.36859" lon="6.84794">
        <ele>348.3</ele>
        <time>2012-04-15T09:03:47Z</time>
      </trkpt>
      <trkpt lat="48.36857" lon="6.84803">
        <ele>348.7</ele>
        <time>2012-04-15T09:03:49Z</time>
      </trkpt>
      <trkpt lat="48.36856" lon="6.84816">
        <ele>348.8</ele>
        <time>2012-04-15T09:03:52Z</time>
      </trkpt>
      <trkpt lat="48.36855" lon="6.84825">
        <ele>349.3</ele>
        <time>2012-04-15T09:03:54Z</time>
      </trkpt>
      <trkpt lat="48.36854" lon="6.84835">
        <ele>349.6</ele>
        <time>2012-04-15T09:03:56Z</time>
      </trkpt>
      <trkpt lat="48.36853" lon="6.84844">
        <ele>349.7</ele>
        <time>2012-04-15T09:03:58Z</time>
      </trkpt>
      <trkpt lat="48.36853" lon="6.84854">
        <ele>350.1</ele>
        <time>2012-04-15T09:04:00Z</time>
      </trkpt>
      <trkpt lat="48.36853" lon="6.84864">
        <ele>350.4</ele>
        <time>2012-04-15T09:04:02Z</time>
      </trkpt>
      <trkpt lat="48.36852" lon="6.84876">
        <ele>350.6</ele>
        <time>2012-04-15T09:04:04Z</time>
      </trkpt>
      <trkpt lat="48.36851" lon="6.84888">
        <ele>351.5</ele>
        <time>2012-04-15T09:04:06Z</time>
      </trkpt>
      <trkpt lat="48.36849" lon="6.849">
        <ele>352</ele>
        <time>2012-04-15T09:04:08Z</time>
      </trkpt>
      <trkpt lat="48.36848" lon="6.84907">
        <ele>351.9</ele>
        <time>2012-04-15T09:04:09Z</time>
      </trkpt>
      <trkpt lat="48.36847" lon="6.84915">
        <ele>351.8</ele>
        <time>2012-04-15T09:04:10Z</time>
      </trkpt>
      <trkpt lat="48.36846" lon="6.84922">
        <ele>351.7</ele>
        <time>2012-04-15T09:04:11Z</time>
      </trkpt>
      <trkpt lat="48.36845" lon="6.84929">
        <ele>351.8</ele>
        <time>2012-04-15T09:04:12Z</time>
      </trkpt>
      <trkpt lat="48.36844" lon="6.84936">
        <ele>351.8</ele>
        <time>2012-04-15T09:04:13Z</time>
      </trkpt>
      <trkpt lat="48.36843" lon="6.84943">
        <ele>351.9</ele>
        <time>2012-04-15T09:04:14Z</time>
      </trkpt>
      <trkpt lat="48.36842" lon="6.8495">
        <ele>351.7</ele>
        <time>2012-04-15T09:04:15Z</time>
      </trkpt>
      <trkpt lat="48.36842" lon="6.84958">
        <ele>351.5</ele>
        <time>2012-04-15T09:04:16Z</time>
      </trkpt>
      <trkpt lat="48.36842" lon="6.84967">
        <ele>351.4</ele>
        <time>2012-04-15T09:04:17Z</time>
      </trkpt>
      <trkpt lat="48.36842" lon="6.84975">
        <ele>351.3</ele>
        <time>2012-04-15T09:04:18Z</time>
      </trkpt>
      <trkpt lat="48.36842" lon="6.84984">
        <ele>351.3</ele>
        <time>2012-04-15T09:04:19Z</time>
      </trkpt>
      <trkpt lat="48.36841" lon="6.84991">
        <ele>351.2</ele>
        <time>2012-04-15T09:04:20Z</time>
      </trkpt>
      <trkpt lat="48.36841" lon="6.84998">
        <ele>351.2</ele>
        <time>2012-04-15T09:04:21Z</time>
      </trkpt>
      <trkpt lat="48.3684" lon="6.85006">
        <ele>351.2</ele>
        <time>2012-04-15T09:04:22Z</time>
      </trkpt>
      <trkpt lat="48.36841" lon="6.85015">
        <ele>351.1</ele>
        <time>2012-04-15T09:04:23Z</time>
      </trkpt>
      <trkpt lat="48.36841" lon="6.85024">
        <ele>351.1</ele>
        <time>2012-04-15T09:04:24Z</time>
      </trkpt>
      <trkpt lat="48.36843" lon="6.85034">
        <ele>351.4</ele>
        <time>2012-04-15T09:04:25Z</time>
      </trkpt>
      <trkpt lat="48.36844" lon="6.85044">
        <ele>351.6</ele>
        <time>2012-04-15T09:04:26Z</time>
      </trkpt>
      <trkpt lat="48.36846" lon="6.85052">
        <ele>351.8</ele>
        <time>2012-04-15T09:04:27Z</time>
      </trkpt>
      <trkpt lat="48.36848" lon="6.85061">
        <ele>351.7</ele>
        <time>2012-04-15T09:04:28Z</time>
      </trkpt>
      <trkpt lat="48.36849" lon="6.85071">
        <ele>351.7</ele>
        <time>2012-04-15T09:04:29Z</time>
      </trkpt>
      <trkpt lat="48.3685" lon="6.8508">
        <ele>351.6</ele>
        <time>2012-04-15T09:04:30Z</time>
      </trkpt>
      <trkpt lat="48.36852" lon="6.8509">
        <ele>351.3</ele>
        <time>2012-04-15T09:04:31Z</time>
      </trkpt>
      <trkpt lat="48.36854" lon="6.85102">
        <ele>351</ele>
        <time>2012-04-15T09:04:32Z</time>
      </trkpt>
      <trkpt lat="48.36856" lon="6.85114">
        <ele>350.9</ele>
        <time>2012-04-15T09:04:33Z</time>
      </trkpt>
      <trkpt lat="48.36857" lon="6.85126">
        <ele>350.4</ele>
        <time>2012-04-15T09:04:34Z</time>
      </trkpt>
      <trkpt lat="48.36859" lon="6.85137">
        <ele>350</ele>
        <time>2012-04-15T09:04:35Z</time>
      </trkpt>
      <trkpt lat="48.36863" lon="6.85147">
        <ele>349.8</ele>
        <time>2012-04-15T09:04:36Z</time>
      </trkpt>
      <trkpt lat="48.36866" lon="6.85156">
        <ele>349.7</ele>
        <time>2012-04-15T09:04:37Z</time>
      </trkpt>
      <trkpt lat="48.36869" lon="6.85165">
        <ele>349.7</ele>
        <time>2012-04-15T09:04:39Z</time>
      </trkpt>
      <trkpt lat="48.36871" lon="6.85173">
        <ele>349.1</ele>
        <time>2012-04-15T09:04:41Z</time>
      </trkpt>
      <trkpt lat="48.36875" lon="6.85183">
        <ele>348.5</ele>
        <time>2012-04-15T09:04:43Z</time>
      </trkpt>
      <trkpt lat="48.36878" lon="6.85193">
        <ele>348.8</ele>
        <time>2012-04-15T09:04:45Z</time>
      </trkpt>
      <trkpt lat="48.36882" lon="6.85203">
        <ele>348.9</ele>
        <time>2012-04-15T09:04:47Z</time>
      </trkpt>
      <trkpt lat="48.36886" lon="6.85213">
        <ele>348.8</ele>
        <time>2012-04-15T09:04:49Z</time>
      </trkpt>
      <trkpt lat="48.36889" lon="6.85222">
        <ele>349.7</ele>
        <time>2012-04-15T09:04:51Z</time>
      </trkpt>
      <trkpt lat="48.36892" lon="6.85231">
        <ele>350</ele>
        <time>2012-04-15T09:04:53Z</time>
      </trkpt>
      <trkpt lat="48.36895" lon="6.8524">
        <ele>350</ele>
        <time>2012-04-15T09:04:55Z</time>
      </trkpt>
      <trkpt lat="48.36898" lon="6.85249">
        <ele>350</ele>
        <time>2012-04-15T09:04:57Z</time>
      </trkpt>
      <trkpt lat="48.36902" lon="6.85257">
        <ele>350</ele>
        <time>2012-04-15T09:04:59Z</time>
      </trkpt>
      <trkpt lat="48.36904" lon="6.85266">
        <ele>351.2</ele>
        <time>2012-04-15T09:05:01Z</time>
      </trkpt>
      <trkpt lat="48.36907" lon="6.85275">
        <ele>351.6</ele>
        <time>2012-04-15T09:05:03Z</time>
      </trkpt>
      <trkpt lat="48.3691" lon="6.85283">
        <ele>351.5</ele>
        <time>2012-04-15T09:05:05Z</time>
      </trkpt>
      <trkpt lat="48.36912" lon="6.85296">
        <ele>351.9</ele>
        <time>2012-04-15T09:05:08Z</time>
      </trkpt>
      <trkpt lat="48.36915" lon="6.85306">
        <ele>352.3</ele>
        <time>2012-04-15T09:05:10Z</time>
      </trkpt>
      <trkpt lat="48.36916" lon="6.85311">
        <ele>352.4</ele>
        <time>2012-04-15T09:05:11Z</time>
      </trkpt>
      <trkpt lat="48.36921" lon="6.85326">
        <ele>352.2</ele>
        <time>2012-04-15T09:05:14Z</time>
      </trkpt>
      <trkpt lat="48.36924" lon="6.85337">
        <ele>352.6</ele>
        <time>2012-04-15T09:05:16Z</time>
      </trkpt>
      <trkpt lat="48.36926" lon="6.85348">
        <ele>353</ele>
        <time>2012-04-15T09:05:18Z</time>
      </trkpt>
      <trkpt lat="48.3693" lon="6.85359">
        <ele>354</ele>
        <time>2012-04-15T09:05:20Z</time>
      </trkpt>
      <trkpt lat="48.36933" lon="6.85369">
        <ele>354.5</ele>
        <time>2012-04-15T09:05:22Z</time>
      </trkpt>
      <trkpt lat="48.36935" lon="6.8538">
        <ele>354.7</ele>
        <time>2012-04-15T09:05:24Z</time>
      </trkpt>
      <trkpt lat="48.3694" lon="6.8539">
        <ele>355.4</ele>
        <time>2012-04-15T09:05:26Z</time>
      </trkpt>
      <trkpt lat="48.36947" lon="6.85397">
        <ele>355.8</ele>
        <time>2012-04-15T09:05:28Z</time>
      </trkpt>
      <trkpt lat="48.36954" lon="6.85401">
        <ele>356</ele>
        <time>2012-04-15T09:05:30Z</time>
      </trkpt>
      <trkpt lat="48.36961" lon="6.85408">
        <ele>355.8</ele>
        <time>2012-04-15T09:05:33Z</time>
      </trkpt>
      <trkpt lat="48.36966" lon="6.85415">
        <ele>355.6</ele>
        <time>2012-04-15T09:05:36Z</time>
      </trkpt>
      <trkpt lat="48.36973" lon="6.85423">
        <ele>355.5</ele>
        <time>2012-04-15T09:05:39Z</time>
      </trkpt>
      <trkpt lat="48.3698" lon="6.85427">
        <ele>355.6</ele>
        <time>2012-04-15T09:05:43Z</time>
      </trkpt>
      <trkpt lat="48.36987" lon="6.85428">
        <ele>357</ele>
        <time>2012-04-15T09:05:46Z</time>
      </trkpt>
      <trkpt lat="48.36994" lon="6.85428">
        <ele>357.2</ele>
        <time>2012-04-15T09:05:49Z</time>
      </trkpt>
      <trkpt lat="48.37002" lon="6.85423">
        <ele>359.5</ele>
        <time>2012-04-15T09:05:53Z</time>
      </trkpt>
      <trkpt lat="48.37008" lon="6.85415">
        <ele>359.9</ele>
        <time>2012-04-15T09:05:56Z</time>
      </trkpt>
      <trkpt lat="48.37013" lon="6.85406">
        <ele>361.3</ele>
        <time>2012-04-15T09:05:59Z</time>
      </trkpt>
      <trkpt lat="48.37019" lon="6.85397">
        <ele>362.2</ele>
        <time>2012-04-15T09:06:02Z</time>
      </trkpt>
      <trkpt lat="48.37025" lon="6.85391">
        <ele>362.1</ele>
        <time>2012-04-15T09:06:05Z</time>
      </trkpt>
      <trkpt lat="48.37031" lon="6.85388">
        <ele>362.1</ele>
        <time>2012-04-15T09:06:07Z</time>
      </trkpt>
      <trkpt lat="48.37037" lon="6.85385">
        <ele>362.2</ele>
        <time>2012-04-15T09:06:09Z</time>
      </trkpt>
      <trkpt lat="48.37045" lon="6.85379">
        <ele>362.9</ele>
        <time>2012-04-15T09:06:13Z</time>
      </trkpt>
      <trkpt lat="48.37047" lon="6.85377">
        <ele>363.2</ele>
        <time>2012-04-15T09:06:14Z</time>
      </trkpt>
      <trkpt lat="48.37057" lon="6.85366">
        <ele>364.8</ele>
        <time>2012-04-15T09:06:20Z</time>
      </trkpt>
      <trkpt lat="48.37065" lon="6.85359">
        <ele>365.2</ele>
        <time>2012-04-15T09:06:23Z</time>
      </trkpt>
      <trkpt lat="48.37069" lon="6.85354">
        <ele>365.8</ele>
        <time>2012-04-15T09:06:25Z</time>
      </trkpt>
      <trkpt lat="48.37074" lon="6.85348">
        <ele>366.1</ele>
        <time>2012-04-15T09:06:27Z</time>
      </trkpt>
      <trkpt lat="48.37082" lon="6.85346">
        <ele>366.7</ele>
        <time>2012-04-15T09:06:30Z</time>
      </trkpt>
      <trkpt lat="48.37088" lon="6.85353">
        <ele>367</ele>
        <time>2012-04-15T09:06:32Z</time>
      </trkpt>
      <trkpt lat="48.37092" lon="6.85358">
        <ele>367.1</ele>
        <time>2012-04-15T09:06:33Z</time>
      </trkpt>
      <trkpt lat="48.37096" lon="6.85363">
        <ele>367.2</ele>
        <time>2012-04-15T09:06:34Z</time>
      </trkpt>
      <trkpt lat="48.37101" lon="6.85369">
        <ele>366.6</ele>
        <time>2012-04-15T09:06:35Z</time>
      </trkpt>
      <trkpt lat="48.37106" lon="6.85373">
        <ele>366.2</ele>
        <time>2012-04-15T09:06:36Z</time>
      </trkpt>
      <trkpt lat="48.37111" lon="6.85378">
        <ele>365.8</ele>
        <time>2012-04-15T09:06:37Z</time>
      </trkpt>
      <trkpt lat="48.37115" lon="6.85384">
        <ele>365.6</ele>
        <time>2012-04-15T09:06:38Z</time>
      </trkpt>
      <trkpt lat="48.37119" lon="6.85394">
        <ele>364.7</ele>
        <time>2012-04-15T09:06:39Z</time>
      </trkpt>
      <trkpt lat="48.3712" lon="6.85405">
        <ele>364.1</ele>
        <time>2012-04-15T09:06:40Z</time>
      </trkpt>
      <trkpt lat="48.37121" lon="6.85416">
        <ele>363.7</ele>
        <time>2012-04-15T09:06:41Z</time>
      </trkpt>
      <trkpt lat="48.37122" lon="6.85426">
        <ele>362.8</ele>
        <time>2012-04-15T09:06:42Z</time>
      </trkpt>
      <trkpt lat="48.37124" lon="6.85438">
        <ele>362.1</ele>
        <time>2012-04-15T09:06:43Z</time>
      </trkpt>
      <trkpt lat="48.37125" lon="6.85448">
        <ele>361.6</ele>
        <time>2012-04-15T09:06:44Z</time>
      </trkpt>
      <trkpt lat="48.37128" lon="6.85458">
        <ele>360.8</ele>
        <time>2012-04-15T09:06:45Z</time>
      </trkpt>
      <trkpt lat="48.37131" lon="6.85467">
        <ele>360.2</ele>
        <time>2012-04-15T09:06:46Z</time>
      </trkpt>
      <trkpt lat="48.37136" lon="6.85478">
        <ele>359.7</ele>
        <time>2012-04-15T09:06:47Z</time>
      </trkpt>
      <trkpt lat="48.37141" lon="6.85488">
        <ele>358.7</ele>
        <time>2012-04-15T09:06:48Z</time>
      </trkpt>
      <trkpt lat="48.37147" lon="6.85497">
        <ele>357.9</ele>
        <time>2012-04-15T09:06:49Z</time>
      </trkpt>
      <trkpt lat="48.37154" lon="6.85502">
        <ele>356.3</ele>
        <time>2012-04-15T09:06:54Z</time>
      </trkpt>
      <trkpt lat="48.37162" lon="6.85506">
        <ele>356.3</ele>
        <time>2012-04-15T09:07:02Z</time>
      </trkpt>
      <trkpt lat="48.37169" lon="6.85515">
        <ele>359.8</ele>
        <time>2012-04-15T09:07:09Z</time>
      </trkpt>
      <trkpt lat="48.37171" lon="6.85526">
        <ele>362</ele>
        <time>2012-04-15T09:07:18Z</time>
      </trkpt>
      <trkpt lat="48.37171" lon="6.85529">
        <ele>362.2</ele>
        <time>2012-04-15T09:07:19Z</time>
      </trkpt>
      <trkpt lat="48.37172" lon="6.85549">
        <ele>363.8</ele>
        <time>2012-04-15T09:07:25Z</time>
      </trkpt>
      <trkpt lat="48.37172" lon="6.8556">
        <ele>364.6</ele>
        <time>2012-04-15T09:07:28Z</time>
      </trkpt>
      <trkpt lat="48.37173" lon="6.85569">
        <ele>364.8</ele>
        <time>2012-04-15T09:07:30Z</time>
      </trkpt>
      <trkpt lat="48.37173" lon="6.85582">
        <ele>365.5</ele>
        <time>2012-04-15T09:07:33Z</time>
      </trkpt>
      <trkpt lat="48.37173" lon="6.85595">
        <ele>365.8</ele>
        <time>2012-04-15T09:07:36Z</time>
      </trkpt>
      <trkpt lat="48.37173" lon="6.85604">
        <ele>365</ele>
        <time>2012-04-15T09:07:38Z</time>
      </trkpt>
      <trkpt lat="48.37173" lon="6.85614">
        <ele>365.2</ele>
        <time>2012-04-15T09:07:40Z</time>
      </trkpt>
      <trkpt lat="48.37173" lon="6.85623">
        <ele>365.6</ele>
        <time>2012-04-15T09:07:42Z</time>
      </trkpt>
      <trkpt lat="48.37173" lon="6.85633">
        <ele>366.1</ele>
        <time>2012-04-15T09:07:44Z</time>
      </trkpt>
      <trkpt lat="48.37174" lon="6.85643">
        <ele>366.6</ele>
        <time>2012-04-15T09:07:46Z</time>
      </trkpt>
      <trkpt lat="48.37174" lon="6.85655">
        <ele>367.2</ele>
        <time>2012-04-15T09:07:48Z</time>
      </trkpt>
      <trkpt lat="48.37175" lon="6.85666">
        <ele>367.3</ele>
        <time>2012-04-15T09:07:50Z</time>
      </trkpt>
      <trkpt lat="48.37175" lon="6.85678">
        <ele>366.7</ele>
        <time>2012-04-15T09:07:52Z</time>
      </trkpt>
      <trkpt lat="48.37174" lon="6.85691">
        <ele>365.8</ele>
        <time>2012-04-15T09:07:54Z</time>
      </trkpt>
      <trkpt lat="48.37175" lon="6.85703">
        <ele>366.6</ele>
        <time>2012-04-15T09:07:56Z</time>
      </trkpt>
      <trkpt lat="48.37175" lon="6.85716">
        <ele>366.7</ele>
        <time>2012-04-15T09:07:58Z</time>
      </trkpt>
      <trkpt lat="48.37175" lon="6.85723">
        <ele>366.6</ele>
        <time>2012-04-15T09:07:59Z</time>
      </trkpt>
      <trkpt lat="48.37175" lon="6.8573">
        <ele>366.5</ele>
        <time>2012-04-15T09:08:00Z</time>
      </trkpt>
      <trkpt lat="48.37175" lon="6.85737">
        <ele>366.5</ele>
        <time>2012-04-15T09:08:01Z</time>
      </trkpt>
      <trkpt lat="48.37176" lon="6.85745">
        <ele>366.5</ele>
        <time>2012-04-15T09:08:02Z</time>
      </trkpt>
      <trkpt lat="48.37177" lon="6.85754">
        <ele>366.5</ele>
        <time>2012-04-15T09:08:03Z</time>
      </trkpt>
      <trkpt lat="48.37177" lon="6.85763">
        <ele>366.6</ele>
        <time>2012-04-15T09:08:04Z</time>
      </trkpt>
      <trkpt lat="48.37177" lon="6.85771">
        <ele>366.2</ele>
        <time>2012-04-15T09:08:05Z</time>
      </trkpt>
      <trkpt lat="48.37177" lon="6.8578">
        <ele>365.9</ele>
        <time>2012-04-15T09:08:06Z</time>
      </trkpt>
      <trkpt lat="48.37176" lon="6.8579">
        <ele>365.7</ele>
        <time>2012-04-15T09:08:07Z</time>
      </trkpt>
      <trkpt lat="48.37176" lon="6.85799">
        <ele>364.9</ele>
        <time>2012-04-15T09:08:08Z</time>
      </trkpt>
      <trkpt lat="48.37176" lon="6.85809">
        <ele>364.2</ele>
        <time>2012-04-15T09:08:09Z</time>
      </trkpt>
      <trkpt lat="48.37176" lon="6.8582">
        <ele>363.7</ele>
        <time>2012-04-15T09:08:10Z</time>
      </trkpt>
      <trkpt lat="48.37177" lon="6.85831">
        <ele>362.6</ele>
        <time>2012-04-15T09:08:11Z</time>
      </trkpt>
      <trkpt lat="48.37178" lon="6.85843">
        <ele>361.7</ele>
        <time>2012-04-15T09:08:12Z</time>
      </trkpt>
      <trkpt lat="48.37178" lon="6.85854">
        <ele>361</ele>
        <time>2012-04-15T09:08:13Z</time>
      </trkpt>
      <trkpt lat="48.37178" lon="6.85866">
        <ele>359.7</ele>
        <time>2012-04-15T09:08:14Z</time>
      </trkpt>
      <trkpt lat="48.37178" lon="6.85877">
        <ele>358.8</ele>
        <time>2012-04-15T09:08:15Z</time>
      </trkpt>
      <trkpt lat="48.37177" lon="6.85888">
        <ele>358.1</ele>
        <time>2012-04-15T09:08:16Z</time>
      </trkpt>
      <trkpt lat="48.37174" lon="6.85897">
        <ele>357.5</ele>
        <time>2012-04-15T09:08:17Z</time>
      </trkpt>
      <trkpt lat="48.37171" lon="6.85905">
        <ele>356.2</ele>
        <time>2012-04-15T09:08:18Z</time>
      </trkpt>
      <trkpt lat="48.37167" lon="6.85913">
        <ele>355.2</ele>
        <time>2012-04-15T09:08:19Z</time>
      </trkpt>
      <trkpt lat="48.37163" lon="6.85922">
        <ele>354.4</ele>
        <time>2012-04-15T09:08:20Z</time>
      </trkpt>
      <trkpt lat="48.37159" lon="6.8593">
        <ele>352.9</ele>
        <time>2012-04-15T09:08:21Z</time>
      </trkpt>
      <trkpt lat="48.37156" lon="6.85939">
        <ele>351.8</ele>
        <time>2012-04-15T09:08:22Z</time>
      </trkpt>
      <trkpt lat="48.37152" lon="6.85948">
        <ele>351</ele>
        <time>2012-04-15T09:08:23Z</time>
      </trkpt>
      <trkpt lat="48.37147" lon="6.85957">
        <ele>349.7</ele>
        <time>2012-04-15T09:08:24Z</time>
      </trkpt>
      <trkpt lat="48.37143" lon="6.85967">
        <ele>348.7</ele>
        <time>2012-04-15T09:08:25Z</time>
      </trkpt>
      <trkpt lat="48.37138" lon="6.85975">
        <ele>348</ele>
        <time>2012-04-15T09:08:26Z</time>
      </trkpt>
      <trkpt lat="48.37136" lon="6.85982">
        <ele>346.1</ele>
        <time>2012-04-15T09:08:27Z</time>
      </trkpt>
      <trkpt lat="48.37136" lon="6.85988">
        <ele>344.7</ele>
        <time>2012-04-15T09:08:28Z</time>
      </trkpt>
      <trkpt lat="48.37137" lon="6.85995">
        <ele>343.6</ele>
        <time>2012-04-15T09:08:29Z</time>
      </trkpt>
      <trkpt lat="48.3714" lon="6.86002">
        <ele>342.1</ele>
        <time>2012-04-15T09:08:30Z</time>
      </trkpt>
      <trkpt lat="48.37142" lon="6.8601">
        <ele>341</ele>
        <time>2012-04-15T09:08:31Z</time>
      </trkpt>
      <trkpt lat="48.37143" lon="6.86018">
        <ele>340.1</ele>
        <time>2012-04-15T09:08:32Z</time>
      </trkpt>
      <trkpt lat="48.37146" lon="6.86026">
        <ele>339.5</ele>
        <time>2012-04-15T09:08:33Z</time>
      </trkpt>
      <trkpt lat="48.37149" lon="6.86034">
        <ele>338.9</ele>
        <time>2012-04-15T09:08:34Z</time>
      </trkpt>
      <trkpt lat="48.37149" lon="6.86043">
        <ele>338.4</ele>
        <time>2012-04-15T09:08:35Z</time>
      </trkpt>
      <trkpt lat="48.37148" lon="6.86049">
        <ele>338</ele>
        <time>2012-04-15T09:08:36Z</time>
      </trkpt>
      <trkpt lat="48.37148" lon="6.86057">
        <ele>336.6</ele>
        <time>2012-04-15T09:08:37Z</time>
      </trkpt>
      <trkpt lat="48.37149" lon="6.86066">
        <ele>335.4</ele>
        <time>2012-04-15T09:08:38Z</time>
      </trkpt>
      <trkpt lat="48.3715" lon="6.86076">
        <ele>334.6</ele>
        <time>2012-04-15T09:08:39Z</time>
      </trkpt>
      <trkpt lat="48.3715" lon="6.86086">
        <ele>333.8</ele>
        <time>2012-04-15T09:08:40Z</time>
      </trkpt>
      <trkpt lat="48.3715" lon="6.86096">
        <ele>333.1</ele>
        <time>2012-04-15T09:08:41Z</time>
      </trkpt>
      <trkpt lat="48.3715" lon="6.86108">
        <ele>332.6</ele>
        <time>2012-04-15T09:08:42Z</time>
      </trkpt>
      <trkpt lat="48.3715" lon="6.8612">
        <ele>331.4</ele>
        <time>2012-04-15T09:08:43Z</time>
      </trkpt>
      <trkpt lat="48.37149" lon="6.86132">
        <ele>330.5</ele>
        <time>2012-04-15T09:08:44Z</time>
      </trkpt>
      <trkpt lat="48.3715" lon="6.86145">
        <ele>329.8</ele>
        <time>2012-04-15T09:08:45Z</time>
      </trkpt>
      <trkpt lat="48.37151" lon="6.86157">
        <ele>328.5</ele>
        <time>2012-04-15T09:08:46Z</time>
      </trkpt>
      <trkpt lat="48.37152" lon="6.86169">
        <ele>327.5</ele>
        <time>2012-04-15T09:08:47Z</time>
      </trkpt>
      <trkpt lat="48.37153" lon="6.86181">
        <ele>326.7</ele>
        <time>2012-04-15T09:08:48Z</time>
      </trkpt>
      <trkpt lat="48.37153" lon="6.86194">
        <ele>326.2</ele>
        <time>2012-04-15T09:08:49Z</time>
      </trkpt>
      <trkpt lat="48.37155" lon="6.86208">
        <ele>324.9</ele>
        <time>2012-04-15T09:08:50Z</time>
      </trkpt>
      <trkpt lat="48.37157" lon="6.86222">
        <ele>323.9</ele>
        <time>2012-04-15T09:08:51Z</time>
      </trkpt>
      <trkpt lat="48.3716" lon="6.86234">
        <ele>323.2</ele>
        <time>2012-04-15T09:08:52Z</time>
      </trkpt>
      <trkpt lat="48.37161" lon="6.86242">
        <ele>321.6</ele>
        <time>2012-04-15T09:08:53Z</time>
      </trkpt>
      <trkpt lat="48.3716" lon="6.86249">
        <ele>320.5</ele>
        <time>2012-04-15T09:08:54Z</time>
      </trkpt>
      <trkpt lat="48.37158" lon="6.86262">
        <ele>317.5</ele>
        <time>2012-04-15T09:08:56Z</time>
      </trkpt>
      <trkpt lat="48.37158" lon="6.86269">
        <ele>315.8</ele>
        <time>2012-04-15T09:08:57Z</time>
      </trkpt>
      <trkpt lat="48.37159" lon="6.86276">
        <ele>314.6</ele>
        <time>2012-04-15T09:08:58Z</time>
      </trkpt>
      <trkpt lat="48.37162" lon="6.86282">
        <ele>313.4</ele>
        <time>2012-04-15T09:08:59Z</time>
      </trkpt>
      <trkpt lat="48.37166" lon="6.86285">
        <ele>312.5</ele>
        <time>2012-04-15T09:09:00Z</time>
      </trkpt>
      <trkpt lat="48.37174" lon="6.86292">
        <ele>310.9</ele>
        <time>2012-04-15T09:09:02Z</time>
      </trkpt>
      <trkpt lat="48.37178" lon="6.86295">
        <ele>310.2</ele>
        <time>2012-04-15T09:09:03Z</time>
      </trkpt>
      <trkpt lat="48.37182" lon="6.86299">
        <ele>309.7</ele>
        <time>2012-04-15T09:09:04Z</time>
      </trkpt>
      <trkpt lat="48.37185" lon="6.86304">
        <ele>309.2</ele>
        <time>2012-04-15T09:09:05Z</time>
      </trkpt>
      <trkpt lat="48.37189" lon="6.86308">
        <ele>308.9</ele>
        <time>2012-04-15T09:09:06Z</time>
      </trkpt>
      <trkpt lat="48.37193" lon="6.86313">
        <ele>308.6</ele>
        <time>2012-04-15T09:09:07Z</time>
      </trkpt>
      <trkpt lat="48.37197" lon="6.86318">
        <ele>308.4</ele>
        <time>2012-04-15T09:09:08Z</time>
      </trkpt>
      <trkpt lat="48.37201" lon="6.86322">
        <ele>308.6</ele>
        <time>2012-04-15T09:09:09Z</time>
      </trkpt>
      <trkpt lat="48.37205" lon="6.86328">
        <ele>308.7</ele>
        <time>2012-04-15T09:09:10Z</time>
      </trkpt>
      <trkpt lat="48.37209" lon="6.86333">
        <ele>308.8</ele>
        <time>2012-04-15T09:09:11Z</time>
      </trkpt>
      <trkpt lat="48.37214" lon="6.86339">
        <ele>308.9</ele>
        <time>2012-04-15T09:09:12Z</time>
      </trkpt>
      <trkpt lat="48.37219" lon="6.86345">
        <ele>309</ele>
        <time>2012-04-15T09:09:13Z</time>
      </trkpt>
      <trkpt lat="48.37224" lon="6.86351">
        <ele>309.1</ele>
        <time>2012-04-15T09:09:14Z</time>
      </trkpt>
      <trkpt lat="48.37229" lon="6.86357">
        <ele>308.9</ele>
        <time>2012-04-15T09:09:15Z</time>
      </trkpt>
      <trkpt lat="48.37234" lon="6.86362">
        <ele>308.8</ele>
        <time>2012-04-15T09:09:16Z</time>
      </trkpt>
      <trkpt lat="48.37239" lon="6.86367">
        <ele>308.7</ele>
        <time>2012-04-15T09:09:17Z</time>
      </trkpt>
      <trkpt lat="48.37244" lon="6.86373">
        <ele>308.2</ele>
        <time>2012-04-15T09:09:18Z</time>
      </trkpt>
      <trkpt lat="48.3725" lon="6.86377">
        <ele>307.8</ele>
        <time>2012-04-15T09:09:19Z</time>
      </trkpt>
      <trkpt lat="48.37255" lon="6.86381">
        <ele>307.5</ele>
        <time>2012-04-15T09:09:20Z</time>
      </trkpt>
      <trkpt lat="48.37262" lon="6.86385">
        <ele>307.3</ele>
        <time>2012-04-15T09:09:21Z</time>
      </trkpt>
      <trkpt lat="48.37268" lon="6.86388">
        <ele>307.4</ele>
        <time>2012-04-15T09:09:22Z</time>
      </trkpt>
      <trkpt lat="48.37274" lon="6.8639">
        <ele>307.6</ele>
        <time>2012-04-15T09:09:23Z</time>
      </trkpt>
      <trkpt lat="48.3728" lon="6.86392">
        <ele>307.7</ele>
        <time>2012-04-15T09:09:24Z</time>
      </trkpt>
      <trkpt lat="48.37287" lon="6.86393">
        <ele>307.1</ele>
        <time>2012-04-15T09:09:25Z</time>
      </trkpt>
      <trkpt lat="48.37294" lon="6.86396">
        <ele>306.7</ele>
        <time>2012-04-15T09:09:26Z</time>
      </trkpt>
      <trkpt lat="48.373" lon="6.864">
        <ele>306.4</ele>
        <time>2012-04-15T09:09:27Z</time>
      </trkpt>
      <trkpt lat="48.37305" lon="6.86406">
        <ele>306.4</ele>
        <time>2012-04-15T09:09:28Z</time>
      </trkpt>
      <trkpt lat="48.3731" lon="6.86412">
        <ele>306.4</ele>
        <time>2012-04-15T09:09:29Z</time>
      </trkpt>
      <trkpt lat="48.37314" lon="6.86419">
        <ele>306.4</ele>
        <time>2012-04-15T09:09:30Z</time>
      </trkpt>
      <trkpt lat="48.37318" lon="6.86425">
        <ele>306.7</ele>
        <time>2012-04-15T09:09:31Z</time>
      </trkpt>
      <trkpt lat="48.37322" lon="6.86432">
        <ele>307</ele>
        <time>2012-04-15T09:09:32Z</time>
      </trkpt>
      <trkpt lat="48.37326" lon="6.86439">
        <ele>307.2</ele>
        <time>2012-04-15T09:09:33Z</time>
      </trkpt>
      <trkpt lat="48.3733" lon="6.86445">
        <ele>307.5</ele>
        <time>2012-04-15T09:09:34Z</time>
      </trkpt>
      <trkpt lat="48.37334" lon="6.86452">
        <ele>307.8</ele>
        <time>2012-04-15T09:09:35Z</time>
      </trkpt>
      <trkpt lat="48.37339" lon="6.86458">
        <ele>308</ele>
        <time>2012-04-15T09:09:36Z</time>
      </trkpt>
      <trkpt lat="48.37343" lon="6.86465">
        <ele>308.5</ele>
        <time>2012-04-15T09:09:37Z</time>
      </trkpt>
      <trkpt lat="48.37348" lon="6.86471">
        <ele>308.8</ele>
        <time>2012-04-15T09:09:38Z</time>
      </trkpt>
      <trkpt lat="48.37352" lon="6.86477">
        <ele>309.1</ele>
        <time>2012-04-15T09:09:39Z</time>
      </trkpt>
      <trkpt lat="48.37356" lon="6.86484">
        <ele>309.2</ele>
        <time>2012-04-15T09:09:40Z</time>
      </trkpt>
      <trkpt lat="48.37361" lon="6.86491">
        <ele>309.2</ele>
        <time>2012-04-15T09:09:41Z</time>
      </trkpt>
      <trkpt lat="48.37365" lon="6.86497">
        <ele>309.2</ele>
        <time>2012-04-15T09:09:42Z</time>
      </trkpt>
      <trkpt lat="48.3737" lon="6.86505">
        <ele>309.2</ele>
        <time>2012-04-15T09:09:43Z</time>
      </trkpt>
      <trkpt lat="48.37375" lon="6.86512">
        <ele>309.3</ele>
        <time>2012-04-15T09:09:44Z</time>
      </trkpt>
      <trkpt lat="48.3738" lon="6.8652">
        <ele>309.4</ele>
        <time>2012-04-15T09:09:45Z</time>
      </trkpt>
      <trkpt lat="48.37385" lon="6.86527">
        <ele>309.4</ele>
        <time>2012-04-15T09:09:46Z</time>
      </trkpt>
      <trkpt lat="48.3739" lon="6.86534">
        <ele>309.7</ele>
        <time>2012-04-15T09:09:47Z</time>
      </trkpt>
      <trkpt lat="48.37395" lon="6.86541">
        <ele>310</ele>
        <time>2012-04-15T09:09:48Z</time>
      </trkpt>
      <trkpt lat="48.374" lon="6.86548">
        <ele>310.2</ele>
        <time>2012-04-15T09:09:49Z</time>
      </trkpt>
      <trkpt lat="48.37405" lon="6.86555">
        <ele>309.8</ele>
        <time>2012-04-15T09:09:50Z</time>
      </trkpt>
      <trkpt lat="48.3741" lon="6.86562">
        <ele>309.4</ele>
        <time>2012-04-15T09:09:51Z</time>
      </trkpt>
      <trkpt lat="48.37416" lon="6.8657">
        <ele>309.2</ele>
        <time>2012-04-15T09:09:52Z</time>
      </trkpt>
      <trkpt lat="48.37421" lon="6.86577">
        <ele>308.8</ele>
        <time>2012-04-15T09:09:53Z</time>
      </trkpt>
      <trkpt lat="48.37427" lon="6.86584">
        <ele>308.5</ele>
        <time>2012-04-15T09:09:54Z</time>
      </trkpt>
      <trkpt lat="48.37432" lon="6.86592">
        <ele>308.3</ele>
        <time>2012-04-15T09:09:55Z</time>
      </trkpt>
      <trkpt lat="48.37438" lon="6.866">
        <ele>308.1</ele>
        <time>2012-04-15T09:09:56Z</time>
      </trkpt>
      <trkpt lat="48.37443" lon="6.86607">
        <ele>308.4</ele>
        <time>2012-04-15T09:09:57Z</time>
      </trkpt>
      <trkpt lat="48.37449" lon="6.86614">
        <ele>308.6</ele>
        <time>2012-04-15T09:09:58Z</time>
      </trkpt>
      <trkpt lat="48.37454" lon="6.86621">
        <ele>308.7</ele>
        <time>2012-04-15T09:09:59Z</time>
      </trkpt>
      <trkpt lat="48.3746" lon="6.86628">
        <ele>308.5</ele>
        <time>2012-04-15T09:10:00Z</time>
      </trkpt>
      <trkpt lat="48.37466" lon="6.86635">
        <ele>308.4</ele>
        <time>2012-04-15T09:10:01Z</time>
      </trkpt>
      <trkpt lat="48.37472" lon="6.86641">
        <ele>308.2</ele>
        <time>2012-04-15T09:10:02Z</time>
      </trkpt>
      <trkpt lat="48.37478" lon="6.86647">
        <ele>307.9</ele>
        <time>2012-04-15T09:10:03Z</time>
      </trkpt>
      <trkpt lat="48.37484" lon="6.86652">
        <ele>307.6</ele>
        <time>2012-04-15T09:10:04Z</time>
      </trkpt>
      <trkpt lat="48.37489" lon="6.86658">
        <ele>307.4</ele>
        <time>2012-04-15T09:10:05Z</time>
      </trkpt>
      <trkpt lat="48.37495" lon="6.86664">
        <ele>307</ele>
        <time>2012-04-15T09:10:06Z</time>
      </trkpt>
      <trkpt lat="48.375" lon="6.8667">
        <ele>306.7</ele>
        <time>2012-04-15T09:10:07Z</time>
      </trkpt>
      <trkpt lat="48.37506" lon="6.86676">
        <ele>306.4</ele>
        <time>2012-04-15T09:10:08Z</time>
      </trkpt>
      <trkpt lat="48.37512" lon="6.86682">
        <ele>306.1</ele>
        <time>2012-04-15T09:10:09Z</time>
      </trkpt>
      <trkpt lat="48.37517" lon="6.86687">
        <ele>305.9</ele>
        <time>2012-04-15T09:10:10Z</time>
      </trkpt>
      <trkpt lat="48.37523" lon="6.86692">
        <ele>305.7</ele>
        <time>2012-04-15T09:10:11Z</time>
      </trkpt>
      <trkpt lat="48.37529" lon="6.86696">
        <ele>305.6</ele>
        <time>2012-04-15T09:10:12Z</time>
      </trkpt>
      <trkpt lat="48.37535" lon="6.867">
        <ele>305.8</ele>
        <time>2012-04-15T09:10:13Z</time>
      </trkpt>
      <trkpt lat="48.37541" lon="6.86704">
        <ele>306</ele>
        <time>2012-04-15T09:10:14Z</time>
      </trkpt>
      <trkpt lat="48.37547" lon="6.86707">
        <ele>306.1</ele>
        <time>2012-04-15T09:10:15Z</time>
      </trkpt>
      <trkpt lat="48.37553" lon="6.8671">
        <ele>305.7</ele>
        <time>2012-04-15T09:10:16Z</time>
      </trkpt>
      <trkpt lat="48.37559" lon="6.86712">
        <ele>305.4</ele>
        <time>2012-04-15T09:10:17Z</time>
      </trkpt>
      <trkpt lat="48.37565" lon="6.86713">
        <ele>305.2</ele>
        <time>2012-04-15T09:10:18Z</time>
      </trkpt>
      <trkpt lat="48.37572" lon="6.86715">
        <ele>304.8</ele>
        <time>2012-04-15T09:10:19Z</time>
      </trkpt>
      <trkpt lat="48.37578" lon="6.86716">
        <ele>304.5</ele>
        <time>2012-04-15T09:10:20Z</time>
      </trkpt>
      <trkpt lat="48.37585" lon="6.86717">
        <ele>304.3</ele>
        <time>2012-04-15T09:10:21Z</time>
      </trkpt>
      <trkpt lat="48.37591" lon="6.86718">
        <ele>304.1</ele>
        <time>2012-04-15T09:10:22Z</time>
      </trkpt>
      <trkpt lat="48.37598" lon="6.8672">
        <ele>304</ele>
        <time>2012-04-15T09:10:23Z</time>
      </trkpt>
      <trkpt lat="48.37604" lon="6.86721">
        <ele>303.9</ele>
        <time>2012-04-15T09:10:24Z</time>
      </trkpt>
      <trkpt lat="48.3761" lon="6.86723">
        <ele>303.7</ele>
        <time>2012-04-15T09:10:25Z</time>
      </trkpt>
      <trkpt lat="48.37616" lon="6.86724">
        <ele>303.6</ele>
        <time>2012-04-15T09:10:26Z</time>
      </trkpt>
      <trkpt lat="48.37622" lon="6.86724">
        <ele>303.5</ele>
        <time>2012-04-15T09:10:27Z</time>
      </trkpt>
      <trkpt lat="48.37628" lon="6.86725">
        <ele>303.2</ele>
        <time>2012-04-15T09:10:28Z</time>
      </trkpt>
      <trkpt lat="48.37634" lon="6.86726">
        <ele>303</ele>
        <time>2012-04-15T09:10:29Z</time>
      </trkpt>
      <trkpt lat="48.3764" lon="6.86726">
        <ele>302.8</ele>
        <time>2012-04-15T09:10:30Z</time>
      </trkpt>
      <trkpt lat="48.37646" lon="6.86726">
        <ele>302.7</ele>
        <time>2012-04-15T09:10:31Z</time>
      </trkpt>
      <trkpt lat="48.37652" lon="6.86728">
        <ele>302.5</ele>
        <time>2012-04-15T09:10:32Z</time>
      </trkpt>
      <trkpt lat="48.37657" lon="6.86732">
        <ele>302.3</ele>
        <time>2012-04-15T09:10:33Z</time>
      </trkpt>
      <trkpt lat="48.3766" lon="6.86738">
        <ele>302.2</ele>
        <time>2012-04-15T09:10:34Z</time>
      </trkpt>
      <trkpt lat="48.37663" lon="6.86746">
        <ele>301.6</ele>
        <time>2012-04-15T09:10:35Z</time>
      </trkpt>
      <trkpt lat="48.37667" lon="6.86755">
        <ele>301.2</ele>
        <time>2012-04-15T09:10:36Z</time>
      </trkpt>
      <trkpt lat="48.37671" lon="6.86763">
        <ele>300.9</ele>
        <time>2012-04-15T09:10:37Z</time>
      </trkpt>
      <trkpt lat="48.37675" lon="6.86773">
        <ele>299.8</ele>
        <time>2012-04-15T09:10:38Z</time>
      </trkpt>
      <trkpt lat="48.37679" lon="6.86782">
        <ele>299</ele>
        <time>2012-04-15T09:10:39Z</time>
      </trkpt>
      <trkpt lat="48.37683" lon="6.86792">
        <ele>298.4</ele>
        <time>2012-04-15T09:10:40Z</time>
      </trkpt>
      <trkpt lat="48.37687" lon="6.86801">
        <ele>298.2</ele>
        <time>2012-04-15T09:10:41Z</time>
      </trkpt>
      <trkpt lat="48.37691" lon="6.86809">
        <ele>298.1</ele>
        <time>2012-04-15T09:10:42Z</time>
      </trkpt>
      <trkpt lat="48.37695" lon="6.86816">
        <ele>298</ele>
        <time>2012-04-15T09:10:43Z</time>
      </trkpt>
      <trkpt lat="48.37699" lon="6.86824">
        <ele>298</ele>
        <time>2012-04-15T09:10:44Z</time>
      </trkpt>
      <trkpt lat="48.37703" lon="6.86831">
        <ele>298</ele>
        <time>2012-04-15T09:10:45Z</time>
      </trkpt>
      <trkpt lat="48.37707" lon="6.86839">
        <ele>298</ele>
        <time>2012-04-15T09:10:46Z</time>
      </trkpt>
      <trkpt lat="48.37711" lon="6.86846">
        <ele>298</ele>
        <time>2012-04-15T09:10:47Z</time>
      </trkpt>
      <trkpt lat="48.37715" lon="6.86852">
        <ele>298.3</ele>
        <time>2012-04-15T09:10:48Z</time>
      </trkpt>
      <trkpt lat="48.3772" lon="6.86858">
        <ele>298.5</ele>
        <time>2012-04-15T09:10:49Z</time>
      </trkpt>
      <trkpt lat="48.37724" lon="6.86863">
        <ele>298.7</ele>
        <time>2012-04-15T09:10:50Z</time>
      </trkpt>
      <trkpt lat="48.37729" lon="6.86869">
        <ele>298.3</ele>
        <time>2012-04-15T09:10:51Z</time>
      </trkpt>
      <trkpt lat="48.37733" lon="6.86875">
        <ele>298.1</ele>
        <time>2012-04-15T09:10:52Z</time>
      </trkpt>
      <trkpt lat="48.37738" lon="6.8688">
        <ele>297.9</ele>
        <time>2012-04-15T09:10:53Z</time>
      </trkpt>
      <trkpt lat="48.37742" lon="6.86885">
        <ele>297.8</ele>
        <time>2012-04-15T09:10:54Z</time>
      </trkpt>
      <trkpt lat="48.37747" lon="6.86891">
        <ele>297.7</ele>
        <time>2012-04-15T09:10:55Z</time>
      </trkpt>
      <trkpt lat="48.37751" lon="6.86896">
        <ele>297.6</ele>
        <time>2012-04-15T09:10:56Z</time>
      </trkpt>
      <trkpt lat="48.37756" lon="6.86901">
        <ele>297</ele>
        <time>2012-04-15T09:10:57Z</time>
      </trkpt>
      <trkpt lat="48.37761" lon="6.86906">
        <ele>296.6</ele>
        <time>2012-04-15T09:10:58Z</time>
      </trkpt>
      <trkpt lat="48.37766" lon="6.86909">
        <ele>296.2</ele>
        <time>2012-04-15T09:10:59Z</time>
      </trkpt>
      <trkpt lat="48.37772" lon="6.86911">
        <ele>296.3</ele>
        <time>2012-04-15T09:11:00Z</time>
      </trkpt>
      <trkpt lat="48.37778" lon="6.86911">
        <ele>296.3</ele>
        <time>2012-04-15T09:11:01Z</time>
      </trkpt>
      <trkpt lat="48.37783" lon="6.8691">
        <ele>296.3</ele>
        <time>2012-04-15T09:11:02Z</time>
      </trkpt>
      <trkpt lat="48.37789" lon="6.86908">
        <ele>296.3</ele>
        <time>2012-04-15T09:11:03Z</time>
      </trkpt>
      <trkpt lat="48.37794" lon="6.86907">
        <ele>296.3</ele>
        <time>2012-04-15T09:11:04Z</time>
      </trkpt>
      <trkpt lat="48.378" lon="6.86906">
        <ele>296.3</ele>
        <time>2012-04-15T09:11:05Z</time>
      </trkpt>
      <trkpt lat="48.37805" lon="6.86903">
        <ele>296.3</ele>
        <time>2012-04-15T09:11:06Z</time>
      </trkpt>
      <trkpt lat="48.3781" lon="6.86901">
        <ele>296.7</ele>
        <time>2012-04-15T09:11:07Z</time>
      </trkpt>
      <trkpt lat="48.37815" lon="6.86898">
        <ele>297</ele>
        <time>2012-04-15T09:11:08Z</time>
      </trkpt>
      <trkpt lat="48.3782" lon="6.86896">
        <ele>297.3</ele>
        <time>2012-04-15T09:11:09Z</time>
      </trkpt>
      <trkpt lat="48.37825" lon="6.86892">
        <ele>297.1</ele>
        <time>2012-04-15T09:11:10Z</time>
      </trkpt>
      <trkpt lat="48.3783" lon="6.86889">
        <ele>297</ele>
        <time>2012-04-15T09:11:11Z</time>
      </trkpt>
      <trkpt lat="48.37834" lon="6.86885">
        <ele>297</ele>
        <time>2012-04-15T09:11:12Z</time>
      </trkpt>
      <trkpt lat="48.37837" lon="6.86881">
        <ele>296.9</ele>
        <time>2012-04-15T09:11:13Z</time>
      </trkpt>
      <trkpt lat="48.37841" lon="6.86877">
        <ele>296.8</ele>
        <time>2012-04-15T09:11:14Z</time>
      </trkpt>
      <trkpt lat="48.37845" lon="6.86873">
        <ele>296.8</ele>
        <time>2012-04-15T09:11:15Z</time>
      </trkpt>
      <trkpt lat="48.37849" lon="6.86867">
        <ele>297</ele>
        <time>2012-04-15T09:11:16Z</time>
      </trkpt>
      <trkpt lat="48.37853" lon="6.86861">
        <ele>297.2</ele>
        <time>2012-04-15T09:11:17Z</time>
      </trkpt>
      <trkpt lat="48.37857" lon="6.86855">
        <ele>297.4</ele>
        <time>2012-04-15T09:11:18Z</time>
      </trkpt>
      <trkpt lat="48.3786" lon="6.86849">
        <ele>297.5</ele>
        <time>2012-04-15T09:11:19Z</time>
      </trkpt>
      <trkpt lat="48.37864" lon="6.86842">
        <ele>297.4</ele>
        <time>2012-04-15T09:11:20Z</time>
      </trkpt>
      <trkpt lat="48.37867" lon="6.86836">
        <ele>297.3</ele>
        <time>2012-04-15T09:11:21Z</time>
      </trkpt>
      <trkpt lat="48.37871" lon="6.86831">
        <ele>297.3</ele>
        <time>2012-04-15T09:11:22Z</time>
      </trkpt>
      <trkpt lat="48.37875" lon="6.86828">
        <ele>296.8</ele>
        <time>2012-04-15T09:11:23Z</time>
      </trkpt>
      <trkpt lat="48.37887" lon="6.86822">
        <ele>295.9</ele>
        <time>2012-04-15T09:11:26Z</time>
      </trkpt>
      <trkpt lat="48.37891" lon="6.86821">
        <ele>295.7</ele>
        <time>2012-04-15T09:11:27Z</time>
      </trkpt>
      <trkpt lat="48.37896" lon="6.8682">
        <ele>295.6</ele>
        <time>2012-04-15T09:11:28Z</time>
      </trkpt>
      <trkpt lat="48.379" lon="6.8682">
        <ele>295.6</ele>
        <time>2012-04-15T09:11:29Z</time>
      </trkpt>
      <trkpt lat="48.37905" lon="6.86821">
        <ele>295.7</ele>
        <time>2012-04-15T09:11:30Z</time>
      </trkpt>
      <trkpt lat="48.3791" lon="6.86821">
        <ele>295.7</ele>
        <time>2012-04-15T09:11:31Z</time>
      </trkpt>
      <trkpt lat="48.37915" lon="6.86821">
        <ele>295.8</ele>
        <time>2012-04-15T09:11:32Z</time>
      </trkpt>
      <trkpt lat="48.3792" lon="6.86821">
        <ele>295.8</ele>
        <time>2012-04-15T09:11:33Z</time>
      </trkpt>
      <trkpt lat="48.37925" lon="6.8682">
        <ele>295.9</ele>
        <time>2012-04-15T09:11:34Z</time>
      </trkpt>
      <trkpt lat="48.37929" lon="6.86821">
        <ele>295.9</ele>
        <time>2012-04-15T09:11:35Z</time>
      </trkpt>
      <trkpt lat="48.37934" lon="6.86822">
        <ele>295.9</ele>
        <time>2012-04-15T09:11:36Z</time>
      </trkpt>
      <trkpt lat="48.37938" lon="6.86826">
        <ele>296</ele>
        <time>2012-04-15T09:11:37Z</time>
      </trkpt>
      <trkpt lat="48.37941" lon="6.86831">
        <ele>296</ele>
        <time>2012-04-15T09:11:38Z</time>
      </trkpt>
      <trkpt lat="48.37943" lon="6.86838">
        <ele>296</ele>
        <time>2012-04-15T09:11:39Z</time>
      </trkpt>
      <trkpt lat="48.37945" lon="6.86844">
        <ele>296</ele>
        <time>2012-04-15T09:11:40Z</time>
      </trkpt>
      <trkpt lat="48.37947" lon="6.8685">
        <ele>296</ele>
        <time>2012-04-15T09:11:41Z</time>
      </trkpt>
      <trkpt lat="48.37952" lon="6.86862">
        <ele>295.8</ele>
        <time>2012-04-15T09:11:43Z</time>
      </trkpt>
      <trkpt lat="48.37958" lon="6.8687">
        <ele>295.7</ele>
        <time>2012-04-15T09:11:45Z</time>
      </trkpt>
      <trkpt lat="48.37963" lon="6.86872">
        <ele>295.7</ele>
        <time>2012-04-15T09:11:46Z</time>
      </trkpt>
      <trkpt lat="48.37972" lon="6.86875">
        <ele>295.7</ele>
        <time>2012-04-15T09:11:48Z</time>
      </trkpt>
      <trkpt lat="48.37976" lon="6.86875">
        <ele>295.7</ele>
        <time>2012-04-15T09:11:49Z</time>
      </trkpt>
      <trkpt lat="48.37981" lon="6.86875">
        <ele>295.7</ele>
        <time>2012-04-15T09:11:50Z</time>
      </trkpt>
      <trkpt lat="48.37986" lon="6.86875">
        <ele>295.1</ele>
        <time>2012-04-15T09:11:51Z</time>
      </trkpt>
      <trkpt lat="48.37991" lon="6.86876">
        <ele>294.7</ele>
        <time>2012-04-15T09:11:52Z</time>
      </trkpt>
      <trkpt lat="48.37999" lon="6.86879">
        <ele>294.1</ele>
        <time>2012-04-15T09:11:54Z</time>
      </trkpt>
      <trkpt lat="48.38003" lon="6.86883">
        <ele>294.6</ele>
        <time>2012-04-15T09:11:55Z</time>
      </trkpt>
      <trkpt lat="48.38006" lon="6.86887">
        <ele>294.9</ele>
        <time>2012-04-15T09:11:56Z</time>
      </trkpt>
      <trkpt lat="48.3801" lon="6.86893">
        <ele>295.1</ele>
        <time>2012-04-15T09:11:57Z</time>
      </trkpt>
      <trkpt lat="48.38014" lon="6.86899">
        <ele>295.5</ele>
        <time>2012-04-15T09:11:58Z</time>
      </trkpt>
      <trkpt lat="48.38018" lon="6.86906">
        <ele>295.8</ele>
        <time>2012-04-15T09:11:59Z</time>
      </trkpt>
      <trkpt lat="48.38021" lon="6.86912">
        <ele>296.1</ele>
        <time>2012-04-15T09:12:00Z</time>
      </trkpt>
      <trkpt lat="48.38024" lon="6.86919">
        <ele>296.2</ele>
        <time>2012-04-15T09:12:01Z</time>
      </trkpt>
      <trkpt lat="48.38027" lon="6.86925">
        <ele>296.3</ele>
        <time>2012-04-15T09:12:02Z</time>
      </trkpt>
      <trkpt lat="48.3803" lon="6.86933">
        <ele>296.4</ele>
        <time>2012-04-15T09:12:03Z</time>
      </trkpt>
      <trkpt lat="48.38033" lon="6.8694">
        <ele>295.9</ele>
        <time>2012-04-15T09:12:04Z</time>
      </trkpt>
      <trkpt lat="48.38036" lon="6.86947">
        <ele>295.6</ele>
        <time>2012-04-15T09:12:05Z</time>
      </trkpt>
      <trkpt lat="48.38039" lon="6.86954">
        <ele>295.3</ele>
        <time>2012-04-15T09:12:06Z</time>
      </trkpt>
      <trkpt lat="48.38042" lon="6.8696">
        <ele>295.6</ele>
        <time>2012-04-15T09:12:07Z</time>
      </trkpt>
      <trkpt lat="48.38046" lon="6.86966">
        <ele>295.8</ele>
        <time>2012-04-15T09:12:08Z</time>
      </trkpt>
      <trkpt lat="48.38051" lon="6.86971">
        <ele>296</ele>
        <time>2012-04-15T09:12:09Z</time>
      </trkpt>
      <trkpt lat="48.38056" lon="6.86975">
        <ele>296.1</ele>
        <time>2012-04-15T09:12:10Z</time>
      </trkpt>
      <trkpt lat="48.3806" lon="6.8698">
        <ele>295.6</ele>
        <time>2012-04-15T09:12:11Z</time>
      </trkpt>
      <trkpt lat="48.38066" lon="6.86983">
        <ele>295.2</ele>
        <time>2012-04-15T09:12:12Z</time>
      </trkpt>
      <trkpt lat="48.38071" lon="6.86987">
        <ele>294.9</ele>
        <time>2012-04-15T09:12:13Z</time>
      </trkpt>
      <trkpt lat="48.38076" lon="6.86991">
        <ele>294.8</ele>
        <time>2012-04-15T09:12:14Z</time>
      </trkpt>
      <trkpt lat="48.38081" lon="6.86995">
        <ele>294.6</ele>
        <time>2012-04-15T09:12:15Z</time>
      </trkpt>
      <trkpt lat="48.38086" lon="6.86998">
        <ele>294.6</ele>
        <time>2012-04-15T09:12:16Z</time>
      </trkpt>
      <trkpt lat="48.38091" lon="6.87002">
        <ele>294.5</ele>
        <time>2012-04-15T09:12:17Z</time>
      </trkpt>
      <trkpt lat="48.38095" lon="6.87006">
        <ele>294.4</ele>
        <time>2012-04-15T09:12:18Z</time>
      </trkpt>
      <trkpt lat="48.38099" lon="6.87011">
        <ele>294.3</ele>
        <time>2012-04-15T09:12:19Z</time>
      </trkpt>
      <trkpt lat="48.38101" lon="6.87017">
        <ele>294.1</ele>
        <time>2012-04-15T09:12:20Z</time>
      </trkpt>
      <trkpt lat="48.38104" lon="6.87022">
        <ele>293.9</ele>
        <time>2012-04-15T09:12:21Z</time>
      </trkpt>
      <trkpt lat="48.3811" lon="6.87033">
        <ele>294.2</ele>
        <time>2012-04-15T09:12:23Z</time>
      </trkpt>
      <trkpt lat="48.38112" lon="6.87038">
        <ele>294.6</ele>
        <time>2012-04-15T09:12:24Z</time>
      </trkpt>
      <trkpt lat="48.38115" lon="6.87044">
        <ele>294.8</ele>
        <time>2012-04-15T09:12:25Z</time>
      </trkpt>
      <trkpt lat="48.38119" lon="6.87055">
        <ele>295.2</ele>
        <time>2012-04-15T09:12:27Z</time>
      </trkpt>
      <trkpt lat="48.38115" lon="6.87062">
        <ele>295.4</ele>
        <time>2012-04-15T09:12:30Z</time>
      </trkpt>
      <trkpt lat="48.38107" lon="6.87063">
        <ele>295.4</ele>
        <time>2012-04-15T09:12:32Z</time>
      </trkpt>
      <trkpt lat="48.38101" lon="6.87064">
        <ele>294.9</ele>
        <time>2012-04-15T09:12:33Z</time>
      </trkpt>
      <trkpt lat="48.38096" lon="6.87066">
        <ele>294.5</ele>
        <time>2012-04-15T09:12:34Z</time>
      </trkpt>
      <trkpt lat="48.38091" lon="6.87069">
        <ele>294.3</ele>
        <time>2012-04-15T09:12:35Z</time>
      </trkpt>
      <trkpt lat="48.38086" lon="6.87071">
        <ele>294.6</ele>
        <time>2012-04-15T09:12:36Z</time>
      </trkpt>
      <trkpt lat="48.38081" lon="6.87074">
        <ele>294.8</ele>
        <time>2012-04-15T09:12:37Z</time>
      </trkpt>
      <trkpt lat="48.38076" lon="6.87078">
        <ele>295</ele>
        <time>2012-04-15T09:12:38Z</time>
      </trkpt>
      <trkpt lat="48.38071" lon="6.87081">
        <ele>294.9</ele>
        <time>2012-04-15T09:12:39Z</time>
      </trkpt>
      <trkpt lat="48.38066" lon="6.87084">
        <ele>294.9</ele>
        <time>2012-04-15T09:12:40Z</time>
      </trkpt>
      <trkpt lat="48.38062" lon="6.87088">
        <ele>294.9</ele>
        <time>2012-04-15T09:12:41Z</time>
      </trkpt>
      <trkpt lat="48.38057" lon="6.87093">
        <ele>294.8</ele>
        <time>2012-04-15T09:12:42Z</time>
      </trkpt>
      <trkpt lat="48.38052" lon="6.87097">
        <ele>295.2</ele>
        <time>2012-04-15T09:12:43Z</time>
      </trkpt>
      <trkpt lat="48.38047" lon="6.87102">
        <ele>295.4</ele>
        <time>2012-04-15T09:12:44Z</time>
      </trkpt>
      <trkpt lat="48.38042" lon="6.87106">
        <ele>295.6</ele>
        <time>2012-04-15T09:12:45Z</time>
      </trkpt>
      <trkpt lat="48.38037" lon="6.87109">
        <ele>295.7</ele>
        <time>2012-04-15T09:12:46Z</time>
      </trkpt>
      <trkpt lat="48.38032" lon="6.87113">
        <ele>295.7</ele>
        <time>2012-04-15T09:12:47Z</time>
      </trkpt>
      <trkpt lat="48.38028" lon="6.87118">
        <ele>295.7</ele>
        <time>2012-04-15T09:12:48Z</time>
      </trkpt>
      <trkpt lat="48.38023" lon="6.87122">
        <ele>296</ele>
        <time>2012-04-15T09:12:49Z</time>
      </trkpt>
      <trkpt lat="48.38018" lon="6.87126">
        <ele>296.2</ele>
        <time>2012-04-15T09:12:50Z</time>
      </trkpt>
      <trkpt lat="48.38013" lon="6.8713">
        <ele>296.4</ele>
        <time>2012-04-15T09:12:51Z</time>
      </trkpt>
      <trkpt lat="48.38009" lon="6.87134">
        <ele>296.6</ele>
        <time>2012-04-15T09:12:52Z</time>
      </trkpt>
      <trkpt lat="48.38004" lon="6.87139">
        <ele>296.8</ele>
        <time>2012-04-15T09:12:53Z</time>
      </trkpt>
      <trkpt lat="48.37999" lon="6.87144">
        <ele>296.9</ele>
        <time>2012-04-15T09:12:54Z</time>
      </trkpt>
      <trkpt lat="48.37994" lon="6.87148">
        <ele>296.9</ele>
        <time>2012-04-15T09:12:55Z</time>
      </trkpt>
      <trkpt lat="48.3799" lon="6.87152">
        <ele>296.9</ele>
        <time>2012-04-15T09:12:56Z</time>
      </trkpt>
      <trkpt lat="48.37985" lon="6.87157">
        <ele>296.9</ele>
        <time>2012-04-15T09:12:57Z</time>
      </trkpt>
      <trkpt lat="48.37981" lon="6.87162">
        <ele>297</ele>
        <time>2012-04-15T09:12:58Z</time>
      </trkpt>
      <trkpt lat="48.37976" lon="6.87166">
        <ele>297.3</ele>
        <time>2012-04-15T09:12:59Z</time>
      </trkpt>
      <trkpt lat="48.37971" lon="6.8717">
        <ele>297.6</ele>
        <time>2012-04-15T09:13:00Z</time>
      </trkpt>
      <trkpt lat="48.37966" lon="6.87173">
        <ele>297.8</ele>
        <time>2012-04-15T09:13:01Z</time>
      </trkpt>
      <trkpt lat="48.37961" lon="6.87177">
        <ele>298.1</ele>
        <time>2012-04-15T09:13:02Z</time>
      </trkpt>
      <trkpt lat="48.37957" lon="6.87181">
        <ele>298.3</ele>
        <time>2012-04-15T09:13:03Z</time>
      </trkpt>
      <trkpt lat="48.37952" lon="6.87185">
        <ele>298.5</ele>
        <time>2012-04-15T09:13:04Z</time>
      </trkpt>
      <trkpt lat="48.37947" lon="6.87189">
        <ele>298.6</ele>
        <time>2012-04-15T09:13:05Z</time>
      </trkpt>
      <trkpt lat="48.37942" lon="6.87193">
        <ele>298.7</ele>
        <time>2012-04-15T09:13:06Z</time>
      </trkpt>
      <trkpt lat="48.37938" lon="6.87197">
        <ele>298.8</ele>
        <time>2012-04-15T09:13:07Z</time>
      </trkpt>
      <trkpt lat="48.37933" lon="6.87202">
        <ele>299.2</ele>
        <time>2012-04-15T09:13:08Z</time>
      </trkpt>
      <trkpt lat="48.37929" lon="6.87206">
        <ele>299.6</ele>
        <time>2012-04-15T09:13:09Z</time>
      </trkpt>
      <trkpt lat="48.37924" lon="6.8721">
        <ele>299.9</ele>
        <time>2012-04-15T09:13:10Z</time>
      </trkpt>
      <trkpt lat="48.37919" lon="6.87214">
        <ele>299.9</ele>
        <time>2012-04-15T09:13:11Z</time>
      </trkpt>
      <trkpt lat="48.37914" lon="6.87218">
        <ele>300</ele>
        <time>2012-04-15T09:13:12Z</time>
      </trkpt>
      <trkpt lat="48.37909" lon="6.87223">
        <ele>300</ele>
        <time>2012-04-15T09:13:13Z</time>
      </trkpt>
      <trkpt lat="48.37904" lon="6.87227">
        <ele>300.5</ele>
        <time>2012-04-15T09:13:14Z</time>
      </trkpt>
      <trkpt lat="48.37899" lon="6.87231">
        <ele>300.8</ele>
        <time>2012-04-15T09:13:15Z</time>
      </trkpt>
      <trkpt lat="48.37894" lon="6.87235">
        <ele>301.1</ele>
        <time>2012-04-15T09:13:16Z</time>
      </trkpt>
      <trkpt lat="48.37888" lon="6.8724">
        <ele>301.3</ele>
        <time>2012-04-15T09:13:17Z</time>
      </trkpt>
      <trkpt lat="48.37883" lon="6.87244">
        <ele>300.9</ele>
        <time>2012-04-15T09:13:18Z</time>
      </trkpt>
      <trkpt lat="48.37878" lon="6.87248">
        <ele>300.7</ele>
        <time>2012-04-15T09:13:19Z</time>
      </trkpt>
      <trkpt lat="48.37873" lon="6.87252">
        <ele>300.5</ele>
        <time>2012-04-15T09:13:20Z</time>
      </trkpt>
      <trkpt lat="48.37868" lon="6.87256">
        <ele>300.9</ele>
        <time>2012-04-15T09:13:21Z</time>
      </trkpt>
      <trkpt lat="48.37863" lon="6.8726">
        <ele>301.2</ele>
        <time>2012-04-15T09:13:22Z</time>
      </trkpt>
      <trkpt lat="48.37858" lon="6.87265">
        <ele>301.4</ele>
        <time>2012-04-15T09:13:23Z</time>
      </trkpt>
      <trkpt lat="48.37853" lon="6.8727">
        <ele>301.5</ele>
        <time>2012-04-15T09:13:24Z</time>
      </trkpt>
      <trkpt lat="48.37848" lon="6.87275">
        <ele>301.6</ele>
        <time>2012-04-15T09:13:25Z</time>
      </trkpt>
      <trkpt lat="48.37843" lon="6.8728">
        <ele>301.6</ele>
        <time>2012-04-15T09:13:26Z</time>
      </trkpt>
      <trkpt lat="48.37838" lon="6.87285">
        <ele>301.8</ele>
        <time>2012-04-15T09:13:27Z</time>
      </trkpt>
      <trkpt lat="48.37833" lon="6.8729">
        <ele>301.9</ele>
        <time>2012-04-15T09:13:28Z</time>
      </trkpt>
      <trkpt lat="48.37828" lon="6.87296">
        <ele>302</ele>
        <time>2012-04-15T09:13:29Z</time>
      </trkpt>
      <trkpt lat="48.37823" lon="6.87301">
        <ele>302.1</ele>
        <time>2012-04-15T09:13:30Z</time>
      </trkpt>
      <trkpt lat="48.37817" lon="6.87306">
        <ele>302.1</ele>
        <time>2012-04-15T09:13:31Z</time>
      </trkpt>
      <trkpt lat="48.37812" lon="6.87311">
        <ele>302.2</ele>
        <time>2012-04-15T09:13:32Z</time>
      </trkpt>
      <trkpt lat="48.37807" lon="6.87317">
        <ele>302.2</ele>
        <time>2012-04-15T09:13:33Z</time>
      </trkpt>
      <trkpt lat="48.37802" lon="6.87322">
        <ele>302.2</ele>
        <time>2012-04-15T09:13:34Z</time>
      </trkpt>
      <trkpt lat="48.37797" lon="6.87328">
        <ele>302.1</ele>
        <time>2012-04-15T09:13:35Z</time>
      </trkpt>
      <trkpt lat="48.37791" lon="6.87333">
        <ele>302.1</ele>
        <time>2012-04-15T09:13:36Z</time>
      </trkpt>
      <trkpt lat="48.37786" lon="6.87338">
        <ele>302.2</ele>
        <time>2012-04-15T09:13:37Z</time>
      </trkpt>
      <trkpt lat="48.37781" lon="6.87343">
        <ele>302.3</ele>
        <time>2012-04-15T09:13:38Z</time>
      </trkpt>
      <trkpt lat="48.37775" lon="6.87349">
        <ele>302.4</ele>
        <time>2012-04-15T09:13:39Z</time>
      </trkpt>
      <trkpt lat="48.3777" lon="6.87354">
        <ele>302.5</ele>
        <time>2012-04-15T09:13:40Z</time>
      </trkpt>
      <trkpt lat="48.37765" lon="6.8736">
        <ele>302.6</ele>
        <time>2012-04-15T09:13:41Z</time>
      </trkpt>
      <trkpt lat="48.37759" lon="6.87365">
        <ele>302.7</ele>
        <time>2012-04-15T09:13:42Z</time>
      </trkpt>
      <trkpt lat="48.37754" lon="6.87369">
        <ele>302.4</ele>
        <time>2012-04-15T09:13:43Z</time>
      </trkpt>
      <trkpt lat="48.37748" lon="6.87375">
        <ele>302.2</ele>
        <time>2012-04-15T09:13:44Z</time>
      </trkpt>
      <trkpt lat="48.37742" lon="6.8738">
        <ele>302</ele>
        <time>2012-04-15T09:13:45Z</time>
      </trkpt>
      <trkpt lat="48.37737" lon="6.87384">
        <ele>302.1</ele>
        <time>2012-04-15T09:13:46Z</time>
      </trkpt>
      <trkpt lat="48.37731" lon="6.87389">
        <ele>302.1</ele>
        <time>2012-04-15T09:13:47Z</time>
      </trkpt>
      <trkpt lat="48.37725" lon="6.87394">
        <ele>302.1</ele>
        <time>2012-04-15T09:13:48Z</time>
      </trkpt>
      <trkpt lat="48.3772" lon="6.87401">
        <ele>302.1</ele>
        <time>2012-04-15T09:13:49Z</time>
      </trkpt>
      <trkpt lat="48.37714" lon="6.87406">
        <ele>302.1</ele>
        <time>2012-04-15T09:13:50Z</time>
      </trkpt>
      <trkpt lat="48.37708" lon="6.87411">
        <ele>302.2</ele>
        <time>2012-04-15T09:13:51Z</time>
      </trkpt>
      <trkpt lat="48.37702" lon="6.87415">
        <ele>302.3</ele>
        <time>2012-04-15T09:13:52Z</time>
      </trkpt>
      <trkpt lat="48.37696" lon="6.8742">
        <ele>302</ele>
        <time>2012-04-15T09:13:53Z</time>
      </trkpt>
      <trkpt lat="48.3769" lon="6.87425">
        <ele>301.8</ele>
        <time>2012-04-15T09:13:54Z</time>
      </trkpt>
      <trkpt lat="48.37685" lon="6.8743">
        <ele>301.7</ele>
        <time>2012-04-15T09:13:55Z</time>
      </trkpt>
      <trkpt lat="48.37679" lon="6.87435">
        <ele>301.7</ele>
        <time>2012-04-15T09:13:56Z</time>
      </trkpt>
      <trkpt lat="48.37673" lon="6.8744">
        <ele>301.6</ele>
        <time>2012-04-15T09:13:57Z</time>
      </trkpt>
      <trkpt lat="48.37667" lon="6.87445">
        <ele>301.6</ele>
        <time>2012-04-15T09:13:58Z</time>
      </trkpt>
      <trkpt lat="48.37661" lon="6.8745">
        <ele>301.8</ele>
        <time>2012-04-15T09:13:59Z</time>
      </trkpt>
      <trkpt lat="48.37655" lon="6.87455">
        <ele>301.9</ele>
        <time>2012-04-15T09:14:00Z</time>
      </trkpt>
      <trkpt lat="48.37649" lon="6.8746">
        <ele>302</ele>
        <time>2012-04-15T09:14:01Z</time>
      </trkpt>
      <trkpt lat="48.37643" lon="6.87464">
        <ele>302.1</ele>
        <time>2012-04-15T09:14:02Z</time>
      </trkpt>
      <trkpt lat="48.37638" lon="6.87469">
        <ele>302.1</ele>
        <time>2012-04-15T09:14:03Z</time>
      </trkpt>
      <trkpt lat="48.37632" lon="6.87474">
        <ele>302.2</ele>
        <time>2012-04-15T09:14:04Z</time>
      </trkpt>
      <trkpt lat="48.37626" lon="6.87479">
        <ele>302.2</ele>
        <time>2012-04-15T09:14:05Z</time>
      </trkpt>
      <trkpt lat="48.3762" lon="6.87484">
        <ele>302.8</ele>
        <time>2012-04-15T09:14:06Z</time>
      </trkpt>
      <trkpt lat="48.37615" lon="6.87489">
        <ele>303.1</ele>
        <time>2012-04-15T09:14:07Z</time>
      </trkpt>
      <trkpt lat="48.37609" lon="6.87493">
        <ele>303.4</ele>
        <time>2012-04-15T09:14:08Z</time>
      </trkpt>
      <trkpt lat="48.37603" lon="6.87498">
        <ele>303.1</ele>
        <time>2012-04-15T09:14:09Z</time>
      </trkpt>
      <trkpt lat="48.37597" lon="6.87503">
        <ele>302.9</ele>
        <time>2012-04-15T09:14:10Z</time>
      </trkpt>
      <trkpt lat="48.37591" lon="6.87507">
        <ele>302.7</ele>
        <time>2012-04-15T09:14:11Z</time>
      </trkpt>
      <trkpt lat="48.37586" lon="6.87512">
        <ele>302.7</ele>
        <time>2012-04-15T09:14:12Z</time>
      </trkpt>
      <trkpt lat="48.37579" lon="6.87516">
        <ele>302.6</ele>
        <time>2012-04-15T09:14:13Z</time>
      </trkpt>
      <trkpt lat="48.37573" lon="6.8752">
        <ele>302.6</ele>
        <time>2012-04-15T09:14:14Z</time>
      </trkpt>
      <trkpt lat="48.37567" lon="6.87524">
        <ele>302.6</ele>
        <time>2012-04-15T09:14:15Z</time>
      </trkpt>
      <trkpt lat="48.37561" lon="6.87528">
        <ele>302.5</ele>
        <time>2012-04-15T09:14:16Z</time>
      </trkpt>
      <trkpt lat="48.37555" lon="6.87532">
        <ele>302.5</ele>
        <time>2012-04-15T09:14:17Z</time>
      </trkpt>
      <trkpt lat="48.37549" lon="6.87535">
        <ele>302.5</ele>
        <time>2012-04-15T09:14:18Z</time>
      </trkpt>
      <trkpt lat="48.37543" lon="6.87539">
        <ele>302.5</ele>
        <time>2012-04-15T09:14:19Z</time>
      </trkpt>
      <trkpt lat="48.37536" lon="6.87543">
        <ele>302.6</ele>
        <time>2012-04-15T09:14:20Z</time>
      </trkpt>
      <trkpt lat="48.3753" lon="6.87546">
        <ele>302.6</ele>
        <time>2012-04-15T09:14:21Z</time>
      </trkpt>
      <trkpt lat="48.37524" lon="6.8755">
        <ele>303.1</ele>
        <time>2012-04-15T09:14:22Z</time>
      </trkpt>
      <trkpt lat="48.37518" lon="6.87553">
        <ele>303.5</ele>
        <time>2012-04-15T09:14:23Z</time>
      </trkpt>
      <trkpt lat="48.37511" lon="6.87557">
        <ele>303.7</ele>
        <time>2012-04-15T09:14:24Z</time>
      </trkpt>
      <trkpt lat="48.37505" lon="6.87561">
        <ele>303.6</ele>
        <time>2012-04-15T09:14:25Z</time>
      </trkpt>
      <trkpt lat="48.37499" lon="6.87564">
        <ele>303.5</ele>
        <time>2012-04-15T09:14:26Z</time>
      </trkpt>
      <trkpt lat="48.37492" lon="6.87567">
        <ele>303.5</ele>
        <time>2012-04-15T09:14:27Z</time>
      </trkpt>
      <trkpt lat="48.37486" lon="6.8757">
        <ele>303.6</ele>
        <time>2012-04-15T09:14:28Z</time>
      </trkpt>
      <trkpt lat="48.3748" lon="6.87573">
        <ele>303.7</ele>
        <time>2012-04-15T09:14:29Z</time>
      </trkpt>
      <trkpt lat="48.37474" lon="6.87577">
        <ele>303.8</ele>
        <time>2012-04-15T09:14:30Z</time>
      </trkpt>
      <trkpt lat="48.37467" lon="6.8758">
        <ele>303.7</ele>
        <time>2012-04-15T09:14:31Z</time>
      </trkpt>
      <trkpt lat="48.37461" lon="6.87583">
        <ele>303.7</ele>
        <time>2012-04-15T09:14:32Z</time>
      </trkpt>
      <trkpt lat="48.37454" lon="6.87585">
        <ele>303.7</ele>
        <time>2012-04-15T09:14:33Z</time>
      </trkpt>
      <trkpt lat="48.37448" lon="6.87588">
        <ele>303.7</ele>
        <time>2012-04-15T09:14:34Z</time>
      </trkpt>
      <trkpt lat="48.37441" lon="6.87591">
        <ele>303.7</ele>
        <time>2012-04-15T09:14:35Z</time>
      </trkpt>
      <trkpt lat="48.37435" lon="6.87593">
        <ele>303.8</ele>
        <time>2012-04-15T09:14:36Z</time>
      </trkpt>
      <trkpt lat="48.37429" lon="6.87596">
        <ele>303.9</ele>
        <time>2012-04-15T09:14:37Z</time>
      </trkpt>
      <trkpt lat="48.37422" lon="6.87599">
        <ele>304.1</ele>
        <time>2012-04-15T09:14:38Z</time>
      </trkpt>
      <trkpt lat="48.37416" lon="6.87601">
        <ele>304.2</ele>
        <time>2012-04-15T09:14:39Z</time>
      </trkpt>
      <trkpt lat="48.37409" lon="6.87604">
        <ele>304.2</ele>
        <time>2012-04-15T09:14:40Z</time>
      </trkpt>
      <trkpt lat="48.37403" lon="6.87606">
        <ele>304.4</ele>
        <time>2012-04-15T09:14:41Z</time>
      </trkpt>
      <trkpt lat="48.37396" lon="6.87608">
        <ele>304.5</ele>
        <time>2012-04-15T09:14:42Z</time>
      </trkpt>
      <trkpt lat="48.3739" lon="6.8761">
        <ele>304.6</ele>
        <time>2012-04-15T09:14:43Z</time>
      </trkpt>
      <trkpt lat="48.37383" lon="6.87612">
        <ele>304.5</ele>
        <time>2012-04-15T09:14:44Z</time>
      </trkpt>
      <trkpt lat="48.37377" lon="6.87614">
        <ele>304.4</ele>
        <time>2012-04-15T09:14:45Z</time>
      </trkpt>
      <trkpt lat="48.3737" lon="6.87617">
        <ele>304.4</ele>
        <time>2012-04-15T09:14:46Z</time>
      </trkpt>
      <trkpt lat="48.37364" lon="6.87618">
        <ele>304.4</ele>
        <time>2012-04-15T09:14:47Z</time>
      </trkpt>
      <trkpt lat="48.37357" lon="6.8762">
        <ele>304.4</ele>
        <time>2012-04-15T09:14:48Z</time>
      </trkpt>
      <trkpt lat="48.37351" lon="6.87622">
        <ele>304.4</ele>
        <time>2012-04-15T09:14:49Z</time>
      </trkpt>
      <trkpt lat="48.37344" lon="6.87624">
        <ele>304.4</ele>
        <time>2012-04-15T09:14:50Z</time>
      </trkpt>
      <trkpt lat="48.37337" lon="6.87625">
        <ele>304.4</ele>
        <time>2012-04-15T09:14:51Z</time>
      </trkpt>
      <trkpt lat="48.37331" lon="6.87626">
        <ele>304.4</ele>
        <time>2012-04-15T09:14:52Z</time>
      </trkpt>
      <trkpt lat="48.37324" lon="6.87627">
        <ele>304.5</ele>
        <time>2012-04-15T09:14:53Z</time>
      </trkpt>
      <trkpt lat="48.37317" lon="6.87628">
        <ele>304.6</ele>
        <time>2012-04-15T09:14:54Z</time>
      </trkpt>
      <trkpt lat="48.37311" lon="6.87629">
        <ele>304.7</ele>
        <time>2012-04-15T09:14:55Z</time>
      </trkpt>
      <trkpt lat="48.37304" lon="6.8763">
        <ele>304.7</ele>
        <time>2012-04-15T09:14:56Z</time>
      </trkpt>
      <trkpt lat="48.37297" lon="6.87632">
        <ele>304.9</ele>
        <time>2012-04-15T09:14:57Z</time>
      </trkpt>
      <trkpt lat="48.37291" lon="6.87633">
        <ele>305.1</ele>
        <time>2012-04-15T09:14:58Z</time>
      </trkpt>
      <trkpt lat="48.37284" lon="6.87634">
        <ele>305.2</ele>
        <time>2012-04-15T09:14:59Z</time>
      </trkpt>
      <trkpt lat="48.37278" lon="6.87635">
        <ele>305.4</ele>
        <time>2012-04-15T09:15:00Z</time>
      </trkpt>
      <trkpt lat="48.37272" lon="6.87635">
        <ele>305.6</ele>
        <time>2012-04-15T09:15:01Z</time>
      </trkpt>
      <trkpt lat="48.37265" lon="6.87636">
        <ele>305.7</ele>
        <time>2012-04-15T09:15:02Z</time>
      </trkpt>
      <trkpt lat="48.37259" lon="6.87637">
        <ele>305.4</ele>
        <time>2012-04-15T09:15:03Z</time>
      </trkpt>
      <trkpt lat="48.37253" lon="6.87637">
        <ele>305.1</ele>
        <time>2012-04-15T09:15:04Z</time>
      </trkpt>
      <trkpt lat="48.37247" lon="6.87638">
        <ele>304.9</ele>
        <time>2012-04-15T09:15:05Z</time>
      </trkpt>
      <trkpt lat="48.3724" lon="6.87639">
        <ele>305.1</ele>
        <time>2012-04-15T09:15:06Z</time>
      </trkpt>
      <trkpt lat="48.37235" lon="6.87639">
        <ele>305.3</ele>
        <time>2012-04-15T09:15:07Z</time>
      </trkpt>
      <trkpt lat="48.37229" lon="6.8764">
        <ele>305.4</ele>
        <time>2012-04-15T09:15:08Z</time>
      </trkpt>
      <trkpt lat="48.37224" lon="6.87642">
        <ele>305.6</ele>
        <time>2012-04-15T09:15:09Z</time>
      </trkpt>
      <trkpt lat="48.3722" lon="6.87645">
        <ele>305.7</ele>
        <time>2012-04-15T09:15:10Z</time>
      </trkpt>
      <trkpt lat="48.37214" lon="6.87655">
        <ele>305.8</ele>
        <time>2012-04-15T09:15:12Z</time>
      </trkpt>
      <trkpt lat="48.37213" lon="6.87662">
        <ele>305.7</ele>
        <time>2012-04-15T09:15:13Z</time>
      </trkpt>
      <trkpt lat="48.37214" lon="6.8767">
        <ele>305.6</ele>
        <time>2012-04-15T09:15:14Z</time>
      </trkpt>
      <trkpt lat="48.37214" lon="6.87678">
        <ele>305.6</ele>
        <time>2012-04-15T09:15:15Z</time>
      </trkpt>
      <trkpt lat="48.37214" lon="6.87685">
        <ele>305.8</ele>
        <time>2012-04-15T09:15:16Z</time>
      </trkpt>
      <trkpt lat="48.37214" lon="6.87693">
        <ele>306</ele>
        <time>2012-04-15T09:15:17Z</time>
      </trkpt>
      <trkpt lat="48.37214" lon="6.877">
        <ele>306.1</ele>
        <time>2012-04-15T09:15:18Z</time>
      </trkpt>
      <trkpt lat="48.37214" lon="6.87706">
        <ele>306.2</ele>
        <time>2012-04-15T09:15:19Z</time>
      </trkpt>
      <trkpt lat="48.37214" lon="6.87719">
        <ele>306.3</ele>
        <time>2012-04-15T09:15:21Z</time>
      </trkpt>
      <trkpt lat="48.37215" lon="6.87732">
        <ele>306.4</ele>
        <time>2012-04-15T09:15:26Z</time>
      </trkpt>
      <trkpt lat="48.37217" lon="6.87735">
        <ele>306.3</ele>
        <time>2012-04-15T09:15:27Z</time>
      </trkpt>
      <trkpt lat="48.37227" lon="6.8774">
        <ele>306.2</ele>
        <time>2012-04-15T09:15:30Z</time>
      </trkpt>
      <trkpt lat="48.37235" lon="6.8774">
        <ele>306.8</ele>
        <time>2012-04-15T09:15:32Z</time>
      </trkpt>
      <trkpt lat="48.3724" lon="6.87739">
        <ele>307.2</ele>
        <time>2012-04-15T09:15:33Z</time>
      </trkpt>
      <trkpt lat="48.37245" lon="6.87737">
        <ele>307.5</ele>
        <time>2012-04-15T09:15:34Z</time>
      </trkpt>
      <trkpt lat="48.37249" lon="6.87735">
        <ele>307.7</ele>
        <time>2012-04-15T09:15:35Z</time>
      </trkpt>
      <trkpt lat="48.37255" lon="6.87732">
        <ele>307.8</ele>
        <time>2012-04-15T09:15:36Z</time>
      </trkpt>
      <trkpt lat="48.3726" lon="6.8773">
        <ele>307.9</ele>
        <time>2012-04-15T09:15:37Z</time>
      </trkpt>
      <trkpt lat="48.37265" lon="6.87728">
        <ele>307.7</ele>
        <time>2012-04-15T09:15:38Z</time>
      </trkpt>
      <trkpt lat="48.3727" lon="6.87726">
        <ele>307.7</ele>
        <time>2012-04-15T09:15:39Z</time>
      </trkpt>
      <trkpt lat="48.37275" lon="6.87723">
        <ele>307.6</ele>
        <time>2012-04-15T09:15:40Z</time>
      </trkpt>
      <trkpt lat="48.37281" lon="6.87721">
        <ele>307.4</ele>
        <time>2012-04-15T09:15:41Z</time>
      </trkpt>
      <trkpt lat="48.37286" lon="6.8772">
        <ele>307.2</ele>
        <time>2012-04-15T09:15:42Z</time>
      </trkpt>
      <trkpt lat="48.37291" lon="6.87719">
        <ele>307.1</ele>
        <time>2012-04-15T09:15:43Z</time>
      </trkpt>
      <trkpt lat="48.37297" lon="6.87719">
        <ele>307</ele>
        <time>2012-04-15T09:15:44Z</time>
      </trkpt>
      <trkpt lat="48.37302" lon="6.87719">
        <ele>307.1</ele>
        <time>2012-04-15T09:15:45Z</time>
      </trkpt>
      <trkpt lat="48.37308" lon="6.87719">
        <ele>307.3</ele>
        <time>2012-04-15T09:15:46Z</time>
      </trkpt>
      <trkpt lat="48.37313" lon="6.8772">
        <ele>307.3</ele>
        <time>2012-04-15T09:15:47Z</time>
      </trkpt>
      <trkpt lat="48.37318" lon="6.87722">
        <ele>307.5</ele>
        <time>2012-04-15T09:15:48Z</time>
      </trkpt>
      <trkpt lat="48.37324" lon="6.87723">
        <ele>307.6</ele>
        <time>2012-04-15T09:15:49Z</time>
      </trkpt>
      <trkpt lat="48.37329" lon="6.87725">
        <ele>307.7</ele>
        <time>2012-04-15T09:15:50Z</time>
      </trkpt>
      <trkpt lat="48.37335" lon="6.87727">
        <ele>307.4</ele>
        <time>2012-04-15T09:15:51Z</time>
      </trkpt>
      <trkpt lat="48.3734" lon="6.8773">
        <ele>307.2</ele>
        <time>2012-04-15T09:15:52Z</time>
      </trkpt>
      <trkpt lat="48.37346" lon="6.87733">
        <ele>307.1</ele>
        <time>2012-04-15T09:15:53Z</time>
      </trkpt>
      <trkpt lat="48.37351" lon="6.87735">
        <ele>307.1</ele>
        <time>2012-04-15T09:15:54Z</time>
      </trkpt>
      <trkpt lat="48.37357" lon="6.87738">
        <ele>307.2</ele>
        <time>2012-04-15T09:15:55Z</time>
      </trkpt>
      <trkpt lat="48.37362" lon="6.87741">
        <ele>307.2</ele>
        <time>2012-04-15T09:15:56Z</time>
      </trkpt>
      <trkpt lat="48.37368" lon="6.87744">
        <ele>307.1</ele>
        <time>2012-04-15T09:15:57Z</time>
      </trkpt>
      <trkpt lat="48.37373" lon="6.87747">
        <ele>307</ele>
        <time>2012-04-15T09:15:58Z</time>
      </trkpt>
      <trkpt lat="48.37379" lon="6.8775">
        <ele>307</ele>
        <time>2012-04-15T09:15:59Z</time>
      </trkpt>
      <trkpt lat="48.37384" lon="6.87754">
        <ele>306.9</ele>
        <time>2012-04-15T09:16:00Z</time>
      </trkpt>
      <trkpt lat="48.3739" lon="6.87756">
        <ele>306.8</ele>
        <time>2012-04-15T09:16:01Z</time>
      </trkpt>
      <trkpt lat="48.37397" lon="6.87755">
        <ele>306.7</ele>
        <time>2012-04-15T09:16:03Z</time>
      </trkpt>
      <trkpt lat="48.37404" lon="6.87756">
        <ele>308</ele>
        <time>2012-04-15T09:16:05Z</time>
      </trkpt>
      <trkpt lat="48.37409" lon="6.8776">
        <ele>308.4</ele>
        <time>2012-04-15T09:16:06Z</time>
      </trkpt>
      <trkpt lat="48.37414" lon="6.87763">
        <ele>308.2</ele>
        <time>2012-04-15T09:16:07Z</time>
      </trkpt>
      <trkpt lat="48.3742" lon="6.87767">
        <ele>308</ele>
        <time>2012-04-15T09:16:08Z</time>
      </trkpt>
      <trkpt lat="48.37425" lon="6.87769">
        <ele>307.9</ele>
        <time>2012-04-15T09:16:09Z</time>
      </trkpt>
      <trkpt lat="48.37431" lon="6.87772">
        <ele>307.6</ele>
        <time>2012-04-15T09:16:10Z</time>
      </trkpt>
      <trkpt lat="48.37437" lon="6.87775">
        <ele>307.4</ele>
        <time>2012-04-15T09:16:11Z</time>
      </trkpt>
      <trkpt lat="48.37443" lon="6.87777">
        <ele>307.3</ele>
        <time>2012-04-15T09:16:12Z</time>
      </trkpt>
      <trkpt lat="48.37448" lon="6.87779">
        <ele>307.5</ele>
        <time>2012-04-15T09:16:13Z</time>
      </trkpt>
      <trkpt lat="48.37454" lon="6.87781">
        <ele>307.6</ele>
        <time>2012-04-15T09:16:14Z</time>
      </trkpt>
      <trkpt lat="48.3746" lon="6.87783">
        <ele>307.7</ele>
        <time>2012-04-15T09:16:15Z</time>
      </trkpt>
      <trkpt lat="48.37466" lon="6.87784">
        <ele>307.6</ele>
        <time>2012-04-15T09:16:16Z</time>
      </trkpt>
      <trkpt lat="48.37472" lon="6.87785">
        <ele>307.5</ele>
        <time>2012-04-15T09:16:17Z</time>
      </trkpt>
      <trkpt lat="48.37478" lon="6.87786">
        <ele>307.5</ele>
        <time>2012-04-15T09:16:18Z</time>
      </trkpt>
      <trkpt lat="48.37484" lon="6.87787">
        <ele>307.4</ele>
        <time>2012-04-15T09:16:19Z</time>
      </trkpt>
      <trkpt lat="48.3749" lon="6.87788">
        <ele>307</ele>
        <time>2012-04-15T09:16:20Z</time>
      </trkpt>
      <trkpt lat="48.37496" lon="6.87789">
        <ele>306.8</ele>
        <time>2012-04-15T09:16:21Z</time>
      </trkpt>
      <trkpt lat="48.37502" lon="6.8779">
        <ele>306.5</ele>
        <time>2012-04-15T09:16:22Z</time>
      </trkpt>
      <trkpt lat="48.37508" lon="6.87791">
        <ele>306.3</ele>
        <time>2012-04-15T09:16:23Z</time>
      </trkpt>
      <trkpt lat="48.37514" lon="6.87792">
        <ele>306.1</ele>
        <time>2012-04-15T09:16:24Z</time>
      </trkpt>
      <trkpt lat="48.3752" lon="6.87794">
        <ele>306</ele>
        <time>2012-04-15T09:16:25Z</time>
      </trkpt>
      <trkpt lat="48.37526" lon="6.87796">
        <ele>306.2</ele>
        <time>2012-04-15T09:16:26Z</time>
      </trkpt>
      <trkpt lat="48.37532" lon="6.87798">
        <ele>306.4</ele>
        <time>2012-04-15T09:16:27Z</time>
      </trkpt>
      <trkpt lat="48.37537" lon="6.87801">
        <ele>306.5</ele>
        <time>2012-04-15T09:16:28Z</time>
      </trkpt>
      <trkpt lat="48.37543" lon="6.87805">
        <ele>306.9</ele>
        <time>2012-04-15T09:16:29Z</time>
      </trkpt>
      <trkpt lat="48.37548" lon="6.87808">
        <ele>307.1</ele>
        <time>2012-04-15T09:16:30Z</time>
      </trkpt>
      <trkpt lat="48.37554" lon="6.87812">
        <ele>307.3</ele>
        <time>2012-04-15T09:16:31Z</time>
      </trkpt>
      <trkpt lat="48.37559" lon="6.87816">
        <ele>307</ele>
        <time>2012-04-15T09:16:32Z</time>
      </trkpt>
      <trkpt lat="48.37565" lon="6.87821">
        <ele>306.8</ele>
        <time>2012-04-15T09:16:33Z</time>
      </trkpt>
      <trkpt lat="48.37571" lon="6.87825">
        <ele>306.6</ele>
        <time>2012-04-15T09:16:34Z</time>
      </trkpt>
      <trkpt lat="48.37577" lon="6.87828">
        <ele>306.4</ele>
        <time>2012-04-15T09:16:35Z</time>
      </trkpt>
      <trkpt lat="48.37582" lon="6.87834">
        <ele>306.7</ele>
        <time>2012-04-15T09:16:36Z</time>
      </trkpt>
      <trkpt lat="48.37586" lon="6.8784">
        <ele>306.9</ele>
        <time>2012-04-15T09:16:37Z</time>
      </trkpt>
      <trkpt lat="48.37589" lon="6.87848">
        <ele>307.1</ele>
        <time>2012-04-15T09:16:38Z</time>
      </trkpt>
      <trkpt lat="48.37592" lon="6.87856">
        <ele>307.2</ele>
        <time>2012-04-15T09:16:39Z</time>
      </trkpt>
      <trkpt lat="48.37596" lon="6.87864">
        <ele>307.3</ele>
        <time>2012-04-15T09:16:40Z</time>
      </trkpt>
      <trkpt lat="48.37601" lon="6.87869">
        <ele>307.4</ele>
        <time>2012-04-15T09:16:41Z</time>
      </trkpt>
      <trkpt lat="48.37607" lon="6.87873">
        <ele>307.8</ele>
        <time>2012-04-15T09:16:42Z</time>
      </trkpt>
      <trkpt lat="48.37612" lon="6.87878">
        <ele>308.1</ele>
        <time>2012-04-15T09:16:43Z</time>
      </trkpt>
      <trkpt lat="48.37616" lon="6.87884">
        <ele>308.3</ele>
        <time>2012-04-15T09:16:44Z</time>
      </trkpt>
      <trkpt lat="48.37621" lon="6.87889">
        <ele>307.9</ele>
        <time>2012-04-15T09:16:45Z</time>
      </trkpt>
      <trkpt lat="48.37625" lon="6.87895">
        <ele>307.5</ele>
        <time>2012-04-15T09:16:46Z</time>
      </trkpt>
      <trkpt lat="48.3763" lon="6.87901">
        <ele>307.3</ele>
        <time>2012-04-15T09:16:47Z</time>
      </trkpt>
      <trkpt lat="48.37634" lon="6.87906">
        <ele>307.2</ele>
        <time>2012-04-15T09:16:48Z</time>
      </trkpt>
      <trkpt lat="48.37638" lon="6.87913">
        <ele>307.1</ele>
        <time>2012-04-15T09:16:49Z</time>
      </trkpt>
      <trkpt lat="48.37641" lon="6.87919">
        <ele>307</ele>
        <time>2012-04-15T09:16:50Z</time>
      </trkpt>
      <trkpt lat="48.37645" lon="6.87925">
        <ele>307</ele>
        <time>2012-04-15T09:16:51Z</time>
      </trkpt>
      <trkpt lat="48.37649" lon="6.87931">
        <ele>307.2</ele>
        <time>2012-04-15T09:16:52Z</time>
      </trkpt>
      <trkpt lat="48.37653" lon="6.87936">
        <ele>307.3</ele>
        <time>2012-04-15T09:16:53Z</time>
      </trkpt>
      <trkpt lat="48.37657" lon="6.87942">
        <ele>307.4</ele>
        <time>2012-04-15T09:16:54Z</time>
      </trkpt>
      <trkpt lat="48.37661" lon="6.87949">
        <ele>307.8</ele>
        <time>2012-04-15T09:16:55Z</time>
      </trkpt>
      <trkpt lat="48.37665" lon="6.87955">
        <ele>308.1</ele>
        <time>2012-04-15T09:16:56Z</time>
      </trkpt>
      <trkpt lat="48.37669" lon="6.87962">
        <ele>308.4</ele>
        <time>2012-04-15T09:16:57Z</time>
      </trkpt>
      <trkpt lat="48.37673" lon="6.87968">
        <ele>307.9</ele>
        <time>2012-04-15T09:16:58Z</time>
      </trkpt>
      <trkpt lat="48.37676" lon="6.87975">
        <ele>307.5</ele>
        <time>2012-04-15T09:16:59Z</time>
      </trkpt>
      <trkpt lat="48.3768" lon="6.87982">
        <ele>307.3</ele>
        <time>2012-04-15T09:17:00Z</time>
      </trkpt>
      <trkpt lat="48.37683" lon="6.87989">
        <ele>307.6</ele>
        <time>2012-04-15T09:17:01Z</time>
      </trkpt>
      <trkpt lat="48.37687" lon="6.87996">
        <ele>307.9</ele>
        <time>2012-04-15T09:17:02Z</time>
      </trkpt>
      <trkpt lat="48.3769" lon="6.88003">
        <ele>308</ele>
        <time>2012-04-15T09:17:03Z</time>
      </trkpt>
      <trkpt lat="48.37693" lon="6.8801">
        <ele>307.9</ele>
        <time>2012-04-15T09:17:04Z</time>
      </trkpt>
      <trkpt lat="48.37696" lon="6.88017">
        <ele>307.8</ele>
        <time>2012-04-15T09:17:05Z</time>
      </trkpt>
      <trkpt lat="48.37699" lon="6.88025">
        <ele>307.8</ele>
        <time>2012-04-15T09:17:06Z</time>
      </trkpt>
      <trkpt lat="48.37702" lon="6.88032">
        <ele>307.8</ele>
        <time>2012-04-15T09:17:07Z</time>
      </trkpt>
      <trkpt lat="48.37705" lon="6.88039">
        <ele>307.7</ele>
        <time>2012-04-15T09:17:08Z</time>
      </trkpt>
      <trkpt lat="48.37708" lon="6.88047">
        <ele>307.7</ele>
        <time>2012-04-15T09:17:09Z</time>
      </trkpt>
      <trkpt lat="48.3771" lon="6.88054">
        <ele>307.7</ele>
        <time>2012-04-15T09:17:10Z</time>
      </trkpt>
      <trkpt lat="48.37713" lon="6.88062">
        <ele>307.6</ele>
        <time>2012-04-15T09:17:11Z</time>
      </trkpt>
      <trkpt lat="48.37716" lon="6.8807">
        <ele>307.6</ele>
        <time>2012-04-15T09:17:12Z</time>
      </trkpt>
      <trkpt lat="48.37718" lon="6.88078">
        <ele>307.5</ele>
        <time>2012-04-15T09:17:13Z</time>
      </trkpt>
      <trkpt lat="48.37721" lon="6.88085">
        <ele>307.6</ele>
        <time>2012-04-15T09:17:14Z</time>
      </trkpt>
      <trkpt lat="48.37723" lon="6.88093">
        <ele>307.6</ele>
        <time>2012-04-15T09:17:15Z</time>
      </trkpt>
      <trkpt lat="48.37725" lon="6.88101">
        <ele>307.7</ele>
        <time>2012-04-15T09:17:16Z</time>
      </trkpt>
      <trkpt lat="48.37727" lon="6.88109">
        <ele>307.8</ele>
        <time>2012-04-15T09:17:17Z</time>
      </trkpt>
      <trkpt lat="48.37729" lon="6.88117">
        <ele>307.9</ele>
        <time>2012-04-15T09:17:18Z</time>
      </trkpt>
      <trkpt lat="48.37732" lon="6.88125">
        <ele>308</ele>
        <time>2012-04-15T09:17:19Z</time>
      </trkpt>
      <trkpt lat="48.37733" lon="6.88133">
        <ele>308.1</ele>
        <time>2012-04-15T09:17:20Z</time>
      </trkpt>
      <trkpt lat="48.37735" lon="6.88142">
        <ele>308.2</ele>
        <time>2012-04-15T09:17:21Z</time>
      </trkpt>
      <trkpt lat="48.37737" lon="6.8815">
        <ele>308.2</ele>
        <time>2012-04-15T09:17:22Z</time>
      </trkpt>
      <trkpt lat="48.37738" lon="6.88158">
        <ele>308.3</ele>
        <time>2012-04-15T09:17:23Z</time>
      </trkpt>
      <trkpt lat="48.3774" lon="6.88166">
        <ele>308.3</ele>
        <time>2012-04-15T09:17:24Z</time>
      </trkpt>
      <trkpt lat="48.37741" lon="6.88175">
        <ele>308.4</ele>
        <time>2012-04-15T09:17:25Z</time>
      </trkpt>
      <trkpt lat="48.37742" lon="6.88183">
        <ele>308.4</ele>
        <time>2012-04-15T09:17:26Z</time>
      </trkpt>
      <trkpt lat="48.37743" lon="6.88191">
        <ele>308.6</ele>
        <time>2012-04-15T09:17:27Z</time>
      </trkpt>
      <trkpt lat="48.37744" lon="6.882">
        <ele>308.7</ele>
        <time>2012-04-15T09:17:28Z</time>
      </trkpt>
      <trkpt lat="48.37746" lon="6.88208">
        <ele>308.8</ele>
        <time>2012-04-15T09:17:29Z</time>
      </trkpt>
      <trkpt lat="48.37747" lon="6.88217">
        <ele>308.9</ele>
        <time>2012-04-15T09:17:30Z</time>
      </trkpt>
      <trkpt lat="48.37747" lon="6.88226">
        <ele>309</ele>
        <time>2012-04-15T09:17:31Z</time>
      </trkpt>
      <trkpt lat="48.37748" lon="6.88234">
        <ele>309</ele>
        <time>2012-04-15T09:17:32Z</time>
      </trkpt>
      <trkpt lat="48.37749" lon="6.88243">
        <ele>308.7</ele>
        <time>2012-04-15T09:17:33Z</time>
      </trkpt>
      <trkpt lat="48.3775" lon="6.88251">
        <ele>308.4</ele>
        <time>2012-04-15T09:17:34Z</time>
      </trkpt>
      <trkpt lat="48.3775" lon="6.8826">
        <ele>308.2</ele>
        <time>2012-04-15T09:17:35Z</time>
      </trkpt>
      <trkpt lat="48.37751" lon="6.88269">
        <ele>307.7</ele>
        <time>2012-04-15T09:17:36Z</time>
      </trkpt>
      <trkpt lat="48.37751" lon="6.88278">
        <ele>307.3</ele>
        <time>2012-04-15T09:17:37Z</time>
      </trkpt>
      <trkpt lat="48.37752" lon="6.88286">
        <ele>307</ele>
        <time>2012-04-15T09:17:38Z</time>
      </trkpt>
      <trkpt lat="48.37752" lon="6.88295">
        <ele>307.5</ele>
        <time>2012-04-15T09:17:39Z</time>
      </trkpt>
      <trkpt lat="48.37753" lon="6.88304">
        <ele>307.9</ele>
        <time>2012-04-15T09:17:40Z</time>
      </trkpt>
      <trkpt lat="48.37753" lon="6.88313">
        <ele>308.2</ele>
        <time>2012-04-15T09:17:41Z</time>
      </trkpt>
      <trkpt lat="48.37754" lon="6.88321">
        <ele>308.5</ele>
        <time>2012-04-15T09:17:42Z</time>
      </trkpt>
      <trkpt lat="48.37754" lon="6.8833">
        <ele>308.6</ele>
        <time>2012-04-15T09:17:43Z</time>
      </trkpt>
      <trkpt lat="48.37755" lon="6.88339">
        <ele>308.6</ele>
        <time>2012-04-15T09:17:44Z</time>
      </trkpt>
      <trkpt lat="48.37755" lon="6.88348">
        <ele>308.7</ele>
        <time>2012-04-15T09:17:45Z</time>
      </trkpt>
      <trkpt lat="48.37755" lon="6.88356">
        <ele>308.9</ele>
        <time>2012-04-15T09:17:46Z</time>
      </trkpt>
      <trkpt lat="48.37756" lon="6.88365">
        <ele>309</ele>
        <time>2012-04-15T09:17:47Z</time>
      </trkpt>
      <trkpt lat="48.37756" lon="6.88374">
        <ele>309.1</ele>
        <time>2012-04-15T09:17:48Z</time>
      </trkpt>
      <trkpt lat="48.37757" lon="6.88382">
        <ele>309.1</ele>
        <time>2012-04-15T09:17:49Z</time>
      </trkpt>
      <trkpt lat="48.37757" lon="6.88391">
        <ele>309.1</ele>
        <time>2012-04-15T09:17:50Z</time>
      </trkpt>
      <trkpt lat="48.37758" lon="6.884">
        <ele>309.1</ele>
        <time>2012-04-15T09:17:51Z</time>
      </trkpt>
      <trkpt lat="48.37758" lon="6.88409">
        <ele>309</ele>
        <time>2012-04-15T09:17:52Z</time>
      </trkpt>
      <trkpt lat="48.37759" lon="6.88418">
        <ele>308.9</ele>
        <time>2012-04-15T09:17:53Z</time>
      </trkpt>
      <trkpt lat="48.37759" lon="6.88427">
        <ele>308.9</ele>
        <time>2012-04-15T09:17:54Z</time>
      </trkpt>
      <trkpt lat="48.37759" lon="6.88435">
        <ele>308.9</ele>
        <time>2012-04-15T09:17:55Z</time>
      </trkpt>
      <trkpt lat="48.3776" lon="6.88444">
        <ele>308.9</ele>
        <time>2012-04-15T09:17:56Z</time>
      </trkpt>
      <trkpt lat="48.3776" lon="6.88453">
        <ele>309</ele>
        <time>2012-04-15T09:17:57Z</time>
      </trkpt>
      <trkpt lat="48.3776" lon="6.88462">
        <ele>309</ele>
        <time>2012-04-15T09:17:58Z</time>
      </trkpt>
      <trkpt lat="48.37761" lon="6.88471">
        <ele>308.7</ele>
        <time>2012-04-15T09:17:59Z</time>
      </trkpt>
      <trkpt lat="48.37761" lon="6.8848">
        <ele>308.4</ele>
        <time>2012-04-15T09:18:00Z</time>
      </trkpt>
      <trkpt lat="48.37762" lon="6.88489">
        <ele>308.2</ele>
        <time>2012-04-15T09:18:01Z</time>
      </trkpt>
      <trkpt lat="48.37762" lon="6.88498">
        <ele>308.3</ele>
        <time>2012-04-15T09:18:02Z</time>
      </trkpt>
      <trkpt lat="48.37762" lon="6.88507">
        <ele>308.3</ele>
        <time>2012-04-15T09:18:03Z</time>
      </trkpt>
      <trkpt lat="48.37763" lon="6.88517">
        <ele>308.3</ele>
        <time>2012-04-15T09:18:04Z</time>
      </trkpt>
      <trkpt lat="48.37763" lon="6.88526">
        <ele>308.3</ele>
        <time>2012-04-15T09:18:05Z</time>
      </trkpt>
      <trkpt lat="48.37764" lon="6.88535">
        <ele>308.4</ele>
        <time>2012-04-15T09:18:06Z</time>
      </trkpt>
      <trkpt lat="48.37764" lon="6.88544">
        <ele>308.4</ele>
        <time>2012-04-15T09:18:07Z</time>
      </trkpt>
      <trkpt lat="48.37765" lon="6.88553">
        <ele>308.6</ele>
        <time>2012-04-15T09:18:08Z</time>
      </trkpt>
      <trkpt lat="48.37765" lon="6.88561">
        <ele>308.7</ele>
        <time>2012-04-15T09:18:09Z</time>
      </trkpt>
      <trkpt lat="48.37766" lon="6.8857">
        <ele>308.8</ele>
        <time>2012-04-15T09:18:10Z</time>
      </trkpt>
      <trkpt lat="48.37766" lon="6.88579">
        <ele>308.7</ele>
        <time>2012-04-15T09:18:11Z</time>
      </trkpt>
      <trkpt lat="48.37767" lon="6.88588">
        <ele>308.6</ele>
        <time>2012-04-15T09:18:12Z</time>
      </trkpt>
      <trkpt lat="48.37767" lon="6.88596">
        <ele>308.6</ele>
        <time>2012-04-15T09:18:13Z</time>
      </trkpt>
      <trkpt lat="48.37768" lon="6.88605">
        <ele>308.6</ele>
        <time>2012-04-15T09:18:14Z</time>
      </trkpt>
      <trkpt lat="48.37768" lon="6.88614">
        <ele>308.6</ele>
        <time>2012-04-15T09:18:15Z</time>
      </trkpt>
      <trkpt lat="48.37768" lon="6.88622">
        <ele>308.6</ele>
        <time>2012-04-15T09:18:16Z</time>
      </trkpt>
      <trkpt lat="48.37769" lon="6.88631">
        <ele>308.7</ele>
        <time>2012-04-15T09:18:17Z</time>
      </trkpt>
      <trkpt lat="48.37769" lon="6.8864">
        <ele>308.4</ele>
        <time>2012-04-15T09:18:18Z</time>
      </trkpt>
      <trkpt lat="48.3777" lon="6.88649">
        <ele>308.2</ele>
        <time>2012-04-15T09:18:19Z</time>
      </trkpt>
      <trkpt lat="48.3777" lon="6.88657">
        <ele>308.1</ele>
        <time>2012-04-15T09:18:20Z</time>
      </trkpt>
      <trkpt lat="48.37771" lon="6.88666">
        <ele>308.6</ele>
        <time>2012-04-15T09:18:21Z</time>
      </trkpt>
      <trkpt lat="48.37771" lon="6.88675">
        <ele>309</ele>
        <time>2012-04-15T09:18:22Z</time>
      </trkpt>
      <trkpt lat="48.37771" lon="6.88683">
        <ele>309.3</ele>
        <time>2012-04-15T09:18:23Z</time>
      </trkpt>
      <trkpt lat="48.37771" lon="6.88692">
        <ele>309.3</ele>
        <time>2012-04-15T09:18:24Z</time>
      </trkpt>
      <trkpt lat="48.37772" lon="6.887">
        <ele>309.4</ele>
        <time>2012-04-15T09:18:25Z</time>
      </trkpt>
      <trkpt lat="48.37773" lon="6.88709">
        <ele>309.4</ele>
        <time>2012-04-15T09:18:26Z</time>
      </trkpt>
      <trkpt lat="48.37773" lon="6.88718">
        <ele>309.1</ele>
        <time>2012-04-15T09:18:27Z</time>
      </trkpt>
      <trkpt lat="48.37773" lon="6.88726">
        <ele>308.8</ele>
        <time>2012-04-15T09:18:28Z</time>
      </trkpt>
      <trkpt lat="48.37774" lon="6.88735">
        <ele>308.6</ele>
        <time>2012-04-15T09:18:29Z</time>
      </trkpt>
      <trkpt lat="48.37774" lon="6.88744">
        <ele>308.9</ele>
        <time>2012-04-15T09:18:30Z</time>
      </trkpt>
      <trkpt lat="48.37775" lon="6.88753">
        <ele>309.1</ele>
        <time>2012-04-15T09:18:31Z</time>
      </trkpt>
      <trkpt lat="48.37775" lon="6.88761">
        <ele>309.2</ele>
        <time>2012-04-15T09:18:32Z</time>
      </trkpt>
      <trkpt lat="48.37776" lon="6.8877">
        <ele>309.3</ele>
        <time>2012-04-15T09:18:33Z</time>
      </trkpt>
      <trkpt lat="48.37776" lon="6.88779">
        <ele>309.5</ele>
        <time>2012-04-15T09:18:34Z</time>
      </trkpt>
      <trkpt lat="48.37777" lon="6.88788">
        <ele>309.7</ele>
        <time>2012-04-15T09:18:35Z</time>
      </trkpt>
      <trkpt lat="48.37777" lon="6.88797">
        <ele>309.8</ele>
        <time>2012-04-15T09:18:36Z</time>
      </trkpt>
      <trkpt lat="48.37777" lon="6.88805">
        <ele>309.6</ele>
        <time>2012-04-15T09:18:37Z</time>
      </trkpt>
      <trkpt lat="48.37778" lon="6.88813">
        <ele>309.5</ele>
        <time>2012-04-15T09:18:38Z</time>
      </trkpt>
      <trkpt lat="48.37779" lon="6.88821">
        <ele>309.4</ele>
        <time>2012-04-15T09:18:39Z</time>
      </trkpt>
      <trkpt lat="48.37779" lon="6.88829">
        <ele>309</ele>
        <time>2012-04-15T09:18:40Z</time>
      </trkpt>
      <trkpt lat="48.3778" lon="6.88838">
        <ele>308.8</ele>
        <time>2012-04-15T09:18:41Z</time>
      </trkpt>
      <trkpt lat="48.37781" lon="6.88846">
        <ele>308.6</ele>
        <time>2012-04-15T09:18:42Z</time>
      </trkpt>
      <trkpt lat="48.37781" lon="6.88854">
        <ele>308.4</ele>
        <time>2012-04-15T09:18:43Z</time>
      </trkpt>
      <trkpt lat="48.37781" lon="6.88863">
        <ele>308.2</ele>
        <time>2012-04-15T09:18:44Z</time>
      </trkpt>
      <trkpt lat="48.37781" lon="6.8887">
        <ele>308</ele>
        <time>2012-04-15T09:18:45Z</time>
      </trkpt>
      <trkpt lat="48.37782" lon="6.88884">
        <ele>307.4</ele>
        <time>2012-04-15T09:18:47Z</time>
      </trkpt>
      <trkpt lat="48.37782" lon="6.88897">
        <ele>307.1</ele>
        <time>2012-04-15T09:18:49Z</time>
      </trkpt>
      <trkpt lat="48.37783" lon="6.88905">
        <ele>307</ele>
        <time>2012-04-15T09:18:50Z</time>
      </trkpt>
      <trkpt lat="48.37783" lon="6.88912">
        <ele>306.8</ele>
        <time>2012-04-15T09:18:51Z</time>
      </trkpt>
      <trkpt lat="48.37784" lon="6.8892">
        <ele>306.8</ele>
        <time>2012-04-15T09:18:52Z</time>
      </trkpt>
      <trkpt lat="48.37785" lon="6.88928">
        <ele>307.1</ele>
        <time>2012-04-15T09:18:53Z</time>
      </trkpt>
      <trkpt lat="48.37786" lon="6.88936">
        <ele>307.4</ele>
        <time>2012-04-15T09:18:54Z</time>
      </trkpt>
      <trkpt lat="48.37787" lon="6.88944">
        <ele>307.5</ele>
        <time>2012-04-15T09:18:55Z</time>
      </trkpt>
      <trkpt lat="48.37787" lon="6.88952">
        <ele>307.5</ele>
        <time>2012-04-15T09:18:56Z</time>
      </trkpt>
      <trkpt lat="48.37788" lon="6.8896">
        <ele>307.5</ele>
        <time>2012-04-15T09:18:57Z</time>
      </trkpt>
      <trkpt lat="48.37788" lon="6.88969">
        <ele>307.4</ele>
        <time>2012-04-15T09:18:58Z</time>
      </trkpt>
      <trkpt lat="48.37788" lon="6.88978">
        <ele>307.4</ele>
        <time>2012-04-15T09:18:59Z</time>
      </trkpt>
      <trkpt lat="48.37789" lon="6.88987">
        <ele>307.4</ele>
        <time>2012-04-15T09:19:00Z</time>
      </trkpt>
      <trkpt lat="48.37789" lon="6.88996">
        <ele>307.4</ele>
        <time>2012-04-15T09:19:01Z</time>
      </trkpt>
      <trkpt lat="48.3779" lon="6.89005">
        <ele>307.7</ele>
        <time>2012-04-15T09:19:02Z</time>
      </trkpt>
      <trkpt lat="48.3779" lon="6.89015">
        <ele>307.9</ele>
        <time>2012-04-15T09:19:03Z</time>
      </trkpt>
      <trkpt lat="48.37791" lon="6.89024">
        <ele>308.1</ele>
        <time>2012-04-15T09:19:04Z</time>
      </trkpt>
      <trkpt lat="48.37791" lon="6.89033">
        <ele>308.2</ele>
        <time>2012-04-15T09:19:05Z</time>
      </trkpt>
      <trkpt lat="48.37792" lon="6.89043">
        <ele>308.2</ele>
        <time>2012-04-15T09:19:06Z</time>
      </trkpt>
      <trkpt lat="48.37792" lon="6.89052">
        <ele>308.2</ele>
        <time>2012-04-15T09:19:07Z</time>
      </trkpt>
      <trkpt lat="48.37793" lon="6.89061">
        <ele>308.2</ele>
        <time>2012-04-15T09:19:08Z</time>
      </trkpt>
      <trkpt lat="48.37793" lon="6.8907">
        <ele>308.4</ele>
        <time>2012-04-15T09:19:09Z</time>
      </trkpt>
      <trkpt lat="48.37793" lon="6.89079">
        <ele>308.6</ele>
        <time>2012-04-15T09:19:10Z</time>
      </trkpt>
      <trkpt lat="48.37794" lon="6.89088">
        <ele>308.8</ele>
        <time>2012-04-15T09:19:11Z</time>
      </trkpt>
      <trkpt lat="48.37794" lon="6.89097">
        <ele>308.6</ele>
        <time>2012-04-15T09:19:12Z</time>
      </trkpt>
      <trkpt lat="48.37795" lon="6.89106">
        <ele>308.4</ele>
        <time>2012-04-15T09:19:13Z</time>
      </trkpt>
      <trkpt lat="48.37796" lon="6.89115">
        <ele>308.3</ele>
        <time>2012-04-15T09:19:14Z</time>
      </trkpt>
      <trkpt lat="48.37796" lon="6.89124">
        <ele>308.3</ele>
        <time>2012-04-15T09:19:15Z</time>
      </trkpt>
      <trkpt lat="48.37797" lon="6.89132">
        <ele>308.3</ele>
        <time>2012-04-15T09:19:16Z</time>
      </trkpt>
      <trkpt lat="48.37797" lon="6.89141">
        <ele>308.4</ele>
        <time>2012-04-15T09:19:17Z</time>
      </trkpt>
      <trkpt lat="48.37797" lon="6.89149">
        <ele>307.9</ele>
        <time>2012-04-15T09:19:18Z</time>
      </trkpt>
      <trkpt lat="48.37797" lon="6.89158">
        <ele>307.6</ele>
        <time>2012-04-15T09:19:19Z</time>
      </trkpt>
      <trkpt lat="48.37798" lon="6.89166">
        <ele>307.4</ele>
        <time>2012-04-15T09:19:20Z</time>
      </trkpt>
      <trkpt lat="48.37798" lon="6.89175">
        <ele>307.2</ele>
        <time>2012-04-15T09:19:21Z</time>
      </trkpt>
      <trkpt lat="48.37799" lon="6.89184">
        <ele>307.7</ele>
        <time>2012-04-15T09:19:22Z</time>
      </trkpt>
      <trkpt lat="48.37799" lon="6.89192">
        <ele>308.2</ele>
        <time>2012-04-15T09:19:23Z</time>
      </trkpt>
      <trkpt lat="48.378" lon="6.89201">
        <ele>308.5</ele>
        <time>2012-04-15T09:19:24Z</time>
      </trkpt>
      <trkpt lat="48.378" lon="6.8921">
        <ele>308.6</ele>
        <time>2012-04-15T09:19:25Z</time>
      </trkpt>
      <trkpt lat="48.37801" lon="6.89219">
        <ele>308.8</ele>
        <time>2012-04-15T09:19:26Z</time>
      </trkpt>
      <trkpt lat="48.37801" lon="6.89227">
        <ele>308.9</ele>
        <time>2012-04-15T09:19:27Z</time>
      </trkpt>
      <trkpt lat="48.37802" lon="6.89236">
        <ele>308.6</ele>
        <time>2012-04-15T09:19:28Z</time>
      </trkpt>
      <trkpt lat="48.37802" lon="6.89245">
        <ele>308.4</ele>
        <time>2012-04-15T09:19:29Z</time>
      </trkpt>
      <trkpt lat="48.37802" lon="6.89254">
        <ele>308.3</ele>
        <time>2012-04-15T09:19:30Z</time>
      </trkpt>
      <trkpt lat="48.37803" lon="6.89262">
        <ele>308.1</ele>
        <time>2012-04-15T09:19:31Z</time>
      </trkpt>
      <trkpt lat="48.37803" lon="6.89271">
        <ele>308</ele>
        <time>2012-04-15T09:19:32Z</time>
      </trkpt>
      <trkpt lat="48.37804" lon="6.8928">
        <ele>307.8</ele>
        <time>2012-04-15T09:19:33Z</time>
      </trkpt>
      <trkpt lat="48.37804" lon="6.89288">
        <ele>308</ele>
        <time>2012-04-15T09:19:34Z</time>
      </trkpt>
      <trkpt lat="48.37804" lon="6.89297">
        <ele>308.2</ele>
        <time>2012-04-15T09:19:35Z</time>
      </trkpt>
      <trkpt lat="48.37805" lon="6.89306">
        <ele>308.3</ele>
        <time>2012-04-15T09:19:36Z</time>
      </trkpt>
      <trkpt lat="48.37805" lon="6.89315">
        <ele>308.3</ele>
        <time>2012-04-15T09:19:37Z</time>
      </trkpt>
      <trkpt lat="48.37805" lon="6.89323">
        <ele>308.3</ele>
        <time>2012-04-15T09:19:38Z</time>
      </trkpt>
      <trkpt lat="48.37806" lon="6.89332">
        <ele>308.4</ele>
        <time>2012-04-15T09:19:39Z</time>
      </trkpt>
      <trkpt lat="48.37806" lon="6.8934">
        <ele>308.4</ele>
        <time>2012-04-15T09:19:40Z</time>
      </trkpt>
      <trkpt lat="48.37806" lon="6.89349">
        <ele>308.3</ele>
        <time>2012-04-15T09:19:41Z</time>
      </trkpt>
      <trkpt lat="48.37806" lon="6.89358">
        <ele>308.2</ele>
        <time>2012-04-15T09:19:42Z</time>
      </trkpt>
      <trkpt lat="48.37807" lon="6.89366">
        <ele>308.1</ele>
        <time>2012-04-15T09:19:43Z</time>
      </trkpt>
      <trkpt lat="48.37807" lon="6.89375">
        <ele>308.2</ele>
        <time>2012-04-15T09:19:44Z</time>
      </trkpt>
      <trkpt lat="48.37807" lon="6.89383">
        <ele>308.3</ele>
        <time>2012-04-15T09:19:45Z</time>
      </trkpt>
      <trkpt lat="48.37807" lon="6.89391">
        <ele>308.4</ele>
        <time>2012-04-15T09:19:46Z</time>
      </trkpt>
      <trkpt lat="48.37807" lon="6.894">
        <ele>308.4</ele>
        <time>2012-04-15T09:19:47Z</time>
      </trkpt>
      <trkpt lat="48.37808" lon="6.89408">
        <ele>308.5</ele>
        <time>2012-04-15T09:19:48Z</time>
      </trkpt>
      <trkpt lat="48.37808" lon="6.89417">
        <ele>308.5</ele>
        <time>2012-04-15T09:19:49Z</time>
      </trkpt>
      <trkpt lat="48.37809" lon="6.89425">
        <ele>308.4</ele>
        <time>2012-04-15T09:19:50Z</time>
      </trkpt>
      <trkpt lat="48.37809" lon="6.89434">
        <ele>308.3</ele>
        <time>2012-04-15T09:19:51Z</time>
      </trkpt>
      <trkpt lat="48.37809" lon="6.89442">
        <ele>308.3</ele>
        <time>2012-04-15T09:19:52Z</time>
      </trkpt>
      <trkpt lat="48.3781" lon="6.89451">
        <ele>308.3</ele>
        <time>2012-04-15T09:19:53Z</time>
      </trkpt>
      <trkpt lat="48.3781" lon="6.8946">
        <ele>308.3</ele>
        <time>2012-04-15T09:19:54Z</time>
      </trkpt>
      <trkpt lat="48.37811" lon="6.89469">
        <ele>308.2</ele>
        <time>2012-04-15T09:19:55Z</time>
      </trkpt>
      <trkpt lat="48.37811" lon="6.89478">
        <ele>308.2</ele>
        <time>2012-04-15T09:19:56Z</time>
      </trkpt>
      <trkpt lat="48.37811" lon="6.89487">
        <ele>308.5</ele>
        <time>2012-04-15T09:19:57Z</time>
      </trkpt>
      <trkpt lat="48.37812" lon="6.89495">
        <ele>308.7</ele>
        <time>2012-04-15T09:19:58Z</time>
      </trkpt>
      <trkpt lat="48.37812" lon="6.89504">
        <ele>308.8</ele>
        <time>2012-04-15T09:19:59Z</time>
      </trkpt>
      <trkpt lat="48.37813" lon="6.89513">
        <ele>308.9</ele>
        <time>2012-04-15T09:20:00Z</time>
      </trkpt>
      <trkpt lat="48.37813" lon="6.89522">
        <ele>309</ele>
        <time>2012-04-15T09:20:01Z</time>
      </trkpt>
      <trkpt lat="48.37814" lon="6.89531">
        <ele>309.1</ele>
        <time>2012-04-15T09:20:02Z</time>
      </trkpt>
      <trkpt lat="48.37814" lon="6.8954">
        <ele>309.2</ele>
        <time>2012-04-15T09:20:03Z</time>
      </trkpt>
      <trkpt lat="48.37814" lon="6.89549">
        <ele>309.3</ele>
        <time>2012-04-15T09:20:04Z</time>
      </trkpt>
      <trkpt lat="48.37815" lon="6.89558">
        <ele>309.4</ele>
        <time>2012-04-15T09:20:05Z</time>
      </trkpt>
      <trkpt lat="48.37815" lon="6.89566">
        <ele>309.5</ele>
        <time>2012-04-15T09:20:06Z</time>
      </trkpt>
      <trkpt lat="48.37816" lon="6.89575">
        <ele>309.6</ele>
        <time>2012-04-15T09:20:07Z</time>
      </trkpt>
      <trkpt lat="48.37816" lon="6.89584">
        <ele>309.7</ele>
        <time>2012-04-15T09:20:08Z</time>
      </trkpt>
      <trkpt lat="48.37816" lon="6.89592">
        <ele>309.9</ele>
        <time>2012-04-15T09:20:09Z</time>
      </trkpt>
      <trkpt lat="48.37817" lon="6.89601">
        <ele>310</ele>
        <time>2012-04-15T09:20:10Z</time>
      </trkpt>
      <trkpt lat="48.37817" lon="6.8961">
        <ele>310.2</ele>
        <time>2012-04-15T09:20:11Z</time>
      </trkpt>
      <trkpt lat="48.37818" lon="6.89619">
        <ele>310.2</ele>
        <time>2012-04-15T09:20:12Z</time>
      </trkpt>
      <trkpt lat="48.37818" lon="6.89628">
        <ele>310.2</ele>
        <time>2012-04-15T09:20:13Z</time>
      </trkpt>
      <trkpt lat="48.37819" lon="6.89636">
        <ele>310.1</ele>
        <time>2012-04-15T09:20:14Z</time>
      </trkpt>
      <trkpt lat="48.37819" lon="6.89645">
        <ele>310</ele>
        <time>2012-04-15T09:20:15Z</time>
      </trkpt>
      <trkpt lat="48.3782" lon="6.89654">
        <ele>310.2</ele>
        <time>2012-04-15T09:20:16Z</time>
      </trkpt>
      <trkpt lat="48.3782" lon="6.89662">
        <ele>310.3</ele>
        <time>2012-04-15T09:20:17Z</time>
      </trkpt>
      <trkpt lat="48.3782" lon="6.89671">
        <ele>310.4</ele>
        <time>2012-04-15T09:20:18Z</time>
      </trkpt>
      <trkpt lat="48.37821" lon="6.89679">
        <ele>310.5</ele>
        <time>2012-04-15T09:20:19Z</time>
      </trkpt>
      <trkpt lat="48.37821" lon="6.89688">
        <ele>310.6</ele>
        <time>2012-04-15T09:20:20Z</time>
      </trkpt>
      <trkpt lat="48.37821" lon="6.89696">
        <ele>310.7</ele>
        <time>2012-04-15T09:20:21Z</time>
      </trkpt>
      <trkpt lat="48.37822" lon="6.89705">
        <ele>311</ele>
        <time>2012-04-15T09:20:22Z</time>
      </trkpt>
      <trkpt lat="48.37822" lon="6.89713">
        <ele>311.2</ele>
        <time>2012-04-15T09:20:23Z</time>
      </trkpt>
      <trkpt lat="48.37822" lon="6.89722">
        <ele>311.4</ele>
        <time>2012-04-15T09:20:24Z</time>
      </trkpt>
      <trkpt lat="48.37823" lon="6.89731">
        <ele>311.3</ele>
        <time>2012-04-15T09:20:25Z</time>
      </trkpt>
      <trkpt lat="48.37823" lon="6.8974">
        <ele>311.2</ele>
        <time>2012-04-15T09:20:26Z</time>
      </trkpt>
      <trkpt lat="48.37823" lon="6.89749">
        <ele>311.2</ele>
        <time>2012-04-15T09:20:27Z</time>
      </trkpt>
      <trkpt lat="48.37823" lon="6.89758">
        <ele>310.5</ele>
        <time>2012-04-15T09:20:28Z</time>
      </trkpt>
      <trkpt lat="48.37823" lon="6.89767">
        <ele>310.1</ele>
        <time>2012-04-15T09:20:29Z</time>
      </trkpt>
      <trkpt lat="48.37823" lon="6.89776">
        <ele>309.7</ele>
        <time>2012-04-15T09:20:30Z</time>
      </trkpt>
      <trkpt lat="48.37823" lon="6.89786">
        <ele>309.5</ele>
        <time>2012-04-15T09:20:31Z</time>
      </trkpt>
      <trkpt lat="48.37822" lon="6.89795">
        <ele>309.9</ele>
        <time>2012-04-15T09:20:32Z</time>
      </trkpt>
      <trkpt lat="48.37822" lon="6.89804">
        <ele>310.2</ele>
        <time>2012-04-15T09:20:33Z</time>
      </trkpt>
      <trkpt lat="48.37821" lon="6.89813">
        <ele>310.4</ele>
        <time>2012-04-15T09:20:34Z</time>
      </trkpt>
      <trkpt lat="48.3782" lon="6.89822">
        <ele>310.6</ele>
        <time>2012-04-15T09:20:35Z</time>
      </trkpt>
      <trkpt lat="48.37818" lon="6.89831">
        <ele>310.8</ele>
        <time>2012-04-15T09:20:36Z</time>
      </trkpt>
      <trkpt lat="48.37817" lon="6.89839">
        <ele>310.9</ele>
        <time>2012-04-15T09:20:37Z</time>
      </trkpt>
      <trkpt lat="48.37816" lon="6.89848">
        <ele>311.2</ele>
        <time>2012-04-15T09:20:38Z</time>
      </trkpt>
      <trkpt lat="48.37814" lon="6.89857">
        <ele>311.5</ele>
        <time>2012-04-15T09:20:39Z</time>
      </trkpt>
      <trkpt lat="48.37813" lon="6.89865">
        <ele>311.7</ele>
        <time>2012-04-15T09:20:40Z</time>
      </trkpt>
      <trkpt lat="48.37811" lon="6.89874">
        <ele>311.6</ele>
        <time>2012-04-15T09:20:41Z</time>
      </trkpt>
      <trkpt lat="48.37809" lon="6.89882">
        <ele>311.6</ele>
        <time>2012-04-15T09:20:42Z</time>
      </trkpt>
      <trkpt lat="48.37807" lon="6.89892">
        <ele>311.6</ele>
        <time>2012-04-15T09:20:43Z</time>
      </trkpt>
      <trkpt lat="48.37806" lon="6.89901">
        <ele>311.3</ele>
        <time>2012-04-15T09:20:44Z</time>
      </trkpt>
      <trkpt lat="48.37804" lon="6.89909">
        <ele>311.1</ele>
        <time>2012-04-15T09:20:45Z</time>
      </trkpt>
      <trkpt lat="48.37803" lon="6.89918">
        <ele>310.9</ele>
        <time>2012-04-15T09:20:46Z</time>
      </trkpt>
      <trkpt lat="48.37801" lon="6.89927">
        <ele>310.8</ele>
        <time>2012-04-15T09:20:47Z</time>
      </trkpt>
      <trkpt lat="48.37799" lon="6.89936">
        <ele>310.9</ele>
        <time>2012-04-15T09:20:48Z</time>
      </trkpt>
      <trkpt lat="48.37798" lon="6.89945">
        <ele>310.9</ele>
        <time>2012-04-15T09:20:49Z</time>
      </trkpt>
      <trkpt lat="48.37796" lon="6.89954">
        <ele>310.9</ele>
        <time>2012-04-15T09:20:50Z</time>
      </trkpt>
      <trkpt lat="48.37795" lon="6.89963">
        <ele>311.3</ele>
        <time>2012-04-15T09:20:51Z</time>
      </trkpt>
      <trkpt lat="48.37793" lon="6.89972">
        <ele>311.5</ele>
        <time>2012-04-15T09:20:52Z</time>
      </trkpt>
      <trkpt lat="48.37792" lon="6.89982">
        <ele>311.7</ele>
        <time>2012-04-15T09:20:53Z</time>
      </trkpt>
      <trkpt lat="48.3779" lon="6.8999">
        <ele>311.7</ele>
        <time>2012-04-15T09:20:54Z</time>
      </trkpt>
      <trkpt lat="48.37788" lon="6.89999">
        <ele>311.7</ele>
        <time>2012-04-15T09:20:55Z</time>
      </trkpt>
      <trkpt lat="48.37787" lon="6.90008">
        <ele>311.7</ele>
        <time>2012-04-15T09:20:56Z</time>
      </trkpt>
      <trkpt lat="48.37785" lon="6.90016">
        <ele>311.6</ele>
        <time>2012-04-15T09:20:57Z</time>
      </trkpt>
      <trkpt lat="48.37783" lon="6.90023">
        <ele>311.5</ele>
        <time>2012-04-15T09:20:58Z</time>
      </trkpt>
      <trkpt lat="48.37778" lon="6.90033">
        <ele>311.7</ele>
        <time>2012-04-15T09:21:00Z</time>
      </trkpt>
      <trkpt lat="48.37771" lon="6.90031">
        <ele>311.9</ele>
        <time>2012-04-15T09:21:04Z</time>
      </trkpt>
      <trkpt lat="48.37767" lon="6.9002">
        <ele>311.4</ele>
        <time>2012-04-15T09:21:07Z</time>
      </trkpt>
      <trkpt lat="48.37758" lon="6.9002">
        <ele>311</ele>
        <time>2012-04-15T09:22:36Z</time>
      </trkpt>
      <trkpt lat="48.37758" lon="6.90021">
        <ele>311</ele>
        <time>2012-04-15T09:22:37Z</time>
      </trkpt>
      <trkpt lat="48.37759" lon="6.90034">
        <ele>313.5</ele>
        <time>2012-04-15T09:25:23Z</time>
      </trkpt>
      <trkpt lat="48.37752" lon="6.90056">
        <ele>313.1</ele>
        <time>2012-04-15T09:25:37Z</time>
      </trkpt>
      <trkpt lat="48.37749" lon="6.90067">
        <ele>314.2</ele>
        <time>2012-04-15T09:25:45Z</time>
      </trkpt>
      <trkpt lat="48.3775" lon="6.90081">
        <ele>313.8</ele>
        <time>2012-04-15T09:26:34Z</time>
      </trkpt>
      <trkpt lat="48.3775" lon="6.90081">
        <ele>313.8</ele>
        <time>2012-04-15T09:26:35Z</time>
      </trkpt>
      <trkpt lat="48.37749" lon="6.90088">
        <ele>315.6</ele>
        <time>2012-04-15T09:28:42Z</time>
      </trkpt>
    </trkseg>
  </trk>
</gpx>